<?xml version='1.0' encoding='UTF-8'?><gpx version="1.1" creator="JPX - https://github.com/jenetics/jpx" xmlns="http://www.topografix.com/GPX/1/1"><trk><trkseg><trkpt lat="42.8907189" lon="11.5280883"><ele>576.0</ele><time>2026-05-01T16:45:10.874Z</time></trkpt><trkpt lat="42.890782" lon="11.5280682"><ele>576.0</ele><time>2026-05-01T16:45:28.893Z</time></trkpt><trkpt lat="42.8908535" lon="11.5280028"><ele>576.0</ele><time>2026-05-01T16:45:31.889Z</time></trkpt><trkpt lat="42.8909121" lon="11.5279605"><ele>576.0</ele><time>2026-05-01T16:45:34.882Z</time></trkpt><trkpt lat="42.8909759" lon="11.5279009"><ele>576.0</ele><time>2026-05-01T16:45:58.881Z</time></trkpt><trkpt lat="42.8910601" lon="11.5278179"><ele>576.0</ele><time>2026-05-01T16:46:00.872Z</time></trkpt><trkpt lat="42.8911097" lon="11.5277485"><ele>574.6666666666666</ele><time>2026-05-01T16:46:01.868Z</time></trkpt><trkpt lat="42.8911654" lon="11.5276674"><ele>573.3333333333334</ele><time>2026-05-01T16:46:02.882Z</time></trkpt><trkpt lat="42.8912287" lon="11.5275868"><ele>572.0</ele><time>2026-05-01T16:46:03.882Z</time></trkpt><trkpt lat="42.8913004" lon="11.5275144"><ele>570.6666666666667</ele><time>2026-05-01T16:46:04.879Z</time></trkpt><trkpt lat="42.8913768" lon="11.5274555"><ele>569.3333333333334</ele><time>2026-05-01T16:46:05.87Z</time></trkpt><trkpt lat="42.8914593" lon="11.5274133"><ele>568.0</ele><time>2026-05-01T16:46:06.884Z</time></trkpt><trkpt lat="42.8915464" lon="11.5273861"><ele>568.0</ele><time>2026-05-01T16:46:07.893Z</time></trkpt><trkpt lat="42.8916352" lon="11.5273725"><ele>568.0</ele><time>2026-05-01T16:46:08.866Z</time></trkpt><trkpt lat="42.8917241" lon="11.5273748"><ele>568.0</ele><time>2026-05-01T16:46:09.887Z</time></trkpt><trkpt lat="42.8918129" lon="11.5273951"><ele>568.0</ele><time>2026-05-01T16:46:10.867Z</time></trkpt><trkpt lat="42.8919023" lon="11.5274329"><ele>568.0</ele><time>2026-05-01T16:46:11.872Z</time></trkpt><trkpt lat="42.8919915" lon="11.5274866"><ele>567.8</ele><time>2026-05-01T16:46:12.872Z</time></trkpt><trkpt lat="42.8920788" lon="11.5275513"><ele>567.5999999999999</ele><time>2026-05-01T16:46:13.868Z</time></trkpt><trkpt lat="42.8921659" lon="11.5276215"><ele>567.4000000000001</ele><time>2026-05-01T16:46:14.876Z</time></trkpt><trkpt lat="42.8922542" lon="11.5276943"><ele>567.2</ele><time>2026-05-01T16:46:15.876Z</time></trkpt><trkpt lat="42.8923425" lon="11.5277694"><ele>567.0</ele><time>2026-05-01T16:46:16.878Z</time></trkpt><trkpt lat="42.8924327" lon="11.5278433"><ele>566.2</ele><time>2026-05-01T16:46:17.877Z</time></trkpt><trkpt lat="42.8925266" lon="11.5279082"><ele>565.4000000000001</ele><time>2026-05-01T16:46:18.878Z</time></trkpt><trkpt lat="42.8926255" lon="11.5279536"><ele>564.5999999999999</ele><time>2026-05-01T16:46:19.889Z</time></trkpt><trkpt lat="42.8927247" lon="11.5279799"><ele>563.8</ele><time>2026-05-01T16:46:20.883Z</time></trkpt><trkpt lat="42.8928227" lon="11.5279878"><ele>563.0</ele><time>2026-05-01T16:46:21.874Z</time></trkpt><trkpt lat="42.8929155" lon="11.5279755"><ele>563.0</ele><time>2026-05-01T16:46:22.883Z</time></trkpt><trkpt lat="42.8930085" lon="11.5279474"><ele>563.0</ele><time>2026-05-01T16:46:23.873Z</time></trkpt><trkpt lat="42.8930966" lon="11.5279011"><ele>563.0</ele><time>2026-05-01T16:46:24.871Z</time></trkpt><trkpt lat="42.8931792" lon="11.5278355"><ele>563.0</ele><time>2026-05-01T16:46:25.871Z</time></trkpt><trkpt lat="42.8932538" lon="11.5277529"><ele>563.0</ele><time>2026-05-01T16:46:26.882Z</time></trkpt><trkpt lat="42.89332" lon="11.5276577"><ele>562.4</ele><time>2026-05-01T16:46:27.882Z</time></trkpt><trkpt lat="42.8933765" lon="11.5275506"><ele>561.8</ele><time>2026-05-01T16:46:28.875Z</time></trkpt><trkpt lat="42.8934213" lon="11.5274318"><ele>561.2</ele><time>2026-05-01T16:46:29.88Z</time></trkpt><trkpt lat="42.8934539" lon="11.5273043"><ele>560.6</ele><time>2026-05-01T16:46:30.872Z</time></trkpt><trkpt lat="42.8934733" lon="11.5271701"><ele>560.0</ele><time>2026-05-01T16:46:31.872Z</time></trkpt><trkpt lat="42.8934793" lon="11.5270307"><ele>560.0</ele><time>2026-05-01T16:46:32.871Z</time></trkpt><trkpt lat="42.8934738" lon="11.5268908"><ele>560.0</ele><time>2026-05-01T16:46:33.887Z</time></trkpt><trkpt lat="42.8934539" lon="11.5267563"><ele>560.0</ele><time>2026-05-01T16:46:34.881Z</time></trkpt><trkpt lat="42.893418" lon="11.5266305"><ele>560.0</ele><time>2026-05-01T16:46:35.89Z</time></trkpt><trkpt lat="42.8933669" lon="11.5265144"><ele>560.0</ele><time>2026-05-01T16:46:36.886Z</time></trkpt><trkpt lat="42.893301" lon="11.5264083"><ele>560.2</ele><time>2026-05-01T16:46:37.883Z</time></trkpt><trkpt lat="42.8932201" lon="11.5263148"><ele>560.4</ele><time>2026-05-01T16:46:38.883Z</time></trkpt><trkpt lat="42.8931263" lon="11.5262379"><ele>560.6</ele><time>2026-05-01T16:46:39.873Z</time></trkpt><trkpt lat="42.8930239" lon="11.5261811"><ele>560.8</ele><time>2026-05-01T16:46:40.887Z</time></trkpt><trkpt lat="42.8929166" lon="11.5261476"><ele>561.0</ele><time>2026-05-01T16:46:41.893Z</time></trkpt><trkpt lat="42.8928045" lon="11.5261402"><ele>561.0</ele><time>2026-05-01T16:46:42.879Z</time></trkpt><trkpt lat="42.8926891" lon="11.5261594"><ele>561.0</ele><time>2026-05-01T16:46:43.874Z</time></trkpt><trkpt lat="42.8925732" lon="11.5262045"><ele>561.0</ele><time>2026-05-01T16:46:44.881Z</time></trkpt><trkpt lat="42.8924596" lon="11.5262716"><ele>561.0</ele><time>2026-05-01T16:46:45.872Z</time></trkpt><trkpt lat="42.8923506" lon="11.5263525"><ele>561.25</ele><time>2026-05-01T16:46:46.86Z</time></trkpt><trkpt lat="42.8922462" lon="11.526431"><ele>561.5</ele><time>2026-05-01T16:46:47.88Z</time></trkpt><trkpt lat="42.8921422" lon="11.5264951"><ele>561.75</ele><time>2026-05-01T16:46:48.877Z</time></trkpt><trkpt lat="42.8920333" lon="11.5265377"><ele>562.0</ele><time>2026-05-01T16:46:49.88Z</time></trkpt><trkpt lat="42.8919192" lon="11.5265547"><ele>562.0</ele><time>2026-05-01T16:46:50.892Z</time></trkpt><trkpt lat="42.8918021" lon="11.5265512"><ele>562.0</ele><time>2026-05-01T16:46:51.88Z</time></trkpt><trkpt lat="42.8916832" lon="11.526535"><ele>562.0</ele><time>2026-05-01T16:46:52.894Z</time></trkpt><trkpt lat="42.8915635" lon="11.526515"><ele>562.0</ele><time>2026-05-01T16:46:53.888Z</time></trkpt><trkpt lat="42.8914446" lon="11.5264997"><ele>562.0</ele><time>2026-05-01T16:46:54.891Z</time></trkpt><trkpt lat="42.8913271" lon="11.5264897"><ele>562.0</ele><time>2026-05-01T16:46:55.877Z</time></trkpt><trkpt lat="42.8912108" lon="11.5264931"><ele>562.0</ele><time>2026-05-01T16:46:56.872Z</time></trkpt><trkpt lat="42.8910964" lon="11.5265147"><ele>562.0</ele><time>2026-05-01T16:46:57.87Z</time></trkpt><trkpt lat="42.8909824" lon="11.5265604"><ele>560.5</ele><time>2026-05-01T16:46:58.869Z</time></trkpt><trkpt lat="42.8908717" lon="11.5266271"><ele>559.0</ele><time>2026-05-01T16:46:59.875Z</time></trkpt><trkpt lat="42.8907624" lon="11.5267109"><ele>557.5</ele><time>2026-05-01T16:47:00.875Z</time></trkpt><trkpt lat="42.8906544" lon="11.5268043"><ele>556.0</ele><time>2026-05-01T16:47:01.881Z</time></trkpt><trkpt lat="42.8905479" lon="11.5269023"><ele>556.0</ele><time>2026-05-01T16:47:02.876Z</time></trkpt><trkpt lat="42.8904399" lon="11.527"><ele>556.0</ele><time>2026-05-01T16:47:03.874Z</time></trkpt><trkpt lat="42.8903341" lon="11.5270956"><ele>556.0</ele><time>2026-05-01T16:47:04.87Z</time></trkpt><trkpt lat="42.8902315" lon="11.527184"><ele>556.0</ele><time>2026-05-01T16:47:05.88Z</time></trkpt><trkpt lat="42.8901282" lon="11.5272575"><ele>557.0</ele><time>2026-05-01T16:47:06.873Z</time></trkpt><trkpt lat="42.8900235" lon="11.5273119"><ele>558.0</ele><time>2026-05-01T16:47:07.876Z</time></trkpt><trkpt lat="42.8899179" lon="11.5273436"><ele>559.0</ele><time>2026-05-01T16:47:08.878Z</time></trkpt><trkpt lat="42.8898095" lon="11.5273488"><ele>560.0</ele><time>2026-05-01T16:47:09.877Z</time></trkpt><trkpt lat="42.8896994" lon="11.5273283"><ele>561.0</ele><time>2026-05-01T16:47:10.886Z</time></trkpt><trkpt lat="42.8895853" lon="11.5273068"><ele>561.0</ele><time>2026-05-01T16:47:11.878Z</time></trkpt><trkpt lat="42.8894672" lon="11.5272674"><ele>561.0</ele><time>2026-05-01T16:47:12.888Z</time></trkpt><trkpt lat="42.8893429" lon="11.5272257"><ele>561.0</ele><time>2026-05-01T16:47:13.872Z</time></trkpt><trkpt lat="42.8892178" lon="11.5271857"><ele>561.0</ele><time>2026-05-01T16:47:14.88Z</time></trkpt><trkpt lat="42.8890935" lon="11.5271362"><ele>562.0</ele><time>2026-05-01T16:47:15.885Z</time></trkpt><trkpt lat="42.8889708" lon="11.5270721"><ele>563.0</ele><time>2026-05-01T16:47:16.864Z</time></trkpt><trkpt lat="42.888854" lon="11.5269912"><ele>564.0</ele><time>2026-05-01T16:47:17.872Z</time></trkpt><trkpt lat="42.8887412" lon="11.5268968"><ele>565.0</ele><time>2026-05-01T16:47:18.875Z</time></trkpt><trkpt lat="42.8886309" lon="11.5267939"><ele>564.75</ele><time>2026-05-01T16:47:19.877Z</time></trkpt><trkpt lat="42.8885236" lon="11.5266878"><ele>564.5</ele><time>2026-05-01T16:47:20.881Z</time></trkpt><trkpt lat="42.888417" lon="11.5265821"><ele>564.25</ele><time>2026-05-01T16:47:21.876Z</time></trkpt><trkpt lat="42.8883118" lon="11.5264794"><ele>564.0</ele><time>2026-05-01T16:47:22.886Z</time></trkpt><trkpt lat="42.8882093" lon="11.5263829"><ele>564.0</ele><time>2026-05-01T16:47:23.892Z</time></trkpt><trkpt lat="42.8881081" lon="11.526295"><ele>564.0</ele><time>2026-05-01T16:47:24.866Z</time></trkpt><trkpt lat="42.8880086" lon="11.5262089"><ele>564.0</ele><time>2026-05-01T16:47:25.882Z</time></trkpt><trkpt lat="42.8879028" lon="11.5261381"><ele>564.0</ele><time>2026-05-01T16:47:26.87Z</time></trkpt><trkpt lat="42.8877904" lon="11.5260723"><ele>561.5</ele><time>2026-05-01T16:47:27.871Z</time></trkpt><trkpt lat="42.8876806" lon="11.5260146"><ele>559.0</ele><time>2026-05-01T16:47:28.869Z</time></trkpt><trkpt lat="42.8875706" lon="11.5259614"><ele>556.5</ele><time>2026-05-01T16:47:29.879Z</time></trkpt><trkpt lat="42.8874598" lon="11.5259095"><ele>554.0</ele><time>2026-05-01T16:47:30.885Z</time></trkpt><trkpt lat="42.8873461" lon="11.5258635"><ele>553.75</ele><time>2026-05-01T16:47:31.875Z</time></trkpt><trkpt lat="42.887229" lon="11.5258199"><ele>553.5</ele><time>2026-05-01T16:47:32.865Z</time></trkpt><trkpt lat="42.887105" lon="11.525786"><ele>553.25</ele><time>2026-05-01T16:47:33.876Z</time></trkpt><trkpt lat="42.8869811" lon="11.5257616"><ele>553.0</ele><time>2026-05-01T16:47:34.873Z</time></trkpt><trkpt lat="42.8868551" lon="11.5257444"><ele>553.5</ele><time>2026-05-01T16:47:35.882Z</time></trkpt><trkpt lat="42.8867269" lon="11.5257308"><ele>554.0</ele><time>2026-05-01T16:47:36.874Z</time></trkpt><trkpt lat="42.8865981" lon="11.5257194"><ele>554.5</ele><time>2026-05-01T16:47:37.885Z</time></trkpt><trkpt lat="42.8864661" lon="11.5257091"><ele>555.0</ele><time>2026-05-01T16:47:38.885Z</time></trkpt><trkpt lat="42.8863329" lon="11.5256982"><ele>555.0</ele><time>2026-05-01T16:47:39.877Z</time></trkpt><trkpt lat="42.8862015" lon="11.5256858"><ele>555.0</ele><time>2026-05-01T16:47:40.871Z</time></trkpt><trkpt lat="42.88608" lon="11.5256762"><ele>555.0</ele><time>2026-05-01T16:47:41.868Z</time></trkpt><trkpt lat="42.8859628" lon="11.5256659"><ele>555.0</ele><time>2026-05-01T16:47:42.877Z</time></trkpt><trkpt lat="42.8858492" lon="11.5256504"><ele>554.0</ele><time>2026-05-01T16:47:43.873Z</time></trkpt><trkpt lat="42.8857451" lon="11.5256199"><ele>553.0</ele><time>2026-05-01T16:47:44.871Z</time></trkpt><trkpt lat="42.8856524" lon="11.5255673"><ele>552.0</ele><time>2026-05-01T16:47:45.876Z</time></trkpt><trkpt lat="42.8855722" lon="11.52549"><ele>551.0</ele><time>2026-05-01T16:47:46.88Z</time></trkpt><trkpt lat="42.8855014" lon="11.5253915"><ele>550.0</ele><time>2026-05-01T16:47:47.879Z</time></trkpt><trkpt lat="42.88543" lon="11.5252909"><ele>546.6</ele><time>2026-05-01T16:47:48.885Z</time></trkpt><trkpt lat="42.885388" lon="11.5251623"><ele>543.2</ele><time>2026-05-01T16:47:49.871Z</time></trkpt><trkpt lat="42.8853682" lon="11.5250327"><ele>539.8</ele><time>2026-05-01T16:47:50.875Z</time></trkpt><trkpt lat="42.8853738" lon="11.5249021"><ele>536.4</ele><time>2026-05-01T16:47:51.87Z</time></trkpt><trkpt lat="42.8853884" lon="11.5247714"><ele>533.0</ele><time>2026-05-01T16:47:52.877Z</time></trkpt><trkpt lat="42.88541" lon="11.5246427"><ele>533.4</ele><time>2026-05-01T16:47:53.867Z</time></trkpt><trkpt lat="42.8854307" lon="11.5245064"><ele>533.8</ele><time>2026-05-01T16:47:54.866Z</time></trkpt><trkpt lat="42.885451" lon="11.5243708"><ele>534.2</ele><time>2026-05-01T16:47:55.884Z</time></trkpt><trkpt lat="42.8854751" lon="11.5242295"><ele>534.6</ele><time>2026-05-01T16:47:56.858Z</time></trkpt><trkpt lat="42.8855017" lon="11.5240879"><ele>535.0</ele><time>2026-05-01T16:47:57.884Z</time></trkpt><trkpt lat="42.8855259" lon="11.5239417"><ele>535.0</ele><time>2026-05-01T16:47:58.878Z</time></trkpt><trkpt lat="42.8855494" lon="11.5237929"><ele>535.0</ele><time>2026-05-01T16:47:59.878Z</time></trkpt><trkpt lat="42.8855737" lon="11.5236424"><ele>535.0</ele><time>2026-05-01T16:48:00.876Z</time></trkpt><trkpt lat="42.8856" lon="11.5234897"><ele>535.0</ele><time>2026-05-01T16:48:01.882Z</time></trkpt><trkpt lat="42.8856346" lon="11.5233336"><ele>536.25</ele><time>2026-05-01T16:48:02.861Z</time></trkpt><trkpt lat="42.8856792" lon="11.5231781"><ele>537.5</ele><time>2026-05-01T16:48:03.884Z</time></trkpt><trkpt lat="42.8857373" lon="11.5230283"><ele>538.75</ele><time>2026-05-01T16:48:04.875Z</time></trkpt><trkpt lat="42.8858114" lon="11.5228872"><ele>540.0</ele><time>2026-05-01T16:48:05.884Z</time></trkpt><trkpt lat="42.8858987" lon="11.5227595"><ele>540.5</ele><time>2026-05-01T16:48:06.879Z</time></trkpt><trkpt lat="42.8859963" lon="11.5226466"><ele>541.0</ele><time>2026-05-01T16:48:07.867Z</time></trkpt><trkpt lat="42.8861057" lon="11.5225557"><ele>541.5</ele><time>2026-05-01T16:48:08.87Z</time></trkpt><trkpt lat="42.8862211" lon="11.5224846"><ele>542.0</ele><time>2026-05-01T16:48:09.873Z</time></trkpt><trkpt lat="42.8863401" lon="11.5224271"><ele>542.0</ele><time>2026-05-01T16:48:10.883Z</time></trkpt><trkpt lat="42.8864642" lon="11.522381"><ele>542.0</ele><time>2026-05-01T16:48:11.881Z</time></trkpt><trkpt lat="42.8865914" lon="11.5223359"><ele>542.0</ele><time>2026-05-01T16:48:12.882Z</time></trkpt><trkpt lat="42.8867207" lon="11.5222905"><ele>542.0</ele><time>2026-05-01T16:48:13.882Z</time></trkpt><trkpt lat="42.8868512" lon="11.5222428"><ele>540.75</ele><time>2026-05-01T16:48:14.871Z</time></trkpt><trkpt lat="42.8869824" lon="11.5221926"><ele>539.5</ele><time>2026-05-01T16:48:15.888Z</time></trkpt><trkpt lat="42.887112" lon="11.522141"><ele>538.25</ele><time>2026-05-01T16:48:16.879Z</time></trkpt><trkpt lat="42.8872406" lon="11.5220909"><ele>537.0</ele><time>2026-05-01T16:48:17.875Z</time></trkpt><trkpt lat="42.8873677" lon="11.5220423"><ele>538.0</ele><time>2026-05-01T16:48:18.88Z</time></trkpt><trkpt lat="42.8874889" lon="11.5219947"><ele>539.0</ele><time>2026-05-01T16:48:19.87Z</time></trkpt><trkpt lat="42.8876047" lon="11.5219458"><ele>540.0</ele><time>2026-05-01T16:48:20.878Z</time></trkpt><trkpt lat="42.8877156" lon="11.5218853"><ele>541.0</ele><time>2026-05-01T16:48:21.871Z</time></trkpt><trkpt lat="42.88782" lon="11.5218113"><ele>541.0</ele><time>2026-05-01T16:48:22.885Z</time></trkpt><trkpt lat="42.8879157" lon="11.5217245"><ele>541.0</ele><time>2026-05-01T16:48:23.892Z</time></trkpt><trkpt lat="42.8880007" lon="11.5216208"><ele>541.0</ele><time>2026-05-01T16:48:24.878Z</time></trkpt><trkpt lat="42.8880721" lon="11.5215005"><ele>541.0</ele><time>2026-05-01T16:48:25.888Z</time></trkpt><trkpt lat="42.8881272" lon="11.5213639"><ele>542.0</ele><time>2026-05-01T16:48:26.858Z</time></trkpt><trkpt lat="42.8881662" lon="11.5212164"><ele>543.0</ele><time>2026-05-01T16:48:27.899Z</time></trkpt><trkpt lat="42.8881929" lon="11.5210613"><ele>544.0</ele><time>2026-05-01T16:48:28.891Z</time></trkpt><trkpt lat="42.8882152" lon="11.5209028"><ele>545.0</ele><time>2026-05-01T16:48:29.877Z</time></trkpt><trkpt lat="42.8882358" lon="11.5207467"><ele>545.0</ele><time>2026-05-01T16:48:30.876Z</time></trkpt><trkpt lat="42.888259" lon="11.520597"><ele>545.0</ele><time>2026-05-01T16:48:31.873Z</time></trkpt><trkpt lat="42.8882892" lon="11.5204487"><ele>545.0</ele><time>2026-05-01T16:48:32.875Z</time></trkpt><trkpt lat="42.8883326" lon="11.5203019"><ele>545.0</ele><time>2026-05-01T16:48:33.903Z</time></trkpt><trkpt lat="42.8883912" lon="11.520159"><ele>544.25</ele><time>2026-05-01T16:48:34.872Z</time></trkpt><trkpt lat="42.8884659" lon="11.5200286"><ele>543.5</ele><time>2026-05-01T16:48:35.876Z</time></trkpt><trkpt lat="42.8885536" lon="11.5199183"><ele>542.75</ele><time>2026-05-01T16:48:36.873Z</time></trkpt><trkpt lat="42.8886539" lon="11.5198325"><ele>542.0</ele><time>2026-05-01T16:48:37.875Z</time></trkpt><trkpt lat="42.8887653" lon="11.5197714"><ele>542.0</ele><time>2026-05-01T16:48:38.876Z</time></trkpt><trkpt lat="42.8888852" lon="11.5197346"><ele>542.0</ele><time>2026-05-01T16:48:39.884Z</time></trkpt><trkpt lat="42.8890095" lon="11.5197217"><ele>542.0</ele><time>2026-05-01T16:48:40.877Z</time></trkpt><trkpt lat="42.8891361" lon="11.5197224"><ele>542.0</ele><time>2026-05-01T16:48:41.882Z</time></trkpt><trkpt lat="42.8892634" lon="11.5197245"><ele>542.25</ele><time>2026-05-01T16:48:42.872Z</time></trkpt><trkpt lat="42.8893855" lon="11.5197223"><ele>542.5</ele><time>2026-05-01T16:48:43.888Z</time></trkpt><trkpt lat="42.8895029" lon="11.5197081"><ele>542.75</ele><time>2026-05-01T16:48:44.867Z</time></trkpt><trkpt lat="42.8896157" lon="11.5196703"><ele>543.0</ele><time>2026-05-01T16:48:45.886Z</time></trkpt><trkpt lat="42.8897245" lon="11.5196084"><ele>544.25</ele><time>2026-05-01T16:48:46.871Z</time></trkpt><trkpt lat="42.8898273" lon="11.5195241"><ele>545.5</ele><time>2026-05-01T16:48:47.879Z</time></trkpt><trkpt lat="42.8899233" lon="11.5194217"><ele>546.75</ele><time>2026-05-01T16:48:48.871Z</time></trkpt><trkpt lat="42.8900116" lon="11.5193041"><ele>548.0</ele><time>2026-05-01T16:48:49.877Z</time></trkpt><trkpt lat="42.8900974" lon="11.5191795"><ele>548.0</ele><time>2026-05-01T16:48:50.878Z</time></trkpt><trkpt lat="42.8901862" lon="11.5190546"><ele>548.0</ele><time>2026-05-01T16:48:51.875Z</time></trkpt><trkpt lat="42.8902813" lon="11.5189415"><ele>548.0</ele><time>2026-05-01T16:48:52.876Z</time></trkpt><trkpt lat="42.890386" lon="11.518847"><ele>548.0</ele><time>2026-05-01T16:48:53.877Z</time></trkpt><trkpt lat="42.8904979" lon="11.51877"><ele>551.25</ele><time>2026-05-01T16:48:54.869Z</time></trkpt><trkpt lat="42.8906162" lon="11.518709"><ele>554.5</ele><time>2026-05-01T16:48:55.875Z</time></trkpt><trkpt lat="42.8907404" lon="11.518667"><ele>557.75</ele><time>2026-05-01T16:48:56.879Z</time></trkpt><trkpt lat="42.8908687" lon="11.5186304"><ele>561.0</ele><time>2026-05-01T16:48:57.876Z</time></trkpt><trkpt lat="42.890998" lon="11.5185939"><ele>561.0</ele><time>2026-05-01T16:48:58.883Z</time></trkpt><trkpt lat="42.8911271" lon="11.518556"><ele>561.0</ele><time>2026-05-01T16:48:59.884Z</time></trkpt><trkpt lat="42.8912551" lon="11.518519"><ele>561.0</ele><time>2026-05-01T16:49:00.878Z</time></trkpt><trkpt lat="42.8913823" lon="11.5184804"><ele>561.0</ele><time>2026-05-01T16:49:01.889Z</time></trkpt><trkpt lat="42.8915101" lon="11.5184377"><ele>561.0</ele><time>2026-05-01T16:49:02.877Z</time></trkpt><trkpt lat="42.8916388" lon="11.5183949"><ele>561.0</ele><time>2026-05-01T16:49:03.879Z</time></trkpt><trkpt lat="42.8917698" lon="11.5183521"><ele>561.0</ele><time>2026-05-01T16:49:04.873Z</time></trkpt><trkpt lat="42.8919018" lon="11.5183092"><ele>561.0</ele><time>2026-05-01T16:49:05.873Z</time></trkpt><trkpt lat="42.8920335" lon="11.5182682"><ele>561.25</ele><time>2026-05-01T16:49:06.877Z</time></trkpt><trkpt lat="42.8921661" lon="11.5182274"><ele>561.5</ele><time>2026-05-01T16:49:07.87Z</time></trkpt><trkpt lat="42.8923" lon="11.5181868"><ele>561.75</ele><time>2026-05-01T16:49:08.886Z</time></trkpt><trkpt lat="42.8924342" lon="11.5181463"><ele>562.0</ele><time>2026-05-01T16:49:09.889Z</time></trkpt><trkpt lat="42.8925685" lon="11.5181071"><ele>561.0</ele><time>2026-05-01T16:49:10.878Z</time></trkpt><trkpt lat="42.8927029" lon="11.5180652"><ele>560.0</ele><time>2026-05-01T16:49:11.892Z</time></trkpt><trkpt lat="42.8928385" lon="11.5180209"><ele>559.0</ele><time>2026-05-01T16:49:12.897Z</time></trkpt><trkpt lat="42.8929748" lon="11.517979"><ele>558.0</ele><time>2026-05-01T16:49:13.906Z</time></trkpt><trkpt lat="42.8931112" lon="11.5179405"><ele>558.0</ele><time>2026-05-01T16:49:14.893Z</time></trkpt><trkpt lat="42.8932477" lon="11.5179076"><ele>558.0</ele><time>2026-05-01T16:49:15.905Z</time></trkpt><trkpt lat="42.8933842" lon="11.5178781"><ele>558.0</ele><time>2026-05-01T16:49:16.9Z</time></trkpt><trkpt lat="42.8935182" lon="11.5178493"><ele>558.0</ele><time>2026-05-01T16:49:17.888Z</time></trkpt><trkpt lat="42.8936513" lon="11.5178207"><ele>560.75</ele><time>2026-05-01T16:49:18.899Z</time></trkpt><trkpt lat="42.8937817" lon="11.5177918"><ele>563.5</ele><time>2026-05-01T16:49:19.897Z</time></trkpt><trkpt lat="42.8939095" lon="11.5177655"><ele>566.25</ele><time>2026-05-01T16:49:20.871Z</time></trkpt><trkpt lat="42.8940348" lon="11.5177451"><ele>569.0</ele><time>2026-05-01T16:49:21.886Z</time></trkpt><trkpt lat="42.8941578" lon="11.5177352"><ele>570.0</ele><time>2026-05-01T16:49:22.884Z</time></trkpt><trkpt lat="42.8942792" lon="11.517739"><ele>571.0</ele><time>2026-05-01T16:49:23.892Z</time></trkpt><trkpt lat="42.8943978" lon="11.5177536"><ele>572.0</ele><time>2026-05-01T16:49:24.898Z</time></trkpt><trkpt lat="42.8945153" lon="11.5177793"><ele>573.0</ele><time>2026-05-01T16:49:25.898Z</time></trkpt><trkpt lat="42.894634" lon="11.5178077"><ele>573.0</ele><time>2026-05-01T16:49:26.868Z</time></trkpt><trkpt lat="42.8947545" lon="11.5178508"><ele>573.0</ele><time>2026-05-01T16:49:27.892Z</time></trkpt><trkpt lat="42.8948733" lon="11.51789"><ele>573.0</ele><time>2026-05-01T16:49:28.905Z</time></trkpt><trkpt lat="42.8949908" lon="11.5179233"><ele>573.0</ele><time>2026-05-01T16:49:29.897Z</time></trkpt><trkpt lat="42.8951101" lon="11.5179399"><ele>571.75</ele><time>2026-05-01T16:49:30.872Z</time></trkpt><trkpt lat="42.8952265" lon="11.5179302"><ele>570.5</ele><time>2026-05-01T16:49:31.881Z</time></trkpt><trkpt lat="42.895344" lon="11.517896"><ele>569.25</ele><time>2026-05-01T16:49:32.881Z</time></trkpt><trkpt lat="42.8954621" lon="11.5178423"><ele>568.0</ele><time>2026-05-01T16:49:33.873Z</time></trkpt><trkpt lat="42.8955798" lon="11.5177777"><ele>568.0</ele><time>2026-05-01T16:49:34.881Z</time></trkpt><trkpt lat="42.8957013" lon="11.5177098"><ele>568.0</ele><time>2026-05-01T16:49:35.872Z</time></trkpt><trkpt lat="42.8958258" lon="11.5176414"><ele>568.0</ele><time>2026-05-01T16:49:36.883Z</time></trkpt><trkpt lat="42.8959528" lon="11.5175708"><ele>568.0</ele><time>2026-05-01T16:49:37.877Z</time></trkpt><trkpt lat="42.8960812" lon="11.5174998"><ele>568.25</ele><time>2026-05-01T16:49:38.87Z</time></trkpt><trkpt lat="42.8962119" lon="11.5174277"><ele>568.5</ele><time>2026-05-01T16:49:39.861Z</time></trkpt><trkpt lat="42.8963448" lon="11.5173558"><ele>568.75</ele><time>2026-05-01T16:49:40.881Z</time></trkpt><trkpt lat="42.8964798" lon="11.5172816"><ele>569.0</ele><time>2026-05-01T16:49:41.882Z</time></trkpt><trkpt lat="42.8966163" lon="11.5172056"><ele>569.6666666666666</ele><time>2026-05-01T16:49:42.878Z</time></trkpt><trkpt lat="42.896755" lon="11.5171301"><ele>570.3333333333334</ele><time>2026-05-01T16:49:43.873Z</time></trkpt><trkpt lat="42.8968949" lon="11.5170555"><ele>571.0</ele><time>2026-05-01T16:49:44.888Z</time></trkpt><trkpt lat="42.8970361" lon="11.5169803"><ele>569.3333333333334</ele><time>2026-05-01T16:49:45.868Z</time></trkpt><trkpt lat="42.8971775" lon="11.5169036"><ele>567.6666666666666</ele><time>2026-05-01T16:49:46.87Z</time></trkpt><trkpt lat="42.8973221" lon="11.5168253"><ele>566.0</ele><time>2026-05-01T16:49:47.887Z</time></trkpt><trkpt lat="42.8974686" lon="11.5167461"><ele>566.6666666666666</ele><time>2026-05-01T16:49:48.869Z</time></trkpt><trkpt lat="42.8976167" lon="11.5166669"><ele>567.3333333333334</ele><time>2026-05-01T16:49:49.879Z</time></trkpt><trkpt lat="42.8977638" lon="11.5165873"><ele>568.0</ele><time>2026-05-01T16:49:50.892Z</time></trkpt><trkpt lat="42.8979108" lon="11.5165061"><ele>568.0</ele><time>2026-05-01T16:49:51.873Z</time></trkpt><trkpt lat="42.8980564" lon="11.5164235"><ele>568.0</ele><time>2026-05-01T16:49:52.862Z</time></trkpt><trkpt lat="42.8982026" lon="11.5163423"><ele>568.0</ele><time>2026-05-01T16:49:53.876Z</time></trkpt><trkpt lat="42.8983495" lon="11.5162628"><ele>568.6666666666667</ele><time>2026-05-01T16:49:54.885Z</time></trkpt><trkpt lat="42.8984963" lon="11.5161832"><ele>569.3333333333334</ele><time>2026-05-01T16:49:55.882Z</time></trkpt><trkpt lat="42.8986438" lon="11.5161023"><ele>570.0</ele><time>2026-05-01T16:49:56.869Z</time></trkpt><trkpt lat="42.8987919" lon="11.5160208"><ele>570.0</ele><time>2026-05-01T16:49:57.88Z</time></trkpt><trkpt lat="42.8989405" lon="11.5159416"><ele>570.0</ele><time>2026-05-01T16:49:58.869Z</time></trkpt><trkpt lat="42.8990911" lon="11.5158644"><ele>570.0</ele><time>2026-05-01T16:49:59.884Z</time></trkpt><trkpt lat="42.8992446" lon="11.5157889"><ele>569.6666666666666</ele><time>2026-05-01T16:50:00.885Z</time></trkpt><trkpt lat="42.8993994" lon="11.5157143"><ele>569.3333333333333</ele><time>2026-05-01T16:50:01.865Z</time></trkpt><trkpt lat="42.8995546" lon="11.5156394"><ele>569.0</ele><time>2026-05-01T16:50:02.877Z</time></trkpt><trkpt lat="42.899711" lon="11.5155638"><ele>569.0</ele><time>2026-05-01T16:50:03.892Z</time></trkpt><trkpt lat="42.8998693" lon="11.5154889"><ele>569.0</ele><time>2026-05-01T16:50:04.896Z</time></trkpt><trkpt lat="42.9000301" lon="11.5154137"><ele>569.0</ele><time>2026-05-01T16:50:05.879Z</time></trkpt><trkpt lat="42.9001932" lon="11.5153382"><ele>571.0</ele><time>2026-05-01T16:50:06.878Z</time></trkpt><trkpt lat="42.9003568" lon="11.5152612"><ele>573.0</ele><time>2026-05-01T16:50:07.898Z</time></trkpt><trkpt lat="42.900516" lon="11.5151848"><ele>575.0</ele><time>2026-05-01T16:50:08.866Z</time></trkpt><trkpt lat="42.9006705" lon="11.5151109"><ele>575.0</ele><time>2026-05-01T16:50:09.878Z</time></trkpt><trkpt lat="42.9008215" lon="11.5150398"><ele>575.0</ele><time>2026-05-01T16:50:10.879Z</time></trkpt><trkpt lat="42.9009692" lon="11.5149702"><ele>575.0</ele><time>2026-05-01T16:50:11.876Z</time></trkpt><trkpt lat="42.9011138" lon="11.5149018"><ele>567.0</ele><time>2026-05-01T16:50:12.878Z</time></trkpt><trkpt lat="42.9012573" lon="11.5148339"><ele>559.0</ele><time>2026-05-01T16:50:13.884Z</time></trkpt><trkpt lat="42.9014005" lon="11.5147633"><ele>551.0</ele><time>2026-05-01T16:50:14.873Z</time></trkpt><trkpt lat="42.9015455" lon="11.5146917"><ele>551.0</ele><time>2026-05-01T16:50:15.873Z</time></trkpt><trkpt lat="42.901692" lon="11.5146205"><ele>551.0</ele><time>2026-05-01T16:50:16.882Z</time></trkpt><trkpt lat="42.9018393" lon="11.5145504"><ele>551.0</ele><time>2026-05-01T16:50:17.871Z</time></trkpt><trkpt lat="42.9019877" lon="11.5144792"><ele>550.0</ele><time>2026-05-01T16:50:18.877Z</time></trkpt><trkpt lat="42.9021349" lon="11.514409"><ele>549.0</ele><time>2026-05-01T16:50:19.886Z</time></trkpt><trkpt lat="42.9022812" lon="11.5143383"><ele>548.0</ele><time>2026-05-01T16:50:20.859Z</time></trkpt><trkpt lat="42.9024248" lon="11.5142639"><ele>548.0</ele><time>2026-05-01T16:50:21.882Z</time></trkpt><trkpt lat="42.9025641" lon="11.5141826"><ele>548.0</ele><time>2026-05-01T16:50:22.874Z</time></trkpt><trkpt lat="42.9026982" lon="11.5140899"><ele>548.0</ele><time>2026-05-01T16:50:23.882Z</time></trkpt><trkpt lat="42.9028261" lon="11.5139833"><ele>545.25</ele><time>2026-05-01T16:50:24.887Z</time></trkpt><trkpt lat="42.9029443" lon="11.5138602"><ele>542.5</ele><time>2026-05-01T16:50:25.877Z</time></trkpt><trkpt lat="42.9030519" lon="11.5137225"><ele>539.75</ele><time>2026-05-01T16:50:26.879Z</time></trkpt><trkpt lat="42.9031506" lon="11.5135727"><ele>537.0</ele><time>2026-05-01T16:50:27.887Z</time></trkpt><trkpt lat="42.9032421" lon="11.5134116"><ele>537.0</ele><time>2026-05-01T16:50:28.893Z</time></trkpt><trkpt lat="42.9033288" lon="11.5132419"><ele>537.0</ele><time>2026-05-01T16:50:29.865Z</time></trkpt><trkpt lat="42.903414" lon="11.5130684"><ele>537.0</ele><time>2026-05-01T16:50:30.867Z</time></trkpt><trkpt lat="42.9034994" lon="11.5128923"><ele>531.6666666666666</ele><time>2026-05-01T16:50:31.873Z</time></trkpt><trkpt lat="42.9035853" lon="11.5127169"><ele>526.3333333333333</ele><time>2026-05-01T16:50:32.884Z</time></trkpt><trkpt lat="42.9036714" lon="11.5125434"><ele>521.0</ele><time>2026-05-01T16:50:33.874Z</time></trkpt><trkpt lat="42.9037581" lon="11.5123729"><ele>521.0</ele><time>2026-05-01T16:50:34.871Z</time></trkpt><trkpt lat="42.9038445" lon="11.5122051"><ele>521.0</ele><time>2026-05-01T16:50:35.902Z</time></trkpt><trkpt lat="42.9039291" lon="11.5120376"><ele>521.0</ele><time>2026-05-01T16:50:36.878Z</time></trkpt><trkpt lat="42.9040115" lon="11.5118693"><ele>521.0</ele><time>2026-05-01T16:50:37.876Z</time></trkpt><trkpt lat="42.9040931" lon="11.5117023"><ele>521.75</ele><time>2026-05-01T16:50:38.88Z</time></trkpt><trkpt lat="42.9041747" lon="11.511536"><ele>522.5</ele><time>2026-05-01T16:50:39.874Z</time></trkpt><trkpt lat="42.9042564" lon="11.5113715"><ele>523.25</ele><time>2026-05-01T16:50:40.88Z</time></trkpt><trkpt lat="42.904339" lon="11.5112073"><ele>524.0</ele><time>2026-05-01T16:50:41.881Z</time></trkpt><trkpt lat="42.9044223" lon="11.5110451"><ele>521.25</ele><time>2026-05-01T16:50:42.898Z</time></trkpt><trkpt lat="42.9045051" lon="11.5108802"><ele>518.5</ele><time>2026-05-01T16:50:43.874Z</time></trkpt><trkpt lat="42.9045814" lon="11.5107097"><ele>515.75</ele><time>2026-05-01T16:50:44.882Z</time></trkpt><trkpt lat="42.9046464" lon="11.5105313"><ele>513.0</ele><time>2026-05-01T16:50:45.879Z</time></trkpt><trkpt lat="42.9046969" lon="11.5103453"><ele>511.66666666666663</ele><time>2026-05-01T16:50:46.876Z</time></trkpt><trkpt lat="42.9047312" lon="11.5101508"><ele>510.3333333333333</ele><time>2026-05-01T16:50:47.88Z</time></trkpt><trkpt lat="42.904753" lon="11.5099481"><ele>509.0</ele><time>2026-05-01T16:50:48.869Z</time></trkpt><trkpt lat="42.9047695" lon="11.5097373"><ele>508.3333333333333</ele><time>2026-05-01T16:50:49.887Z</time></trkpt><trkpt lat="42.904784" lon="11.5095198"><ele>507.66666666666663</ele><time>2026-05-01T16:50:50.874Z</time></trkpt><trkpt lat="42.9047982" lon="11.5092969"><ele>507.0</ele><time>2026-05-01T16:50:51.891Z</time></trkpt><trkpt lat="42.9048134" lon="11.5090708"><ele>507.0</ele><time>2026-05-01T16:50:52.874Z</time></trkpt><trkpt lat="42.9048289" lon="11.5088413"><ele>507.0</ele><time>2026-05-01T16:50:53.875Z</time></trkpt><trkpt lat="42.9048458" lon="11.5086096"><ele>507.0</ele><time>2026-05-01T16:50:54.868Z</time></trkpt><trkpt lat="42.9048666" lon="11.508379"><ele>506.66666666666663</ele><time>2026-05-01T16:50:55.876Z</time></trkpt><trkpt lat="42.9048961" lon="11.5081526"><ele>506.3333333333333</ele><time>2026-05-01T16:50:56.885Z</time></trkpt><trkpt lat="42.9049384" lon="11.5079324"><ele>506.0</ele><time>2026-05-01T16:50:57.863Z</time></trkpt><trkpt lat="42.9049935" lon="11.5077187"><ele>505.0</ele><time>2026-05-01T16:50:58.873Z</time></trkpt><trkpt lat="42.90506" lon="11.5075126"><ele>504.0</ele><time>2026-05-01T16:50:59.872Z</time></trkpt><trkpt lat="42.9051352" lon="11.5073129"><ele>503.0</ele><time>2026-05-01T16:51:00.887Z</time></trkpt><trkpt lat="42.9052204" lon="11.5071195"><ele>502.3333333333333</ele><time>2026-05-01T16:51:01.867Z</time></trkpt><trkpt lat="42.9053159" lon="11.5069339"><ele>501.66666666666663</ele><time>2026-05-01T16:51:02.874Z</time></trkpt><trkpt lat="42.9054216" lon="11.506757"><ele>501.0</ele><time>2026-05-01T16:51:03.879Z</time></trkpt><trkpt lat="42.9055376" lon="11.5065928"><ele>501.0</ele><time>2026-05-01T16:51:04.868Z</time></trkpt><trkpt lat="42.9056613" lon="11.5064398"><ele>501.0</ele><time>2026-05-01T16:51:05.883Z</time></trkpt><trkpt lat="42.9057916" lon="11.5062957"><ele>501.0</ele><time>2026-05-01T16:51:06.885Z</time></trkpt><trkpt lat="42.905928" lon="11.5061644"><ele>499.33333333333337</ele><time>2026-05-01T16:51:07.876Z</time></trkpt><trkpt lat="42.9060725" lon="11.506051"><ele>497.6666666666667</ele><time>2026-05-01T16:51:08.879Z</time></trkpt><trkpt lat="42.9062235" lon="11.5059558"><ele>496.0</ele><time>2026-05-01T16:51:09.876Z</time></trkpt><trkpt lat="42.9063791" lon="11.5058769"><ele>496.0</ele><time>2026-05-01T16:51:10.878Z</time></trkpt><trkpt lat="42.9065397" lon="11.5058133"><ele>496.0</ele><time>2026-05-01T16:51:11.884Z</time></trkpt><trkpt lat="42.9067054" lon="11.5057656"><ele>496.0</ele><time>2026-05-01T16:51:12.877Z</time></trkpt><trkpt lat="42.9068762" lon="11.5057327"><ele>494.0</ele><time>2026-05-01T16:51:13.889Z</time></trkpt><trkpt lat="42.9070503" lon="11.5057135"><ele>492.0</ele><time>2026-05-01T16:51:14.89Z</time></trkpt><trkpt lat="42.9072281" lon="11.5057025"><ele>490.0</ele><time>2026-05-01T16:51:15.884Z</time></trkpt><trkpt lat="42.9074089" lon="11.5056947"><ele>488.0</ele><time>2026-05-01T16:51:16.885Z</time></trkpt><trkpt lat="42.9075917" lon="11.5056852"><ele>486.0</ele><time>2026-05-01T16:51:17.884Z</time></trkpt><trkpt lat="42.9077766" lon="11.5056734"><ele>484.0</ele><time>2026-05-01T16:51:18.866Z</time></trkpt><trkpt lat="42.9079625" lon="11.50566"><ele>484.0</ele><time>2026-05-01T16:51:19.87Z</time></trkpt><trkpt lat="42.9081495" lon="11.5056465"><ele>484.0</ele><time>2026-05-01T16:51:20.893Z</time></trkpt><trkpt lat="42.9083367" lon="11.5056341"><ele>484.0</ele><time>2026-05-01T16:51:21.877Z</time></trkpt><trkpt lat="42.9085214" lon="11.5056228"><ele>481.33333333333337</ele><time>2026-05-01T16:51:22.876Z</time></trkpt><trkpt lat="42.9087015" lon="11.5056118"><ele>478.66666666666663</ele><time>2026-05-01T16:51:23.884Z</time></trkpt><trkpt lat="42.9088771" lon="11.5056017"><ele>476.0</ele><time>2026-05-01T16:51:24.873Z</time></trkpt><trkpt lat="42.9090484" lon="11.5055934"><ele>476.0</ele><time>2026-05-01T16:51:25.867Z</time></trkpt><trkpt lat="42.9092165" lon="11.5055885"><ele>476.0</ele><time>2026-05-01T16:51:26.872Z</time></trkpt><trkpt lat="42.909383" lon="11.5055901"><ele>476.0</ele><time>2026-05-01T16:51:27.882Z</time></trkpt><trkpt lat="42.9095502" lon="11.5056012"><ele>475.0</ele><time>2026-05-01T16:51:28.878Z</time></trkpt><trkpt lat="42.909719" lon="11.5056203"><ele>474.0</ele><time>2026-05-01T16:51:29.87Z</time></trkpt><trkpt lat="42.9098891" lon="11.5056453"><ele>473.0</ele><time>2026-05-01T16:51:30.877Z</time></trkpt><trkpt lat="42.9100598" lon="11.5056757"><ele>471.3333333333333</ele><time>2026-05-01T16:51:31.873Z</time></trkpt><trkpt lat="42.9102306" lon="11.505711"><ele>469.66666666666663</ele><time>2026-05-01T16:51:32.869Z</time></trkpt><trkpt lat="42.9104017" lon="11.5057486"><ele>468.0</ele><time>2026-05-01T16:51:33.875Z</time></trkpt><trkpt lat="42.9105731" lon="11.5057874"><ele>468.0</ele><time>2026-05-01T16:51:34.902Z</time></trkpt><trkpt lat="42.9107442" lon="11.5058276"><ele>468.0</ele><time>2026-05-01T16:51:35.889Z</time></trkpt><trkpt lat="42.9109146" lon="11.505869"><ele>468.0</ele><time>2026-05-01T16:51:36.9Z</time></trkpt><trkpt lat="42.9110834" lon="11.5059109"><ele>468.0</ele><time>2026-05-01T16:51:37.892Z</time></trkpt><trkpt lat="42.9112477" lon="11.5059522"><ele>468.0</ele><time>2026-05-01T16:51:38.906Z</time></trkpt><trkpt lat="42.9114073" lon="11.505994"><ele>468.0</ele><time>2026-05-01T16:51:39.87Z</time></trkpt><trkpt lat="42.9115621" lon="11.5060433"><ele>468.0</ele><time>2026-05-01T16:51:40.87Z</time></trkpt><trkpt lat="42.9117146" lon="11.5061067"><ele>468.0</ele><time>2026-05-01T16:51:41.885Z</time></trkpt><trkpt lat="42.9118647" lon="11.5061879"><ele>468.0</ele><time>2026-05-01T16:51:42.886Z</time></trkpt><trkpt lat="42.9120087" lon="11.5062869"><ele>465.0</ele><time>2026-05-01T16:51:43.879Z</time></trkpt><trkpt lat="42.9121431" lon="11.5063985"><ele>462.0</ele><time>2026-05-01T16:51:44.882Z</time></trkpt><trkpt lat="42.9122699" lon="11.506516"><ele>459.0</ele><time>2026-05-01T16:51:45.867Z</time></trkpt><trkpt lat="42.9123925" lon="11.5066329"><ele>459.0</ele><time>2026-05-01T16:51:46.869Z</time></trkpt><trkpt lat="42.912515" lon="11.5067447"><ele>459.0</ele><time>2026-05-01T16:51:47.878Z</time></trkpt><trkpt lat="42.9126419" lon="11.506841"><ele>459.0</ele><time>2026-05-01T16:51:48.869Z</time></trkpt><trkpt lat="42.9127739" lon="11.5069175"><ele>459.0</ele><time>2026-05-01T16:51:49.891Z</time></trkpt><trkpt lat="42.9129107" lon="11.5069747"><ele>456.66666666666663</ele><time>2026-05-01T16:51:50.874Z</time></trkpt><trkpt lat="42.9130539" lon="11.5070188"><ele>454.3333333333333</ele><time>2026-05-01T16:51:51.888Z</time></trkpt><trkpt lat="42.9132033" lon="11.5070514"><ele>452.0</ele><time>2026-05-01T16:51:52.882Z</time></trkpt><trkpt lat="42.9133586" lon="11.5070757"><ele>451.0</ele><time>2026-05-01T16:51:53.877Z</time></trkpt><trkpt lat="42.9135179" lon="11.5070962"><ele>450.0</ele><time>2026-05-01T16:51:54.877Z</time></trkpt><trkpt lat="42.9136813" lon="11.5071157"><ele>449.0</ele><time>2026-05-01T16:51:55.882Z</time></trkpt><trkpt lat="42.9138477" lon="11.5071345"><ele>449.0</ele><time>2026-05-01T16:51:56.885Z</time></trkpt><trkpt lat="42.9140164" lon="11.5071538"><ele>449.0</ele><time>2026-05-01T16:51:57.878Z</time></trkpt><trkpt lat="42.9141856" lon="11.5071724"><ele>449.0</ele><time>2026-05-01T16:51:58.865Z</time></trkpt><trkpt lat="42.914358" lon="11.5071921"><ele>446.0</ele><time>2026-05-01T16:51:59.879Z</time></trkpt><trkpt lat="42.9145296" lon="11.5072123"><ele>443.0</ele><time>2026-05-01T16:52:00.874Z</time></trkpt><trkpt lat="42.9147037" lon="11.5072317"><ele>440.0</ele><time>2026-05-01T16:52:01.879Z</time></trkpt><trkpt lat="42.9148762" lon="11.5072499"><ele>440.0</ele><time>2026-05-01T16:52:02.889Z</time></trkpt><trkpt lat="42.915044" lon="11.5072672"><ele>440.0</ele><time>2026-05-01T16:52:03.89Z</time></trkpt><trkpt lat="42.9152102" lon="11.5072852"><ele>440.0</ele><time>2026-05-01T16:52:04.887Z</time></trkpt><trkpt lat="42.9153736" lon="11.5073062"><ele>439.3333333333333</ele><time>2026-05-01T16:52:05.874Z</time></trkpt><trkpt lat="42.915533" lon="11.5073354"><ele>438.66666666666663</ele><time>2026-05-01T16:52:06.876Z</time></trkpt><trkpt lat="42.9156864" lon="11.5073808"><ele>438.0</ele><time>2026-05-01T16:52:07.881Z</time></trkpt><trkpt lat="42.9158337" lon="11.5074469"><ele>436.33333333333337</ele><time>2026-05-01T16:52:08.877Z</time></trkpt><trkpt lat="42.9159738" lon="11.5075386"><ele>434.6666666666667</ele><time>2026-05-01T16:52:09.87Z</time></trkpt><trkpt lat="42.9161045" lon="11.5076559"><ele>433.0</ele><time>2026-05-01T16:52:10.876Z</time></trkpt><trkpt lat="42.9162253" lon="11.507792"><ele>432.0</ele><time>2026-05-01T16:52:11.88Z</time></trkpt><trkpt lat="42.9163378" lon="11.5079424"><ele>431.0</ele><time>2026-05-01T16:52:12.874Z</time></trkpt><trkpt lat="42.9164454" lon="11.5081028"><ele>430.0</ele><time>2026-05-01T16:52:13.886Z</time></trkpt><trkpt lat="42.9165469" lon="11.5082637"><ele>430.0</ele><time>2026-05-01T16:52:14.866Z</time></trkpt><trkpt lat="42.9166497" lon="11.5084217"><ele>430.0</ele><time>2026-05-01T16:52:15.882Z</time></trkpt><trkpt lat="42.9167526" lon="11.50857"><ele>430.0</ele><time>2026-05-01T16:52:16.88Z</time></trkpt><trkpt lat="42.9168569" lon="11.5087127"><ele>428.0</ele><time>2026-05-01T16:52:17.889Z</time></trkpt><trkpt lat="42.9169595" lon="11.5088425"><ele>426.0</ele><time>2026-05-01T16:52:18.873Z</time></trkpt><trkpt lat="42.9170626" lon="11.5089557"><ele>424.0</ele><time>2026-05-01T16:52:19.887Z</time></trkpt><trkpt lat="42.9171701" lon="11.5090406"><ele>422.0</ele><time>2026-05-01T16:52:20.868Z</time></trkpt><trkpt lat="42.9172864" lon="11.5090966"><ele>422.0</ele><time>2026-05-01T16:52:21.87Z</time></trkpt><trkpt lat="42.9174096" lon="11.5091236"><ele>422.0</ele><time>2026-05-01T16:52:22.867Z</time></trkpt><trkpt lat="42.9175404" lon="11.5091249"><ele>422.0</ele><time>2026-05-01T16:52:23.878Z</time></trkpt><trkpt lat="42.9176731" lon="11.5091061"><ele>422.0</ele><time>2026-05-01T16:52:24.883Z</time></trkpt><trkpt lat="42.9178057" lon="11.5090749"><ele>420.25</ele><time>2026-05-01T16:52:25.883Z</time></trkpt><trkpt lat="42.9179397" lon="11.5090403"><ele>418.5</ele><time>2026-05-01T16:52:26.883Z</time></trkpt><trkpt lat="42.918075" lon="11.5090063"><ele>416.75</ele><time>2026-05-01T16:52:27.89Z</time></trkpt><trkpt lat="42.918209" lon="11.5089704"><ele>415.0</ele><time>2026-05-01T16:52:28.881Z</time></trkpt><trkpt lat="42.9183423" lon="11.5089236"><ele>414.25</ele><time>2026-05-01T16:52:29.895Z</time></trkpt><trkpt lat="42.9184712" lon="11.5088595"><ele>413.5</ele><time>2026-05-01T16:52:30.893Z</time></trkpt><trkpt lat="42.9185966" lon="11.5087776"><ele>412.75</ele><time>2026-05-01T16:52:31.885Z</time></trkpt><trkpt lat="42.9187193" lon="11.5086795"><ele>412.0</ele><time>2026-05-01T16:52:32.879Z</time></trkpt><trkpt lat="42.9188405" lon="11.5085689"><ele>412.0</ele><time>2026-05-01T16:52:33.888Z</time></trkpt><trkpt lat="42.9189599" lon="11.508455"><ele>412.0</ele><time>2026-05-01T16:52:34.87Z</time></trkpt><trkpt lat="42.91908" lon="11.5083408"><ele>412.0</ele><time>2026-05-01T16:52:35.875Z</time></trkpt><trkpt lat="42.919196" lon="11.5082331"><ele>412.0</ele><time>2026-05-01T16:52:36.873Z</time></trkpt><trkpt lat="42.9193079" lon="11.508132"><ele>408.0</ele><time>2026-05-01T16:52:37.869Z</time></trkpt><trkpt lat="42.9194138" lon="11.5080329"><ele>404.0</ele><time>2026-05-01T16:52:38.871Z</time></trkpt><trkpt lat="42.9195095" lon="11.5079302"><ele>400.0</ele><time>2026-05-01T16:52:39.89Z</time></trkpt><trkpt lat="42.9195867" lon="11.5078132"><ele>396.0</ele><time>2026-05-01T16:52:40.877Z</time></trkpt><trkpt lat="42.9196422" lon="11.5076758"><ele>396.0</ele><time>2026-05-01T16:52:41.872Z</time></trkpt><trkpt lat="42.9196759" lon="11.5075201"><ele>396.0</ele><time>2026-05-01T16:52:42.872Z</time></trkpt><trkpt lat="42.919688" lon="11.5073495"><ele>396.0</ele><time>2026-05-01T16:52:43.875Z</time></trkpt><trkpt lat="42.9196745" lon="11.5071708"><ele>396.0</ele><time>2026-05-01T16:52:44.883Z</time></trkpt><trkpt lat="42.9196508" lon="11.5069893"><ele>394.0</ele><time>2026-05-01T16:52:45.887Z</time></trkpt><trkpt lat="42.9196238" lon="11.5068075"><ele>392.0</ele><time>2026-05-01T16:52:46.883Z</time></trkpt><trkpt lat="42.9195977" lon="11.5066297"><ele>390.0</ele><time>2026-05-01T16:52:47.879Z</time></trkpt><trkpt lat="42.9195757" lon="11.5064573"><ele>388.0</ele><time>2026-05-01T16:52:48.86Z</time></trkpt><trkpt lat="42.9195572" lon="11.506286"><ele>386.25</ele><time>2026-05-01T16:52:49.872Z</time></trkpt><trkpt lat="42.9195392" lon="11.5061169"><ele>384.5</ele><time>2026-05-01T16:52:50.879Z</time></trkpt><trkpt lat="42.9195189" lon="11.5059449"><ele>382.75</ele><time>2026-05-01T16:52:51.878Z</time></trkpt><trkpt lat="42.9194964" lon="11.5057684"><ele>381.0</ele><time>2026-05-01T16:52:52.877Z</time></trkpt><trkpt lat="42.9194734" lon="11.5055891"><ele>379.25</ele><time>2026-05-01T16:52:53.885Z</time></trkpt><trkpt lat="42.9194505" lon="11.5054087"><ele>377.5</ele><time>2026-05-01T16:52:54.882Z</time></trkpt><trkpt lat="42.919428" lon="11.5052265"><ele>375.75</ele><time>2026-05-01T16:52:55.871Z</time></trkpt><trkpt lat="42.9194056" lon="11.5050415"><ele>374.0</ele><time>2026-05-01T16:52:56.88Z</time></trkpt><trkpt lat="42.9193826" lon="11.5048575"><ele>374.0</ele><time>2026-05-01T16:52:57.887Z</time></trkpt><trkpt lat="42.9193536" lon="11.5046808"><ele>374.0</ele><time>2026-05-01T16:52:58.88Z</time></trkpt><trkpt lat="42.9193117" lon="11.5045167"><ele>374.0</ele><time>2026-05-01T16:52:59.878Z</time></trkpt><trkpt lat="42.9192507" lon="11.5043733"><ele>374.0</ele><time>2026-05-01T16:53:00.873Z</time></trkpt><trkpt lat="42.9191686" lon="11.504253"><ele>377.5</ele><time>2026-05-01T16:53:01.88Z</time></trkpt><trkpt lat="42.9190672" lon="11.5041606"><ele>381.0</ele><time>2026-05-01T16:53:02.884Z</time></trkpt><trkpt lat="42.9189511" lon="11.5040963"><ele>384.5</ele><time>2026-05-01T16:53:03.876Z</time></trkpt><trkpt lat="42.9188232" lon="11.5040601"><ele>388.0</ele><time>2026-05-01T16:53:04.877Z</time></trkpt><trkpt lat="42.9186868" lon="11.5040517"><ele>388.0</ele><time>2026-05-01T16:53:05.885Z</time></trkpt><trkpt lat="42.9185447" lon="11.5040655"><ele>388.0</ele><time>2026-05-01T16:53:06.884Z</time></trkpt><trkpt lat="42.9184001" lon="11.5040892"><ele>388.0</ele><time>2026-05-01T16:53:07.871Z</time></trkpt><trkpt lat="42.9182567" lon="11.5041095"><ele>388.0</ele><time>2026-05-01T16:53:08.877Z</time></trkpt><trkpt lat="42.9181187" lon="11.5041248"><ele>387.5</ele><time>2026-05-01T16:53:09.87Z</time></trkpt><trkpt lat="42.9179849" lon="11.5041382"><ele>387.0</ele><time>2026-05-01T16:53:10.875Z</time></trkpt><trkpt lat="42.9178534" lon="11.50415"><ele>386.5</ele><time>2026-05-01T16:53:11.877Z</time></trkpt><trkpt lat="42.9177242" lon="11.5041504"><ele>386.0</ele><time>2026-05-01T16:53:12.871Z</time></trkpt><trkpt lat="42.9175988" lon="11.5041291"><ele>385.5</ele><time>2026-05-01T16:53:13.875Z</time></trkpt><trkpt lat="42.9174826" lon="11.5040757"><ele>385.0</ele><time>2026-05-01T16:53:14.875Z</time></trkpt><trkpt lat="42.9173765" lon="11.5039916"><ele>384.5</ele><time>2026-05-01T16:53:15.873Z</time></trkpt><trkpt lat="42.9172752" lon="11.5038849"><ele>384.0</ele><time>2026-05-01T16:53:16.884Z</time></trkpt><trkpt lat="42.9171789" lon="11.5037601"><ele>380.5</ele><time>2026-05-01T16:53:17.876Z</time></trkpt><trkpt lat="42.9170892" lon="11.5036197"><ele>377.0</ele><time>2026-05-01T16:53:18.881Z</time></trkpt><trkpt lat="42.9170061" lon="11.5034684"><ele>373.5</ele><time>2026-05-01T16:53:19.879Z</time></trkpt><trkpt lat="42.9169313" lon="11.5033147"><ele>370.0</ele><time>2026-05-01T16:53:20.88Z</time></trkpt><trkpt lat="42.916867" lon="11.5031577"><ele>370.0</ele><time>2026-05-01T16:53:21.888Z</time></trkpt><trkpt lat="42.916819" lon="11.5029956"><ele>370.0</ele><time>2026-05-01T16:53:22.876Z</time></trkpt><trkpt lat="42.9167924" lon="11.5028263"><ele>370.0</ele><time>2026-05-01T16:53:23.894Z</time></trkpt><trkpt lat="42.9167786" lon="11.502672"><ele>370.0</ele><time>2026-05-01T16:53:24.876Z</time></trkpt><trkpt lat="42.9168044" lon="11.5024945"><ele>368.0</ele><time>2026-05-01T16:53:25.871Z</time></trkpt><trkpt lat="42.9168502" lon="11.5023095"><ele>366.0</ele><time>2026-05-01T16:53:26.878Z</time></trkpt><trkpt lat="42.9169108" lon="11.5021227"><ele>364.0</ele><time>2026-05-01T16:53:27.873Z</time></trkpt><trkpt lat="42.916976" lon="11.5019375"><ele>362.0</ele><time>2026-05-01T16:53:28.875Z</time></trkpt><trkpt lat="42.9170424" lon="11.5017539"><ele>361.0</ele><time>2026-05-01T16:53:29.883Z</time></trkpt><trkpt lat="42.9171052" lon="11.5015755"><ele>360.0</ele><time>2026-05-01T16:53:30.872Z</time></trkpt><trkpt lat="42.917154" lon="11.5013949"><ele>359.0</ele><time>2026-05-01T16:53:31.891Z</time></trkpt><trkpt lat="42.9171867" lon="11.5012091"><ele>358.0</ele><time>2026-05-01T16:53:32.89Z</time></trkpt><trkpt lat="42.9172011" lon="11.5010199"><ele>358.0</ele><time>2026-05-01T16:53:33.871Z</time></trkpt><trkpt lat="42.9171932" lon="11.5008312"><ele>358.0</ele><time>2026-05-01T16:53:34.871Z</time></trkpt><trkpt lat="42.917162" lon="11.5006453"><ele>358.0</ele><time>2026-05-01T16:53:35.863Z</time></trkpt><trkpt lat="42.9171076" lon="11.5004611"><ele>358.0</ele><time>2026-05-01T16:53:36.874Z</time></trkpt><trkpt lat="42.9170316" lon="11.5002795"><ele>355.66666666666663</ele><time>2026-05-01T16:53:37.877Z</time></trkpt><trkpt lat="42.9169423" lon="11.5001003"><ele>353.3333333333333</ele><time>2026-05-01T16:53:38.875Z</time></trkpt><trkpt lat="42.9168461" lon="11.4999183"><ele>351.0</ele><time>2026-05-01T16:53:39.876Z</time></trkpt><trkpt lat="42.9167493" lon="11.4997304"><ele>353.3333333333333</ele><time>2026-05-01T16:53:40.867Z</time></trkpt><trkpt lat="42.916651" lon="11.4995391"><ele>355.66666666666663</ele><time>2026-05-01T16:53:41.871Z</time></trkpt><trkpt lat="42.9165551" lon="11.4993524"><ele>358.0</ele><time>2026-05-01T16:53:42.873Z</time></trkpt><trkpt lat="42.916462" lon="11.4991685"><ele>358.0</ele><time>2026-05-01T16:53:43.874Z</time></trkpt><trkpt lat="42.9163715" lon="11.4989878"><ele>358.0</ele><time>2026-05-01T16:53:44.88Z</time></trkpt><trkpt lat="42.9162886" lon="11.498807"><ele>358.0</ele><time>2026-05-01T16:53:45.892Z</time></trkpt><trkpt lat="42.9162175" lon="11.4986137"><ele>354.66666666666663</ele><time>2026-05-01T16:53:46.864Z</time></trkpt><trkpt lat="42.9161593" lon="11.4984076"><ele>351.3333333333333</ele><time>2026-05-01T16:53:47.874Z</time></trkpt><trkpt lat="42.916107" lon="11.4981978"><ele>348.0</ele><time>2026-05-01T16:53:48.876Z</time></trkpt><trkpt lat="42.9160605" lon="11.4979896"><ele>343.6666666666667</ele><time>2026-05-01T16:53:49.881Z</time></trkpt><trkpt lat="42.916018" lon="11.4977826"><ele>339.33333333333337</ele><time>2026-05-01T16:53:50.901Z</time></trkpt><trkpt lat="42.9159763" lon="11.4975812"><ele>335.0</ele><time>2026-05-01T16:53:51.868Z</time></trkpt><trkpt lat="42.9159346" lon="11.4973817"><ele>340.0</ele><time>2026-05-01T16:53:52.872Z</time></trkpt><trkpt lat="42.9158923" lon="11.4971809"><ele>345.0</ele><time>2026-05-01T16:53:53.891Z</time></trkpt><trkpt lat="42.9158506" lon="11.4969809"><ele>350.0</ele><time>2026-05-01T16:53:54.893Z</time></trkpt><trkpt lat="42.9158155" lon="11.4967821"><ele>350.0</ele><time>2026-05-01T16:53:55.872Z</time></trkpt><trkpt lat="42.9157941" lon="11.4965852"><ele>350.0</ele><time>2026-05-01T16:53:56.869Z</time></trkpt><trkpt lat="42.9157909" lon="11.4963865"><ele>350.0</ele><time>2026-05-01T16:53:57.863Z</time></trkpt><trkpt lat="42.9158045" lon="11.4961884"><ele>350.0</ele><time>2026-05-01T16:53:58.868Z</time></trkpt><trkpt lat="42.9158346" lon="11.495991"><ele>347.6666666666667</ele><time>2026-05-01T16:53:59.862Z</time></trkpt><trkpt lat="42.9158796" lon="11.4957972"><ele>345.3333333333333</ele><time>2026-05-01T16:54:00.871Z</time></trkpt><trkpt lat="42.9159372" lon="11.4956077"><ele>343.0</ele><time>2026-05-01T16:54:01.882Z</time></trkpt><trkpt lat="42.9160015" lon="11.495422"><ele>331.3333333333333</ele><time>2026-05-01T16:54:02.885Z</time></trkpt><trkpt lat="42.9160685" lon="11.4952367"><ele>319.6666666666667</ele><time>2026-05-01T16:54:03.865Z</time></trkpt><trkpt lat="42.9161345" lon="11.4950499"><ele>308.0</ele><time>2026-05-01T16:54:04.87Z</time></trkpt><trkpt lat="42.9161996" lon="11.494861"><ele>308.0</ele><time>2026-05-01T16:54:05.882Z</time></trkpt><trkpt lat="42.9162641" lon="11.4946722"><ele>308.0</ele><time>2026-05-01T16:54:06.876Z</time></trkpt><trkpt lat="42.9163295" lon="11.4944835"><ele>308.0</ele><time>2026-05-01T16:54:07.877Z</time></trkpt><trkpt lat="42.9163977" lon="11.4942937"><ele>310.6666666666667</ele><time>2026-05-01T16:54:08.897Z</time></trkpt><trkpt lat="42.9164684" lon="11.4940997"><ele>313.3333333333333</ele><time>2026-05-01T16:54:09.88Z</time></trkpt><trkpt lat="42.9165394" lon="11.4939012"><ele>316.0</ele><time>2026-05-01T16:54:10.862Z</time></trkpt><trkpt lat="42.9166087" lon="11.4937"><ele>320.66666666666663</ele><time>2026-05-01T16:54:11.88Z</time></trkpt><trkpt lat="42.9166783" lon="11.4934983"><ele>325.3333333333333</ele><time>2026-05-01T16:54:12.878Z</time></trkpt><trkpt lat="42.9167477" lon="11.4932991"><ele>330.0</ele><time>2026-05-01T16:54:13.877Z</time></trkpt><trkpt lat="42.9168163" lon="11.4931032"><ele>332.3333333333333</ele><time>2026-05-01T16:54:14.894Z</time></trkpt><trkpt lat="42.9168855" lon="11.492912"><ele>334.66666666666663</ele><time>2026-05-01T16:54:15.882Z</time></trkpt><trkpt lat="42.9169595" lon="11.4927234"><ele>337.0</ele><time>2026-05-01T16:54:16.892Z</time></trkpt><trkpt lat="42.9170204" lon="11.4925429"><ele>337.0</ele><time>2026-05-01T16:54:17.885Z</time></trkpt><trkpt lat="42.9171155" lon="11.4923643"><ele>337.0</ele><time>2026-05-01T16:54:18.886Z</time></trkpt><trkpt lat="42.9172248" lon="11.4922052"><ele>337.0</ele><time>2026-05-01T16:54:19.871Z</time></trkpt><trkpt lat="42.9173373" lon="11.4920487"><ele>341.0</ele><time>2026-05-01T16:54:20.872Z</time></trkpt><trkpt lat="42.9174707" lon="11.4919232"><ele>345.0</ele><time>2026-05-01T16:54:21.87Z</time></trkpt><trkpt lat="42.9176053" lon="11.4918091"><ele>349.0</ele><time>2026-05-01T16:54:22.879Z</time></trkpt><trkpt lat="42.9177395" lon="11.4917019"><ele>349.0</ele><time>2026-05-01T16:54:23.864Z</time></trkpt><trkpt lat="42.9178731" lon="11.4915905"><ele>349.0</ele><time>2026-05-01T16:54:24.874Z</time></trkpt><trkpt lat="42.9180002" lon="11.4914798"><ele>349.0</ele><time>2026-05-01T16:54:25.884Z</time></trkpt><trkpt lat="42.9181262" lon="11.4913686"><ele>349.0</ele><time>2026-05-01T16:54:26.865Z</time></trkpt><trkpt lat="42.9182543" lon="11.4912623"><ele>349.0</ele><time>2026-05-01T16:54:27.879Z</time></trkpt><trkpt lat="42.9183779" lon="11.4911555"><ele>349.0</ele><time>2026-05-01T16:54:28.872Z</time></trkpt><trkpt lat="42.9184965" lon="11.491055"><ele>349.0</ele><time>2026-05-01T16:54:29.863Z</time></trkpt><trkpt lat="42.918612" lon="11.4909586"><ele>353.5</ele><time>2026-05-01T16:54:30.878Z</time></trkpt><trkpt lat="42.918722" lon="11.4908696"><ele>358.0</ele><time>2026-05-01T16:54:31.888Z</time></trkpt><trkpt lat="42.9188301" lon="11.4907947"><ele>362.5</ele><time>2026-05-01T16:54:32.872Z</time></trkpt><trkpt lat="42.91894" lon="11.4907467"><ele>367.0</ele><time>2026-05-01T16:54:33.893Z</time></trkpt><trkpt lat="42.9190541" lon="11.4907296"><ele>367.0</ele><time>2026-05-01T16:54:34.886Z</time></trkpt><trkpt lat="42.9191731" lon="11.490736"><ele>367.0</ele><time>2026-05-01T16:54:35.88Z</time></trkpt><trkpt lat="42.9192833" lon="11.49079"><ele>367.0</ele><time>2026-05-01T16:54:36.879Z</time></trkpt><trkpt lat="42.9193917" lon="11.4908736"><ele>367.0</ele><time>2026-05-01T16:54:37.885Z</time></trkpt><trkpt lat="42.9194959" lon="11.4909792"><ele>366.5</ele><time>2026-05-01T16:54:38.891Z</time></trkpt><trkpt lat="42.9196016" lon="11.4910882"><ele>366.0</ele><time>2026-05-01T16:54:39.872Z</time></trkpt><trkpt lat="42.9197112" lon="11.4911976"><ele>365.5</ele><time>2026-05-01T16:54:40.885Z</time></trkpt><trkpt lat="42.9198212" lon="11.491305"><ele>365.0</ele><time>2026-05-01T16:54:41.871Z</time></trkpt><trkpt lat="42.9199368" lon="11.491415"><ele>365.0</ele><time>2026-05-01T16:54:42.878Z</time></trkpt><trkpt lat="42.9200488" lon="11.4915197"><ele>365.0</ele><time>2026-05-01T16:54:43.89Z</time></trkpt><trkpt lat="42.9201545" lon="11.4916236"><ele>365.0</ele><time>2026-05-01T16:54:44.873Z</time></trkpt><trkpt lat="42.9202544" lon="11.4917191"><ele>365.0</ele><time>2026-05-01T16:54:45.876Z</time></trkpt><trkpt lat="42.9203608" lon="11.4917892"><ele>367.0</ele><time>2026-05-01T16:54:46.884Z</time></trkpt><trkpt lat="42.9204784" lon="11.4918243"><ele>369.0</ele><time>2026-05-01T16:54:47.894Z</time></trkpt><trkpt lat="42.9205996" lon="11.4918173"><ele>371.0</ele><time>2026-05-01T16:54:48.881Z</time></trkpt><trkpt lat="42.9207157" lon="11.4917723"><ele>373.0</ele><time>2026-05-01T16:54:49.874Z</time></trkpt><trkpt lat="42.9208243" lon="11.4916871"><ele>375.75</ele><time>2026-05-01T16:54:50.873Z</time></trkpt><trkpt lat="42.9209206" lon="11.4915728"><ele>378.5</ele><time>2026-05-01T16:54:51.868Z</time></trkpt><trkpt lat="42.9210087" lon="11.4914387"><ele>381.25</ele><time>2026-05-01T16:54:52.881Z</time></trkpt><trkpt lat="42.9210946" lon="11.4913001"><ele>384.0</ele><time>2026-05-01T16:54:53.873Z</time></trkpt><trkpt lat="42.921183" lon="11.4911619"><ele>384.0</ele><time>2026-05-01T16:54:54.869Z</time></trkpt><trkpt lat="42.9212765" lon="11.4910311"><ele>384.0</ele><time>2026-05-01T16:54:55.869Z</time></trkpt><trkpt lat="42.9213807" lon="11.4909141"><ele>384.0</ele><time>2026-05-01T16:54:56.874Z</time></trkpt><trkpt lat="42.9214918" lon="11.4908117"><ele>384.0</ele><time>2026-05-01T16:54:57.887Z</time></trkpt><trkpt lat="42.9216074" lon="11.4907191"><ele>384.0</ele><time>2026-05-01T16:54:58.866Z</time></trkpt><trkpt lat="42.9217242" lon="11.4906279"><ele>384.0</ele><time>2026-05-01T16:54:59.888Z</time></trkpt><trkpt lat="42.9218406" lon="11.4905316"><ele>384.0</ele><time>2026-05-01T16:55:00.88Z</time></trkpt><trkpt lat="42.9219535" lon="11.4904261"><ele>384.0</ele><time>2026-05-01T16:55:01.885Z</time></trkpt><trkpt lat="42.9220578" lon="11.4903067"><ele>383.75</ele><time>2026-05-01T16:55:02.868Z</time></trkpt><trkpt lat="42.9221514" lon="11.4901728"><ele>383.5</ele><time>2026-05-01T16:55:03.872Z</time></trkpt><trkpt lat="42.9222329" lon="11.4900233"><ele>383.25</ele><time>2026-05-01T16:55:04.875Z</time></trkpt><trkpt lat="42.922302" lon="11.4898607"><ele>383.0</ele><time>2026-05-01T16:55:05.878Z</time></trkpt><trkpt lat="42.9223605" lon="11.4896867"><ele>383.25</ele><time>2026-05-01T16:55:06.88Z</time></trkpt><trkpt lat="42.9224189" lon="11.4895075"><ele>383.5</ele><time>2026-05-01T16:55:07.872Z</time></trkpt><trkpt lat="42.9224799" lon="11.489328"><ele>383.75</ele><time>2026-05-01T16:55:08.888Z</time></trkpt><trkpt lat="42.9225408" lon="11.4891466"><ele>384.0</ele><time>2026-05-01T16:55:09.876Z</time></trkpt><trkpt lat="42.9226017" lon="11.488964"><ele>383.5</ele><time>2026-05-01T16:55:10.886Z</time></trkpt><trkpt lat="42.9226626" lon="11.4887791"><ele>383.0</ele><time>2026-05-01T16:55:11.883Z</time></trkpt><trkpt lat="42.9227242" lon="11.4885925"><ele>382.5</ele><time>2026-05-01T16:55:12.886Z</time></trkpt><trkpt lat="42.9227858" lon="11.4884041"><ele>382.0</ele><time>2026-05-01T16:55:13.874Z</time></trkpt><trkpt lat="42.9228487" lon="11.4882159"><ele>385.0</ele><time>2026-05-01T16:55:14.905Z</time></trkpt><trkpt lat="42.9229113" lon="11.4880276"><ele>388.0</ele><time>2026-05-01T16:55:15.888Z</time></trkpt><trkpt lat="42.9229757" lon="11.4878389"><ele>391.0</ele><time>2026-05-01T16:55:16.878Z</time></trkpt><trkpt lat="42.9230404" lon="11.4876498"><ele>393.6666666666667</ele><time>2026-05-01T16:55:17.879Z</time></trkpt><trkpt lat="42.9231046" lon="11.4874581"><ele>396.33333333333337</ele><time>2026-05-01T16:55:18.881Z</time></trkpt><trkpt lat="42.9231707" lon="11.487263"><ele>399.0</ele><time>2026-05-01T16:55:19.876Z</time></trkpt><trkpt lat="42.9232389" lon="11.4870643"><ele>400.33333333333337</ele><time>2026-05-01T16:55:20.876Z</time></trkpt><trkpt lat="42.9233089" lon="11.4868624"><ele>401.6666666666667</ele><time>2026-05-01T16:55:21.881Z</time></trkpt><trkpt lat="42.9233783" lon="11.486662"><ele>403.0</ele><time>2026-05-01T16:55:22.882Z</time></trkpt><trkpt lat="42.923446" lon="11.4864649"><ele>404.0</ele><time>2026-05-01T16:55:23.877Z</time></trkpt><trkpt lat="42.9235127" lon="11.4862711"><ele>405.0</ele><time>2026-05-01T16:55:24.87Z</time></trkpt><trkpt lat="42.9235782" lon="11.4860777"><ele>406.0</ele><time>2026-05-01T16:55:25.88Z</time></trkpt><trkpt lat="42.9236371" lon="11.4858888"><ele>406.0</ele><time>2026-05-01T16:55:26.879Z</time></trkpt><trkpt lat="42.9236873" lon="11.4857023"><ele>406.0</ele><time>2026-05-01T16:55:27.889Z</time></trkpt><trkpt lat="42.9237228" lon="11.4855188"><ele>406.0</ele><time>2026-05-01T16:55:28.863Z</time></trkpt><trkpt lat="42.9237428" lon="11.4853295"><ele>406.0</ele><time>2026-05-01T16:55:29.88Z</time></trkpt><trkpt lat="42.9237463" lon="11.4851435"><ele>404.0</ele><time>2026-05-01T16:55:30.873Z</time></trkpt><trkpt lat="42.923734" lon="11.4849588"><ele>402.0</ele><time>2026-05-01T16:55:31.869Z</time></trkpt><trkpt lat="42.9237067" lon="11.4847774"><ele>400.0</ele><time>2026-05-01T16:55:32.879Z</time></trkpt><trkpt lat="42.9236677" lon="11.4846012"><ele>398.0</ele><time>2026-05-01T16:55:33.877Z</time></trkpt><trkpt lat="42.9236176" lon="11.4844258"><ele>395.75</ele><time>2026-05-01T16:55:34.892Z</time></trkpt><trkpt lat="42.9235565" lon="11.4842558"><ele>393.5</ele><time>2026-05-01T16:55:35.875Z</time></trkpt><trkpt lat="42.9234831" lon="11.4840891"><ele>391.25</ele><time>2026-05-01T16:55:36.877Z</time></trkpt><trkpt lat="42.9234026" lon="11.4839248"><ele>389.0</ele><time>2026-05-01T16:55:37.891Z</time></trkpt><trkpt lat="42.9233196" lon="11.4837617"><ele>389.0</ele><time>2026-05-01T16:55:38.874Z</time></trkpt><trkpt lat="42.9232349" lon="11.4835929"><ele>389.0</ele><time>2026-05-01T16:55:39.876Z</time></trkpt><trkpt lat="42.9231491" lon="11.4834214"><ele>389.0</ele><time>2026-05-01T16:55:40.874Z</time></trkpt><trkpt lat="42.9230629" lon="11.4832441"><ele>389.0</ele><time>2026-05-01T16:55:41.897Z</time></trkpt><trkpt lat="42.9229775" lon="11.4830659"><ele>389.0</ele><time>2026-05-01T16:55:42.881Z</time></trkpt><trkpt lat="42.922892" lon="11.4828785"><ele>389.0</ele><time>2026-05-01T16:55:43.899Z</time></trkpt><trkpt lat="42.9228135" lon="11.4826866"><ele>386.3333333333333</ele><time>2026-05-01T16:55:44.878Z</time></trkpt><trkpt lat="42.9227426" lon="11.4824835"><ele>383.66666666666663</ele><time>2026-05-01T16:55:45.876Z</time></trkpt><trkpt lat="42.9226831" lon="11.4822712"><ele>381.0</ele><time>2026-05-01T16:55:46.875Z</time></trkpt><trkpt lat="42.9226374" lon="11.4820476"><ele>379.3333333333333</ele><time>2026-05-01T16:55:47.883Z</time></trkpt><trkpt lat="42.922605" lon="11.4818157"><ele>377.66666666666663</ele><time>2026-05-01T16:55:48.883Z</time></trkpt><trkpt lat="42.9225843" lon="11.4815804"><ele>376.0</ele><time>2026-05-01T16:55:49.869Z</time></trkpt><trkpt lat="42.9225723" lon="11.4813417"><ele>373.0</ele><time>2026-05-01T16:55:50.872Z</time></trkpt><trkpt lat="42.9225701" lon="11.4811022"><ele>370.0</ele><time>2026-05-01T16:55:51.875Z</time></trkpt><trkpt lat="42.9225782" lon="11.4808629"><ele>367.0</ele><time>2026-05-01T16:55:52.879Z</time></trkpt><trkpt lat="42.922593" lon="11.4806242"><ele>366.0</ele><time>2026-05-01T16:55:53.88Z</time></trkpt><trkpt lat="42.9226103" lon="11.4803859"><ele>365.0</ele><time>2026-05-01T16:55:54.87Z</time></trkpt><trkpt lat="42.9226245" lon="11.4801446"><ele>364.0</ele><time>2026-05-01T16:55:55.873Z</time></trkpt><trkpt lat="42.9226353" lon="11.4799008"><ele>364.0</ele><time>2026-05-01T16:55:56.888Z</time></trkpt><trkpt lat="42.9226458" lon="11.4796569"><ele>364.0</ele><time>2026-05-01T16:55:57.87Z</time></trkpt><trkpt lat="42.9226597" lon="11.4794055"><ele>364.0</ele><time>2026-05-01T16:55:58.874Z</time></trkpt><trkpt lat="42.9226831" lon="11.4791516"><ele>362.66666666666663</ele><time>2026-05-01T16:55:59.889Z</time></trkpt><trkpt lat="42.922724" lon="11.4789003"><ele>361.3333333333333</ele><time>2026-05-01T16:56:00.887Z</time></trkpt><trkpt lat="42.9227811" lon="11.4786517"><ele>360.0</ele><time>2026-05-01T16:56:01.883Z</time></trkpt><trkpt lat="42.9228543" lon="11.4784095"><ele>357.0</ele><time>2026-05-01T16:56:02.885Z</time></trkpt><trkpt lat="42.922942" lon="11.4781773"><ele>354.0</ele><time>2026-05-01T16:56:03.893Z</time></trkpt><trkpt lat="42.9230428" lon="11.4779582"><ele>351.0</ele><time>2026-05-01T16:56:04.886Z</time></trkpt><trkpt lat="42.9231571" lon="11.4777502"><ele>348.0</ele><time>2026-05-01T16:56:05.871Z</time></trkpt><trkpt lat="42.9232845" lon="11.4775526"><ele>345.0</ele><time>2026-05-01T16:56:06.874Z</time></trkpt><trkpt lat="42.9234247" lon="11.4773699"><ele>342.0</ele><time>2026-05-01T16:56:07.876Z</time></trkpt><trkpt lat="42.9235769" lon="11.4772024"><ele>338.6666666666667</ele><time>2026-05-01T16:56:08.875Z</time></trkpt><trkpt lat="42.9237404" lon="11.4770485"><ele>335.33333333333337</ele><time>2026-05-01T16:56:09.898Z</time></trkpt><trkpt lat="42.923907" lon="11.4769069"><ele>332.0</ele><time>2026-05-01T16:56:10.873Z</time></trkpt><trkpt lat="42.9240778" lon="11.4767644"><ele>329.6666666666667</ele><time>2026-05-01T16:56:11.88Z</time></trkpt><trkpt lat="42.9242473" lon="11.4766212"><ele>327.3333333333333</ele><time>2026-05-01T16:56:12.881Z</time></trkpt><trkpt lat="42.9244156" lon="11.4764742"><ele>325.0</ele><time>2026-05-01T16:56:13.88Z</time></trkpt><trkpt lat="42.9245837" lon="11.4763252"><ele>323.3333333333333</ele><time>2026-05-01T16:56:14.876Z</time></trkpt><trkpt lat="42.9247506" lon="11.4761735"><ele>321.6666666666667</ele><time>2026-05-01T16:56:15.868Z</time></trkpt><trkpt lat="42.9249166" lon="11.476018"><ele>320.0</ele><time>2026-05-01T16:56:16.88Z</time></trkpt><trkpt lat="42.9250775" lon="11.4758564"><ele>318.6666666666667</ele><time>2026-05-01T16:56:17.886Z</time></trkpt><trkpt lat="42.9252339" lon="11.4756893"><ele>317.3333333333333</ele><time>2026-05-01T16:56:18.88Z</time></trkpt><trkpt lat="42.9253889" lon="11.4755202"><ele>316.0</ele><time>2026-05-01T16:56:19.876Z</time></trkpt><trkpt lat="42.9255426" lon="11.475353"><ele>313.66666666666663</ele><time>2026-05-01T16:56:20.865Z</time></trkpt><trkpt lat="42.9256968" lon="11.4751873"><ele>311.3333333333333</ele><time>2026-05-01T16:56:21.88Z</time></trkpt><trkpt lat="42.9258474" lon="11.4750261"><ele>309.0</ele><time>2026-05-01T16:56:22.885Z</time></trkpt><trkpt lat="42.9259963" lon="11.4748698"><ele>308.3333333333333</ele><time>2026-05-01T16:56:23.877Z</time></trkpt><trkpt lat="42.9261469" lon="11.4747175"><ele>307.66666666666663</ele><time>2026-05-01T16:56:24.883Z</time></trkpt><trkpt lat="42.9262975" lon="11.4745743"><ele>307.0</ele><time>2026-05-01T16:56:25.871Z</time></trkpt><trkpt lat="42.9264536" lon="11.4744464"><ele>304.66666666666663</ele><time>2026-05-01T16:56:26.878Z</time></trkpt><trkpt lat="42.9266164" lon="11.4743487"><ele>302.3333333333333</ele><time>2026-05-01T16:56:27.882Z</time></trkpt><trkpt lat="42.9267875" lon="11.4742882"><ele>300.0</ele><time>2026-05-01T16:56:28.883Z</time></trkpt><trkpt lat="42.9269667" lon="11.4742601"><ele>297.3333333333333</ele><time>2026-05-01T16:56:29.883Z</time></trkpt><trkpt lat="42.9271517" lon="11.4742503"><ele>294.66666666666663</ele><time>2026-05-01T16:56:30.883Z</time></trkpt><trkpt lat="42.927337" lon="11.4742443"><ele>292.0</ele><time>2026-05-01T16:56:31.875Z</time></trkpt><trkpt lat="42.9275213" lon="11.4742377"><ele>289.66666666666663</ele><time>2026-05-01T16:56:32.87Z</time></trkpt><trkpt lat="42.9277046" lon="11.4742298"><ele>287.3333333333333</ele><time>2026-05-01T16:56:33.879Z</time></trkpt><trkpt lat="42.927885" lon="11.4742212"><ele>285.0</ele><time>2026-05-01T16:56:34.878Z</time></trkpt><trkpt lat="42.9280643" lon="11.4742125"><ele>285.0</ele><time>2026-05-01T16:56:35.879Z</time></trkpt><trkpt lat="42.9282439" lon="11.474204"><ele>285.0</ele><time>2026-05-01T16:56:36.876Z</time></trkpt><trkpt lat="42.9284257" lon="11.4741966"><ele>285.0</ele><time>2026-05-01T16:56:37.9Z</time></trkpt><trkpt lat="42.9286043" lon="11.4741956"><ele>283.0</ele><time>2026-05-01T16:56:38.878Z</time></trkpt><trkpt lat="42.9287867" lon="11.4742079"><ele>281.0</ele><time>2026-05-01T16:56:39.875Z</time></trkpt><trkpt lat="42.9289726" lon="11.4742383"><ele>279.0</ele><time>2026-05-01T16:56:40.883Z</time></trkpt><trkpt lat="42.9291587" lon="11.4742816"><ele>275.6666666666667</ele><time>2026-05-01T16:56:41.865Z</time></trkpt><trkpt lat="42.9293459" lon="11.4743278"><ele>272.33333333333337</ele><time>2026-05-01T16:56:42.881Z</time></trkpt><trkpt lat="42.9295272" lon="11.4743694"><ele>269.0</ele><time>2026-05-01T16:56:43.875Z</time></trkpt><trkpt lat="42.9297069" lon="11.4744038"><ele>269.0</ele><time>2026-05-01T16:56:44.883Z</time></trkpt><trkpt lat="42.9298832" lon="11.4744261"><ele>269.0</ele><time>2026-05-01T16:56:45.875Z</time></trkpt><trkpt lat="42.9300609" lon="11.4744344"><ele>269.0</ele><time>2026-05-01T16:56:46.889Z</time></trkpt><trkpt lat="42.9302382" lon="11.4744259"><ele>268.33333333333337</ele><time>2026-05-01T16:56:47.88Z</time></trkpt><trkpt lat="42.9304175" lon="11.4743969"><ele>267.6666666666667</ele><time>2026-05-01T16:56:48.874Z</time></trkpt><trkpt lat="42.9305995" lon="11.4743485"><ele>267.0</ele><time>2026-05-01T16:56:49.896Z</time></trkpt><trkpt lat="42.9307789" lon="11.4742873"><ele>265.3333333333333</ele><time>2026-05-01T16:56:50.878Z</time></trkpt><trkpt lat="42.9309599" lon="11.4742156"><ele>263.66666666666663</ele><time>2026-05-01T16:56:51.881Z</time></trkpt><trkpt lat="42.9311401" lon="11.4741411"><ele>262.0</ele><time>2026-05-01T16:56:52.875Z</time></trkpt><trkpt lat="42.9313208" lon="11.4740669"><ele>262.0</ele><time>2026-05-01T16:56:53.877Z</time></trkpt><trkpt lat="42.9315019" lon="11.4739942"><ele>262.0</ele><time>2026-05-01T16:56:54.881Z</time></trkpt><trkpt lat="42.9316824" lon="11.4739221"><ele>262.0</ele><time>2026-05-01T16:56:55.872Z</time></trkpt><trkpt lat="42.9318622" lon="11.4738488"><ele>261.0</ele><time>2026-05-01T16:56:56.87Z</time></trkpt><trkpt lat="42.9320398" lon="11.4737764"><ele>260.0</ele><time>2026-05-01T16:56:57.881Z</time></trkpt><trkpt lat="42.9322139" lon="11.4737061"><ele>259.0</ele><time>2026-05-01T16:56:58.87Z</time></trkpt><trkpt lat="42.9323902" lon="11.4736362"><ele>257.0</ele><time>2026-05-01T16:56:59.878Z</time></trkpt><trkpt lat="42.9325669" lon="11.4735661"><ele>255.0</ele><time>2026-05-01T16:57:00.872Z</time></trkpt><trkpt lat="42.932745" lon="11.4734945"><ele>253.0</ele><time>2026-05-01T16:57:01.877Z</time></trkpt><trkpt lat="42.9329227" lon="11.4734223"><ele>253.0</ele><time>2026-05-01T16:57:02.873Z</time></trkpt><trkpt lat="42.9331022" lon="11.473351"><ele>253.0</ele><time>2026-05-01T16:57:03.881Z</time></trkpt><trkpt lat="42.9332816" lon="11.4732808"><ele>253.0</ele><time>2026-05-01T16:57:04.873Z</time></trkpt><trkpt lat="42.9334634" lon="11.4732099"><ele>250.0</ele><time>2026-05-01T16:57:05.869Z</time></trkpt><trkpt lat="42.9336475" lon="11.4731367"><ele>247.0</ele><time>2026-05-01T16:57:06.881Z</time></trkpt><trkpt lat="42.9338319" lon="11.4730643"><ele>244.0</ele><time>2026-05-01T16:57:07.866Z</time></trkpt><trkpt lat="42.9340221" lon="11.472991"><ele>244.66666666666666</ele><time>2026-05-01T16:57:08.883Z</time></trkpt><trkpt lat="42.9342121" lon="11.4729168"><ele>245.33333333333331</ele><time>2026-05-01T16:57:09.884Z</time></trkpt><trkpt lat="42.9344029" lon="11.4728405"><ele>246.0</ele><time>2026-05-01T16:57:10.881Z</time></trkpt><trkpt lat="42.9345956" lon="11.4727624"><ele>243.0</ele><time>2026-05-01T16:57:11.866Z</time></trkpt><trkpt lat="42.9347912" lon="11.4726797"><ele>240.0</ele><time>2026-05-01T16:57:12.875Z</time></trkpt><trkpt lat="42.9349827" lon="11.4725929"><ele>237.0</ele><time>2026-05-01T16:57:13.879Z</time></trkpt><trkpt lat="42.9351689" lon="11.4725016"><ele>235.33333333333331</ele><time>2026-05-01T16:57:14.879Z</time></trkpt><trkpt lat="42.9353506" lon="11.4724048"><ele>233.66666666666666</ele><time>2026-05-01T16:57:15.87Z</time></trkpt><trkpt lat="42.93553" lon="11.4722981"><ele>232.0</ele><time>2026-05-01T16:57:16.877Z</time></trkpt><trkpt lat="42.9357054" lon="11.4721791"><ele>231.33333333333331</ele><time>2026-05-01T16:57:17.874Z</time></trkpt><trkpt lat="42.935879" lon="11.4720455"><ele>230.66666666666669</ele><time>2026-05-01T16:57:18.875Z</time></trkpt><trkpt lat="42.9360518" lon="11.4718991"><ele>230.0</ele><time>2026-05-01T16:57:19.886Z</time></trkpt><trkpt lat="42.9362237" lon="11.4717442"><ele>230.0</ele><time>2026-05-01T16:57:20.881Z</time></trkpt><trkpt lat="42.9363965" lon="11.4715833"><ele>230.0</ele><time>2026-05-01T16:57:21.873Z</time></trkpt><trkpt lat="42.9365716" lon="11.4714208"><ele>230.0</ele><time>2026-05-01T16:57:22.877Z</time></trkpt><trkpt lat="42.9367464" lon="11.4712603"><ele>230.0</ele><time>2026-05-01T16:57:23.874Z</time></trkpt><trkpt lat="42.9369228" lon="11.4711025"><ele>230.0</ele><time>2026-05-01T16:57:24.893Z</time></trkpt><trkpt lat="42.9370956" lon="11.4709481"><ele>230.0</ele><time>2026-05-01T16:57:25.873Z</time></trkpt><trkpt lat="42.9372687" lon="11.4707919"><ele>230.0</ele><time>2026-05-01T16:57:26.874Z</time></trkpt><trkpt lat="42.9374381" lon="11.4706364"><ele>230.0</ele><time>2026-05-01T16:57:27.878Z</time></trkpt><trkpt lat="42.9376045" lon="11.4704822"><ele>230.0</ele><time>2026-05-01T16:57:28.877Z</time></trkpt><trkpt lat="42.9377711" lon="11.470332"><ele>232.66666666666669</ele><time>2026-05-01T16:57:29.883Z</time></trkpt><trkpt lat="42.9379365" lon="11.4701844"><ele>235.33333333333331</ele><time>2026-05-01T16:57:30.87Z</time></trkpt><trkpt lat="42.9381022" lon="11.4700369"><ele>238.0</ele><time>2026-05-01T16:57:31.878Z</time></trkpt><trkpt lat="42.9382646" lon="11.4698917"><ele>237.66666666666666</ele><time>2026-05-01T16:57:32.876Z</time></trkpt><trkpt lat="42.9384253" lon="11.4697471"><ele>237.33333333333331</ele><time>2026-05-01T16:57:33.878Z</time></trkpt><trkpt lat="42.9385855" lon="11.4696029"><ele>237.0</ele><time>2026-05-01T16:57:34.874Z</time></trkpt><trkpt lat="42.9387468" lon="11.469458"><ele>236.66666666666669</ele><time>2026-05-01T16:57:35.878Z</time></trkpt><trkpt lat="42.9389077" lon="11.469313"><ele>236.33333333333334</ele><time>2026-05-01T16:57:36.878Z</time></trkpt><trkpt lat="42.9390676" lon="11.4691674"><ele>236.0</ele><time>2026-05-01T16:57:37.875Z</time></trkpt><trkpt lat="42.9392267" lon="11.4690209"><ele>235.33333333333334</ele><time>2026-05-01T16:57:38.888Z</time></trkpt><trkpt lat="42.9393821" lon="11.4688778"><ele>234.66666666666669</ele><time>2026-05-01T16:57:39.87Z</time></trkpt><trkpt lat="42.9395387" lon="11.4687375"><ele>234.0</ele><time>2026-05-01T16:57:40.884Z</time></trkpt><trkpt lat="42.9396921" lon="11.4686018"><ele>233.33333333333331</ele><time>2026-05-01T16:57:41.874Z</time></trkpt><trkpt lat="42.939847" lon="11.4684671"><ele>232.66666666666666</ele><time>2026-05-01T16:57:42.875Z</time></trkpt><trkpt lat="42.9400028" lon="11.4683328"><ele>232.0</ele><time>2026-05-01T16:57:43.863Z</time></trkpt><trkpt lat="42.9401621" lon="11.4681981"><ele>232.0</ele><time>2026-05-01T16:57:44.868Z</time></trkpt><trkpt lat="42.9403224" lon="11.4680635"><ele>232.0</ele><time>2026-05-01T16:57:45.887Z</time></trkpt><trkpt lat="42.940479" lon="11.4679286"><ele>232.0</ele><time>2026-05-01T16:57:46.873Z</time></trkpt><trkpt lat="42.9406343" lon="11.4677895"><ele>230.33333333333331</ele><time>2026-05-01T16:57:47.866Z</time></trkpt><trkpt lat="42.9407869" lon="11.4676502"><ele>228.66666666666669</ele><time>2026-05-01T16:57:48.869Z</time></trkpt><trkpt lat="42.9409393" lon="11.4675141"><ele>227.0</ele><time>2026-05-01T16:57:49.906Z</time></trkpt><trkpt lat="42.9410908" lon="11.4673878"><ele>227.0</ele><time>2026-05-01T16:57:50.899Z</time></trkpt><trkpt lat="42.941248" lon="11.4672698"><ele>227.0</ele><time>2026-05-01T16:57:51.894Z</time></trkpt><trkpt lat="42.941412" lon="11.4671645"><ele>227.0</ele><time>2026-05-01T16:57:52.877Z</time></trkpt><trkpt lat="42.9415834" lon="11.4670708"><ele>223.66666666666669</ele><time>2026-05-01T16:57:53.873Z</time></trkpt><trkpt lat="42.9417591" lon="11.4669861"><ele>220.33333333333331</ele><time>2026-05-01T16:57:54.873Z</time></trkpt><trkpt lat="42.9419379" lon="11.4669048"><ele>217.0</ele><time>2026-05-01T16:57:55.886Z</time></trkpt><trkpt lat="42.942117" lon="11.4668229"><ele>217.0</ele><time>2026-05-01T16:57:56.884Z</time></trkpt><trkpt lat="42.9422971" lon="11.4667388"><ele>217.0</ele><time>2026-05-01T16:57:57.895Z</time></trkpt><trkpt lat="42.9424747" lon="11.4666533"><ele>217.0</ele><time>2026-05-01T16:57:58.871Z</time></trkpt><trkpt lat="42.9426541" lon="11.4665673"><ele>217.33333333333331</ele><time>2026-05-01T16:57:59.874Z</time></trkpt><trkpt lat="42.942828" lon="11.4664852"><ele>217.66666666666669</ele><time>2026-05-01T16:58:00.862Z</time></trkpt><trkpt lat="42.9429962" lon="11.4664008"><ele>218.0</ele><time>2026-05-01T16:58:01.872Z</time></trkpt><trkpt lat="42.9431574" lon="11.4663092"><ele>216.66666666666669</ele><time>2026-05-01T16:58:02.873Z</time></trkpt><trkpt lat="42.9433109" lon="11.4662024"><ele>215.33333333333331</ele><time>2026-05-01T16:58:03.868Z</time></trkpt><trkpt lat="42.9434562" lon="11.4660782"><ele>214.0</ele><time>2026-05-01T16:58:04.876Z</time></trkpt><trkpt lat="42.9435937" lon="11.465935"><ele>214.0</ele><time>2026-05-01T16:58:05.88Z</time></trkpt><trkpt lat="42.9437225" lon="11.4657722"><ele>214.0</ele><time>2026-05-01T16:58:06.888Z</time></trkpt><trkpt lat="42.9438418" lon="11.4655914"><ele>214.0</ele><time>2026-05-01T16:58:07.884Z</time></trkpt><trkpt lat="42.9439477" lon="11.4653928"><ele>213.0</ele><time>2026-05-01T16:58:08.867Z</time></trkpt><trkpt lat="42.9440376" lon="11.4651758"><ele>212.0</ele><time>2026-05-01T16:58:09.884Z</time></trkpt><trkpt lat="42.9441143" lon="11.464942"><ele>211.0</ele><time>2026-05-01T16:58:10.872Z</time></trkpt><trkpt lat="42.9441785" lon="11.4646947"><ele>207.33333333333331</ele><time>2026-05-01T16:58:11.897Z</time></trkpt><trkpt lat="42.9442285" lon="11.4644368"><ele>203.66666666666669</ele><time>2026-05-01T16:58:12.869Z</time></trkpt><trkpt lat="42.9442684" lon="11.4641722"><ele>200.0</ele><time>2026-05-01T16:58:13.891Z</time></trkpt><trkpt lat="42.9443039" lon="11.4639037"><ele>200.0</ele><time>2026-05-01T16:58:14.886Z</time></trkpt><trkpt lat="42.9443373" lon="11.4636333"><ele>200.0</ele><time>2026-05-01T16:58:15.87Z</time></trkpt><trkpt lat="42.9443715" lon="11.4633615"><ele>200.0</ele><time>2026-05-01T16:58:16.902Z</time></trkpt><trkpt lat="42.9444075" lon="11.4630888"><ele>200.33333333333334</ele><time>2026-05-01T16:58:17.9Z</time></trkpt><trkpt lat="42.9444432" lon="11.4628139"><ele>200.66666666666669</ele><time>2026-05-01T16:58:18.891Z</time></trkpt><trkpt lat="42.9444772" lon="11.4625374"><ele>201.0</ele><time>2026-05-01T16:58:19.89Z</time></trkpt><trkpt lat="42.9445115" lon="11.4622596"><ele>201.33333333333331</ele><time>2026-05-01T16:58:20.907Z</time></trkpt><trkpt lat="42.9445469" lon="11.4619811"><ele>201.66666666666666</ele><time>2026-05-01T16:58:21.878Z</time></trkpt><trkpt lat="42.9445824" lon="11.461703"><ele>202.0</ele><time>2026-05-01T16:58:22.88Z</time></trkpt><trkpt lat="42.9446184" lon="11.461425"><ele>203.33333333333331</ele><time>2026-05-01T16:58:23.895Z</time></trkpt><trkpt lat="42.9446533" lon="11.4611474"><ele>204.66666666666669</ele><time>2026-05-01T16:58:24.875Z</time></trkpt><trkpt lat="42.9446871" lon="11.4608721"><ele>206.0</ele><time>2026-05-01T16:58:25.883Z</time></trkpt><trkpt lat="42.9447207" lon="11.4605987"><ele>205.0</ele><time>2026-05-01T16:58:26.873Z</time></trkpt><trkpt lat="42.9447548" lon="11.4603294"><ele>204.0</ele><time>2026-05-01T16:58:27.89Z</time></trkpt><trkpt lat="42.9447921" lon="11.4600646"><ele>203.0</ele><time>2026-05-01T16:58:28.879Z</time></trkpt><trkpt lat="42.9448359" lon="11.4598041"><ele>202.33333333333334</ele><time>2026-05-01T16:58:29.882Z</time></trkpt><trkpt lat="42.9448897" lon="11.4595477"><ele>201.66666666666669</ele><time>2026-05-01T16:58:30.877Z</time></trkpt><trkpt lat="42.9449541" lon="11.4592944"><ele>201.0</ele><time>2026-05-01T16:58:31.871Z</time></trkpt><trkpt lat="42.9450283" lon="11.4590441"><ele>202.66666666666669</ele><time>2026-05-01T16:58:32.872Z</time></trkpt><trkpt lat="42.9451106" lon="11.4587976"><ele>204.33333333333334</ele><time>2026-05-01T16:58:33.885Z</time></trkpt><trkpt lat="42.9452" lon="11.4585542"><ele>206.0</ele><time>2026-05-01T16:58:34.873Z</time></trkpt><trkpt lat="42.9452908" lon="11.4583094"><ele>206.33333333333334</ele><time>2026-05-01T16:58:35.886Z</time></trkpt><trkpt lat="42.9453826" lon="11.4580664"><ele>206.66666666666669</ele><time>2026-05-01T16:58:36.871Z</time></trkpt><trkpt lat="42.9454755" lon="11.4578207"><ele>207.0</ele><time>2026-05-01T16:58:37.859Z</time></trkpt><trkpt lat="42.9455699" lon="11.457572"><ele>207.0</ele><time>2026-05-01T16:58:38.874Z</time></trkpt><trkpt lat="42.9456644" lon="11.4573244"><ele>207.0</ele><time>2026-05-01T16:58:39.884Z</time></trkpt><trkpt lat="42.9457594" lon="11.4570772"><ele>207.0</ele><time>2026-05-01T16:58:40.893Z</time></trkpt><trkpt lat="42.9458527" lon="11.4568314"><ele>207.0</ele><time>2026-05-01T16:58:41.888Z</time></trkpt><trkpt lat="42.9459437" lon="11.4565884"><ele>207.0</ele><time>2026-05-01T16:58:42.878Z</time></trkpt><trkpt lat="42.9460319" lon="11.4563485"><ele>207.0</ele><time>2026-05-01T16:58:43.873Z</time></trkpt><trkpt lat="42.9461207" lon="11.4561111"><ele>207.0</ele><time>2026-05-01T16:58:44.884Z</time></trkpt><trkpt lat="42.9462065" lon="11.455878"><ele>207.0</ele><time>2026-05-01T16:58:45.882Z</time></trkpt><trkpt lat="42.9462826" lon="11.4556411"><ele>207.0</ele><time>2026-05-01T16:58:46.878Z</time></trkpt><trkpt lat="42.9463431" lon="11.4553963"><ele>206.0</ele><time>2026-05-01T16:58:47.88Z</time></trkpt><trkpt lat="42.9463883" lon="11.4551458"><ele>205.0</ele><time>2026-05-01T16:58:48.866Z</time></trkpt><trkpt lat="42.9464207" lon="11.4548862"><ele>204.0</ele><time>2026-05-01T16:58:49.871Z</time></trkpt><trkpt lat="42.9464467" lon="11.4546226"><ele>203.0</ele><time>2026-05-01T16:58:50.878Z</time></trkpt><trkpt lat="42.9464739" lon="11.4543583"><ele>202.0</ele><time>2026-05-01T16:58:51.881Z</time></trkpt><trkpt lat="42.9465024" lon="11.4541014"><ele>201.0</ele><time>2026-05-01T16:58:52.866Z</time></trkpt><trkpt lat="42.9465292" lon="11.453852"><ele>201.33333333333331</ele><time>2026-05-01T16:58:53.874Z</time></trkpt><trkpt lat="42.9465484" lon="11.4536135"><ele>201.66666666666666</ele><time>2026-05-01T16:58:54.887Z</time></trkpt><trkpt lat="42.9465483" lon="11.4533875"><ele>202.0</ele><time>2026-05-01T16:58:55.875Z</time></trkpt><trkpt lat="42.9465222" lon="11.4531693"><ele>202.0</ele><time>2026-05-01T16:58:56.875Z</time></trkpt><trkpt lat="42.9464709" lon="11.4529576"><ele>202.0</ele><time>2026-05-01T16:58:57.877Z</time></trkpt><trkpt lat="42.9464013" lon="11.4527447"><ele>202.0</ele><time>2026-05-01T16:58:58.894Z</time></trkpt><trkpt lat="42.9463244" lon="11.4525287"><ele>202.33333333333331</ele><time>2026-05-01T16:58:59.874Z</time></trkpt><trkpt lat="42.9462461" lon="11.4523008"><ele>202.66666666666669</ele><time>2026-05-01T16:59:00.875Z</time></trkpt><trkpt lat="42.9461676" lon="11.4520648"><ele>203.0</ele><time>2026-05-01T16:59:01.881Z</time></trkpt><trkpt lat="42.9460886" lon="11.4518239"><ele>201.33333333333334</ele><time>2026-05-01T16:59:02.868Z</time></trkpt><trkpt lat="42.9460083" lon="11.4515774"><ele>199.66666666666669</ele><time>2026-05-01T16:59:03.889Z</time></trkpt><trkpt lat="42.9459292" lon="11.4513421"><ele>198.0</ele><time>2026-05-01T16:59:04.87Z</time></trkpt><trkpt lat="42.9458537" lon="11.4511112"><ele>197.66666666666669</ele><time>2026-05-01T16:59:05.875Z</time></trkpt><trkpt lat="42.9457859" lon="11.4508875"><ele>197.33333333333334</ele><time>2026-05-01T16:59:06.87Z</time></trkpt><trkpt lat="42.945729" lon="11.450666"><ele>197.0</ele><time>2026-05-01T16:59:07.874Z</time></trkpt><trkpt lat="42.945691" lon="11.4504415"><ele>196.33333333333334</ele><time>2026-05-01T16:59:08.877Z</time></trkpt><trkpt lat="42.9456702" lon="11.4502086"><ele>195.66666666666669</ele><time>2026-05-01T16:59:09.872Z</time></trkpt><trkpt lat="42.9456659" lon="11.4499663"><ele>195.0</ele><time>2026-05-01T16:59:10.881Z</time></trkpt><trkpt lat="42.9456761" lon="11.4497207"><ele>194.66666666666669</ele><time>2026-05-01T16:59:11.878Z</time></trkpt><trkpt lat="42.9456959" lon="11.4494729"><ele>194.33333333333334</ele><time>2026-05-01T16:59:12.88Z</time></trkpt><trkpt lat="42.9457214" lon="11.4492272"><ele>194.0</ele><time>2026-05-01T16:59:13.884Z</time></trkpt><trkpt lat="42.9457487" lon="11.448985"><ele>194.0</ele><time>2026-05-01T16:59:14.884Z</time></trkpt><trkpt lat="42.945776" lon="11.4487429"><ele>194.0</ele><time>2026-05-01T16:59:15.887Z</time></trkpt><trkpt lat="42.9458058" lon="11.4484997"><ele>194.0</ele><time>2026-05-01T16:59:16.881Z</time></trkpt><trkpt lat="42.9458408" lon="11.4482531"><ele>191.66666666666669</ele><time>2026-05-01T16:59:17.884Z</time></trkpt><trkpt lat="42.9458811" lon="11.4480039"><ele>189.33333333333334</ele><time>2026-05-01T16:59:18.891Z</time></trkpt><trkpt lat="42.945926" lon="11.4477555"><ele>187.0</ele><time>2026-05-01T16:59:19.869Z</time></trkpt><trkpt lat="42.9459742" lon="11.4475022"><ele>187.0</ele><time>2026-05-01T16:59:20.884Z</time></trkpt><trkpt lat="42.9460221" lon="11.4472492"><ele>187.0</ele><time>2026-05-01T16:59:21.886Z</time></trkpt><trkpt lat="42.9460683" lon="11.4469943"><ele>187.0</ele><time>2026-05-01T16:59:22.885Z</time></trkpt><trkpt lat="42.9461135" lon="11.446738"><ele>188.66666666666669</ele><time>2026-05-01T16:59:23.877Z</time></trkpt><trkpt lat="42.9461589" lon="11.446482"><ele>190.33333333333334</ele><time>2026-05-01T16:59:24.868Z</time></trkpt><trkpt lat="42.9462045" lon="11.4462266"><ele>192.0</ele><time>2026-05-01T16:59:25.881Z</time></trkpt><trkpt lat="42.9462498" lon="11.4459779"><ele>195.33333333333331</ele><time>2026-05-01T16:59:26.877Z</time></trkpt><trkpt lat="42.9462969" lon="11.4457346"><ele>198.66666666666666</ele><time>2026-05-01T16:59:27.868Z</time></trkpt><trkpt lat="42.9463485" lon="11.4454947"><ele>202.0</ele><time>2026-05-01T16:59:28.878Z</time></trkpt><trkpt lat="42.9464096" lon="11.4452613"><ele>203.33333333333331</ele><time>2026-05-01T16:59:29.867Z</time></trkpt><trkpt lat="42.9464847" lon="11.4450301"><ele>204.66666666666669</ele><time>2026-05-01T16:59:30.882Z</time></trkpt><trkpt lat="42.9465734" lon="11.4448076"><ele>206.0</ele><time>2026-05-01T16:59:31.869Z</time></trkpt><trkpt lat="42.9466779" lon="11.4445903"><ele>205.66666666666669</ele><time>2026-05-01T16:59:32.884Z</time></trkpt><trkpt lat="42.9467958" lon="11.4443863"><ele>205.33333333333331</ele><time>2026-05-01T16:59:33.871Z</time></trkpt><trkpt lat="42.9469257" lon="11.4441904"><ele>205.0</ele><time>2026-05-01T16:59:34.865Z</time></trkpt><trkpt lat="42.9470619" lon="11.4439981"><ele>205.0</ele><time>2026-05-01T16:59:35.868Z</time></trkpt><trkpt lat="42.9472004" lon="11.4438066"><ele>205.0</ele><time>2026-05-01T16:59:36.889Z</time></trkpt><trkpt lat="42.9473359" lon="11.4436197"><ele>205.0</ele><time>2026-05-01T16:59:37.859Z</time></trkpt><trkpt lat="42.9474707" lon="11.4434306"><ele>204.0</ele><time>2026-05-01T16:59:38.866Z</time></trkpt><trkpt lat="42.9476019" lon="11.4432458"><ele>203.0</ele><time>2026-05-01T16:59:39.877Z</time></trkpt><trkpt lat="42.9477306" lon="11.4430638"><ele>202.0</ele><time>2026-05-01T16:59:40.882Z</time></trkpt><trkpt lat="42.9478562" lon="11.4428829"><ele>202.0</ele><time>2026-05-01T16:59:41.872Z</time></trkpt><trkpt lat="42.9479818" lon="11.4427012"><ele>202.0</ele><time>2026-05-01T16:59:42.875Z</time></trkpt><trkpt lat="42.9481072" lon="11.4425193"><ele>202.0</ele><time>2026-05-01T16:59:43.879Z</time></trkpt><trkpt lat="42.9482327" lon="11.4423379"><ele>202.0</ele><time>2026-05-01T16:59:44.869Z</time></trkpt><trkpt lat="42.9483593" lon="11.4421555"><ele>202.0</ele><time>2026-05-01T16:59:45.874Z</time></trkpt><trkpt lat="42.948486" lon="11.441974"><ele>202.0</ele><time>2026-05-01T16:59:46.884Z</time></trkpt><trkpt lat="42.9486118" lon="11.4417944"><ele>200.33333333333331</ele><time>2026-05-01T16:59:47.861Z</time></trkpt><trkpt lat="42.9487396" lon="11.4416113"><ele>198.66666666666669</ele><time>2026-05-01T16:59:48.878Z</time></trkpt><trkpt lat="42.9488649" lon="11.4414319"><ele>197.0</ele><time>2026-05-01T16:59:49.862Z</time></trkpt><trkpt lat="42.9489918" lon="11.4412509"><ele>196.66666666666669</ele><time>2026-05-01T16:59:50.882Z</time></trkpt><trkpt lat="42.9491176" lon="11.4410724"><ele>196.33333333333331</ele><time>2026-05-01T16:59:51.875Z</time></trkpt><trkpt lat="42.949244" lon="11.4408918"><ele>196.0</ele><time>2026-05-01T16:59:52.872Z</time></trkpt><trkpt lat="42.9493705" lon="11.4407099"><ele>195.33333333333331</ele><time>2026-05-01T16:59:53.896Z</time></trkpt><trkpt lat="42.949494" lon="11.4405334"><ele>194.66666666666669</ele><time>2026-05-01T16:59:54.867Z</time></trkpt><trkpt lat="42.9496195" lon="11.4403531"><ele>194.0</ele><time>2026-05-01T16:59:55.882Z</time></trkpt><trkpt lat="42.9497428" lon="11.4401728"><ele>193.33333333333334</ele><time>2026-05-01T16:59:56.871Z</time></trkpt><trkpt lat="42.949868" lon="11.439989"><ele>192.66666666666669</ele><time>2026-05-01T16:59:57.875Z</time></trkpt><trkpt lat="42.9499956" lon="11.4398067"><ele>192.0</ele><time>2026-05-01T16:59:58.868Z</time></trkpt><trkpt lat="42.9501246" lon="11.4396241"><ele>192.0</ele><time>2026-05-01T16:59:59.873Z</time></trkpt><trkpt lat="42.9502506" lon="11.4394463"><ele>192.0</ele><time>2026-05-01T17:00:00.871Z</time></trkpt><trkpt lat="42.950373" lon="11.4392707"><ele>192.0</ele><time>2026-05-01T17:00:01.89Z</time></trkpt><trkpt lat="42.9504843" lon="11.4390918"><ele>192.0</ele><time>2026-05-01T17:00:02.879Z</time></trkpt><trkpt lat="42.9505828" lon="11.4388989"><ele>192.0</ele><time>2026-05-01T17:00:03.882Z</time></trkpt><trkpt lat="42.9506672" lon="11.4386919"><ele>192.0</ele><time>2026-05-01T17:00:04.885Z</time></trkpt><trkpt lat="42.9507367" lon="11.4384715"><ele>192.0</ele><time>2026-05-01T17:00:05.875Z</time></trkpt><trkpt lat="42.9507939" lon="11.4382396"><ele>192.0</ele><time>2026-05-01T17:00:06.881Z</time></trkpt><trkpt lat="42.9508405" lon="11.4380015"><ele>192.0</ele><time>2026-05-01T17:00:07.885Z</time></trkpt><trkpt lat="42.9508798" lon="11.4377616"><ele>194.0</ele><time>2026-05-01T17:00:08.871Z</time></trkpt><trkpt lat="42.9509177" lon="11.4375213"><ele>196.0</ele><time>2026-05-01T17:00:09.874Z</time></trkpt><trkpt lat="42.9509565" lon="11.4372873"><ele>198.0</ele><time>2026-05-01T17:00:10.883Z</time></trkpt><trkpt lat="42.9510002" lon="11.4370623"><ele>198.33333333333331</ele><time>2026-05-01T17:00:11.878Z</time></trkpt><trkpt lat="42.951053" lon="11.4368419"><ele>198.66666666666666</ele><time>2026-05-01T17:00:12.877Z</time></trkpt><trkpt lat="42.9511184" lon="11.4366243"><ele>199.0</ele><time>2026-05-01T17:00:13.888Z</time></trkpt><trkpt lat="42.9511962" lon="11.4364112"><ele>197.33333333333331</ele><time>2026-05-01T17:00:14.878Z</time></trkpt><trkpt lat="42.9512853" lon="11.4362004"><ele>195.66666666666669</ele><time>2026-05-01T17:00:15.881Z</time></trkpt><trkpt lat="42.9513809" lon="11.4359923"><ele>194.0</ele><time>2026-05-01T17:00:16.888Z</time></trkpt><trkpt lat="42.9514773" lon="11.4357856"><ele>194.0</ele><time>2026-05-01T17:00:17.876Z</time></trkpt><trkpt lat="42.9515725" lon="11.4355777"><ele>194.0</ele><time>2026-05-01T17:00:18.871Z</time></trkpt><trkpt lat="42.9516666" lon="11.4353704"><ele>194.0</ele><time>2026-05-01T17:00:19.881Z</time></trkpt><trkpt lat="42.95176" lon="11.4351651"><ele>190.0</ele><time>2026-05-01T17:00:20.882Z</time></trkpt><trkpt lat="42.9518538" lon="11.4349594"><ele>186.0</ele><time>2026-05-01T17:00:21.882Z</time></trkpt><trkpt lat="42.9519479" lon="11.4347529"><ele>182.0</ele><time>2026-05-01T17:00:22.871Z</time></trkpt><trkpt lat="42.9520426" lon="11.434543"><ele>180.66666666666666</ele><time>2026-05-01T17:00:23.91Z</time></trkpt><trkpt lat="42.9521342" lon="11.4343397"><ele>179.33333333333334</ele><time>2026-05-01T17:00:24.891Z</time></trkpt><trkpt lat="42.9522279" lon="11.4341341"><ele>178.0</ele><time>2026-05-01T17:00:25.884Z</time></trkpt><trkpt lat="42.9523234" lon="11.4339267"><ele>177.66666666666669</ele><time>2026-05-01T17:00:26.883Z</time></trkpt><trkpt lat="42.9524195" lon="11.43372"><ele>177.33333333333334</ele><time>2026-05-01T17:00:27.876Z</time></trkpt><trkpt lat="42.9525156" lon="11.4335121"><ele>177.0</ele><time>2026-05-01T17:00:28.887Z</time></trkpt><trkpt lat="42.9526078" lon="11.4333074"><ele>174.0</ele><time>2026-05-01T17:00:29.873Z</time></trkpt><trkpt lat="42.9526935" lon="11.4330993"><ele>171.0</ele><time>2026-05-01T17:00:30.876Z</time></trkpt><trkpt lat="42.9527659" lon="11.432885"><ele>168.0</ele><time>2026-05-01T17:00:31.871Z</time></trkpt><trkpt lat="42.9528252" lon="11.4326593"><ele>168.0</ele><time>2026-05-01T17:00:32.896Z</time></trkpt><trkpt lat="42.9528699" lon="11.4324294"><ele>168.0</ele><time>2026-05-01T17:00:33.885Z</time></trkpt><trkpt lat="42.9529026" lon="11.432193"><ele>168.0</ele><time>2026-05-01T17:00:34.88Z</time></trkpt><trkpt lat="42.9529228" lon="11.4319538"><ele>166.33333333333334</ele><time>2026-05-01T17:00:35.872Z</time></trkpt><trkpt lat="42.95293" lon="11.4317117"><ele>164.66666666666669</ele><time>2026-05-01T17:00:36.889Z</time></trkpt><trkpt lat="42.9529234" lon="11.431474"><ele>163.0</ele><time>2026-05-01T17:00:37.877Z</time></trkpt><trkpt lat="42.952904" lon="11.431236"><ele>161.66666666666669</ele><time>2026-05-01T17:00:38.892Z</time></trkpt><trkpt lat="42.9528721" lon="11.4310048"><ele>160.33333333333334</ele><time>2026-05-01T17:00:39.891Z</time></trkpt><trkpt lat="42.9528279" lon="11.4307777"><ele>159.0</ele><time>2026-05-01T17:00:40.868Z</time></trkpt><trkpt lat="42.9527701" lon="11.4305505"><ele>157.33333333333334</ele><time>2026-05-01T17:00:41.867Z</time></trkpt><trkpt lat="42.9526988" lon="11.4303281"><ele>155.66666666666669</ele><time>2026-05-01T17:00:42.867Z</time></trkpt><trkpt lat="42.9526191" lon="11.4301094"><ele>154.0</ele><time>2026-05-01T17:00:43.863Z</time></trkpt><trkpt lat="42.9525346" lon="11.4298884"><ele>154.66666666666669</ele><time>2026-05-01T17:00:44.896Z</time></trkpt><trkpt lat="42.9524523" lon="11.4296697"><ele>155.33333333333334</ele><time>2026-05-01T17:00:45.886Z</time></trkpt><trkpt lat="42.9523706" lon="11.4294492"><ele>156.0</ele><time>2026-05-01T17:00:46.88Z</time></trkpt><trkpt lat="42.9522905" lon="11.4292299"><ele>156.0</ele><time>2026-05-01T17:00:47.874Z</time></trkpt><trkpt lat="42.9522107" lon="11.4290112"><ele>156.0</ele><time>2026-05-01T17:00:48.893Z</time></trkpt><trkpt lat="42.9521334" lon="11.4287972"><ele>156.0</ele><time>2026-05-01T17:00:49.874Z</time></trkpt><trkpt lat="42.9520608" lon="11.4285781"><ele>154.66666666666666</ele><time>2026-05-01T17:00:50.885Z</time></trkpt><trkpt lat="42.9520024" lon="11.4283545"><ele>153.33333333333331</ele><time>2026-05-01T17:00:51.893Z</time></trkpt><trkpt lat="42.9519601" lon="11.4281266"><ele>152.0</ele><time>2026-05-01T17:00:52.882Z</time></trkpt><trkpt lat="42.9519321" lon="11.4278944"><ele>151.66666666666666</ele><time>2026-05-01T17:00:53.88Z</time></trkpt><trkpt lat="42.9519214" lon="11.4276619"><ele>151.33333333333334</ele><time>2026-05-01T17:00:54.878Z</time></trkpt><trkpt lat="42.9519263" lon="11.427428"><ele>151.0</ele><time>2026-05-01T17:00:55.882Z</time></trkpt><trkpt lat="42.9519447" lon="11.4271929"><ele>150.0</ele><time>2026-05-01T17:00:56.876Z</time></trkpt><trkpt lat="42.9519747" lon="11.426953"><ele>149.0</ele><time>2026-05-01T17:00:57.892Z</time></trkpt><trkpt lat="42.952015" lon="11.4267138"><ele>148.0</ele><time>2026-05-01T17:00:58.88Z</time></trkpt><trkpt lat="42.9520625" lon="11.4264748"><ele>147.66666666666669</ele><time>2026-05-01T17:00:59.867Z</time></trkpt><trkpt lat="42.9521138" lon="11.4262374"><ele>147.33333333333334</ele><time>2026-05-01T17:01:00.88Z</time></trkpt><trkpt lat="42.9521663" lon="11.4260076"><ele>147.0</ele><time>2026-05-01T17:01:01.872Z</time></trkpt><trkpt lat="42.9522198" lon="11.4257796"><ele>147.0</ele><time>2026-05-01T17:01:02.883Z</time></trkpt><trkpt lat="42.9522769" lon="11.4255593"><ele>147.0</ele><time>2026-05-01T17:01:03.876Z</time></trkpt><trkpt lat="42.952342" lon="11.4253444"><ele>147.0</ele><time>2026-05-01T17:01:04.908Z</time></trkpt><trkpt lat="42.952416" lon="11.4251429"><ele>147.0</ele><time>2026-05-01T17:01:05.891Z</time></trkpt><trkpt lat="42.952504" lon="11.4249492"><ele>147.0</ele><time>2026-05-01T17:01:06.886Z</time></trkpt><trkpt lat="42.9526038" lon="11.4247646"><ele>147.0</ele><time>2026-05-01T17:01:07.88Z</time></trkpt><trkpt lat="42.9527152" lon="11.42459"><ele>145.33333333333334</ele><time>2026-05-01T17:01:08.888Z</time></trkpt><trkpt lat="42.9528291" lon="11.4244265"><ele>143.66666666666669</ele><time>2026-05-01T17:01:09.887Z</time></trkpt><trkpt lat="42.9529361" lon="11.4242662"><ele>142.0</ele><time>2026-05-01T17:01:10.883Z</time></trkpt><trkpt lat="42.9530319" lon="11.4240959"><ele>142.0</ele><time>2026-05-01T17:01:11.886Z</time></trkpt><trkpt lat="42.9531148" lon="11.4239108"><ele>142.0</ele><time>2026-05-01T17:01:12.883Z</time></trkpt><trkpt lat="42.953183" lon="11.4237104"><ele>142.0</ele><time>2026-05-01T17:01:13.878Z</time></trkpt><trkpt lat="42.9532363" lon="11.4234974"><ele>142.33333333333334</ele><time>2026-05-01T17:01:14.879Z</time></trkpt><trkpt lat="42.9532792" lon="11.4232753"><ele>142.66666666666666</ele><time>2026-05-01T17:01:15.881Z</time></trkpt><trkpt lat="42.9533212" lon="11.4230477"><ele>143.0</ele><time>2026-05-01T17:01:16.881Z</time></trkpt><trkpt lat="42.9533663" lon="11.4228172"><ele>141.66666666666666</ele><time>2026-05-01T17:01:17.887Z</time></trkpt><trkpt lat="42.9534127" lon="11.4225842"><ele>140.33333333333334</ele><time>2026-05-01T17:01:18.888Z</time></trkpt><trkpt lat="42.9534593" lon="11.4223493"><ele>139.0</ele><time>2026-05-01T17:01:19.873Z</time></trkpt><trkpt lat="42.9535072" lon="11.4221097"><ele>138.66666666666669</ele><time>2026-05-01T17:01:20.879Z</time></trkpt><trkpt lat="42.9535549" lon="11.4218684"><ele>138.33333333333334</ele><time>2026-05-01T17:01:21.885Z</time></trkpt><trkpt lat="42.9536031" lon="11.4216248"><ele>138.0</ele><time>2026-05-01T17:01:22.89Z</time></trkpt><trkpt lat="42.9536524" lon="11.4213784"><ele>137.33333333333334</ele><time>2026-05-01T17:01:23.878Z</time></trkpt><trkpt lat="42.9537043" lon="11.4211246"><ele>136.66666666666669</ele><time>2026-05-01T17:01:24.868Z</time></trkpt><trkpt lat="42.9537581" lon="11.4208633"><ele>136.0</ele><time>2026-05-01T17:01:25.883Z</time></trkpt><trkpt lat="42.9538108" lon="11.4206008"><ele>134.66666666666669</ele><time>2026-05-01T17:01:26.88Z</time></trkpt><trkpt lat="42.9538632" lon="11.4203347"><ele>133.33333333333334</ele><time>2026-05-01T17:01:27.882Z</time></trkpt><trkpt lat="42.9539146" lon="11.4200692"><ele>132.0</ele><time>2026-05-01T17:01:28.868Z</time></trkpt><trkpt lat="42.9539681" lon="11.4198019"><ele>131.0</ele><time>2026-05-01T17:01:29.883Z</time></trkpt><trkpt lat="42.954023" lon="11.4195381"><ele>130.0</ele><time>2026-05-01T17:01:30.892Z</time></trkpt><trkpt lat="42.954077" lon="11.4192769"><ele>129.0</ele><time>2026-05-01T17:01:31.889Z</time></trkpt><trkpt lat="42.9541296" lon="11.4190163"><ele>128.33333333333334</ele><time>2026-05-01T17:01:32.896Z</time></trkpt><trkpt lat="42.9541808" lon="11.4187588"><ele>127.66666666666667</ele><time>2026-05-01T17:01:33.89Z</time></trkpt><trkpt lat="42.9542318" lon="11.4185017"><ele>127.0</ele><time>2026-05-01T17:01:34.889Z</time></trkpt><trkpt lat="42.954283" lon="11.4182464"><ele>126.66666666666667</ele><time>2026-05-01T17:01:35.882Z</time></trkpt><trkpt lat="42.9543345" lon="11.4179923"><ele>126.33333333333334</ele><time>2026-05-01T17:01:36.87Z</time></trkpt><trkpt lat="42.9543865" lon="11.417736"><ele>126.0</ele><time>2026-05-01T17:01:37.881Z</time></trkpt><trkpt lat="42.9544385" lon="11.4174786"><ele>125.66666666666666</ele><time>2026-05-01T17:01:38.891Z</time></trkpt><trkpt lat="42.9544893" lon="11.4172209"><ele>125.33333333333333</ele><time>2026-05-01T17:01:39.884Z</time></trkpt><trkpt lat="42.9545393" lon="11.4169614"><ele>125.0</ele><time>2026-05-01T17:01:40.877Z</time></trkpt><trkpt lat="42.9545902" lon="11.4167012"><ele>124.33333333333333</ele><time>2026-05-01T17:01:41.879Z</time></trkpt><trkpt lat="42.9546428" lon="11.4164403"><ele>123.66666666666666</ele><time>2026-05-01T17:01:42.889Z</time></trkpt><trkpt lat="42.9546954" lon="11.4161802"><ele>123.0</ele><time>2026-05-01T17:01:43.88Z</time></trkpt><trkpt lat="42.9547487" lon="11.4159183"><ele>122.33333333333334</ele><time>2026-05-01T17:01:44.874Z</time></trkpt><trkpt lat="42.9548022" lon="11.4156546"><ele>121.66666666666667</ele><time>2026-05-01T17:01:45.88Z</time></trkpt><trkpt lat="42.9548553" lon="11.4153902"><ele>121.0</ele><time>2026-05-01T17:01:46.89Z</time></trkpt><trkpt lat="42.9549088" lon="11.4151275"><ele>121.0</ele><time>2026-05-01T17:01:47.876Z</time></trkpt><trkpt lat="42.9549628" lon="11.4148631"><ele>121.0</ele><time>2026-05-01T17:01:48.88Z</time></trkpt><trkpt lat="42.9550161" lon="11.4146"><ele>121.0</ele><time>2026-05-01T17:01:49.887Z</time></trkpt><trkpt lat="42.9550695" lon="11.4143387"><ele>119.0</ele><time>2026-05-01T17:01:50.885Z</time></trkpt><trkpt lat="42.9551232" lon="11.4140763"><ele>117.0</ele><time>2026-05-01T17:01:51.887Z</time></trkpt><trkpt lat="42.9551763" lon="11.4138152"><ele>115.0</ele><time>2026-05-01T17:01:52.872Z</time></trkpt><trkpt lat="42.9552291" lon="11.4135529"><ele>114.66666666666667</ele><time>2026-05-01T17:01:53.874Z</time></trkpt><trkpt lat="42.9552809" lon="11.413292"><ele>114.33333333333334</ele><time>2026-05-01T17:01:54.868Z</time></trkpt><trkpt lat="42.9553327" lon="11.4130296"><ele>114.0</ele><time>2026-05-01T17:01:55.874Z</time></trkpt><trkpt lat="42.9553851" lon="11.4127662"><ele>113.66666666666666</ele><time>2026-05-01T17:01:56.885Z</time></trkpt><trkpt lat="42.9554379" lon="11.4125031"><ele>113.33333333333333</ele><time>2026-05-01T17:01:57.892Z</time></trkpt><trkpt lat="42.9554908" lon="11.4122418"><ele>113.0</ele><time>2026-05-01T17:01:58.879Z</time></trkpt><trkpt lat="42.9555441" lon="11.4119795"><ele>114.0</ele><time>2026-05-01T17:01:59.878Z</time></trkpt><trkpt lat="42.9555967" lon="11.41172"><ele>115.0</ele><time>2026-05-01T17:02:00.878Z</time></trkpt><trkpt lat="42.955649" lon="11.4114647"><ele>116.0</ele><time>2026-05-01T17:02:01.865Z</time></trkpt><trkpt lat="42.9557018" lon="11.4112096"><ele>116.33333333333333</ele><time>2026-05-01T17:02:02.873Z</time></trkpt><trkpt lat="42.9557533" lon="11.4109569"><ele>116.66666666666666</ele><time>2026-05-01T17:02:03.887Z</time></trkpt><trkpt lat="42.955803" lon="11.4107069"><ele>117.0</ele><time>2026-05-01T17:02:04.883Z</time></trkpt><trkpt lat="42.9558507" lon="11.4104564"><ele>115.0</ele><time>2026-05-01T17:02:05.889Z</time></trkpt><trkpt lat="42.9558988" lon="11.410208"><ele>113.0</ele><time>2026-05-01T17:02:06.881Z</time></trkpt><trkpt lat="42.9559491" lon="11.4099555"><ele>111.0</ele><time>2026-05-01T17:02:07.888Z</time></trkpt><trkpt lat="42.9560006" lon="11.4097038"><ele>111.0</ele><time>2026-05-01T17:02:08.869Z</time></trkpt><trkpt lat="42.9560525" lon="11.4094469"><ele>111.0</ele><time>2026-05-01T17:02:09.875Z</time></trkpt><trkpt lat="42.9561044" lon="11.4091889"><ele>111.0</ele><time>2026-05-01T17:02:10.894Z</time></trkpt><trkpt lat="42.9561557" lon="11.4089326"><ele>112.0</ele><time>2026-05-01T17:02:11.895Z</time></trkpt><trkpt lat="42.9562067" lon="11.4086759"><ele>113.0</ele><time>2026-05-01T17:02:12.886Z</time></trkpt><trkpt lat="42.9562584" lon="11.4084159"><ele>114.0</ele><time>2026-05-01T17:02:13.899Z</time></trkpt><trkpt lat="42.9563092" lon="11.4081573"><ele>113.66666666666666</ele><time>2026-05-01T17:02:14.9Z</time></trkpt><trkpt lat="42.9563589" lon="11.4078997"><ele>113.33333333333333</ele><time>2026-05-01T17:02:15.891Z</time></trkpt><trkpt lat="42.9564103" lon="11.4076449"><ele>113.0</ele><time>2026-05-01T17:02:16.879Z</time></trkpt><trkpt lat="42.9564609" lon="11.4073913"><ele>112.33333333333333</ele><time>2026-05-01T17:02:17.887Z</time></trkpt><trkpt lat="42.9565102" lon="11.4071427"><ele>111.66666666666666</ele><time>2026-05-01T17:02:18.883Z</time></trkpt><trkpt lat="42.9565583" lon="11.4068966"><ele>111.0</ele><time>2026-05-01T17:02:19.891Z</time></trkpt><trkpt lat="42.9566048" lon="11.4066567"><ele>111.0</ele><time>2026-05-01T17:02:20.871Z</time></trkpt><trkpt lat="42.9566553" lon="11.4064154"><ele>111.0</ele><time>2026-05-01T17:02:21.895Z</time></trkpt><trkpt lat="42.9567082" lon="11.4061798"><ele>111.0</ele><time>2026-05-01T17:02:22.881Z</time></trkpt><trkpt lat="42.9567683" lon="11.4059416"><ele>110.0</ele><time>2026-05-01T17:02:23.874Z</time></trkpt><trkpt lat="42.9568334" lon="11.4056983"><ele>109.0</ele><time>2026-05-01T17:02:24.887Z</time></trkpt><trkpt lat="42.9569018" lon="11.4054562"><ele>108.0</ele><time>2026-05-01T17:02:25.874Z</time></trkpt><trkpt lat="42.9569707" lon="11.4052088"><ele>107.66666666666666</ele><time>2026-05-01T17:02:26.888Z</time></trkpt><trkpt lat="42.9570382" lon="11.4049646"><ele>107.33333333333333</ele><time>2026-05-01T17:02:27.888Z</time></trkpt><trkpt lat="42.9571043" lon="11.4047242"><ele>107.0</ele><time>2026-05-01T17:02:28.873Z</time></trkpt><trkpt lat="42.9571701" lon="11.4044826"><ele>105.0</ele><time>2026-05-01T17:02:29.871Z</time></trkpt><trkpt lat="42.9572338" lon="11.4042394"><ele>103.0</ele><time>2026-05-01T17:02:30.876Z</time></trkpt><trkpt lat="42.957289" lon="11.4039957"><ele>101.0</ele><time>2026-05-01T17:02:31.866Z</time></trkpt><trkpt lat="42.9573278" lon="11.4037462"><ele>99.33333333333333</ele><time>2026-05-01T17:02:32.867Z</time></trkpt><trkpt lat="42.957349" lon="11.4034885"><ele>97.66666666666666</ele><time>2026-05-01T17:02:33.874Z</time></trkpt><trkpt lat="42.9573561" lon="11.4032226"><ele>96.0</ele><time>2026-05-01T17:02:34.874Z</time></trkpt><trkpt lat="42.9573567" lon="11.4029496"><ele>95.66666666666667</ele><time>2026-05-01T17:02:35.887Z</time></trkpt><trkpt lat="42.957357" lon="11.4026764"><ele>95.33333333333334</ele><time>2026-05-01T17:02:36.886Z</time></trkpt><trkpt lat="42.9573631" lon="11.4024535"><ele>95.0</ele><time>2026-05-01T17:02:37.886Z</time></trkpt><trkpt lat="42.95737" lon="11.4022093"><ele>94.33333333333334</ele><time>2026-05-01T17:02:38.9Z</time></trkpt><trkpt lat="42.957377" lon="11.4019629"><ele>93.66666666666667</ele><time>2026-05-01T17:02:39.886Z</time></trkpt><trkpt lat="42.9573809" lon="11.4017049"><ele>93.0</ele><time>2026-05-01T17:02:40.894Z</time></trkpt><trkpt lat="42.9573836" lon="11.4014436"><ele>93.0</ele><time>2026-05-01T17:02:41.878Z</time></trkpt><trkpt lat="42.9573857" lon="11.4011802"><ele>93.0</ele><time>2026-05-01T17:02:42.877Z</time></trkpt><trkpt lat="42.9573889" lon="11.4009127"><ele>93.0</ele><time>2026-05-01T17:02:43.877Z</time></trkpt><trkpt lat="42.9573911" lon="11.4006431"><ele>94.33333333333334</ele><time>2026-05-01T17:02:44.876Z</time></trkpt><trkpt lat="42.9573933" lon="11.4003741"><ele>95.66666666666667</ele><time>2026-05-01T17:02:45.888Z</time></trkpt><trkpt lat="42.9573937" lon="11.4001102"><ele>97.0</ele><time>2026-05-01T17:02:46.883Z</time></trkpt><trkpt lat="42.9573941" lon="11.3998532"><ele>98.33333333333334</ele><time>2026-05-01T17:02:47.864Z</time></trkpt><trkpt lat="42.9573919" lon="11.3995951"><ele>99.66666666666666</ele><time>2026-05-01T17:02:48.881Z</time></trkpt><trkpt lat="42.9573823" lon="11.3993429"><ele>101.0</ele><time>2026-05-01T17:02:49.868Z</time></trkpt><trkpt lat="42.9573696" lon="11.3990864"><ele>101.0</ele><time>2026-05-01T17:02:50.88Z</time></trkpt><trkpt lat="42.9573556" lon="11.3988325"><ele>101.0</ele><time>2026-05-01T17:02:51.876Z</time></trkpt><trkpt lat="42.9573417" lon="11.3985771"><ele>101.0</ele><time>2026-05-01T17:02:52.878Z</time></trkpt><trkpt lat="42.957328" lon="11.3983208"><ele>101.0</ele><time>2026-05-01T17:02:53.887Z</time></trkpt><trkpt lat="42.957316" lon="11.3980721"><ele>101.0</ele><time>2026-05-01T17:02:54.873Z</time></trkpt><trkpt lat="42.957305" lon="11.3978281"><ele>101.0</ele><time>2026-05-01T17:02:55.876Z</time></trkpt><trkpt lat="42.9572959" lon="11.3975921"><ele>101.66666666666666</ele><time>2026-05-01T17:02:56.892Z</time></trkpt><trkpt lat="42.9572921" lon="11.3973644"><ele>102.33333333333334</ele><time>2026-05-01T17:02:57.876Z</time></trkpt><trkpt lat="42.9572968" lon="11.3971344"><ele>103.0</ele><time>2026-05-01T17:02:58.902Z</time></trkpt><trkpt lat="42.9573093" lon="11.3969085"><ele>104.0</ele><time>2026-05-01T17:02:59.877Z</time></trkpt><trkpt lat="42.9573271" lon="11.3966758"><ele>105.0</ele><time>2026-05-01T17:03:00.881Z</time></trkpt><trkpt lat="42.9573478" lon="11.3964407"><ele>106.0</ele><time>2026-05-01T17:03:01.876Z</time></trkpt><trkpt lat="42.9573692" lon="11.3962012"><ele>106.66666666666667</ele><time>2026-05-01T17:03:02.89Z</time></trkpt><trkpt lat="42.9573892" lon="11.3959603"><ele>107.33333333333334</ele><time>2026-05-01T17:03:03.883Z</time></trkpt><trkpt lat="42.9574095" lon="11.3957151"><ele>108.0</ele><time>2026-05-01T17:03:04.879Z</time></trkpt><trkpt lat="42.9574299" lon="11.3954661"><ele>108.66666666666666</ele><time>2026-05-01T17:03:05.867Z</time></trkpt><trkpt lat="42.9574501" lon="11.3952134"><ele>109.33333333333333</ele><time>2026-05-01T17:03:06.873Z</time></trkpt><trkpt lat="42.9574708" lon="11.3949609"><ele>110.0</ele><time>2026-05-01T17:03:07.878Z</time></trkpt><trkpt lat="42.9574929" lon="11.3947092"><ele>109.66666666666666</ele><time>2026-05-01T17:03:08.886Z</time></trkpt><trkpt lat="42.9575152" lon="11.3944607"><ele>109.33333333333334</ele><time>2026-05-01T17:03:09.877Z</time></trkpt><trkpt lat="42.9575375" lon="11.3942119"><ele>109.0</ele><time>2026-05-01T17:03:10.876Z</time></trkpt><trkpt lat="42.957558" lon="11.3939624"><ele>107.66666666666667</ele><time>2026-05-01T17:03:11.881Z</time></trkpt><trkpt lat="42.9575776" lon="11.3937131"><ele>106.33333333333334</ele><time>2026-05-01T17:03:12.872Z</time></trkpt><trkpt lat="42.9575973" lon="11.3934637"><ele>105.0</ele><time>2026-05-01T17:03:13.874Z</time></trkpt><trkpt lat="42.9576164" lon="11.3932174"><ele>105.33333333333334</ele><time>2026-05-01T17:03:14.88Z</time></trkpt><trkpt lat="42.9576355" lon="11.3929722"><ele>105.66666666666667</ele><time>2026-05-01T17:03:15.868Z</time></trkpt><trkpt lat="42.9576554" lon="11.3927233"><ele>106.0</ele><time>2026-05-01T17:03:16.877Z</time></trkpt><trkpt lat="42.9576761" lon="11.3924763"><ele>106.0</ele><time>2026-05-01T17:03:17.873Z</time></trkpt><trkpt lat="42.9576973" lon="11.3922274"><ele>106.0</ele><time>2026-05-01T17:03:18.888Z</time></trkpt><trkpt lat="42.957719" lon="11.3919794"><ele>106.0</ele><time>2026-05-01T17:03:19.89Z</time></trkpt><trkpt lat="42.9577414" lon="11.3917304"><ele>106.33333333333334</ele><time>2026-05-01T17:03:20.872Z</time></trkpt><trkpt lat="42.9577641" lon="11.3914768"><ele>106.66666666666666</ele><time>2026-05-01T17:03:21.882Z</time></trkpt><trkpt lat="42.9577861" lon="11.3912241"><ele>107.0</ele><time>2026-05-01T17:03:22.887Z</time></trkpt><trkpt lat="42.957808" lon="11.3909716"><ele>106.66666666666666</ele><time>2026-05-01T17:03:23.897Z</time></trkpt><trkpt lat="42.9578286" lon="11.3907236"><ele>106.33333333333334</ele><time>2026-05-01T17:03:24.883Z</time></trkpt><trkpt lat="42.9578489" lon="11.390477"><ele>106.0</ele><time>2026-05-01T17:03:25.885Z</time></trkpt><trkpt lat="42.9578688" lon="11.3902352"><ele>106.0</ele><time>2026-05-01T17:03:26.887Z</time></trkpt><trkpt lat="42.9578867" lon="11.3899996"><ele>106.0</ele><time>2026-05-01T17:03:27.869Z</time></trkpt><trkpt lat="42.9579" lon="11.3897639"><ele>106.0</ele><time>2026-05-01T17:03:28.88Z</time></trkpt><trkpt lat="42.9579042" lon="11.3895317"><ele>105.66666666666667</ele><time>2026-05-01T17:03:29.875Z</time></trkpt><trkpt lat="42.9578943" lon="11.3893018"><ele>105.33333333333334</ele><time>2026-05-01T17:03:30.887Z</time></trkpt><trkpt lat="42.9578733" lon="11.3890772"><ele>105.0</ele><time>2026-05-01T17:03:31.897Z</time></trkpt><trkpt lat="42.9578465" lon="11.3888581"><ele>103.66666666666666</ele><time>2026-05-01T17:03:32.876Z</time></trkpt><trkpt lat="42.9578197" lon="11.3886377"><ele>102.33333333333333</ele><time>2026-05-01T17:03:33.874Z</time></trkpt><trkpt lat="42.9577947" lon="11.3884176"><ele>101.0</ele><time>2026-05-01T17:03:34.887Z</time></trkpt><trkpt lat="42.9577712" lon="11.3882002"><ele>100.0</ele><time>2026-05-01T17:03:35.891Z</time></trkpt><trkpt lat="42.9577485" lon="11.3879854"><ele>99.0</ele><time>2026-05-01T17:03:36.877Z</time></trkpt><trkpt lat="42.9577257" lon="11.3877717"><ele>98.0</ele><time>2026-05-01T17:03:37.88Z</time></trkpt><trkpt lat="42.9577026" lon="11.3875633"><ele>98.0</ele><time>2026-05-01T17:03:38.872Z</time></trkpt><trkpt lat="42.9576794" lon="11.3873569"><ele>98.0</ele><time>2026-05-01T17:03:39.871Z</time></trkpt><trkpt lat="42.9576565" lon="11.3871512"><ele>98.0</ele><time>2026-05-01T17:03:40.9Z</time></trkpt><trkpt lat="42.9576345" lon="11.3869512"><ele>98.5</ele><time>2026-05-01T17:03:41.888Z</time></trkpt><trkpt lat="42.9576134" lon="11.3867524"><ele>99.0</ele><time>2026-05-01T17:03:42.896Z</time></trkpt><trkpt lat="42.9575925" lon="11.3865622"><ele>99.5</ele><time>2026-05-01T17:03:43.868Z</time></trkpt><trkpt lat="42.9575712" lon="11.3863775"><ele>100.0</ele><time>2026-05-01T17:03:44.896Z</time></trkpt><trkpt lat="42.9575506" lon="11.3862069"><ele>101.2</ele><time>2026-05-01T17:03:45.893Z</time></trkpt><trkpt lat="42.957531" lon="11.386045"><ele>102.4</ele><time>2026-05-01T17:03:46.886Z</time></trkpt><trkpt lat="42.957513" lon="11.3858918"><ele>103.6</ele><time>2026-05-01T17:03:47.883Z</time></trkpt><trkpt lat="42.957499" lon="11.3857517"><ele>104.8</ele><time>2026-05-01T17:03:48.887Z</time></trkpt><trkpt lat="42.9574894" lon="11.3856311"><ele>106.0</ele><time>2026-05-01T17:03:49.886Z</time></trkpt><trkpt lat="42.9574754" lon="11.385533"><ele>106.0</ele><time>2026-05-01T17:03:50.894Z</time></trkpt><trkpt lat="42.9574757" lon="11.3854406"><ele>106.0</ele><time>2026-05-01T17:03:51.877Z</time></trkpt><trkpt lat="42.9574865" lon="11.3853502"><ele>106.0</ele><time>2026-05-01T17:03:52.892Z</time></trkpt><trkpt lat="42.9575113" lon="11.3852624"><ele>106.0</ele><time>2026-05-01T17:03:53.872Z</time></trkpt><trkpt lat="42.9575427" lon="11.3851702"><ele>106.0</ele><time>2026-05-01T17:03:54.866Z</time></trkpt><trkpt lat="42.9575625" lon="11.3850718"><ele>106.0</ele><time>2026-05-01T17:03:55.903Z</time></trkpt><trkpt lat="42.9575606" lon="11.3849739"><ele>106.0</ele><time>2026-05-01T17:03:56.883Z</time></trkpt><trkpt lat="42.957531" lon="11.38488"><ele>106.0</ele><time>2026-05-01T17:03:57.879Z</time></trkpt><trkpt lat="42.9574811" lon="11.3847878"><ele>106.0</ele><time>2026-05-01T17:03:58.887Z</time></trkpt><trkpt lat="42.9574278" lon="11.3846847"><ele>106.0</ele><time>2026-05-01T17:03:59.902Z</time></trkpt><trkpt lat="42.9573858" lon="11.3845619"><ele>106.0</ele><time>2026-05-01T17:04:00.897Z</time></trkpt><trkpt lat="42.9573571" lon="11.3844162"><ele>106.0</ele><time>2026-05-01T17:04:01.909Z</time></trkpt><trkpt lat="42.9573377" lon="11.3842521"><ele>105.75</ele><time>2026-05-01T17:04:02.895Z</time></trkpt><trkpt lat="42.9573214" lon="11.3840732"><ele>105.5</ele><time>2026-05-01T17:04:03.901Z</time></trkpt><trkpt lat="42.9573044" lon="11.3838867"><ele>105.25</ele><time>2026-05-01T17:04:04.876Z</time></trkpt><trkpt lat="42.9572858" lon="11.3836894"><ele>105.0</ele><time>2026-05-01T17:04:05.882Z</time></trkpt><trkpt lat="42.9572643" lon="11.3834864"><ele>105.0</ele><time>2026-05-01T17:04:06.902Z</time></trkpt><trkpt lat="42.9572415" lon="11.3832799"><ele>105.0</ele><time>2026-05-01T17:04:07.894Z</time></trkpt><trkpt lat="42.9572184" lon="11.3830664"><ele>105.0</ele><time>2026-05-01T17:04:08.897Z</time></trkpt><trkpt lat="42.9571968" lon="11.3828491"><ele>104.66666666666666</ele><time>2026-05-01T17:04:09.893Z</time></trkpt><trkpt lat="42.9571753" lon="11.3826274"><ele>104.33333333333333</ele><time>2026-05-01T17:04:10.9Z</time></trkpt><trkpt lat="42.9571549" lon="11.3824043"><ele>104.0</ele><time>2026-05-01T17:04:11.882Z</time></trkpt><trkpt lat="42.9571348" lon="11.3821846"><ele>103.33333333333333</ele><time>2026-05-01T17:04:12.886Z</time></trkpt><trkpt lat="42.9571123" lon="11.3819605"><ele>102.66666666666666</ele><time>2026-05-01T17:04:13.878Z</time></trkpt><trkpt lat="42.9570903" lon="11.3817356"><ele>102.0</ele><time>2026-05-01T17:04:14.885Z</time></trkpt><trkpt lat="42.9570691" lon="11.3815106"><ele>101.66666666666666</ele><time>2026-05-01T17:04:15.889Z</time></trkpt><trkpt lat="42.9570474" lon="11.3812856"><ele>101.33333333333333</ele><time>2026-05-01T17:04:16.871Z</time></trkpt><trkpt lat="42.9570224" lon="11.3810571"><ele>101.0</ele><time>2026-05-01T17:04:17.891Z</time></trkpt><trkpt lat="42.9569973" lon="11.380832"><ele>101.0</ele><time>2026-05-01T17:04:18.886Z</time></trkpt><trkpt lat="42.9569716" lon="11.3806045"><ele>101.0</ele><time>2026-05-01T17:04:19.883Z</time></trkpt><trkpt lat="42.9569461" lon="11.3803753"><ele>101.0</ele><time>2026-05-01T17:04:20.894Z</time></trkpt><trkpt lat="42.9569212" lon="11.3801449"><ele>101.0</ele><time>2026-05-01T17:04:21.888Z</time></trkpt><trkpt lat="42.9568959" lon="11.3799092"><ele>101.0</ele><time>2026-05-01T17:04:22.881Z</time></trkpt><trkpt lat="42.9568704" lon="11.3796682"><ele>101.0</ele><time>2026-05-01T17:04:23.893Z</time></trkpt><trkpt lat="42.9568449" lon="11.379428"><ele>101.0</ele><time>2026-05-01T17:04:24.874Z</time></trkpt><trkpt lat="42.9568175" lon="11.3791816"><ele>101.0</ele><time>2026-05-01T17:04:25.878Z</time></trkpt><trkpt lat="42.9567897" lon="11.3789328"><ele>101.0</ele><time>2026-05-01T17:04:26.884Z</time></trkpt><trkpt lat="42.956761" lon="11.3786822"><ele>100.66666666666666</ele><time>2026-05-01T17:04:27.881Z</time></trkpt><trkpt lat="42.9567321" lon="11.3784277"><ele>100.33333333333334</ele><time>2026-05-01T17:04:28.887Z</time></trkpt><trkpt lat="42.9567025" lon="11.3781717"><ele>100.0</ele><time>2026-05-01T17:04:29.891Z</time></trkpt><trkpt lat="42.9566737" lon="11.3779137"><ele>99.66666666666667</ele><time>2026-05-01T17:04:30.879Z</time></trkpt><trkpt lat="42.9566451" lon="11.3776528"><ele>99.33333333333334</ele><time>2026-05-01T17:04:31.873Z</time></trkpt><trkpt lat="42.9566171" lon="11.3773942"><ele>99.0</ele><time>2026-05-01T17:04:32.879Z</time></trkpt><trkpt lat="42.9565897" lon="11.3771389"><ele>99.0</ele><time>2026-05-01T17:04:33.903Z</time></trkpt><trkpt lat="42.9565636" lon="11.3768905"><ele>99.0</ele><time>2026-05-01T17:04:34.888Z</time></trkpt><trkpt lat="42.956537" lon="11.3766441"><ele>99.0</ele><time>2026-05-01T17:04:35.873Z</time></trkpt><trkpt lat="42.9565106" lon="11.3763986"><ele>100.33333333333334</ele><time>2026-05-01T17:04:36.883Z</time></trkpt><trkpt lat="42.9564856" lon="11.376159"><ele>101.66666666666667</ele><time>2026-05-01T17:04:37.893Z</time></trkpt><trkpt lat="42.9564613" lon="11.3759303"><ele>103.0</ele><time>2026-05-01T17:04:38.882Z</time></trkpt><trkpt lat="42.9564381" lon="11.3757074"><ele>103.0</ele><time>2026-05-01T17:04:39.901Z</time></trkpt><trkpt lat="42.956416" lon="11.3754907"><ele>103.0</ele><time>2026-05-01T17:04:40.907Z</time></trkpt><trkpt lat="42.956395" lon="11.3752758"><ele>103.0</ele><time>2026-05-01T17:04:41.893Z</time></trkpt><trkpt lat="42.9563747" lon="11.3750596"><ele>103.0</ele><time>2026-05-01T17:04:42.888Z</time></trkpt><trkpt lat="42.9563564" lon="11.3748421"><ele>103.0</ele><time>2026-05-01T17:04:43.888Z</time></trkpt><trkpt lat="42.9563409" lon="11.3746243"><ele>103.0</ele><time>2026-05-01T17:04:44.882Z</time></trkpt><trkpt lat="42.9563283" lon="11.3744047"><ele>102.0</ele><time>2026-05-01T17:04:45.882Z</time></trkpt><trkpt lat="42.9563192" lon="11.3741831"><ele>101.0</ele><time>2026-05-01T17:04:46.892Z</time></trkpt><trkpt lat="42.9563132" lon="11.3739613"><ele>100.0</ele><time>2026-05-01T17:04:47.885Z</time></trkpt><trkpt lat="42.9563084" lon="11.3737373"><ele>99.33333333333334</ele><time>2026-05-01T17:04:48.892Z</time></trkpt><trkpt lat="42.956304" lon="11.3735135"><ele>98.66666666666666</ele><time>2026-05-01T17:04:49.889Z</time></trkpt><trkpt lat="42.9562992" lon="11.3732884"><ele>98.0</ele><time>2026-05-01T17:04:50.884Z</time></trkpt><trkpt lat="42.9562943" lon="11.3730611"><ele>98.33333333333333</ele><time>2026-05-01T17:04:51.89Z</time></trkpt><trkpt lat="42.9562896" lon="11.3728341"><ele>98.66666666666666</ele><time>2026-05-01T17:04:52.878Z</time></trkpt><trkpt lat="42.9562856" lon="11.3726055"><ele>99.0</ele><time>2026-05-01T17:04:53.892Z</time></trkpt><trkpt lat="42.9562821" lon="11.3723816"><ele>98.66666666666666</ele><time>2026-05-01T17:04:54.88Z</time></trkpt><trkpt lat="42.9562778" lon="11.3721572"><ele>98.33333333333333</ele><time>2026-05-01T17:04:55.88Z</time></trkpt><trkpt lat="42.956273" lon="11.3719327"><ele>98.0</ele><time>2026-05-01T17:04:56.881Z</time></trkpt><trkpt lat="42.956268" lon="11.3717073"><ele>98.0</ele><time>2026-05-01T17:04:57.886Z</time></trkpt><trkpt lat="42.9562629" lon="11.3714808"><ele>98.0</ele><time>2026-05-01T17:04:58.887Z</time></trkpt><trkpt lat="42.9562584" lon="11.3712521"><ele>98.0</ele><time>2026-05-01T17:04:59.88Z</time></trkpt><trkpt lat="42.9562535" lon="11.3710202"><ele>98.0</ele><time>2026-05-01T17:05:00.883Z</time></trkpt><trkpt lat="42.9562481" lon="11.3707863"><ele>98.0</ele><time>2026-05-01T17:05:01.882Z</time></trkpt><trkpt lat="42.956242" lon="11.3705492"><ele>98.0</ele><time>2026-05-01T17:05:02.888Z</time></trkpt><trkpt lat="42.9562354" lon="11.3703102"><ele>98.0</ele><time>2026-05-01T17:05:03.889Z</time></trkpt><trkpt lat="42.95623" lon="11.3700686"><ele>98.0</ele><time>2026-05-01T17:05:04.895Z</time></trkpt><trkpt lat="42.9562244" lon="11.3698253"><ele>98.0</ele><time>2026-05-01T17:05:05.892Z</time></trkpt><trkpt lat="42.9562191" lon="11.3695794"><ele>98.0</ele><time>2026-05-01T17:05:06.892Z</time></trkpt><trkpt lat="42.9562141" lon="11.3693311"><ele>98.0</ele><time>2026-05-01T17:05:07.89Z</time></trkpt><trkpt lat="42.9562096" lon="11.3690824"><ele>98.0</ele><time>2026-05-01T17:05:08.882Z</time></trkpt><trkpt lat="42.9562044" lon="11.368833"><ele>98.0</ele><time>2026-05-01T17:05:09.891Z</time></trkpt><trkpt lat="42.9561986" lon="11.3685861"><ele>98.0</ele><time>2026-05-01T17:05:10.891Z</time></trkpt><trkpt lat="42.956193" lon="11.3683403"><ele>98.0</ele><time>2026-05-01T17:05:11.875Z</time></trkpt><trkpt lat="42.9561875" lon="11.3680917"><ele>97.33333333333333</ele><time>2026-05-01T17:05:12.89Z</time></trkpt><trkpt lat="42.956182" lon="11.367845"><ele>96.66666666666666</ele><time>2026-05-01T17:05:13.901Z</time></trkpt><trkpt lat="42.9561755" lon="11.3675986"><ele>96.0</ele><time>2026-05-01T17:05:14.885Z</time></trkpt><trkpt lat="42.9561684" lon="11.3673458"><ele>95.66666666666667</ele><time>2026-05-01T17:05:15.887Z</time></trkpt><trkpt lat="42.9561626" lon="11.3670897"><ele>95.33333333333334</ele><time>2026-05-01T17:05:16.876Z</time></trkpt><trkpt lat="42.9561565" lon="11.3668284"><ele>95.0</ele><time>2026-05-01T17:05:17.89Z</time></trkpt><trkpt lat="42.9561507" lon="11.3665696"><ele>94.66666666666667</ele><time>2026-05-01T17:05:18.9Z</time></trkpt><trkpt lat="42.956146" lon="11.3663142"><ele>94.33333333333333</ele><time>2026-05-01T17:05:19.893Z</time></trkpt><trkpt lat="42.9561414" lon="11.366059"><ele>94.0</ele><time>2026-05-01T17:05:20.886Z</time></trkpt><trkpt lat="42.9561363" lon="11.365804"><ele>94.0</ele><time>2026-05-01T17:05:21.884Z</time></trkpt><trkpt lat="42.9561309" lon="11.3655487"><ele>94.0</ele><time>2026-05-01T17:05:22.894Z</time></trkpt><trkpt lat="42.9561253" lon="11.3652955"><ele>94.0</ele><time>2026-05-01T17:05:23.879Z</time></trkpt><trkpt lat="42.95612" lon="11.3650393"><ele>94.0</ele><time>2026-05-01T17:05:24.883Z</time></trkpt><trkpt lat="42.9561145" lon="11.3647809"><ele>94.0</ele><time>2026-05-01T17:05:25.901Z</time></trkpt><trkpt lat="42.9561091" lon="11.3645237"><ele>94.0</ele><time>2026-05-01T17:05:26.902Z</time></trkpt><trkpt lat="42.9561038" lon="11.3642655"><ele>94.0</ele><time>2026-05-01T17:05:27.898Z</time></trkpt><trkpt lat="42.9560982" lon="11.3640081"><ele>94.0</ele><time>2026-05-01T17:05:28.886Z</time></trkpt><trkpt lat="42.9560915" lon="11.3637501"><ele>94.0</ele><time>2026-05-01T17:05:29.899Z</time></trkpt><trkpt lat="42.9560845" lon="11.363496"><ele>94.0</ele><time>2026-05-01T17:05:30.897Z</time></trkpt><trkpt lat="42.9560784" lon="11.3632422"><ele>94.0</ele><time>2026-05-01T17:05:31.904Z</time></trkpt><trkpt lat="42.956074" lon="11.3629907"><ele>94.0</ele><time>2026-05-01T17:05:32.898Z</time></trkpt><trkpt lat="42.9560692" lon="11.3627393"><ele>93.66666666666666</ele><time>2026-05-01T17:05:33.903Z</time></trkpt><trkpt lat="42.9560624" lon="11.3624906"><ele>93.33333333333333</ele><time>2026-05-01T17:05:34.885Z</time></trkpt><trkpt lat="42.956056" lon="11.3622382"><ele>93.0</ele><time>2026-05-01T17:05:35.908Z</time></trkpt><trkpt lat="42.9560509" lon="11.3619922"><ele>93.0</ele><time>2026-05-01T17:05:36.872Z</time></trkpt><trkpt lat="42.9560455" lon="11.3617411"><ele>93.0</ele><time>2026-05-01T17:05:37.883Z</time></trkpt><trkpt lat="42.9560396" lon="11.3614903"><ele>93.0</ele><time>2026-05-01T17:05:38.904Z</time></trkpt><trkpt lat="42.9560331" lon="11.3612414"><ele>92.66666666666667</ele><time>2026-05-01T17:05:39.9Z</time></trkpt><trkpt lat="42.9560262" lon="11.3609898"><ele>92.33333333333334</ele><time>2026-05-01T17:05:40.911Z</time></trkpt><trkpt lat="42.9560211" lon="11.3607412"><ele>92.0</ele><time>2026-05-01T17:05:41.879Z</time></trkpt><trkpt lat="42.9560168" lon="11.3604897"><ele>91.33333333333334</ele><time>2026-05-01T17:05:42.907Z</time></trkpt><trkpt lat="42.9560133" lon="11.3602518"><ele>90.66666666666667</ele><time>2026-05-01T17:05:43.891Z</time></trkpt><trkpt lat="42.9560099" lon="11.3600208"><ele>90.0</ele><time>2026-05-01T17:05:44.878Z</time></trkpt><trkpt lat="42.9560063" lon="11.3597943"><ele>90.33333333333333</ele><time>2026-05-01T17:05:45.902Z</time></trkpt><trkpt lat="42.9560022" lon="11.359578"><ele>90.66666666666666</ele><time>2026-05-01T17:05:46.884Z</time></trkpt><trkpt lat="42.9559948" lon="11.3593634"><ele>91.0</ele><time>2026-05-01T17:05:47.885Z</time></trkpt><trkpt lat="42.9559779" lon="11.3591526"><ele>91.0</ele><time>2026-05-01T17:05:48.892Z</time></trkpt><trkpt lat="42.955948" lon="11.3589455"><ele>91.0</ele><time>2026-05-01T17:05:49.888Z</time></trkpt><trkpt lat="42.9559012" lon="11.3587412"><ele>91.0</ele><time>2026-05-01T17:05:50.889Z</time></trkpt><trkpt lat="42.9558393" lon="11.35854"><ele>89.66666666666666</ele><time>2026-05-01T17:05:51.872Z</time></trkpt><trkpt lat="42.9557657" lon="11.3583338"><ele>88.33333333333333</ele><time>2026-05-01T17:05:52.892Z</time></trkpt><trkpt lat="42.9556879" lon="11.3581245"><ele>87.0</ele><time>2026-05-01T17:05:53.887Z</time></trkpt><trkpt lat="42.9556087" lon="11.3579077"><ele>87.0</ele><time>2026-05-01T17:05:54.888Z</time></trkpt><trkpt lat="42.9555303" lon="11.3576855"><ele>87.0</ele><time>2026-05-01T17:05:55.883Z</time></trkpt><trkpt lat="42.9554489" lon="11.3574592"><ele>87.0</ele><time>2026-05-01T17:05:56.891Z</time></trkpt><trkpt lat="42.9553665" lon="11.3572302"><ele>87.33333333333333</ele><time>2026-05-01T17:05:57.885Z</time></trkpt><trkpt lat="42.9552826" lon="11.3569952"><ele>87.66666666666666</ele><time>2026-05-01T17:05:58.905Z</time></trkpt><trkpt lat="42.9551977" lon="11.3567598"><ele>88.0</ele><time>2026-05-01T17:05:59.906Z</time></trkpt><trkpt lat="42.9551118" lon="11.3565207"><ele>85.33333333333333</ele><time>2026-05-01T17:06:00.899Z</time></trkpt><trkpt lat="42.9550261" lon="11.3562797"><ele>82.66666666666667</ele><time>2026-05-01T17:06:01.893Z</time></trkpt><trkpt lat="42.9549421" lon="11.3560381"><ele>80.0</ele><time>2026-05-01T17:06:02.898Z</time></trkpt><trkpt lat="42.9548589" lon="11.3558002"><ele>80.0</ele><time>2026-05-01T17:06:03.875Z</time></trkpt><trkpt lat="42.954774" lon="11.3555586"><ele>80.0</ele><time>2026-05-01T17:06:04.889Z</time></trkpt><trkpt lat="42.9546895" lon="11.3553195"><ele>80.0</ele><time>2026-05-01T17:06:05.885Z</time></trkpt><trkpt lat="42.9546043" lon="11.3550796"><ele>80.0</ele><time>2026-05-01T17:06:06.889Z</time></trkpt><trkpt lat="42.9545187" lon="11.3548418"><ele>80.0</ele><time>2026-05-01T17:06:07.893Z</time></trkpt><trkpt lat="42.9544345" lon="11.3546092"><ele>80.0</ele><time>2026-05-01T17:06:08.886Z</time></trkpt><trkpt lat="42.9543531" lon="11.3543814"><ele>81.0</ele><time>2026-05-01T17:06:09.888Z</time></trkpt><trkpt lat="42.9542765" lon="11.3541623"><ele>82.0</ele><time>2026-05-01T17:06:10.895Z</time></trkpt><trkpt lat="42.9542049" lon="11.3539567"><ele>83.0</ele><time>2026-05-01T17:06:11.891Z</time></trkpt><trkpt lat="42.9541386" lon="11.3537585"><ele>80.33333333333334</ele><time>2026-05-01T17:06:12.885Z</time></trkpt><trkpt lat="42.95408" lon="11.3535619"><ele>77.66666666666667</ele><time>2026-05-01T17:06:13.886Z</time></trkpt><trkpt lat="42.9540308" lon="11.3533613"><ele>75.0</ele><time>2026-05-01T17:06:14.882Z</time></trkpt><trkpt lat="42.9539915" lon="11.3531515"><ele>73.66666666666667</ele><time>2026-05-01T17:06:15.879Z</time></trkpt><trkpt lat="42.9539619" lon="11.3529304"><ele>72.33333333333334</ele><time>2026-05-01T17:06:16.882Z</time></trkpt><trkpt lat="42.9539392" lon="11.3527018"><ele>71.0</ele><time>2026-05-01T17:06:17.878Z</time></trkpt><trkpt lat="42.9539228" lon="11.3524674"><ele>71.0</ele><time>2026-05-01T17:06:18.876Z</time></trkpt><trkpt lat="42.9539091" lon="11.3522299"><ele>71.0</ele><time>2026-05-01T17:06:19.892Z</time></trkpt><trkpt lat="42.9538955" lon="11.3519943"><ele>71.0</ele><time>2026-05-01T17:06:20.884Z</time></trkpt><trkpt lat="42.9538802" lon="11.3517549"><ele>70.0</ele><time>2026-05-01T17:06:21.89Z</time></trkpt><trkpt lat="42.9538637" lon="11.3515148"><ele>69.0</ele><time>2026-05-01T17:06:22.886Z</time></trkpt><trkpt lat="42.9538476" lon="11.351275"><ele>68.0</ele><time>2026-05-01T17:06:23.873Z</time></trkpt><trkpt lat="42.9538327" lon="11.3510361"><ele>67.33333333333334</ele><time>2026-05-01T17:06:24.893Z</time></trkpt><trkpt lat="42.9538187" lon="11.3508035"><ele>66.66666666666667</ele><time>2026-05-01T17:06:25.884Z</time></trkpt><trkpt lat="42.9538043" lon="11.35057"><ele>66.0</ele><time>2026-05-01T17:06:26.886Z</time></trkpt><trkpt lat="42.9537898" lon="11.3503378"><ele>65.66666666666667</ele><time>2026-05-01T17:06:27.882Z</time></trkpt><trkpt lat="42.9537747" lon="11.3501064"><ele>65.33333333333334</ele><time>2026-05-01T17:06:28.89Z</time></trkpt><trkpt lat="42.9537593" lon="11.3498769"><ele>65.0</ele><time>2026-05-01T17:06:29.901Z</time></trkpt><trkpt lat="42.9537455" lon="11.3496495"><ele>65.0</ele><time>2026-05-01T17:06:30.899Z</time></trkpt><trkpt lat="42.953732" lon="11.3494228"><ele>65.0</ele><time>2026-05-01T17:06:31.891Z</time></trkpt><trkpt lat="42.9537175" lon="11.349196"><ele>65.0</ele><time>2026-05-01T17:06:32.896Z</time></trkpt><trkpt lat="42.9537014" lon="11.3489719"><ele>65.66666666666667</ele><time>2026-05-01T17:06:33.885Z</time></trkpt><trkpt lat="42.9536855" lon="11.3487464"><ele>66.33333333333333</ele><time>2026-05-01T17:06:34.888Z</time></trkpt><trkpt lat="42.9536703" lon="11.3485219"><ele>67.0</ele><time>2026-05-01T17:06:35.896Z</time></trkpt><trkpt lat="42.9536559" lon="11.3482997"><ele>67.0</ele><time>2026-05-01T17:06:36.877Z</time></trkpt><trkpt lat="42.9536427" lon="11.3480726"><ele>67.0</ele><time>2026-05-01T17:06:37.891Z</time></trkpt><trkpt lat="42.9536296" lon="11.3478468"><ele>67.0</ele><time>2026-05-01T17:06:38.871Z</time></trkpt><trkpt lat="42.9536157" lon="11.3476152"><ele>67.33333333333333</ele><time>2026-05-01T17:06:39.901Z</time></trkpt><trkpt lat="42.9536019" lon="11.3473882"><ele>67.66666666666667</ele><time>2026-05-01T17:06:40.893Z</time></trkpt><trkpt lat="42.9535881" lon="11.3471592"><ele>68.0</ele><time>2026-05-01T17:06:41.883Z</time></trkpt><trkpt lat="42.9535736" lon="11.3469271"><ele>67.33333333333334</ele><time>2026-05-01T17:06:42.895Z</time></trkpt><trkpt lat="42.9535583" lon="11.3466963"><ele>66.66666666666667</ele><time>2026-05-01T17:06:43.886Z</time></trkpt><trkpt lat="42.9535418" lon="11.3464622"><ele>66.0</ele><time>2026-05-01T17:06:44.896Z</time></trkpt><trkpt lat="42.9535261" lon="11.3462275"><ele>66.0</ele><time>2026-05-01T17:06:45.908Z</time></trkpt><trkpt lat="42.9535104" lon="11.3459947"><ele>66.0</ele><time>2026-05-01T17:06:46.9Z</time></trkpt><trkpt lat="42.9534942" lon="11.3457613"><ele>66.0</ele><time>2026-05-01T17:06:47.9Z</time></trkpt><trkpt lat="42.9534777" lon="11.345529"><ele>66.66666666666667</ele><time>2026-05-01T17:06:48.897Z</time></trkpt><trkpt lat="42.9534615" lon="11.3452971"><ele>67.33333333333334</ele><time>2026-05-01T17:06:49.905Z</time></trkpt><trkpt lat="42.9534459" lon="11.3450688"><ele>68.0</ele><time>2026-05-01T17:06:50.886Z</time></trkpt><trkpt lat="42.9534317" lon="11.3448373"><ele>67.33333333333334</ele><time>2026-05-01T17:06:51.894Z</time></trkpt><trkpt lat="42.9534192" lon="11.3446073"><ele>66.66666666666667</ele><time>2026-05-01T17:06:52.888Z</time></trkpt><trkpt lat="42.9534064" lon="11.3443744"><ele>66.0</ele><time>2026-05-01T17:06:53.905Z</time></trkpt><trkpt lat="42.9533936" lon="11.344146"><ele>66.0</ele><time>2026-05-01T17:06:54.87Z</time></trkpt><trkpt lat="42.9533799" lon="11.3439125"><ele>66.0</ele><time>2026-05-01T17:06:55.874Z</time></trkpt><trkpt lat="42.9533655" lon="11.3436813"><ele>66.0</ele><time>2026-05-01T17:06:56.89Z</time></trkpt><trkpt lat="42.9533504" lon="11.3434561"><ele>66.0</ele><time>2026-05-01T17:06:57.88Z</time></trkpt><trkpt lat="42.9533343" lon="11.3432306"><ele>66.0</ele><time>2026-05-01T17:06:58.892Z</time></trkpt><trkpt lat="42.9533196" lon="11.3430075"><ele>66.0</ele><time>2026-05-01T17:06:59.893Z</time></trkpt><trkpt lat="42.9533064" lon="11.3427849"><ele>66.0</ele><time>2026-05-01T17:07:00.888Z</time></trkpt><trkpt lat="42.9532927" lon="11.342561"><ele>66.0</ele><time>2026-05-01T17:07:01.885Z</time></trkpt><trkpt lat="42.9532782" lon="11.3423341"><ele>66.0</ele><time>2026-05-01T17:07:02.888Z</time></trkpt><trkpt lat="42.9532621" lon="11.3421049"><ele>66.0</ele><time>2026-05-01T17:07:03.885Z</time></trkpt><trkpt lat="42.9532458" lon="11.3418733"><ele>66.0</ele><time>2026-05-01T17:07:04.882Z</time></trkpt><trkpt lat="42.9532281" lon="11.34164"><ele>66.0</ele><time>2026-05-01T17:07:05.89Z</time></trkpt><trkpt lat="42.9532106" lon="11.3414059"><ele>66.33333333333333</ele><time>2026-05-01T17:07:06.887Z</time></trkpt><trkpt lat="42.9531947" lon="11.3411685"><ele>66.66666666666666</ele><time>2026-05-01T17:07:07.885Z</time></trkpt><trkpt lat="42.9531788" lon="11.3409293"><ele>67.0</ele><time>2026-05-01T17:07:08.889Z</time></trkpt><trkpt lat="42.9531632" lon="11.3406899"><ele>66.33333333333333</ele><time>2026-05-01T17:07:09.888Z</time></trkpt><trkpt lat="42.9531482" lon="11.3404494"><ele>65.66666666666667</ele><time>2026-05-01T17:07:10.888Z</time></trkpt><trkpt lat="42.9531342" lon="11.3402079"><ele>65.0</ele><time>2026-05-01T17:07:11.886Z</time></trkpt><trkpt lat="42.9531196" lon="11.339965"><ele>65.0</ele><time>2026-05-01T17:07:12.879Z</time></trkpt><trkpt lat="42.9531039" lon="11.3397203"><ele>65.0</ele><time>2026-05-01T17:07:13.887Z</time></trkpt><trkpt lat="42.9530872" lon="11.3394773"><ele>65.0</ele><time>2026-05-01T17:07:14.871Z</time></trkpt><trkpt lat="42.9530711" lon="11.3392283"><ele>65.0</ele><time>2026-05-01T17:07:15.901Z</time></trkpt><trkpt lat="42.9530559" lon="11.3389815"><ele>65.0</ele><time>2026-05-01T17:07:16.884Z</time></trkpt><trkpt lat="42.9530394" lon="11.3387281"><ele>65.0</ele><time>2026-05-01T17:07:17.882Z</time></trkpt><trkpt lat="42.9530221" lon="11.3384713"><ele>65.33333333333334</ele><time>2026-05-01T17:07:18.885Z</time></trkpt><trkpt lat="42.9530054" lon="11.3382119"><ele>65.66666666666667</ele><time>2026-05-01T17:07:19.891Z</time></trkpt><trkpt lat="42.9529893" lon="11.3379512"><ele>66.0</ele><time>2026-05-01T17:07:20.891Z</time></trkpt><trkpt lat="42.9529734" lon="11.3376891"><ele>66.0</ele><time>2026-05-01T17:07:21.886Z</time></trkpt><trkpt lat="42.9529568" lon="11.3374239"><ele>66.0</ele><time>2026-05-01T17:07:22.902Z</time></trkpt><trkpt lat="42.9529401" lon="11.3371602"><ele>66.0</ele><time>2026-05-01T17:07:23.896Z</time></trkpt><trkpt lat="42.9529234" lon="11.3368936"><ele>65.66666666666667</ele><time>2026-05-01T17:07:24.901Z</time></trkpt><trkpt lat="42.9529064" lon="11.3366263"><ele>65.33333333333334</ele><time>2026-05-01T17:07:25.901Z</time></trkpt><trkpt lat="42.9528888" lon="11.336357"><ele>65.0</ele><time>2026-05-01T17:07:26.908Z</time></trkpt><trkpt lat="42.9528713" lon="11.3360886"><ele>65.0</ele><time>2026-05-01T17:07:27.895Z</time></trkpt><trkpt lat="42.952854" lon="11.3358184"><ele>65.0</ele><time>2026-05-01T17:07:28.895Z</time></trkpt><trkpt lat="42.9528353" lon="11.3355509"><ele>65.0</ele><time>2026-05-01T17:07:29.898Z</time></trkpt><trkpt lat="42.9528177" lon="11.3352872"><ele>65.0</ele><time>2026-05-01T17:07:30.906Z</time></trkpt><trkpt lat="42.9528005" lon="11.3350315"><ele>65.0</ele><time>2026-05-01T17:07:31.889Z</time></trkpt><trkpt lat="42.9527837" lon="11.3347772"><ele>65.0</ele><time>2026-05-01T17:07:32.89Z</time></trkpt><trkpt lat="42.9527679" lon="11.3345247"><ele>65.33333333333334</ele><time>2026-05-01T17:07:33.894Z</time></trkpt><trkpt lat="42.9527532" lon="11.3342721"><ele>65.66666666666667</ele><time>2026-05-01T17:07:34.915Z</time></trkpt><trkpt lat="42.9527384" lon="11.3340235"><ele>66.0</ele><time>2026-05-01T17:07:35.906Z</time></trkpt><trkpt lat="42.9527224" lon="11.3337734"><ele>66.0</ele><time>2026-05-01T17:07:36.906Z</time></trkpt><trkpt lat="42.9527054" lon="11.3335231"><ele>66.0</ele><time>2026-05-01T17:07:37.909Z</time></trkpt><trkpt lat="42.952689" lon="11.3332745"><ele>66.0</ele><time>2026-05-01T17:07:38.89Z</time></trkpt><trkpt lat="42.9526731" lon="11.3330239"><ele>66.0</ele><time>2026-05-01T17:07:39.894Z</time></trkpt><trkpt lat="42.9526577" lon="11.3327743"><ele>66.0</ele><time>2026-05-01T17:07:40.91Z</time></trkpt><trkpt lat="42.9526409" lon="11.3325291"><ele>66.0</ele><time>2026-05-01T17:07:41.901Z</time></trkpt><trkpt lat="42.9526248" lon="11.3322839"><ele>66.33333333333333</ele><time>2026-05-01T17:07:42.878Z</time></trkpt><trkpt lat="42.9526085" lon="11.3320325"><ele>66.66666666666666</ele><time>2026-05-01T17:07:43.904Z</time></trkpt><trkpt lat="42.9525923" lon="11.3317836"><ele>67.0</ele><time>2026-05-01T17:07:44.895Z</time></trkpt><trkpt lat="42.9525766" lon="11.3315311"><ele>68.0</ele><time>2026-05-01T17:07:45.883Z</time></trkpt><trkpt lat="42.9525614" lon="11.3312737"><ele>69.0</ele><time>2026-05-01T17:07:46.902Z</time></trkpt><trkpt lat="42.9525462" lon="11.3310192"><ele>70.0</ele><time>2026-05-01T17:07:47.889Z</time></trkpt><trkpt lat="42.9525307" lon="11.3307606"><ele>70.33333333333333</ele><time>2026-05-01T17:07:48.899Z</time></trkpt><trkpt lat="42.9525142" lon="11.3305028"><ele>70.66666666666667</ele><time>2026-05-01T17:07:49.905Z</time></trkpt><trkpt lat="42.9524978" lon="11.3302471"><ele>71.0</ele><time>2026-05-01T17:07:50.893Z</time></trkpt><trkpt lat="42.9524826" lon="11.3299915"><ele>71.0</ele><time>2026-05-01T17:07:51.881Z</time></trkpt><trkpt lat="42.9524661" lon="11.3297339"><ele>71.0</ele><time>2026-05-01T17:07:52.887Z</time></trkpt><trkpt lat="42.9524477" lon="11.329476"><ele>71.0</ele><time>2026-05-01T17:07:53.893Z</time></trkpt><trkpt lat="42.9524294" lon="11.3292192"><ele>71.66666666666667</ele><time>2026-05-01T17:07:54.88Z</time></trkpt><trkpt lat="42.9524122" lon="11.3289609"><ele>72.33333333333333</ele><time>2026-05-01T17:07:55.886Z</time></trkpt><trkpt lat="42.9523967" lon="11.328705"><ele>73.0</ele><time>2026-05-01T17:07:56.893Z</time></trkpt><trkpt lat="42.9523832" lon="11.3284517"><ele>73.66666666666666</ele><time>2026-05-01T17:07:57.884Z</time></trkpt><trkpt lat="42.9523686" lon="11.3281969"><ele>74.33333333333333</ele><time>2026-05-01T17:07:58.888Z</time></trkpt><trkpt lat="42.9523529" lon="11.3279431"><ele>75.0</ele><time>2026-05-01T17:07:59.884Z</time></trkpt><trkpt lat="42.9523348" lon="11.3276888"><ele>75.66666666666667</ele><time>2026-05-01T17:08:00.88Z</time></trkpt><trkpt lat="42.9523175" lon="11.3274329"><ele>76.33333333333334</ele><time>2026-05-01T17:08:01.89Z</time></trkpt><trkpt lat="42.9523006" lon="11.3271802"><ele>77.0</ele><time>2026-05-01T17:08:02.872Z</time></trkpt><trkpt lat="42.9522815" lon="11.326924"><ele>77.66666666666667</ele><time>2026-05-01T17:08:03.884Z</time></trkpt><trkpt lat="42.9522569" lon="11.3266722"><ele>78.33333333333333</ele><time>2026-05-01T17:08:04.874Z</time></trkpt><trkpt lat="42.9522237" lon="11.3264196"><ele>79.0</ele><time>2026-05-01T17:08:05.893Z</time></trkpt><trkpt lat="42.9521786" lon="11.3261744"><ele>79.0</ele><time>2026-05-01T17:08:06.875Z</time></trkpt><trkpt lat="42.952121" lon="11.3259291"><ele>79.0</ele><time>2026-05-01T17:08:07.888Z</time></trkpt><trkpt lat="42.9520549" lon="11.3256907"><ele>79.0</ele><time>2026-05-01T17:08:08.882Z</time></trkpt><trkpt lat="42.9519807" lon="11.325454"><ele>79.0</ele><time>2026-05-01T17:08:09.881Z</time></trkpt><trkpt lat="42.9519018" lon="11.3252179"><ele>79.0</ele><time>2026-05-01T17:08:10.898Z</time></trkpt><trkpt lat="42.9518219" lon="11.3249864"><ele>79.0</ele><time>2026-05-01T17:08:11.879Z</time></trkpt><trkpt lat="42.9517424" lon="11.3247524"><ele>79.0</ele><time>2026-05-01T17:08:12.888Z</time></trkpt><trkpt lat="42.9516643" lon="11.3245215"><ele>79.0</ele><time>2026-05-01T17:08:13.904Z</time></trkpt><trkpt lat="42.9515873" lon="11.3242942"><ele>79.0</ele><time>2026-05-01T17:08:14.903Z</time></trkpt><trkpt lat="42.9515102" lon="11.3240672"><ele>79.66666666666666</ele><time>2026-05-01T17:08:15.891Z</time></trkpt><trkpt lat="42.9514314" lon="11.3238361"><ele>80.33333333333333</ele><time>2026-05-01T17:08:16.904Z</time></trkpt><trkpt lat="42.9513529" lon="11.3236068"><ele>81.0</ele><time>2026-05-01T17:08:17.906Z</time></trkpt><trkpt lat="42.9512752" lon="11.32338"><ele>81.0</ele><time>2026-05-01T17:08:18.906Z</time></trkpt><trkpt lat="42.9511995" lon="11.3231521"><ele>81.0</ele><time>2026-05-01T17:08:19.904Z</time></trkpt><trkpt lat="42.9511245" lon="11.3229221"><ele>81.0</ele><time>2026-05-01T17:08:20.904Z</time></trkpt><trkpt lat="42.9510508" lon="11.3226931"><ele>81.0</ele><time>2026-05-01T17:08:21.886Z</time></trkpt><trkpt lat="42.9509748" lon="11.3224621"><ele>81.0</ele><time>2026-05-01T17:08:22.897Z</time></trkpt><trkpt lat="42.9508966" lon="11.3222315"><ele>81.0</ele><time>2026-05-01T17:08:23.9Z</time></trkpt><trkpt lat="42.9508181" lon="11.3219996"><ele>81.0</ele><time>2026-05-01T17:08:24.895Z</time></trkpt><trkpt lat="42.9507399" lon="11.3217667"><ele>81.0</ele><time>2026-05-01T17:08:25.889Z</time></trkpt><trkpt lat="42.9506621" lon="11.3215327"><ele>81.0</ele><time>2026-05-01T17:08:26.892Z</time></trkpt><trkpt lat="42.9505848" lon="11.3212992"><ele>81.0</ele><time>2026-05-01T17:08:27.875Z</time></trkpt><trkpt lat="42.950508" lon="11.3210616"><ele>81.0</ele><time>2026-05-01T17:08:28.899Z</time></trkpt><trkpt lat="42.9504315" lon="11.320828"><ele>81.0</ele><time>2026-05-01T17:08:29.892Z</time></trkpt><trkpt lat="42.9503526" lon="11.3205934"><ele>81.66666666666667</ele><time>2026-05-01T17:08:30.888Z</time></trkpt><trkpt lat="42.9502762" lon="11.3203603"><ele>82.33333333333334</ele><time>2026-05-01T17:08:31.878Z</time></trkpt><trkpt lat="42.9502017" lon="11.3201281"><ele>83.0</ele><time>2026-05-01T17:08:32.89Z</time></trkpt><trkpt lat="42.9501273" lon="11.3199013"><ele>83.0</ele><time>2026-05-01T17:08:33.876Z</time></trkpt><trkpt lat="42.9500504" lon="11.3196732"><ele>83.0</ele><time>2026-05-01T17:08:34.893Z</time></trkpt><trkpt lat="42.9499755" lon="11.3194477"><ele>83.0</ele><time>2026-05-01T17:08:35.889Z</time></trkpt><trkpt lat="42.9499017" lon="11.319221"><ele>83.0</ele><time>2026-05-01T17:08:36.885Z</time></trkpt><trkpt lat="42.9498276" lon="11.3189938"><ele>83.0</ele><time>2026-05-01T17:08:37.885Z</time></trkpt><trkpt lat="42.9497519" lon="11.3187683"><ele>83.0</ele><time>2026-05-01T17:08:38.892Z</time></trkpt><trkpt lat="42.9496728" lon="11.3185465"><ele>84.0</ele><time>2026-05-01T17:08:39.885Z</time></trkpt><trkpt lat="42.9495852" lon="11.31833"><ele>85.0</ele><time>2026-05-01T17:08:40.886Z</time></trkpt><trkpt lat="42.9494886" lon="11.3181209"><ele>86.0</ele><time>2026-05-01T17:08:41.885Z</time></trkpt><trkpt lat="42.9493837" lon="11.3179187"><ele>85.0</ele><time>2026-05-01T17:08:42.872Z</time></trkpt><trkpt lat="42.9492682" lon="11.3177221"><ele>84.0</ele><time>2026-05-01T17:08:43.889Z</time></trkpt><trkpt lat="42.9491443" lon="11.3175369"><ele>83.0</ele><time>2026-05-01T17:08:44.891Z</time></trkpt><trkpt lat="42.949012" lon="11.3173596"><ele>83.33333333333334</ele><time>2026-05-01T17:08:45.894Z</time></trkpt><trkpt lat="42.9488771" lon="11.3171874"><ele>83.66666666666667</ele><time>2026-05-01T17:08:46.883Z</time></trkpt><trkpt lat="42.9487428" lon="11.3170133"><ele>84.0</ele><time>2026-05-01T17:08:47.895Z</time></trkpt><trkpt lat="42.9486132" lon="11.316838"><ele>84.0</ele><time>2026-05-01T17:08:48.889Z</time></trkpt><trkpt lat="42.9484848" lon="11.3166617"><ele>84.0</ele><time>2026-05-01T17:08:49.882Z</time></trkpt><trkpt lat="42.9483574" lon="11.3164834"><ele>84.0</ele><time>2026-05-01T17:08:50.886Z</time></trkpt><trkpt lat="42.9482319" lon="11.3163058"><ele>86.0</ele><time>2026-05-01T17:08:51.895Z</time></trkpt><trkpt lat="42.9481114" lon="11.3161285"><ele>88.0</ele><time>2026-05-01T17:08:52.888Z</time></trkpt><trkpt lat="42.9479965" lon="11.3159462"><ele>90.0</ele><time>2026-05-01T17:08:53.888Z</time></trkpt><trkpt lat="42.9478918" lon="11.3157563"><ele>89.33333333333333</ele><time>2026-05-01T17:08:54.887Z</time></trkpt><trkpt lat="42.9477975" lon="11.3155533"><ele>88.66666666666666</ele><time>2026-05-01T17:08:55.892Z</time></trkpt><trkpt lat="42.9477118" lon="11.3153361"><ele>88.0</ele><time>2026-05-01T17:08:56.901Z</time></trkpt><trkpt lat="42.9476352" lon="11.3151074"><ele>88.0</ele><time>2026-05-01T17:08:57.893Z</time></trkpt><trkpt lat="42.9475682" lon="11.314867"><ele>88.0</ele><time>2026-05-01T17:08:58.898Z</time></trkpt><trkpt lat="42.9475116" lon="11.3146189"><ele>88.0</ele><time>2026-05-01T17:08:59.885Z</time></trkpt><trkpt lat="42.9474626" lon="11.3143614"><ele>88.66666666666666</ele><time>2026-05-01T17:09:00.888Z</time></trkpt><trkpt lat="42.9474209" lon="11.3140987"><ele>89.33333333333333</ele><time>2026-05-01T17:09:01.879Z</time></trkpt><trkpt lat="42.9473834" lon="11.3138282"><ele>90.0</ele><time>2026-05-01T17:09:02.907Z</time></trkpt><trkpt lat="42.9473503" lon="11.3135584"><ele>90.0</ele><time>2026-05-01T17:09:03.898Z</time></trkpt><trkpt lat="42.9473175" lon="11.3132851"><ele>90.0</ele><time>2026-05-01T17:09:04.91Z</time></trkpt><trkpt lat="42.9472835" lon="11.3130176"><ele>90.0</ele><time>2026-05-01T17:09:05.895Z</time></trkpt><trkpt lat="42.947247" lon="11.3127497"><ele>89.33333333333333</ele><time>2026-05-01T17:09:06.911Z</time></trkpt><trkpt lat="42.9472082" lon="11.3124933"><ele>88.66666666666666</ele><time>2026-05-01T17:09:07.886Z</time></trkpt><trkpt lat="42.9471591" lon="11.3122461"><ele>88.0</ele><time>2026-05-01T17:09:08.904Z</time></trkpt><trkpt lat="42.9470972" lon="11.3120131"><ele>88.0</ele><time>2026-05-01T17:09:09.894Z</time></trkpt><trkpt lat="42.94702" lon="11.311784"><ele>88.0</ele><time>2026-05-01T17:09:10.896Z</time></trkpt><trkpt lat="42.946929" lon="11.31156"><ele>88.0</ele><time>2026-05-01T17:09:11.908Z</time></trkpt><trkpt lat="42.9468253" lon="11.311347"><ele>91.33333333333333</ele><time>2026-05-01T17:09:12.883Z</time></trkpt><trkpt lat="42.9467082" lon="11.3111397"><ele>94.66666666666666</ele><time>2026-05-01T17:09:13.887Z</time></trkpt><trkpt lat="42.9465812" lon="11.3109435"><ele>98.0</ele><time>2026-05-01T17:09:14.883Z</time></trkpt><trkpt lat="42.9464459" lon="11.3107538"><ele>99.0</ele><time>2026-05-01T17:09:15.895Z</time></trkpt><trkpt lat="42.9463083" lon="11.3105676"><ele>100.0</ele><time>2026-05-01T17:09:16.898Z</time></trkpt><trkpt lat="42.9461705" lon="11.3103819"><ele>101.0</ele><time>2026-05-01T17:09:17.892Z</time></trkpt><trkpt lat="42.9460333" lon="11.3101922"><ele>101.0</ele><time>2026-05-01T17:09:18.912Z</time></trkpt><trkpt lat="42.9459039" lon="11.310005"><ele>101.0</ele><time>2026-05-01T17:09:19.894Z</time></trkpt><trkpt lat="42.9457816" lon="11.3098114"><ele>101.0</ele><time>2026-05-01T17:09:20.897Z</time></trkpt><trkpt lat="42.9456666" lon="11.3096116"><ele>100.66666666666666</ele><time>2026-05-01T17:09:21.897Z</time></trkpt><trkpt lat="42.945558" lon="11.3094021"><ele>100.33333333333334</ele><time>2026-05-01T17:09:22.892Z</time></trkpt><trkpt lat="42.9454567" lon="11.3091834"><ele>100.0</ele><time>2026-05-01T17:09:23.886Z</time></trkpt><trkpt lat="42.9453668" lon="11.3089558"><ele>99.33333333333334</ele><time>2026-05-01T17:09:24.884Z</time></trkpt><trkpt lat="42.9452875" lon="11.3087197"><ele>98.66666666666666</ele><time>2026-05-01T17:09:25.895Z</time></trkpt><trkpt lat="42.9452175" lon="11.3084747"><ele>98.0</ele><time>2026-05-01T17:09:26.89Z</time></trkpt><trkpt lat="42.9451536" lon="11.3082215"><ele>97.0</ele><time>2026-05-01T17:09:27.894Z</time></trkpt><trkpt lat="42.9450981" lon="11.3079662"><ele>96.0</ele><time>2026-05-01T17:09:28.884Z</time></trkpt><trkpt lat="42.945054" lon="11.3077058"><ele>95.0</ele><time>2026-05-01T17:09:29.891Z</time></trkpt><trkpt lat="42.9450228" lon="11.3074463"><ele>94.66666666666667</ele><time>2026-05-01T17:09:30.882Z</time></trkpt><trkpt lat="42.9450009" lon="11.3071858"><ele>94.33333333333333</ele><time>2026-05-01T17:09:31.894Z</time></trkpt><trkpt lat="42.9449845" lon="11.3069285"><ele>94.0</ele><time>2026-05-01T17:09:32.886Z</time></trkpt><trkpt lat="42.9449682" lon="11.3066709"><ele>94.0</ele><time>2026-05-01T17:09:33.883Z</time></trkpt><trkpt lat="42.9449495" lon="11.306412"><ele>94.0</ele><time>2026-05-01T17:09:34.886Z</time></trkpt><trkpt lat="42.9449295" lon="11.306152"><ele>94.0</ele><time>2026-05-01T17:09:35.892Z</time></trkpt><trkpt lat="42.9449083" lon="11.3058915"><ele>93.33333333333333</ele><time>2026-05-01T17:09:36.889Z</time></trkpt><trkpt lat="42.9448874" lon="11.3056295"><ele>92.66666666666667</ele><time>2026-05-01T17:09:37.884Z</time></trkpt><trkpt lat="42.9448672" lon="11.3053674"><ele>92.0</ele><time>2026-05-01T17:09:38.878Z</time></trkpt><trkpt lat="42.9448488" lon="11.3051053"><ele>91.66666666666667</ele><time>2026-05-01T17:09:39.896Z</time></trkpt><trkpt lat="42.9448309" lon="11.3048502"><ele>91.33333333333333</ele><time>2026-05-01T17:09:40.882Z</time></trkpt><trkpt lat="42.9448122" lon="11.3045942"><ele>91.0</ele><time>2026-05-01T17:09:41.885Z</time></trkpt><trkpt lat="42.9447921" lon="11.3043384"><ele>90.0</ele><time>2026-05-01T17:09:42.899Z</time></trkpt><trkpt lat="42.9447744" lon="11.3041262"><ele>89.0</ele><time>2026-05-01T17:09:43.885Z</time></trkpt><trkpt lat="42.944756" lon="11.3039051"><ele>88.0</ele><time>2026-05-01T17:09:44.878Z</time></trkpt><trkpt lat="42.9447304" lon="11.3036662"><ele>87.66666666666666</ele><time>2026-05-01T17:09:45.906Z</time></trkpt><trkpt lat="42.9447054" lon="11.3034199"><ele>87.33333333333333</ele><time>2026-05-01T17:09:46.898Z</time></trkpt><trkpt lat="42.9446794" lon="11.303171"><ele>87.0</ele><time>2026-05-01T17:09:47.901Z</time></trkpt><trkpt lat="42.9446527" lon="11.3029221"><ele>86.33333333333333</ele><time>2026-05-01T17:09:48.883Z</time></trkpt><trkpt lat="42.944622" lon="11.3026688"><ele>85.66666666666666</ele><time>2026-05-01T17:09:49.892Z</time></trkpt><trkpt lat="42.9445912" lon="11.3024226"><ele>85.0</ele><time>2026-05-01T17:09:50.877Z</time></trkpt><trkpt lat="42.9445577" lon="11.3021696"><ele>84.33333333333333</ele><time>2026-05-01T17:09:51.885Z</time></trkpt><trkpt lat="42.9445255" lon="11.3019232"><ele>83.66666666666667</ele><time>2026-05-01T17:09:52.884Z</time></trkpt><trkpt lat="42.9444966" lon="11.3016804"><ele>83.0</ele><time>2026-05-01T17:09:53.887Z</time></trkpt><trkpt lat="42.9444699" lon="11.3014431"><ele>82.66666666666667</ele><time>2026-05-01T17:09:54.881Z</time></trkpt><trkpt lat="42.9444448" lon="11.3012135"><ele>82.33333333333333</ele><time>2026-05-01T17:09:55.891Z</time></trkpt><trkpt lat="42.9444212" lon="11.3009974"><ele>82.0</ele><time>2026-05-01T17:09:56.878Z</time></trkpt><trkpt lat="42.9443981" lon="11.3007924"><ele>82.0</ele><time>2026-05-01T17:09:57.89Z</time></trkpt><trkpt lat="42.9443805" lon="11.3006042"><ele>82.0</ele><time>2026-05-01T17:09:58.891Z</time></trkpt><trkpt lat="42.9443682" lon="11.3004271"><ele>82.0</ele><time>2026-05-01T17:09:59.885Z</time></trkpt><trkpt lat="42.9443626" lon="11.3002703"><ele>82.0</ele><time>2026-05-01T17:10:00.882Z</time></trkpt><trkpt lat="42.9443582" lon="11.3001339"><ele>81.39999999999999</ele><time>2026-05-01T17:10:01.898Z</time></trkpt><trkpt lat="42.9443557" lon="11.3000205"><ele>80.8</ele><time>2026-05-01T17:10:02.889Z</time></trkpt><trkpt lat="42.9443499" lon="11.2999296"><ele>80.2</ele><time>2026-05-01T17:10:03.897Z</time></trkpt><trkpt lat="42.9443379" lon="11.2998157"><ele>79.6</ele><time>2026-05-01T17:10:05.881Z</time></trkpt><trkpt lat="42.9443066" lon="11.2996838"><ele>79.0</ele><time>2026-05-01T17:12:22.878Z</time></trkpt><trkpt lat="42.9442666" lon="11.2995135"><ele>78.60000000000001</ele><time>2026-05-01T17:12:24.88Z</time></trkpt><trkpt lat="42.9442454" lon="11.2994033"><ele>78.2</ele><time>2026-05-01T17:12:25.889Z</time></trkpt><trkpt lat="42.9442209" lon="11.299278"><ele>77.80000000000001</ele><time>2026-05-01T17:12:26.893Z</time></trkpt><trkpt lat="42.9441893" lon="11.2991418"><ele>77.4</ele><time>2026-05-01T17:12:27.864Z</time></trkpt><trkpt lat="42.9441496" lon="11.2989983"><ele>77.0</ele><time>2026-05-01T17:12:28.882Z</time></trkpt><trkpt lat="42.9441007" lon="11.29885"><ele>76.5</ele><time>2026-05-01T17:12:29.889Z</time></trkpt><trkpt lat="42.944043" lon="11.2986985"><ele>76.0</ele><time>2026-05-01T17:12:30.897Z</time></trkpt><trkpt lat="42.9439759" lon="11.2985457"><ele>75.5</ele><time>2026-05-01T17:12:31.885Z</time></trkpt><trkpt lat="42.9438976" lon="11.2983944"><ele>75.0</ele><time>2026-05-01T17:12:32.887Z</time></trkpt><trkpt lat="42.9438081" lon="11.2982478"><ele>75.0</ele><time>2026-05-01T17:12:33.883Z</time></trkpt><trkpt lat="42.943708" lon="11.2981105"><ele>75.0</ele><time>2026-05-01T17:12:34.886Z</time></trkpt><trkpt lat="42.9436023" lon="11.2979775"><ele>75.0</ele><time>2026-05-01T17:12:35.883Z</time></trkpt><trkpt lat="42.9434924" lon="11.2978438"><ele>75.0</ele><time>2026-05-01T17:12:36.88Z</time></trkpt><trkpt lat="42.9433811" lon="11.2977073"><ele>74.0</ele><time>2026-05-01T17:12:37.882Z</time></trkpt><trkpt lat="42.9432718" lon="11.2975702"><ele>73.0</ele><time>2026-05-01T17:12:38.877Z</time></trkpt><trkpt lat="42.9431651" lon="11.2974343"><ele>72.0</ele><time>2026-05-01T17:12:39.902Z</time></trkpt><trkpt lat="42.9430635" lon="11.2973004"><ele>71.0</ele><time>2026-05-01T17:12:40.917Z</time></trkpt><trkpt lat="42.9429708" lon="11.2971651"><ele>71.0</ele><time>2026-05-01T17:12:41.885Z</time></trkpt><trkpt lat="42.9428876" lon="11.2970237"><ele>71.0</ele><time>2026-05-01T17:12:42.892Z</time></trkpt><trkpt lat="42.9428164" lon="11.2968747"><ele>71.0</ele><time>2026-05-01T17:12:43.908Z</time></trkpt><trkpt lat="42.9427571" lon="11.2967125"><ele>71.0</ele><time>2026-05-01T17:12:44.899Z</time></trkpt><trkpt lat="42.9427087" lon="11.2965378"><ele>71.5</ele><time>2026-05-01T17:12:45.877Z</time></trkpt><trkpt lat="42.9426712" lon="11.2963581"><ele>72.0</ele><time>2026-05-01T17:12:46.895Z</time></trkpt><trkpt lat="42.9426438" lon="11.2961773"><ele>72.5</ele><time>2026-05-01T17:12:47.909Z</time></trkpt><trkpt lat="42.9426245" lon="11.2959908"><ele>73.0</ele><time>2026-05-01T17:12:48.911Z</time></trkpt><trkpt lat="42.9426085" lon="11.2958001"><ele>73.0</ele><time>2026-05-01T17:12:49.906Z</time></trkpt><trkpt lat="42.9425938" lon="11.2956085"><ele>73.0</ele><time>2026-05-01T17:12:50.911Z</time></trkpt><trkpt lat="42.9425787" lon="11.295426"><ele>73.0</ele><time>2026-05-01T17:12:51.888Z</time></trkpt><trkpt lat="42.9425627" lon="11.2952542"><ele>73.0</ele><time>2026-05-01T17:12:52.897Z</time></trkpt><trkpt lat="42.942542" lon="11.295093"><ele>73.5</ele><time>2026-05-01T17:12:53.904Z</time></trkpt><trkpt lat="42.9425062" lon="11.2949385"><ele>74.0</ele><time>2026-05-01T17:12:54.9Z</time></trkpt><trkpt lat="42.9424507" lon="11.2947887"><ele>74.5</ele><time>2026-05-01T17:12:55.88Z</time></trkpt><trkpt lat="42.9423767" lon="11.294644"><ele>75.0</ele><time>2026-05-01T17:12:56.902Z</time></trkpt><trkpt lat="42.9422891" lon="11.2945041"><ele>76.25</ele><time>2026-05-01T17:12:57.906Z</time></trkpt><trkpt lat="42.9421942" lon="11.2943648"><ele>77.5</ele><time>2026-05-01T17:12:58.906Z</time></trkpt><trkpt lat="42.9420968" lon="11.294221"><ele>78.75</ele><time>2026-05-01T17:12:59.904Z</time></trkpt><trkpt lat="42.9419986" lon="11.2940713"><ele>80.0</ele><time>2026-05-01T17:13:00.894Z</time></trkpt><trkpt lat="42.9418993" lon="11.2939188"><ele>79.66666666666667</ele><time>2026-05-01T17:13:01.897Z</time></trkpt><trkpt lat="42.9417994" lon="11.293765"><ele>79.33333333333333</ele><time>2026-05-01T17:13:02.881Z</time></trkpt><trkpt lat="42.9416973" lon="11.2936081"><ele>79.0</ele><time>2026-05-01T17:13:03.892Z</time></trkpt><trkpt lat="42.9415971" lon="11.2934535"><ele>79.0</ele><time>2026-05-01T17:13:04.898Z</time></trkpt><trkpt lat="42.9415008" lon="11.2933018"><ele>79.0</ele><time>2026-05-01T17:13:05.9Z</time></trkpt><trkpt lat="42.9414082" lon="11.2931505"><ele>79.0</ele><time>2026-05-01T17:13:06.885Z</time></trkpt><trkpt lat="42.9413175" lon="11.2929986"><ele>79.0</ele><time>2026-05-01T17:13:07.895Z</time></trkpt><trkpt lat="42.941232" lon="11.2928554"><ele>79.5</ele><time>2026-05-01T17:13:08.897Z</time></trkpt><trkpt lat="42.9411546" lon="11.2927193"><ele>80.0</ele><time>2026-05-01T17:13:09.896Z</time></trkpt><trkpt lat="42.9410877" lon="11.2925823"><ele>80.5</ele><time>2026-05-01T17:13:10.884Z</time></trkpt><trkpt lat="42.9410308" lon="11.2924364"><ele>81.0</ele><time>2026-05-01T17:13:11.888Z</time></trkpt><trkpt lat="42.9409826" lon="11.2922822"><ele>80.5</ele><time>2026-05-01T17:13:12.875Z</time></trkpt><trkpt lat="42.9409417" lon="11.2921157"><ele>80.0</ele><time>2026-05-01T17:13:13.89Z</time></trkpt><trkpt lat="42.9409106" lon="11.2919389"><ele>79.5</ele><time>2026-05-01T17:13:14.889Z</time></trkpt><trkpt lat="42.940887" lon="11.2917509"><ele>79.0</ele><time>2026-05-01T17:13:15.888Z</time></trkpt><trkpt lat="42.9408679" lon="11.291553"><ele>77.66666666666666</ele><time>2026-05-01T17:13:16.893Z</time></trkpt><trkpt lat="42.9408529" lon="11.2913472"><ele>76.33333333333333</ele><time>2026-05-01T17:13:17.887Z</time></trkpt><trkpt lat="42.9408386" lon="11.2911317"><ele>75.0</ele><time>2026-05-01T17:13:18.895Z</time></trkpt><trkpt lat="42.9408258" lon="11.2909097"><ele>75.0</ele><time>2026-05-01T17:13:19.885Z</time></trkpt><trkpt lat="42.940814" lon="11.2906815"><ele>75.0</ele><time>2026-05-01T17:13:20.892Z</time></trkpt><trkpt lat="42.9408026" lon="11.2904548"><ele>75.0</ele><time>2026-05-01T17:13:21.9Z</time></trkpt><trkpt lat="42.9407923" lon="11.290232"><ele>75.33333333333333</ele><time>2026-05-01T17:13:22.881Z</time></trkpt><trkpt lat="42.9407811" lon="11.290007"><ele>75.66666666666666</ele><time>2026-05-01T17:13:23.888Z</time></trkpt><trkpt lat="42.9407685" lon="11.2897839"><ele>76.0</ele><time>2026-05-01T17:13:24.89Z</time></trkpt><trkpt lat="42.9407562" lon="11.2895626"><ele>75.33333333333333</ele><time>2026-05-01T17:13:25.88Z</time></trkpt><trkpt lat="42.9407409" lon="11.2893411"><ele>74.66666666666667</ele><time>2026-05-01T17:13:26.879Z</time></trkpt><trkpt lat="42.9407183" lon="11.2891209"><ele>74.0</ele><time>2026-05-01T17:13:27.886Z</time></trkpt><trkpt lat="42.9406856" lon="11.288903"><ele>74.0</ele><time>2026-05-01T17:13:28.894Z</time></trkpt><trkpt lat="42.9406426" lon="11.2886875"><ele>74.0</ele><time>2026-05-01T17:13:29.902Z</time></trkpt><trkpt lat="42.9405906" lon="11.2884765"><ele>74.0</ele><time>2026-05-01T17:13:30.887Z</time></trkpt><trkpt lat="42.9405309" lon="11.2882677"><ele>74.0</ele><time>2026-05-01T17:13:31.876Z</time></trkpt><trkpt lat="42.9404655" lon="11.2880616"><ele>74.0</ele><time>2026-05-01T17:13:32.89Z</time></trkpt><trkpt lat="42.9403955" lon="11.2878607"><ele>74.0</ele><time>2026-05-01T17:13:33.898Z</time></trkpt><trkpt lat="42.9403199" lon="11.2876648"><ele>74.0</ele><time>2026-05-01T17:13:34.896Z</time></trkpt><trkpt lat="42.9402411" lon="11.2874711"><ele>74.0</ele><time>2026-05-01T17:13:35.882Z</time></trkpt><trkpt lat="42.940161" lon="11.2872759"><ele>74.0</ele><time>2026-05-01T17:13:36.886Z</time></trkpt><trkpt lat="42.9400825" lon="11.2870801"><ele>73.0</ele><time>2026-05-01T17:13:37.884Z</time></trkpt><trkpt lat="42.9400054" lon="11.2868832"><ele>72.0</ele><time>2026-05-01T17:13:38.875Z</time></trkpt><trkpt lat="42.9399329" lon="11.2867049"><ele>71.0</ele><time>2026-05-01T17:13:39.88Z</time></trkpt><trkpt lat="42.9398566" lon="11.2865181"><ele>70.66666666666667</ele><time>2026-05-01T17:13:40.895Z</time></trkpt><trkpt lat="42.9397791" lon="11.2863305"><ele>70.33333333333333</ele><time>2026-05-01T17:13:41.887Z</time></trkpt><trkpt lat="42.939706" lon="11.2861362"><ele>70.0</ele><time>2026-05-01T17:13:42.883Z</time></trkpt><trkpt lat="42.9396368" lon="11.2859385"><ele>70.0</ele><time>2026-05-01T17:13:43.885Z</time></trkpt><trkpt lat="42.9395679" lon="11.2857414"><ele>70.0</ele><time>2026-05-01T17:13:44.886Z</time></trkpt><trkpt lat="42.9395025" lon="11.2855432"><ele>70.0</ele><time>2026-05-01T17:13:45.883Z</time></trkpt><trkpt lat="42.9394364" lon="11.2853483"><ele>70.0</ele><time>2026-05-01T17:13:46.884Z</time></trkpt><trkpt lat="42.9393737" lon="11.2851531"><ele>70.0</ele><time>2026-05-01T17:13:47.884Z</time></trkpt><trkpt lat="42.9393236" lon="11.2849567"><ele>70.0</ele><time>2026-05-01T17:13:48.885Z</time></trkpt><trkpt lat="42.9392863" lon="11.2847571"><ele>70.0</ele><time>2026-05-01T17:13:49.893Z</time></trkpt><trkpt lat="42.9392567" lon="11.2845563"><ele>70.0</ele><time>2026-05-01T17:13:50.891Z</time></trkpt><trkpt lat="42.939224" lon="11.2843589"><ele>70.0</ele><time>2026-05-01T17:13:51.903Z</time></trkpt><trkpt lat="42.9391772" lon="11.2841726"><ele>70.0</ele><time>2026-05-01T17:13:52.909Z</time></trkpt><trkpt lat="42.939111" lon="11.2839962"><ele>70.75</ele><time>2026-05-01T17:13:53.909Z</time></trkpt><trkpt lat="42.9390282" lon="11.283829"><ele>71.5</ele><time>2026-05-01T17:13:54.889Z</time></trkpt><trkpt lat="42.9389376" lon="11.2836691"><ele>72.25</ele><time>2026-05-01T17:13:55.879Z</time></trkpt><trkpt lat="42.9388454" lon="11.2835189"><ele>73.0</ele><time>2026-05-01T17:13:56.888Z</time></trkpt><trkpt lat="42.9387553" lon="11.2833758"><ele>73.0</ele><time>2026-05-01T17:13:57.889Z</time></trkpt><trkpt lat="42.9386672" lon="11.2832366"><ele>73.0</ele><time>2026-05-01T17:13:58.89Z</time></trkpt><trkpt lat="42.9385823" lon="11.2830979"><ele>73.0</ele><time>2026-05-01T17:13:59.889Z</time></trkpt><trkpt lat="42.9384985" lon="11.2829607"><ele>73.0</ele><time>2026-05-01T17:14:00.911Z</time></trkpt><trkpt lat="42.9384148" lon="11.282831"><ele>73.25</ele><time>2026-05-01T17:14:01.885Z</time></trkpt><trkpt lat="42.9383254" lon="11.282703"><ele>73.5</ele><time>2026-05-01T17:14:02.893Z</time></trkpt><trkpt lat="42.9382315" lon="11.2825793"><ele>73.75</ele><time>2026-05-01T17:14:03.881Z</time></trkpt><trkpt lat="42.9381324" lon="11.2824539"><ele>74.0</ele><time>2026-05-01T17:14:04.882Z</time></trkpt><trkpt lat="42.9380308" lon="11.2823256"><ele>73.75</ele><time>2026-05-01T17:14:05.889Z</time></trkpt><trkpt lat="42.9379292" lon="11.2821949"><ele>73.5</ele><time>2026-05-01T17:14:06.89Z</time></trkpt><trkpt lat="42.9378249" lon="11.2820616"><ele>73.25</ele><time>2026-05-01T17:14:07.893Z</time></trkpt><trkpt lat="42.9377178" lon="11.281925"><ele>73.0</ele><time>2026-05-01T17:14:08.889Z</time></trkpt><trkpt lat="42.9376061" lon="11.2817854"><ele>72.33333333333333</ele><time>2026-05-01T17:14:09.883Z</time></trkpt><trkpt lat="42.9374889" lon="11.2816414"><ele>71.66666666666667</ele><time>2026-05-01T17:14:10.893Z</time></trkpt><trkpt lat="42.9373699" lon="11.2814966"><ele>71.0</ele><time>2026-05-01T17:14:11.881Z</time></trkpt><trkpt lat="42.9372486" lon="11.2813445"><ele>70.0</ele><time>2026-05-01T17:14:12.892Z</time></trkpt><trkpt lat="42.9371326" lon="11.2811909"><ele>69.0</ele><time>2026-05-01T17:14:13.899Z</time></trkpt><trkpt lat="42.9370252" lon="11.2810404"><ele>68.0</ele><time>2026-05-01T17:14:14.877Z</time></trkpt><trkpt lat="42.9369232" lon="11.2808914"><ele>68.0</ele><time>2026-05-01T17:14:15.895Z</time></trkpt><trkpt lat="42.9368269" lon="11.2807455"><ele>68.0</ele><time>2026-05-01T17:14:16.894Z</time></trkpt><trkpt lat="42.9367424" lon="11.2806023"><ele>68.0</ele><time>2026-05-01T17:14:17.883Z</time></trkpt><trkpt lat="42.9366684" lon="11.2804465"><ele>68.0</ele><time>2026-05-01T17:14:18.891Z</time></trkpt><trkpt lat="42.9366059" lon="11.2802776"><ele>68.25</ele><time>2026-05-01T17:14:19.889Z</time></trkpt><trkpt lat="42.9365585" lon="11.2801003"><ele>68.5</ele><time>2026-05-01T17:14:20.887Z</time></trkpt><trkpt lat="42.9365202" lon="11.2799128"><ele>68.75</ele><time>2026-05-01T17:14:21.888Z</time></trkpt><trkpt lat="42.9364896" lon="11.2797147"><ele>69.0</ele><time>2026-05-01T17:14:22.876Z</time></trkpt><trkpt lat="42.9364618" lon="11.2795013"><ele>66.66666666666667</ele><time>2026-05-01T17:14:23.897Z</time></trkpt><trkpt lat="42.9364355" lon="11.2792691"><ele>64.33333333333334</ele><time>2026-05-01T17:14:24.894Z</time></trkpt><trkpt lat="42.9364096" lon="11.2790306"><ele>62.0</ele><time>2026-05-01T17:14:25.89Z</time></trkpt><trkpt lat="42.9363834" lon="11.2787963"><ele>60.66666666666667</ele><time>2026-05-01T17:14:26.891Z</time></trkpt><trkpt lat="42.9363542" lon="11.2785609"><ele>59.33333333333333</ele><time>2026-05-01T17:14:27.903Z</time></trkpt><trkpt lat="42.9363214" lon="11.2783274"><ele>58.0</ele><time>2026-05-01T17:14:28.886Z</time></trkpt><trkpt lat="42.9362868" lon="11.2780927"><ele>58.0</ele><time>2026-05-01T17:14:29.886Z</time></trkpt><trkpt lat="42.9362522" lon="11.2778576"><ele>58.0</ele><time>2026-05-01T17:14:30.883Z</time></trkpt><trkpt lat="42.9362178" lon="11.2776337"><ele>58.0</ele><time>2026-05-01T17:14:31.884Z</time></trkpt><trkpt lat="42.9361834" lon="11.2774236"><ele>57.75</ele><time>2026-05-01T17:14:32.884Z</time></trkpt><trkpt lat="42.9361525" lon="11.2772311"><ele>57.5</ele><time>2026-05-01T17:14:33.894Z</time></trkpt><trkpt lat="42.9361249" lon="11.2770547"><ele>57.25</ele><time>2026-05-01T17:14:34.895Z</time></trkpt><trkpt lat="42.9361013" lon="11.2768903"><ele>57.0</ele><time>2026-05-01T17:14:35.892Z</time></trkpt><trkpt lat="42.9360792" lon="11.2767342"><ele>57.0</ele><time>2026-05-01T17:14:36.908Z</time></trkpt><trkpt lat="42.9360592" lon="11.2765952"><ele>57.0</ele><time>2026-05-01T17:14:37.879Z</time></trkpt><trkpt lat="42.9360406" lon="11.2764697"><ele>57.0</ele><time>2026-05-01T17:14:38.888Z</time></trkpt><trkpt lat="42.9360277" lon="11.2763569"><ele>57.0</ele><time>2026-05-01T17:14:39.889Z</time></trkpt><trkpt lat="42.9360227" lon="11.2762552"><ele>57.0</ele><time>2026-05-01T17:14:40.887Z</time></trkpt><trkpt lat="42.9360281" lon="11.2761657"><ele>57.0</ele><time>2026-05-01T17:14:41.883Z</time></trkpt><trkpt lat="42.9360535" lon="11.2760842"><ele>56.666666666666664</ele><time>2026-05-01T17:14:42.885Z</time></trkpt><trkpt lat="42.9360841" lon="11.2759994"><ele>56.33333333333333</ele><time>2026-05-01T17:14:43.896Z</time></trkpt><trkpt lat="42.9361102" lon="11.2759097"><ele>56.0</ele><time>2026-05-01T17:14:44.878Z</time></trkpt><trkpt lat="42.936125" lon="11.2758105"><ele>55.666666666666664</ele><time>2026-05-01T17:14:45.881Z</time></trkpt><trkpt lat="42.9361304" lon="11.2757024"><ele>55.33333333333333</ele><time>2026-05-01T17:14:46.898Z</time></trkpt><trkpt lat="42.9361422" lon="11.2755909"><ele>55.0</ele><time>2026-05-01T17:14:47.892Z</time></trkpt><trkpt lat="42.9361742" lon="11.2754772"><ele>56.0</ele><time>2026-05-01T17:14:48.882Z</time></trkpt><trkpt lat="42.936226" lon="11.2753621"><ele>57.0</ele><time>2026-05-01T17:14:49.891Z</time></trkpt><trkpt lat="42.9362924" lon="11.2752485"><ele>58.0</ele><time>2026-05-01T17:14:50.889Z</time></trkpt><trkpt lat="42.9363711" lon="11.2751376"><ele>59.0</ele><time>2026-05-01T17:14:51.887Z</time></trkpt><trkpt lat="42.9364623" lon="11.2750304"><ele>60.0</ele><time>2026-05-01T17:14:52.879Z</time></trkpt><trkpt lat="42.936565" lon="11.2749319"><ele>60.0</ele><time>2026-05-01T17:14:53.891Z</time></trkpt><trkpt lat="42.9366786" lon="11.2748452"><ele>60.0</ele><time>2026-05-01T17:14:54.894Z</time></trkpt><trkpt lat="42.9368003" lon="11.2747652"><ele>60.0</ele><time>2026-05-01T17:14:55.884Z</time></trkpt><trkpt lat="42.9369255" lon="11.2746855"><ele>60.0</ele><time>2026-05-01T17:14:56.885Z</time></trkpt><trkpt lat="42.9370533" lon="11.2746062"><ele>59.75</ele><time>2026-05-01T17:14:57.897Z</time></trkpt><trkpt lat="42.9371815" lon="11.2745264"><ele>59.5</ele><time>2026-05-01T17:14:58.891Z</time></trkpt><trkpt lat="42.9373094" lon="11.2744472"><ele>59.25</ele><time>2026-05-01T17:14:59.89Z</time></trkpt><trkpt lat="42.9374369" lon="11.2743681"><ele>59.0</ele><time>2026-05-01T17:15:00.873Z</time></trkpt><trkpt lat="42.9375638" lon="11.2742887"><ele>59.0</ele><time>2026-05-01T17:15:01.871Z</time></trkpt><trkpt lat="42.9376887" lon="11.274207"><ele>59.0</ele><time>2026-05-01T17:15:02.893Z</time></trkpt><trkpt lat="42.9378098" lon="11.2741177"><ele>59.0</ele><time>2026-05-01T17:15:03.904Z</time></trkpt><trkpt lat="42.937924" lon="11.2740178"><ele>59.0</ele><time>2026-05-01T17:15:04.892Z</time></trkpt><trkpt lat="42.93803" lon="11.2739047"><ele>59.5</ele><time>2026-05-01T17:15:05.897Z</time></trkpt><trkpt lat="42.9381253" lon="11.2737771"><ele>60.0</ele><time>2026-05-01T17:15:06.895Z</time></trkpt><trkpt lat="42.9382093" lon="11.2736351"><ele>60.5</ele><time>2026-05-01T17:15:07.9Z</time></trkpt><trkpt lat="42.9382823" lon="11.2734829"><ele>61.0</ele><time>2026-05-01T17:15:08.903Z</time></trkpt><trkpt lat="42.938346" lon="11.273333"><ele>60.8</ele><time>2026-05-01T17:15:09.905Z</time></trkpt><trkpt lat="42.9384027" lon="11.2731898"><ele>60.599999999999994</ele><time>2026-05-01T17:15:10.899Z</time></trkpt><trkpt lat="42.938454" lon="11.273055"><ele>60.4</ele><time>2026-05-01T17:15:11.884Z</time></trkpt><trkpt lat="42.9385056" lon="11.2729331"><ele>60.2</ele><time>2026-05-01T17:15:12.905Z</time></trkpt><trkpt lat="42.9385686" lon="11.2728275"><ele>60.0</ele><time>2026-05-01T17:15:13.892Z</time></trkpt><trkpt lat="42.9386496" lon="11.2727383"><ele>60.5</ele><time>2026-05-01T17:15:14.898Z</time></trkpt><trkpt lat="42.9387452" lon="11.2726614"><ele>61.0</ele><time>2026-05-01T17:15:15.916Z</time></trkpt><trkpt lat="42.938852" lon="11.2726036"><ele>61.5</ele><time>2026-05-01T17:15:16.907Z</time></trkpt><trkpt lat="42.9389634" lon="11.2725635"><ele>62.0</ele><time>2026-05-01T17:15:17.89Z</time></trkpt><trkpt lat="42.9390824" lon="11.2725518"><ele>62.0</ele><time>2026-05-01T17:15:18.897Z</time></trkpt><trkpt lat="42.9392019" lon="11.2725727"><ele>62.0</ele><time>2026-05-01T17:15:19.893Z</time></trkpt><trkpt lat="42.93932" lon="11.2726239"><ele>62.0</ele><time>2026-05-01T17:15:20.891Z</time></trkpt><trkpt lat="42.9394378" lon="11.2727041"><ele>62.0</ele><time>2026-05-01T17:15:21.901Z</time></trkpt><trkpt lat="42.9395549" lon="11.2728003"><ele>62.0</ele><time>2026-05-01T17:15:22.889Z</time></trkpt><trkpt lat="42.9396751" lon="11.2729071"><ele>62.0</ele><time>2026-05-01T17:15:23.905Z</time></trkpt><trkpt lat="42.9397975" lon="11.2730152"><ele>62.0</ele><time>2026-05-01T17:15:24.884Z</time></trkpt><trkpt lat="42.9399277" lon="11.2731286"><ele>62.0</ele><time>2026-05-01T17:15:25.902Z</time></trkpt><trkpt lat="42.9400622" lon="11.2732437"><ele>62.66666666666667</ele><time>2026-05-01T17:15:26.904Z</time></trkpt><trkpt lat="42.9402016" lon="11.2733601"><ele>63.33333333333333</ele><time>2026-05-01T17:15:27.915Z</time></trkpt><trkpt lat="42.9403407" lon="11.2734757"><ele>64.0</ele><time>2026-05-01T17:15:28.888Z</time></trkpt><trkpt lat="42.9404827" lon="11.2735936"><ele>64.0</ele><time>2026-05-01T17:15:29.893Z</time></trkpt><trkpt lat="42.9406211" lon="11.2737102"><ele>64.0</ele><time>2026-05-01T17:15:30.887Z</time></trkpt><trkpt lat="42.9407554" lon="11.2738242"><ele>64.0</ele><time>2026-05-01T17:15:31.898Z</time></trkpt><trkpt lat="42.9408848" lon="11.2739346"><ele>66.5</ele><time>2026-05-01T17:15:32.906Z</time></trkpt><trkpt lat="42.9410111" lon="11.2740438"><ele>69.0</ele><time>2026-05-01T17:15:33.911Z</time></trkpt><trkpt lat="42.9411339" lon="11.2741483"><ele>71.5</ele><time>2026-05-01T17:15:34.898Z</time></trkpt><trkpt lat="42.9412498" lon="11.2742453"><ele>74.0</ele><time>2026-05-01T17:15:35.899Z</time></trkpt><trkpt lat="42.9413553" lon="11.274335"><ele>74.0</ele><time>2026-05-01T17:15:36.91Z</time></trkpt><trkpt lat="42.941454" lon="11.2744197"><ele>74.0</ele><time>2026-05-01T17:15:37.898Z</time></trkpt><trkpt lat="42.9415514" lon="11.274502"><ele>74.0</ele><time>2026-05-01T17:15:38.913Z</time></trkpt><trkpt lat="42.9416433" lon="11.2745852"><ele>74.0</ele><time>2026-05-01T17:15:39.912Z</time></trkpt><trkpt lat="42.9417289" lon="11.2746757"><ele>75.80000000000001</ele><time>2026-05-01T17:15:40.905Z</time></trkpt><trkpt lat="42.9418041" lon="11.2747814"><ele>77.60000000000001</ele><time>2026-05-01T17:15:41.896Z</time></trkpt><trkpt lat="42.9418631" lon="11.2749007"><ele>79.4</ele><time>2026-05-01T17:15:42.898Z</time></trkpt><trkpt lat="42.9418999" lon="11.275033"><ele>81.2</ele><time>2026-05-01T17:15:43.901Z</time></trkpt><trkpt lat="42.9419193" lon="11.2751765"><ele>83.0</ele><time>2026-05-01T17:15:44.902Z</time></trkpt><trkpt lat="42.941927" lon="11.2753273"><ele>83.0</ele><time>2026-05-01T17:15:45.878Z</time></trkpt><trkpt lat="42.9419277" lon="11.2754852"><ele>83.0</ele><time>2026-05-01T17:15:46.907Z</time></trkpt><trkpt lat="42.9419293" lon="11.2756339"><ele>83.0</ele><time>2026-05-01T17:15:47.896Z</time></trkpt><trkpt lat="42.941941" lon="11.275773"><ele>83.0</ele><time>2026-05-01T17:15:48.891Z</time></trkpt><trkpt lat="42.9419713" lon="11.2759017"><ele>83.0</ele><time>2026-05-01T17:15:49.919Z</time></trkpt><trkpt lat="42.9420228" lon="11.2760101"><ele>83.2</ele><time>2026-05-01T17:15:50.889Z</time></trkpt><trkpt lat="42.9420964" lon="11.2760939"><ele>83.4</ele><time>2026-05-01T17:15:51.89Z</time></trkpt><trkpt lat="42.9421867" lon="11.2761391"><ele>83.60000000000001</ele><time>2026-05-01T17:15:52.889Z</time></trkpt><trkpt lat="42.9422815" lon="11.2761531"><ele>83.80000000000001</ele><time>2026-05-01T17:15:53.882Z</time></trkpt><trkpt lat="42.9423756" lon="11.2761328"><ele>84.0</ele><time>2026-05-01T17:15:54.885Z</time></trkpt><trkpt lat="42.9424598" lon="11.2760652"><ele>84.0</ele><time>2026-05-01T17:15:55.886Z</time></trkpt><trkpt lat="42.9425301" lon="11.2759759"><ele>84.0</ele><time>2026-05-01T17:15:56.905Z</time></trkpt><trkpt lat="42.9425821" lon="11.2758738"><ele>84.0</ele><time>2026-05-01T17:15:57.901Z</time></trkpt><trkpt lat="42.9426274" lon="11.2757786"><ele>84.0</ele><time>2026-05-01T17:15:58.897Z</time></trkpt><trkpt lat="42.9426768" lon="11.2757108"><ele>84.0</ele><time>2026-05-01T17:15:59.891Z</time></trkpt><trkpt lat="42.9427364" lon="11.2756743"><ele>84.0</ele><time>2026-05-01T17:16:00.888Z</time></trkpt><trkpt lat="42.9428093" lon="11.2756745"><ele>86.2</ele><time>2026-05-01T17:16:01.879Z</time></trkpt><trkpt lat="42.9428928" lon="11.2757061"><ele>88.4</ele><time>2026-05-01T17:16:02.886Z</time></trkpt><trkpt lat="42.9429859" lon="11.2757592"><ele>90.6</ele><time>2026-05-01T17:16:03.895Z</time></trkpt><trkpt lat="42.9430872" lon="11.2758206"><ele>92.8</ele><time>2026-05-01T17:16:04.884Z</time></trkpt><trkpt lat="42.9431964" lon="11.2758886"><ele>95.0</ele><time>2026-05-01T17:16:05.888Z</time></trkpt><trkpt lat="42.9433086" lon="11.2759634"><ele>95.5</ele><time>2026-05-01T17:16:06.883Z</time></trkpt><trkpt lat="42.9434212" lon="11.2760384"><ele>96.0</ele><time>2026-05-01T17:16:07.879Z</time></trkpt><trkpt lat="42.9435339" lon="11.2761265"><ele>96.5</ele><time>2026-05-01T17:16:08.871Z</time></trkpt><trkpt lat="42.9436467" lon="11.2762241"><ele>97.0</ele><time>2026-05-01T17:16:09.891Z</time></trkpt><trkpt lat="42.9437586" lon="11.2763228"><ele>97.0</ele><time>2026-05-01T17:16:10.871Z</time></trkpt><trkpt lat="42.9438752" lon="11.2764232"><ele>97.0</ele><time>2026-05-01T17:16:11.875Z</time></trkpt><trkpt lat="42.9439945" lon="11.2765216"><ele>97.0</ele><time>2026-05-01T17:16:12.869Z</time></trkpt><trkpt lat="42.9441176" lon="11.2766205"><ele>97.0</ele><time>2026-05-01T17:16:13.886Z</time></trkpt><trkpt lat="42.9442419" lon="11.2767189"><ele>96.5</ele><time>2026-05-01T17:16:14.885Z</time></trkpt><trkpt lat="42.9443674" lon="11.2768221"><ele>96.0</ele><time>2026-05-01T17:16:15.888Z</time></trkpt><trkpt lat="42.9444929" lon="11.2769264"><ele>95.5</ele><time>2026-05-01T17:16:16.876Z</time></trkpt><trkpt lat="42.9446207" lon="11.2770324"><ele>95.0</ele><time>2026-05-01T17:16:17.89Z</time></trkpt><trkpt lat="42.9447467" lon="11.2771353"><ele>95.0</ele><time>2026-05-01T17:16:18.879Z</time></trkpt><trkpt lat="42.9448747" lon="11.2772373"><ele>95.0</ele><time>2026-05-01T17:16:19.886Z</time></trkpt><trkpt lat="42.9450016" lon="11.2773368"><ele>95.0</ele><time>2026-05-01T17:16:20.885Z</time></trkpt><trkpt lat="42.9451293" lon="11.2774346"><ele>95.0</ele><time>2026-05-01T17:16:21.89Z</time></trkpt><trkpt lat="42.9452576" lon="11.2775308"><ele>98.0</ele><time>2026-05-01T17:16:22.894Z</time></trkpt><trkpt lat="42.945387" lon="11.277628"><ele>101.0</ele><time>2026-05-01T17:16:23.905Z</time></trkpt><trkpt lat="42.9455156" lon="11.2777231"><ele>104.0</ele><time>2026-05-01T17:16:24.895Z</time></trkpt><trkpt lat="42.9456454" lon="11.2778187"><ele>107.0</ele><time>2026-05-01T17:16:25.894Z</time></trkpt><trkpt lat="42.9457757" lon="11.2779149"><ele>111.33333333333333</ele><time>2026-05-01T17:16:26.886Z</time></trkpt><trkpt lat="42.9459092" lon="11.2780143"><ele>115.66666666666666</ele><time>2026-05-01T17:16:27.892Z</time></trkpt><trkpt lat="42.9460438" lon="11.2781158"><ele>120.0</ele><time>2026-05-01T17:16:28.898Z</time></trkpt><trkpt lat="42.9461801" lon="11.2782217"><ele>120.0</ele><time>2026-05-01T17:16:29.897Z</time></trkpt><trkpt lat="42.9463206" lon="11.2783299"><ele>120.0</ele><time>2026-05-01T17:16:30.916Z</time></trkpt><trkpt lat="42.9464611" lon="11.2784378"><ele>120.0</ele><time>2026-05-01T17:16:31.896Z</time></trkpt><trkpt lat="42.9466079" lon="11.2785482"><ele>126.0</ele><time>2026-05-01T17:16:32.894Z</time></trkpt><trkpt lat="42.9467596" lon="11.278658"><ele>132.0</ele><time>2026-05-01T17:16:33.876Z</time></trkpt><trkpt lat="42.9469197" lon="11.2787705"><ele>138.0</ele><time>2026-05-01T17:16:34.889Z</time></trkpt><trkpt lat="42.9470821" lon="11.2788861"><ele>137.0</ele><time>2026-05-01T17:16:35.879Z</time></trkpt><trkpt lat="42.9472498" lon="11.2790056"><ele>136.0</ele><time>2026-05-01T17:16:36.883Z</time></trkpt><trkpt lat="42.9474219" lon="11.2791245"><ele>135.0</ele><time>2026-05-01T17:16:37.883Z</time></trkpt><trkpt lat="42.9475994" lon="11.27924"><ele>135.0</ele><time>2026-05-01T17:16:38.88Z</time></trkpt><trkpt lat="42.947781" lon="11.2793526"><ele>135.0</ele><time>2026-05-01T17:16:39.885Z</time></trkpt><trkpt lat="42.9479646" lon="11.2794611"><ele>135.0</ele><time>2026-05-01T17:16:40.881Z</time></trkpt><trkpt lat="42.9481522" lon="11.2795664"><ele>135.0</ele><time>2026-05-01T17:16:41.89Z</time></trkpt><trkpt lat="42.9483428" lon="11.2796673"><ele>135.0</ele><time>2026-05-01T17:16:42.892Z</time></trkpt><trkpt lat="42.9485378" lon="11.2797647"><ele>135.0</ele><time>2026-05-01T17:16:43.889Z</time></trkpt><trkpt lat="42.9487372" lon="11.279859"><ele>131.0</ele><time>2026-05-01T17:16:44.884Z</time></trkpt><trkpt lat="42.9489418" lon="11.2799474"><ele>127.0</ele><time>2026-05-01T17:16:45.88Z</time></trkpt><trkpt lat="42.9491498" lon="11.2800317"><ele>123.0</ele><time>2026-05-01T17:16:46.881Z</time></trkpt><trkpt lat="42.9493611" lon="11.2801121"><ele>120.33333333333334</ele><time>2026-05-01T17:16:47.894Z</time></trkpt><trkpt lat="42.9495741" lon="11.2801878"><ele>117.66666666666667</ele><time>2026-05-01T17:16:48.923Z</time></trkpt><trkpt lat="42.9497822" lon="11.2802559"><ele>115.0</ele><time>2026-05-01T17:16:49.876Z</time></trkpt><trkpt lat="42.9500005" lon="11.280322"><ele>114.33333333333334</ele><time>2026-05-01T17:16:50.903Z</time></trkpt><trkpt lat="42.9502153" lon="11.2803832"><ele>113.66666666666666</ele><time>2026-05-01T17:16:51.89Z</time></trkpt><trkpt lat="42.9504338" lon="11.2804424"><ele>113.0</ele><time>2026-05-01T17:16:52.901Z</time></trkpt><trkpt lat="42.9506513" lon="11.2804999"><ele>113.0</ele><time>2026-05-01T17:16:53.894Z</time></trkpt><trkpt lat="42.9508713" lon="11.2805542"><ele>113.0</ele><time>2026-05-01T17:16:54.901Z</time></trkpt><trkpt lat="42.9510903" lon="11.2806089"><ele>113.0</ele><time>2026-05-01T17:16:55.895Z</time></trkpt><trkpt lat="42.9513116" lon="11.2806652"><ele>117.33333333333333</ele><time>2026-05-01T17:16:56.907Z</time></trkpt><trkpt lat="42.9515307" lon="11.2807207"><ele>121.66666666666666</ele><time>2026-05-01T17:16:57.894Z</time></trkpt><trkpt lat="42.9517521" lon="11.2807757"><ele>126.0</ele><time>2026-05-01T17:16:58.891Z</time></trkpt><trkpt lat="42.9519737" lon="11.2808292"><ele>130.0</ele><time>2026-05-01T17:16:59.897Z</time></trkpt><trkpt lat="42.952194" lon="11.2808803"><ele>134.0</ele><time>2026-05-01T17:17:00.886Z</time></trkpt><trkpt lat="42.9524139" lon="11.2809331"><ele>138.0</ele><time>2026-05-01T17:17:01.888Z</time></trkpt><trkpt lat="42.9526327" lon="11.280988"><ele>143.0</ele><time>2026-05-01T17:17:02.902Z</time></trkpt><trkpt lat="42.9528492" lon="11.2810421"><ele>148.0</ele><time>2026-05-01T17:17:03.891Z</time></trkpt><trkpt lat="42.9530682" lon="11.2810965"><ele>153.0</ele><time>2026-05-01T17:17:04.901Z</time></trkpt><trkpt lat="42.9532799" lon="11.2811491"><ele>153.5</ele><time>2026-05-01T17:17:05.88Z</time></trkpt><trkpt lat="42.9535002" lon="11.2812089"><ele>154.0</ele><time>2026-05-01T17:17:06.885Z</time></trkpt><trkpt lat="42.9550376" lon="11.2816813"><ele>154.0</ele><time>2026-05-01T17:17:13.867Z</time></trkpt><trkpt lat="42.9552552" lon="11.2817526"><ele>154.0</ele><time>2026-05-01T17:17:14.88Z</time></trkpt><trkpt lat="42.9554775" lon="11.2818128"><ele>154.0</ele><time>2026-05-01T17:17:15.9Z</time></trkpt><trkpt lat="42.9556762" lon="11.281891"><ele>154.0</ele><time>2026-05-01T17:17:16.913Z</time></trkpt><trkpt lat="42.9558914" lon="11.2819611"><ele>154.0</ele><time>2026-05-01T17:17:17.898Z</time></trkpt><trkpt lat="42.9560984" lon="11.2820365"><ele>154.0</ele><time>2026-05-01T17:17:18.897Z</time></trkpt><trkpt lat="42.9563068" lon="11.2821116"><ele>154.0</ele><time>2026-05-01T17:17:19.902Z</time></trkpt><trkpt lat="42.956514" lon="11.2821861"><ele>154.0</ele><time>2026-05-01T17:17:20.899Z</time></trkpt><trkpt lat="42.9567227" lon="11.2822617"><ele>154.66666666666669</ele><time>2026-05-01T17:17:21.89Z</time></trkpt><trkpt lat="42.9569331" lon="11.2823372"><ele>155.33333333333334</ele><time>2026-05-01T17:17:22.88Z</time></trkpt><trkpt lat="42.9571464" lon="11.2824149"><ele>156.0</ele><time>2026-05-01T17:17:23.904Z</time></trkpt><trkpt lat="42.9573563" lon="11.2824903"><ele>157.33333333333334</ele><time>2026-05-01T17:17:24.9Z</time></trkpt><trkpt lat="42.9575685" lon="11.2825648"><ele>158.66666666666669</ele><time>2026-05-01T17:17:25.905Z</time></trkpt><trkpt lat="42.9577795" lon="11.2826395"><ele>160.0</ele><time>2026-05-01T17:17:26.888Z</time></trkpt><trkpt lat="42.9579956" lon="11.282717"><ele>160.0</ele><time>2026-05-01T17:17:27.906Z</time></trkpt><trkpt lat="42.9582079" lon="11.2827929"><ele>160.0</ele><time>2026-05-01T17:17:28.875Z</time></trkpt><trkpt lat="42.9584273" lon="11.2828721"><ele>160.0</ele><time>2026-05-01T17:17:29.888Z</time></trkpt><trkpt lat="42.9586478" lon="11.2829529"><ele>159.0</ele><time>2026-05-01T17:17:30.91Z</time></trkpt><trkpt lat="42.9588679" lon="11.2830332"><ele>158.0</ele><time>2026-05-01T17:17:31.902Z</time></trkpt><trkpt lat="42.9590909" lon="11.2831176"><ele>155.0</ele><time>2026-05-01T17:17:32.893Z</time></trkpt><trkpt lat="42.9593146" lon="11.2832016"><ele>152.0</ele><time>2026-05-01T17:17:33.902Z</time></trkpt><trkpt lat="42.9595376" lon="11.2832842"><ele>152.0</ele><time>2026-05-01T17:17:34.912Z</time></trkpt><trkpt lat="42.9597626" lon="11.2833628"><ele>152.0</ele><time>2026-05-01T17:17:35.898Z</time></trkpt><trkpt lat="42.9599898" lon="11.283438"><ele>151.5</ele><time>2026-05-01T17:17:36.884Z</time></trkpt><trkpt lat="42.9602174" lon="11.2835082"><ele>151.0</ele><time>2026-05-01T17:17:37.885Z</time></trkpt><trkpt lat="42.960446" lon="11.2835745"><ele>151.0</ele><time>2026-05-01T17:17:38.897Z</time></trkpt><trkpt lat="42.9606738" lon="11.2836421"><ele>151.0</ele><time>2026-05-01T17:17:39.897Z</time></trkpt><trkpt lat="42.9609018" lon="11.2837004"><ele>151.5</ele><time>2026-05-01T17:17:40.907Z</time></trkpt><trkpt lat="42.9611319" lon="11.2837481"><ele>152.0</ele><time>2026-05-01T17:17:41.893Z</time></trkpt><trkpt lat="42.9613626" lon="11.2837931"><ele>152.0</ele><time>2026-05-01T17:17:42.902Z</time></trkpt><trkpt lat="42.9615961" lon="11.283832"><ele>152.0</ele><time>2026-05-01T17:17:43.923Z</time></trkpt><trkpt lat="42.9618335" lon="11.2838589"><ele>150.5</ele><time>2026-05-01T17:17:44.908Z</time></trkpt><trkpt lat="42.9620653" lon="11.2838806"><ele>149.0</ele><time>2026-05-01T17:17:45.905Z</time></trkpt><trkpt lat="42.9622991" lon="11.2838909"><ele>150.5</ele><time>2026-05-01T17:17:46.909Z</time></trkpt><trkpt lat="42.9625343" lon="11.2838877"><ele>152.0</ele><time>2026-05-01T17:17:47.89Z</time></trkpt><trkpt lat="42.9627686" lon="11.2838723"><ele>152.0</ele><time>2026-05-01T17:17:48.903Z</time></trkpt><trkpt lat="42.9630021" lon="11.2838444"><ele>152.0</ele><time>2026-05-01T17:17:49.899Z</time></trkpt><trkpt lat="42.963234" lon="11.2838059"><ele>154.0</ele><time>2026-05-01T17:17:50.89Z</time></trkpt><trkpt lat="42.963465" lon="11.2837535"><ele>156.0</ele><time>2026-05-01T17:17:51.877Z</time></trkpt><trkpt lat="42.9636941" lon="11.2836866"><ele>156.0</ele><time>2026-05-01T17:17:52.897Z</time></trkpt><trkpt lat="42.9639198" lon="11.2836064"><ele>156.0</ele><time>2026-05-01T17:17:53.9Z</time></trkpt><trkpt lat="42.9641416" lon="11.2835133"><ele>154.5</ele><time>2026-05-01T17:17:54.893Z</time></trkpt><trkpt lat="42.9643591" lon="11.2834066"><ele>153.0</ele><time>2026-05-01T17:17:55.883Z</time></trkpt><trkpt lat="42.9645744" lon="11.2832873"><ele>153.0</ele><time>2026-05-01T17:17:56.904Z</time></trkpt><trkpt lat="42.9647875" lon="11.2831607"><ele>153.0</ele><time>2026-05-01T17:17:57.898Z</time></trkpt><trkpt lat="42.9649977" lon="11.2830244"><ele>156.5</ele><time>2026-05-01T17:17:58.888Z</time></trkpt><trkpt lat="42.9652045" lon="11.28288"><ele>160.0</ele><time>2026-05-01T17:17:59.904Z</time></trkpt><trkpt lat="42.9654087" lon="11.282728"><ele>160.0</ele><time>2026-05-01T17:18:00.879Z</time></trkpt><trkpt lat="42.9656088" lon="11.2825702"><ele>160.0</ele><time>2026-05-01T17:18:01.89Z</time></trkpt><trkpt lat="42.9658083" lon="11.2824084"><ele>161.5</ele><time>2026-05-01T17:18:02.89Z</time></trkpt><trkpt lat="42.9660068" lon="11.2822436"><ele>163.0</ele><time>2026-05-01T17:18:03.897Z</time></trkpt><trkpt lat="42.9662051" lon="11.2820782"><ele>163.0</ele><time>2026-05-01T17:18:04.877Z</time></trkpt><trkpt lat="42.966402" lon="11.2819127"><ele>163.0</ele><time>2026-05-01T17:18:05.907Z</time></trkpt><trkpt lat="42.9665988" lon="11.2817482"><ele>161.5</ele><time>2026-05-01T17:18:06.922Z</time></trkpt><trkpt lat="42.9667933" lon="11.2815834"><ele>160.0</ele><time>2026-05-01T17:18:07.889Z</time></trkpt><trkpt lat="42.9669911" lon="11.2814157"><ele>164.5</ele><time>2026-05-01T17:18:08.89Z</time></trkpt><trkpt lat="42.9671889" lon="11.2812486"><ele>169.0</ele><time>2026-05-01T17:18:09.906Z</time></trkpt><trkpt lat="42.9673855" lon="11.2810839"><ele>166.5</ele><time>2026-05-01T17:18:10.9Z</time></trkpt><trkpt lat="42.9675835" lon="11.2809197"><ele>164.0</ele><time>2026-05-01T17:18:11.898Z</time></trkpt><trkpt lat="42.967781" lon="11.2807563"><ele>170.5</ele><time>2026-05-01T17:18:12.881Z</time></trkpt><trkpt lat="42.9679813" lon="11.2805893"><ele>177.0</ele><time>2026-05-01T17:18:13.901Z</time></trkpt><trkpt lat="42.9681798" lon="11.2804229"><ele>172.0</ele><time>2026-05-01T17:18:14.907Z</time></trkpt><trkpt lat="42.9683788" lon="11.2802557"><ele>167.0</ele><time>2026-05-01T17:18:15.906Z</time></trkpt><trkpt lat="42.968579" lon="11.2800884"><ele>167.0</ele><time>2026-05-01T17:18:16.899Z</time></trkpt><trkpt lat="42.9687817" lon="11.2799214"><ele>167.0</ele><time>2026-05-01T17:18:17.895Z</time></trkpt><trkpt lat="42.9689872" lon="11.2797588"><ele>171.5</ele><time>2026-05-01T17:18:18.898Z</time></trkpt><trkpt lat="42.9691965" lon="11.2796022"><ele>176.0</ele><time>2026-05-01T17:18:19.911Z</time></trkpt><trkpt lat="42.9694074" lon="11.2794573"><ele>176.0</ele><time>2026-05-01T17:18:20.894Z</time></trkpt><trkpt lat="42.9696248" lon="11.2793252"><ele>176.0</ele><time>2026-05-01T17:18:21.898Z</time></trkpt><trkpt lat="42.9698455" lon="11.2792111"><ele>176.5</ele><time>2026-05-01T17:18:22.904Z</time></trkpt><trkpt lat="42.9700695" lon="11.2791151"><ele>177.0</ele><time>2026-05-01T17:18:23.906Z</time></trkpt><trkpt lat="42.9702972" lon="11.2790359"><ele>177.0</ele><time>2026-05-01T17:18:24.908Z</time></trkpt><trkpt lat="42.9705274" lon="11.2789731"><ele>177.0</ele><time>2026-05-01T17:18:25.902Z</time></trkpt><trkpt lat="42.9707599" lon="11.2789258"><ele>174.5</ele><time>2026-05-01T17:18:26.907Z</time></trkpt><trkpt lat="42.9709909" lon="11.2788966"><ele>172.0</ele><time>2026-05-01T17:18:27.881Z</time></trkpt><trkpt lat="42.9712271" lon="11.2788859"><ele>172.0</ele><time>2026-05-01T17:18:28.885Z</time></trkpt><trkpt lat="42.971464" lon="11.2788959"><ele>172.0</ele><time>2026-05-01T17:18:29.896Z</time></trkpt><trkpt lat="42.9717001" lon="11.2789236"><ele>176.5</ele><time>2026-05-01T17:18:30.902Z</time></trkpt><trkpt lat="42.9719354" lon="11.2789701"><ele>181.0</ele><time>2026-05-01T17:18:31.895Z</time></trkpt><trkpt lat="42.9721728" lon="11.2790314"><ele>181.0</ele><time>2026-05-01T17:18:32.902Z</time></trkpt><trkpt lat="42.9724075" lon="11.2791091"><ele>181.0</ele><time>2026-05-01T17:18:33.901Z</time></trkpt><trkpt lat="42.972639" lon="11.2792027"><ele>177.5</ele><time>2026-05-01T17:18:34.894Z</time></trkpt><trkpt lat="42.9728659" lon="11.2793127"><ele>174.0</ele><time>2026-05-01T17:18:35.887Z</time></trkpt><trkpt lat="42.9730883" lon="11.2794413"><ele>174.0</ele><time>2026-05-01T17:18:36.901Z</time></trkpt><trkpt lat="42.9733025" lon="11.2795872"><ele>174.0</ele><time>2026-05-01T17:18:37.902Z</time></trkpt><trkpt lat="42.9735122" lon="11.2797471"><ele>175.0</ele><time>2026-05-01T17:18:38.895Z</time></trkpt><trkpt lat="42.97372" lon="11.2799194"><ele>176.0</ele><time>2026-05-01T17:18:39.89Z</time></trkpt><trkpt lat="42.9739294" lon="11.2800989"><ele>176.0</ele><time>2026-05-01T17:18:40.911Z</time></trkpt><trkpt lat="42.9741361" lon="11.2802819"><ele>176.0</ele><time>2026-05-01T17:18:41.913Z</time></trkpt><trkpt lat="42.974342" lon="11.2804629"><ele>176.0</ele><time>2026-05-01T17:18:42.886Z</time></trkpt><trkpt lat="42.974551" lon="11.2806467"><ele>176.0</ele><time>2026-05-01T17:18:43.899Z</time></trkpt><trkpt lat="42.9747579" lon="11.2808284"><ele>176.0</ele><time>2026-05-01T17:18:44.906Z</time></trkpt><trkpt lat="42.9749645" lon="11.2810102"><ele>176.0</ele><time>2026-05-01T17:18:45.909Z</time></trkpt><trkpt lat="42.9751705" lon="11.2811914"><ele>177.5</ele><time>2026-05-01T17:18:46.893Z</time></trkpt><trkpt lat="42.9753793" lon="11.2813749"><ele>179.0</ele><time>2026-05-01T17:18:47.907Z</time></trkpt><trkpt lat="42.9755856" lon="11.2815557"><ele>179.0</ele><time>2026-05-01T17:18:48.898Z</time></trkpt><trkpt lat="42.9757916" lon="11.2817365"><ele>179.0</ele><time>2026-05-01T17:18:49.882Z</time></trkpt><trkpt lat="42.9759983" lon="11.281919"><ele>178.5</ele><time>2026-05-01T17:18:50.886Z</time></trkpt><trkpt lat="42.9762032" lon="11.2821006"><ele>178.0</ele><time>2026-05-01T17:18:51.899Z</time></trkpt><trkpt lat="42.976404" lon="11.2822803"><ele>180.5</ele><time>2026-05-01T17:18:52.888Z</time></trkpt><trkpt lat="42.976607" lon="11.2824587"><ele>183.0</ele><time>2026-05-01T17:18:53.9Z</time></trkpt><trkpt lat="42.9768065" lon="11.2826355"><ele>183.5</ele><time>2026-05-01T17:18:54.899Z</time></trkpt><trkpt lat="42.9770048" lon="11.2828143"><ele>184.0</ele><time>2026-05-01T17:18:55.905Z</time></trkpt><trkpt lat="42.9772018" lon="11.2829909"><ele>183.0</ele><time>2026-05-01T17:18:56.9Z</time></trkpt><trkpt lat="42.9773995" lon="11.2831666"><ele>182.0</ele><time>2026-05-01T17:18:57.911Z</time></trkpt><trkpt lat="42.9775954" lon="11.2833378"><ele>187.0</ele><time>2026-05-01T17:18:58.902Z</time></trkpt><trkpt lat="42.9777932" lon="11.2835123"><ele>192.0</ele><time>2026-05-01T17:18:59.926Z</time></trkpt><trkpt lat="42.9779858" lon="11.2836834"><ele>192.0</ele><time>2026-05-01T17:19:00.899Z</time></trkpt><trkpt lat="42.9781807" lon="11.2838589"><ele>192.0</ele><time>2026-05-01T17:19:01.914Z</time></trkpt><trkpt lat="42.9783723" lon="11.2840276"><ele>192.5</ele><time>2026-05-01T17:19:02.895Z</time></trkpt><trkpt lat="42.9785676" lon="11.2841927"><ele>193.0</ele><time>2026-05-01T17:19:03.896Z</time></trkpt><trkpt lat="42.9787641" lon="11.284351"><ele>193.0</ele><time>2026-05-01T17:19:04.898Z</time></trkpt><trkpt lat="42.9789649" lon="11.2845043"><ele>193.0</ele><time>2026-05-01T17:19:05.933Z</time></trkpt><trkpt lat="42.9791622" lon="11.284643"><ele>195.5</ele><time>2026-05-01T17:19:06.876Z</time></trkpt><trkpt lat="42.9793721" lon="11.2847737"><ele>198.0</ele><time>2026-05-01T17:19:07.885Z</time></trkpt><trkpt lat="42.979583" lon="11.2848914"><ele>198.0</ele><time>2026-05-01T17:19:08.908Z</time></trkpt><trkpt lat="42.9797942" lon="11.284996"><ele>198.0</ele><time>2026-05-01T17:19:09.914Z</time></trkpt><trkpt lat="42.9800089" lon="11.2850878"><ele>200.5</ele><time>2026-05-01T17:19:10.901Z</time></trkpt><trkpt lat="42.9802285" lon="11.2851707"><ele>203.0</ele><time>2026-05-01T17:19:11.888Z</time></trkpt><trkpt lat="42.9804529" lon="11.2852472"><ele>203.0</ele><time>2026-05-01T17:19:12.898Z</time></trkpt><trkpt lat="42.980677" lon="11.2853214"><ele>203.0</ele><time>2026-05-01T17:19:13.9Z</time></trkpt><trkpt lat="42.980903" lon="11.2853952"><ele>203.0</ele><time>2026-05-01T17:19:14.912Z</time></trkpt><trkpt lat="42.9811272" lon="11.2854698"><ele>203.0</ele><time>2026-05-01T17:19:15.903Z</time></trkpt><trkpt lat="42.9813528" lon="11.2855447"><ele>207.0</ele><time>2026-05-01T17:19:16.899Z</time></trkpt><trkpt lat="42.9815791" lon="11.2856193"><ele>211.0</ele><time>2026-05-01T17:19:17.9Z</time></trkpt><trkpt lat="42.9818057" lon="11.2856927"><ele>211.0</ele><time>2026-05-01T17:19:18.902Z</time></trkpt><trkpt lat="42.9820323" lon="11.2857652"><ele>211.0</ele><time>2026-05-01T17:19:19.901Z</time></trkpt><trkpt lat="42.9822595" lon="11.2858359"><ele>211.0</ele><time>2026-05-01T17:19:20.901Z</time></trkpt><trkpt lat="42.9824887" lon="11.2859038"><ele>211.0</ele><time>2026-05-01T17:19:21.919Z</time></trkpt><trkpt lat="42.9827143" lon="11.2859678"><ele>211.5</ele><time>2026-05-01T17:19:22.906Z</time></trkpt><trkpt lat="42.9829422" lon="11.286026"><ele>212.0</ele><time>2026-05-01T17:19:23.907Z</time></trkpt><trkpt lat="42.9831696" lon="11.2860773"><ele>212.0</ele><time>2026-05-01T17:19:24.917Z</time></trkpt><trkpt lat="42.9833939" lon="11.2861216"><ele>212.0</ele><time>2026-05-01T17:19:25.902Z</time></trkpt><trkpt lat="42.9836191" lon="11.2861602"><ele>212.0</ele><time>2026-05-01T17:19:26.904Z</time></trkpt><trkpt lat="42.9838415" lon="11.2861931"><ele>212.0</ele><time>2026-05-01T17:19:27.89Z</time></trkpt><trkpt lat="42.9840648" lon="11.286222"><ele>212.0</ele><time>2026-05-01T17:19:28.901Z</time></trkpt><trkpt lat="42.9842846" lon="11.286246"><ele>214.33333333333334</ele><time>2026-05-01T17:19:29.91Z</time></trkpt><trkpt lat="42.9845005" lon="11.2862646"><ele>216.66666666666669</ele><time>2026-05-01T17:19:30.883Z</time></trkpt><trkpt lat="42.9847202" lon="11.2862777"><ele>219.0</ele><time>2026-05-01T17:19:31.889Z</time></trkpt><trkpt lat="42.9849388" lon="11.2862858"><ele>222.0</ele><time>2026-05-01T17:19:32.899Z</time></trkpt><trkpt lat="42.9851547" lon="11.2862905"><ele>225.0</ele><time>2026-05-01T17:19:33.888Z</time></trkpt><trkpt lat="42.9853714" lon="11.2862945"><ele>228.0</ele><time>2026-05-01T17:19:34.884Z</time></trkpt><trkpt lat="42.9855883" lon="11.2862959"><ele>228.0</ele><time>2026-05-01T17:19:35.889Z</time></trkpt><trkpt lat="42.9858051" lon="11.2862966"><ele>228.0</ele><time>2026-05-01T17:19:36.9Z</time></trkpt><trkpt lat="42.9860194" lon="11.286297"><ele>228.0</ele><time>2026-05-01T17:19:37.888Z</time></trkpt><trkpt lat="42.9862358" lon="11.2862978"><ele>228.33333333333331</ele><time>2026-05-01T17:19:38.896Z</time></trkpt><trkpt lat="42.986451" lon="11.2862994"><ele>228.66666666666666</ele><time>2026-05-01T17:19:39.89Z</time></trkpt><trkpt lat="42.9866675" lon="11.2863015"><ele>229.0</ele><time>2026-05-01T17:19:40.89Z</time></trkpt><trkpt lat="42.9868854" lon="11.2863047"><ele>229.0</ele><time>2026-05-01T17:19:41.908Z</time></trkpt><trkpt lat="42.9871002" lon="11.2863101"><ele>229.0</ele><time>2026-05-01T17:19:42.89Z</time></trkpt><trkpt lat="42.9873166" lon="11.2863214"><ele>229.0</ele><time>2026-05-01T17:19:43.885Z</time></trkpt><trkpt lat="42.987533" lon="11.2863415"><ele>229.0</ele><time>2026-05-01T17:19:44.907Z</time></trkpt><trkpt lat="42.987744" lon="11.2863736"><ele>229.0</ele><time>2026-05-01T17:19:45.899Z</time></trkpt><trkpt lat="42.9879556" lon="11.286418"><ele>229.0</ele><time>2026-05-01T17:19:46.9Z</time></trkpt><trkpt lat="42.988165" lon="11.2864747"><ele>234.0</ele><time>2026-05-01T17:19:47.894Z</time></trkpt><trkpt lat="42.988372" lon="11.2865448"><ele>239.0</ele><time>2026-05-01T17:19:48.888Z</time></trkpt><trkpt lat="42.9885769" lon="11.2866264"><ele>244.0</ele><time>2026-05-01T17:19:49.89Z</time></trkpt><trkpt lat="42.988779" lon="11.2867214"><ele>244.0</ele><time>2026-05-01T17:19:50.898Z</time></trkpt><trkpt lat="42.9889765" lon="11.2868266"><ele>244.0</ele><time>2026-05-01T17:19:51.89Z</time></trkpt><trkpt lat="42.9891714" lon="11.2869437"><ele>244.0</ele><time>2026-05-01T17:19:52.905Z</time></trkpt><trkpt lat="42.9893598" lon="11.2870674"><ele>246.0</ele><time>2026-05-01T17:19:53.891Z</time></trkpt><trkpt lat="42.9895458" lon="11.2871998"><ele>248.0</ele><time>2026-05-01T17:19:54.893Z</time></trkpt><trkpt lat="42.9897275" lon="11.2873386"><ele>250.0</ele><time>2026-05-01T17:19:55.887Z</time></trkpt><trkpt lat="42.9899073" lon="11.2874851"><ele>248.0</ele><time>2026-05-01T17:19:56.913Z</time></trkpt><trkpt lat="42.9900788" lon="11.2876342"><ele>246.0</ele><time>2026-05-01T17:19:57.886Z</time></trkpt><trkpt lat="42.9902501" lon="11.2877936"><ele>244.0</ele><time>2026-05-01T17:19:58.9Z</time></trkpt><trkpt lat="42.9904167" lon="11.2879573"><ele>248.33333333333331</ele><time>2026-05-01T17:19:59.896Z</time></trkpt><trkpt lat="42.9905837" lon="11.2881235"><ele>252.66666666666669</ele><time>2026-05-01T17:20:00.915Z</time></trkpt><trkpt lat="42.9907501" lon="11.2882827"><ele>257.0</ele><time>2026-05-01T17:20:01.907Z</time></trkpt><trkpt lat="42.9909206" lon="11.2884337"><ele>257.0</ele><time>2026-05-01T17:20:02.898Z</time></trkpt><trkpt lat="42.9910953" lon="11.2885766"><ele>257.0</ele><time>2026-05-01T17:20:03.9Z</time></trkpt><trkpt lat="42.9912742" lon="11.2887085"><ele>257.0</ele><time>2026-05-01T17:20:04.909Z</time></trkpt><trkpt lat="42.991456" lon="11.2888294"><ele>257.6666666666667</ele><time>2026-05-01T17:20:05.906Z</time></trkpt><trkpt lat="42.9916413" lon="11.2889384"><ele>258.3333333333333</ele><time>2026-05-01T17:20:06.877Z</time></trkpt><trkpt lat="42.9918325" lon="11.2890392"><ele>259.0</ele><time>2026-05-01T17:20:07.883Z</time></trkpt><trkpt lat="42.9920268" lon="11.2891293"><ele>260.0</ele><time>2026-05-01T17:20:08.904Z</time></trkpt><trkpt lat="42.9922218" lon="11.2892084"><ele>261.0</ele><time>2026-05-01T17:20:09.899Z</time></trkpt><trkpt lat="42.9924187" lon="11.2892789"><ele>262.0</ele><time>2026-05-01T17:20:10.895Z</time></trkpt><trkpt lat="42.9926167" lon="11.2893389"><ele>265.3333333333333</ele><time>2026-05-01T17:20:11.899Z</time></trkpt><trkpt lat="42.9928142" lon="11.2893867"><ele>268.6666666666667</ele><time>2026-05-01T17:20:12.877Z</time></trkpt><trkpt lat="42.9930185" lon="11.2894223"><ele>272.0</ele><time>2026-05-01T17:20:13.907Z</time></trkpt><trkpt lat="42.9932204" lon="11.2894455"><ele>273.33333333333337</ele><time>2026-05-01T17:20:14.9Z</time></trkpt><trkpt lat="42.9934251" lon="11.2894556"><ele>274.6666666666667</ele><time>2026-05-01T17:20:15.9Z</time></trkpt><trkpt lat="42.9936297" lon="11.2894571"><ele>276.0</ele><time>2026-05-01T17:20:16.894Z</time></trkpt><trkpt lat="42.9938347" lon="11.2894479"><ele>276.0</ele><time>2026-05-01T17:20:17.91Z</time></trkpt><trkpt lat="42.9940358" lon="11.2894279"><ele>276.0</ele><time>2026-05-01T17:20:18.905Z</time></trkpt><trkpt lat="42.9942367" lon="11.2893952"><ele>276.0</ele><time>2026-05-01T17:20:19.898Z</time></trkpt><trkpt lat="42.9944378" lon="11.2893514"><ele>276.0</ele><time>2026-05-01T17:20:20.895Z</time></trkpt><trkpt lat="42.9946383" lon="11.2892945"><ele>276.0</ele><time>2026-05-01T17:20:21.897Z</time></trkpt><trkpt lat="42.9948375" lon="11.2892287"><ele>276.0</ele><time>2026-05-01T17:20:22.889Z</time></trkpt><trkpt lat="42.9950377" lon="11.2891551"><ele>276.0</ele><time>2026-05-01T17:20:23.894Z</time></trkpt><trkpt lat="42.995236" lon="11.2890746"><ele>276.0</ele><time>2026-05-01T17:20:24.899Z</time></trkpt><trkpt lat="42.9954299" lon="11.2889846"><ele>276.0</ele><time>2026-05-01T17:20:25.897Z</time></trkpt><trkpt lat="42.9956224" lon="11.2888861"><ele>275.6666666666667</ele><time>2026-05-01T17:20:26.904Z</time></trkpt><trkpt lat="42.9958119" lon="11.288783"><ele>275.33333333333337</ele><time>2026-05-01T17:20:27.894Z</time></trkpt><trkpt lat="42.9960036" lon="11.2886775"><ele>275.0</ele><time>2026-05-01T17:20:28.906Z</time></trkpt><trkpt lat="42.9961941" lon="11.288574"><ele>275.0</ele><time>2026-05-01T17:20:29.902Z</time></trkpt><trkpt lat="42.9963841" lon="11.2884711"><ele>275.0</ele><time>2026-05-01T17:20:30.873Z</time></trkpt><trkpt lat="42.9965793" lon="11.288365"><ele>275.0</ele><time>2026-05-01T17:20:31.903Z</time></trkpt><trkpt lat="42.9967695" lon="11.2882564"><ele>275.33333333333337</ele><time>2026-05-01T17:20:32.891Z</time></trkpt><trkpt lat="42.9969651" lon="11.2881465"><ele>275.6666666666667</ele><time>2026-05-01T17:20:33.9Z</time></trkpt><trkpt lat="42.9971563" lon="11.2880389"><ele>276.0</ele><time>2026-05-01T17:20:34.897Z</time></trkpt><trkpt lat="42.9973506" lon="11.2879318"><ele>274.3333333333333</ele><time>2026-05-01T17:20:35.897Z</time></trkpt><trkpt lat="42.997547" lon="11.2878266"><ele>272.66666666666663</ele><time>2026-05-01T17:20:36.897Z</time></trkpt><trkpt lat="42.997747" lon="11.2877239"><ele>271.0</ele><time>2026-05-01T17:20:37.91Z</time></trkpt><trkpt lat="42.9979437" lon="11.287627"><ele>271.0</ele><time>2026-05-01T17:20:38.9Z</time></trkpt><trkpt lat="42.9981405" lon="11.2875431"><ele>271.0</ele><time>2026-05-01T17:20:39.906Z</time></trkpt><trkpt lat="42.9983328" lon="11.2874772"><ele>271.0</ele><time>2026-05-01T17:20:40.898Z</time></trkpt><trkpt lat="42.9985219" lon="11.2874239"><ele>268.3333333333333</ele><time>2026-05-01T17:20:41.879Z</time></trkpt><trkpt lat="42.9987155" lon="11.287385"><ele>265.6666666666667</ele><time>2026-05-01T17:20:42.916Z</time></trkpt><trkpt lat="42.9989023" lon="11.2873583"><ele>263.0</ele><time>2026-05-01T17:20:43.905Z</time></trkpt><trkpt lat="42.9990919" lon="11.2873401"><ele>261.33333333333337</ele><time>2026-05-01T17:20:44.902Z</time></trkpt><trkpt lat="42.999281" lon="11.2873333"><ele>259.6666666666667</ele><time>2026-05-01T17:20:45.909Z</time></trkpt><trkpt lat="42.9994666" lon="11.2873381"><ele>258.0</ele><time>2026-05-01T17:20:46.884Z</time></trkpt><trkpt lat="42.9996526" lon="11.2873489"><ele>258.0</ele><time>2026-05-01T17:20:47.901Z</time></trkpt><trkpt lat="42.9998323" lon="11.2873655"><ele>258.0</ele><time>2026-05-01T17:20:48.892Z</time></trkpt><trkpt lat="43.000012" lon="11.2873845"><ele>258.0</ele><time>2026-05-01T17:20:49.902Z</time></trkpt><trkpt lat="43.0001878" lon="11.2874047"><ele>258.0</ele><time>2026-05-01T17:20:50.904Z</time></trkpt><trkpt lat="43.0003589" lon="11.2874256"><ele>258.0</ele><time>2026-05-01T17:20:51.902Z</time></trkpt><trkpt lat="43.0005251" lon="11.2874506"><ele>258.0</ele><time>2026-05-01T17:20:52.9Z</time></trkpt><trkpt lat="43.0006888" lon="11.2874817"><ele>258.0</ele><time>2026-05-01T17:20:53.904Z</time></trkpt><trkpt lat="43.0008497" lon="11.287519"><ele>258.0</ele><time>2026-05-01T17:20:54.894Z</time></trkpt><trkpt lat="43.0010116" lon="11.2875589"><ele>258.0</ele><time>2026-05-01T17:20:55.903Z</time></trkpt><trkpt lat="43.0011718" lon="11.2876003"><ele>258.0</ele><time>2026-05-01T17:20:56.885Z</time></trkpt><trkpt lat="43.0013352" lon="11.287641"><ele>258.0</ele><time>2026-05-01T17:20:57.907Z</time></trkpt><trkpt lat="43.0014952" lon="11.2876817"><ele>258.0</ele><time>2026-05-01T17:20:58.894Z</time></trkpt><trkpt lat="43.0016567" lon="11.287724"><ele>259.0</ele><time>2026-05-01T17:20:59.895Z</time></trkpt><trkpt lat="43.001818" lon="11.2877655"><ele>260.0</ele><time>2026-05-01T17:21:00.891Z</time></trkpt><trkpt lat="43.0019803" lon="11.2878073"><ele>261.0</ele><time>2026-05-01T17:21:01.902Z</time></trkpt><trkpt lat="43.0021406" lon="11.2878481"><ele>261.0</ele><time>2026-05-01T17:21:02.894Z</time></trkpt><trkpt lat="43.0023031" lon="11.2878887"><ele>261.0</ele><time>2026-05-01T17:21:03.908Z</time></trkpt><trkpt lat="43.0024644" lon="11.2879284"><ele>261.0</ele><time>2026-05-01T17:21:04.884Z</time></trkpt><trkpt lat="43.00263" lon="11.2879685"><ele>259.0</ele><time>2026-05-01T17:21:05.911Z</time></trkpt><trkpt lat="43.0027927" lon="11.2880045"><ele>257.0</ele><time>2026-05-01T17:21:06.912Z</time></trkpt><trkpt lat="43.0029561" lon="11.2880384"><ele>255.0</ele><time>2026-05-01T17:21:07.906Z</time></trkpt><trkpt lat="43.0031162" lon="11.2880732"><ele>255.0</ele><time>2026-05-01T17:21:08.903Z</time></trkpt><trkpt lat="43.0032793" lon="11.2880904"><ele>255.0</ele><time>2026-05-01T17:21:09.894Z</time></trkpt><trkpt lat="43.0034397" lon="11.2881001"><ele>255.0</ele><time>2026-05-01T17:21:10.895Z</time></trkpt><trkpt lat="43.0036017" lon="11.2881058"><ele>252.33333333333331</ele><time>2026-05-01T17:21:11.875Z</time></trkpt><trkpt lat="43.0037663" lon="11.2881044"><ele>249.66666666666666</ele><time>2026-05-01T17:21:12.879Z</time></trkpt><trkpt lat="43.0039347" lon="11.2880976"><ele>247.0</ele><time>2026-05-01T17:21:13.906Z</time></trkpt><trkpt lat="43.0041069" lon="11.2880856"><ele>241.33333333333331</ele><time>2026-05-01T17:21:14.893Z</time></trkpt><trkpt lat="43.0042837" lon="11.2880696"><ele>235.66666666666669</ele><time>2026-05-01T17:21:15.884Z</time></trkpt><trkpt lat="43.0044621" lon="11.288051"><ele>230.0</ele><time>2026-05-01T17:21:16.885Z</time></trkpt><trkpt lat="43.0046415" lon="11.2880334"><ele>230.0</ele><time>2026-05-01T17:21:17.911Z</time></trkpt><trkpt lat="43.0048203" lon="11.288018"><ele>230.0</ele><time>2026-05-01T17:21:18.926Z</time></trkpt><trkpt lat="43.0049963" lon="11.2880055"><ele>230.0</ele><time>2026-05-01T17:21:19.899Z</time></trkpt><trkpt lat="43.0051751" lon="11.2879924"><ele>230.66666666666669</ele><time>2026-05-01T17:21:20.902Z</time></trkpt><trkpt lat="43.0053531" lon="11.287975"><ele>231.33333333333331</ele><time>2026-05-01T17:21:21.9Z</time></trkpt><trkpt lat="43.0055303" lon="11.2879562"><ele>232.0</ele><time>2026-05-01T17:21:22.899Z</time></trkpt><trkpt lat="43.0057062" lon="11.2879395"><ele>228.66666666666666</ele><time>2026-05-01T17:21:23.905Z</time></trkpt><trkpt lat="43.0058768" lon="11.2879249"><ele>225.33333333333331</ele><time>2026-05-01T17:21:24.908Z</time></trkpt><trkpt lat="43.006042" lon="11.2879099"><ele>222.0</ele><time>2026-05-01T17:21:25.901Z</time></trkpt><trkpt lat="43.0062052" lon="11.287895"><ele>222.0</ele><time>2026-05-01T17:21:26.899Z</time></trkpt><trkpt lat="43.0063683" lon="11.2878782"><ele>222.0</ele><time>2026-05-01T17:21:27.906Z</time></trkpt><trkpt lat="43.0065288" lon="11.287861"><ele>222.0</ele><time>2026-05-01T17:21:28.891Z</time></trkpt><trkpt lat="43.0066884" lon="11.2878464"><ele>219.75</ele><time>2026-05-01T17:21:29.905Z</time></trkpt><trkpt lat="43.0068415" lon="11.2878352"><ele>217.5</ele><time>2026-05-01T17:21:30.899Z</time></trkpt><trkpt lat="43.0069885" lon="11.2878227"><ele>215.25</ele><time>2026-05-01T17:21:31.896Z</time></trkpt><trkpt lat="43.0071262" lon="11.2878097"><ele>213.0</ele><time>2026-05-01T17:21:32.886Z</time></trkpt><trkpt lat="43.0072571" lon="11.287796"><ele>213.0</ele><time>2026-05-01T17:21:33.909Z</time></trkpt><trkpt lat="43.0073784" lon="11.2877856"><ele>213.0</ele><time>2026-05-01T17:21:34.886Z</time></trkpt><trkpt lat="43.0074963" lon="11.2877863"><ele>213.0</ele><time>2026-05-01T17:21:35.9Z</time></trkpt><trkpt lat="43.007607" lon="11.2878087"><ele>213.0</ele><time>2026-05-01T17:21:36.901Z</time></trkpt><trkpt lat="43.0077097" lon="11.2878572"><ele>212.60000000000002</ele><time>2026-05-01T17:21:37.906Z</time></trkpt><trkpt lat="43.0078021" lon="11.2879275"><ele>212.20000000000002</ele><time>2026-05-01T17:21:38.901Z</time></trkpt><trkpt lat="43.0078954" lon="11.2880039"><ele>211.8</ele><time>2026-05-01T17:21:39.91Z</time></trkpt><trkpt lat="43.0079991" lon="11.2880648"><ele>211.4</ele><time>2026-05-01T17:21:40.909Z</time></trkpt><trkpt lat="43.0081163" lon="11.2881023"><ele>211.0</ele><time>2026-05-01T17:21:41.919Z</time></trkpt><trkpt lat="43.0082416" lon="11.2881177"><ele>209.0</ele><time>2026-05-01T17:21:42.907Z</time></trkpt><trkpt lat="43.0083754" lon="11.2881231"><ele>207.0</ele><time>2026-05-01T17:21:43.905Z</time></trkpt><trkpt lat="43.008517" lon="11.2881281"><ele>205.0</ele><time>2026-05-01T17:21:44.909Z</time></trkpt><trkpt lat="43.0086647" lon="11.2881374"><ele>203.0</ele><time>2026-05-01T17:21:45.908Z</time></trkpt><trkpt lat="43.0088159" lon="11.28815"><ele>203.0</ele><time>2026-05-01T17:21:46.909Z</time></trkpt><trkpt lat="43.0089674" lon="11.2881645"><ele>203.0</ele><time>2026-05-01T17:21:47.899Z</time></trkpt><trkpt lat="43.0091204" lon="11.2881823"><ele>203.0</ele><time>2026-05-01T17:21:48.902Z</time></trkpt><trkpt lat="43.0092747" lon="11.2882003"><ele>195.33333333333334</ele><time>2026-05-01T17:21:49.898Z</time></trkpt><trkpt lat="43.0094317" lon="11.2882187"><ele>187.66666666666669</ele><time>2026-05-01T17:21:50.884Z</time></trkpt><trkpt lat="43.0095941" lon="11.2882391"><ele>180.0</ele><time>2026-05-01T17:21:51.905Z</time></trkpt><trkpt lat="43.0097564" lon="11.2882622"><ele>180.0</ele><time>2026-05-01T17:21:52.904Z</time></trkpt><trkpt lat="43.0099209" lon="11.288286"><ele>180.0</ele><time>2026-05-01T17:21:53.903Z</time></trkpt><trkpt lat="43.0100869" lon="11.2883096"><ele>180.0</ele><time>2026-05-01T17:21:54.909Z</time></trkpt><trkpt lat="43.0102525" lon="11.288334"><ele>182.33333333333334</ele><time>2026-05-01T17:21:55.91Z</time></trkpt><trkpt lat="43.0104178" lon="11.2883598"><ele>184.66666666666669</ele><time>2026-05-01T17:21:56.895Z</time></trkpt><trkpt lat="43.0105857" lon="11.2883852"><ele>187.0</ele><time>2026-05-01T17:21:57.909Z</time></trkpt><trkpt lat="43.0107507" lon="11.2884081"><ele>185.66666666666669</ele><time>2026-05-01T17:21:58.914Z</time></trkpt><trkpt lat="43.0109115" lon="11.2884282"><ele>184.33333333333334</ele><time>2026-05-01T17:21:59.9Z</time></trkpt><trkpt lat="43.0110689" lon="11.2884489"><ele>183.0</ele><time>2026-05-01T17:22:00.88Z</time></trkpt><trkpt lat="43.0112286" lon="11.2884701"><ele>183.0</ele><time>2026-05-01T17:22:01.903Z</time></trkpt><trkpt lat="43.0113863" lon="11.2884886"><ele>183.0</ele><time>2026-05-01T17:22:02.894Z</time></trkpt><trkpt lat="43.011545" lon="11.288503"><ele>183.0</ele><time>2026-05-01T17:22:03.896Z</time></trkpt><trkpt lat="43.0116993" lon="11.2885146"><ele>182.75</ele><time>2026-05-01T17:22:04.903Z</time></trkpt><trkpt lat="43.0118471" lon="11.2885244"><ele>182.5</ele><time>2026-05-01T17:22:05.9Z</time></trkpt><trkpt lat="43.0119917" lon="11.2885318"><ele>182.25</ele><time>2026-05-01T17:22:06.9Z</time></trkpt><trkpt lat="43.0121342" lon="11.2885373"><ele>182.0</ele><time>2026-05-01T17:22:07.904Z</time></trkpt><trkpt lat="43.0122722" lon="11.2885394"><ele>182.0</ele><time>2026-05-01T17:22:08.907Z</time></trkpt><trkpt lat="43.0123999" lon="11.2885356"><ele>182.0</ele><time>2026-05-01T17:22:09.919Z</time></trkpt><trkpt lat="43.012511" lon="11.2885227"><ele>182.0</ele><time>2026-05-01T17:22:10.89Z</time></trkpt><trkpt lat="43.0126122" lon="11.2884973"><ele>182.0</ele><time>2026-05-01T17:22:11.899Z</time></trkpt><trkpt lat="43.0127019" lon="11.2884514"><ele>182.0</ele><time>2026-05-01T17:22:12.892Z</time></trkpt><trkpt lat="43.0127793" lon="11.2883824"><ele>183.0</ele><time>2026-05-01T17:22:13.904Z</time></trkpt><trkpt lat="43.0128506" lon="11.2883075"><ele>184.0</ele><time>2026-05-01T17:22:14.913Z</time></trkpt><trkpt lat="43.0129272" lon="11.2882512"><ele>185.0</ele><time>2026-05-01T17:22:15.9Z</time></trkpt><trkpt lat="43.0130132" lon="11.2882207"><ele>186.0</ele><time>2026-05-01T17:22:16.886Z</time></trkpt><trkpt lat="43.0131089" lon="11.2882098"><ele>187.0</ele><time>2026-05-01T17:22:17.902Z</time></trkpt><trkpt lat="43.0132136" lon="11.2882094"><ele>186.5</ele><time>2026-05-01T17:22:18.908Z</time></trkpt><trkpt lat="43.0133274" lon="11.2882088"><ele>186.0</ele><time>2026-05-01T17:22:19.911Z</time></trkpt><trkpt lat="43.0134484" lon="11.2882003"><ele>185.5</ele><time>2026-05-01T17:22:20.9Z</time></trkpt><trkpt lat="43.013576" lon="11.2881862"><ele>185.0</ele><time>2026-05-01T17:22:21.872Z</time></trkpt><trkpt lat="43.0137118" lon="11.288165"><ele>185.0</ele><time>2026-05-01T17:22:22.882Z</time></trkpt><trkpt lat="43.013852" lon="11.288137"><ele>185.0</ele><time>2026-05-01T17:22:23.897Z</time></trkpt><trkpt lat="43.013994" lon="11.288102"><ele>185.0</ele><time>2026-05-01T17:22:24.885Z</time></trkpt><trkpt lat="43.0141372" lon="11.2880594"><ele>185.0</ele><time>2026-05-01T17:22:25.879Z</time></trkpt><trkpt lat="43.0142797" lon="11.2880088"><ele>181.33333333333331</ele><time>2026-05-01T17:22:26.893Z</time></trkpt><trkpt lat="43.0144219" lon="11.2879509"><ele>177.66666666666666</ele><time>2026-05-01T17:22:27.889Z</time></trkpt><trkpt lat="43.0145673" lon="11.2878855"><ele>174.0</ele><time>2026-05-01T17:22:28.893Z</time></trkpt><trkpt lat="43.0147151" lon="11.2878128"><ele>174.0</ele><time>2026-05-01T17:22:29.892Z</time></trkpt><trkpt lat="43.0148653" lon="11.2877326"><ele>174.0</ele><time>2026-05-01T17:22:30.89Z</time></trkpt><trkpt lat="43.0150162" lon="11.2876431"><ele>174.0</ele><time>2026-05-01T17:22:31.899Z</time></trkpt><trkpt lat="43.015164" lon="11.2875466"><ele>172.33333333333334</ele><time>2026-05-01T17:22:32.896Z</time></trkpt><trkpt lat="43.0153087" lon="11.2874425"><ele>170.66666666666669</ele><time>2026-05-01T17:22:33.888Z</time></trkpt><trkpt lat="43.0154524" lon="11.2873289"><ele>169.0</ele><time>2026-05-01T17:22:34.905Z</time></trkpt><trkpt lat="43.0155936" lon="11.2872083"><ele>169.0</ele><time>2026-05-01T17:22:35.902Z</time></trkpt><trkpt lat="43.0157362" lon="11.2870832"><ele>169.0</ele><time>2026-05-01T17:22:36.898Z</time></trkpt><trkpt lat="43.0158813" lon="11.286955"><ele>169.0</ele><time>2026-05-01T17:22:37.913Z</time></trkpt><trkpt lat="43.0160255" lon="11.2868278"><ele>175.33333333333334</ele><time>2026-05-01T17:22:38.886Z</time></trkpt><trkpt lat="43.0161737" lon="11.2866975"><ele>181.66666666666666</ele><time>2026-05-01T17:22:39.903Z</time></trkpt><trkpt lat="43.0163157" lon="11.2865702"><ele>188.0</ele><time>2026-05-01T17:22:40.905Z</time></trkpt><trkpt lat="43.0164614" lon="11.2864456"><ele>193.66666666666666</ele><time>2026-05-01T17:22:41.884Z</time></trkpt><trkpt lat="43.0166125" lon="11.2863192"><ele>199.33333333333331</ele><time>2026-05-01T17:22:42.885Z</time></trkpt><trkpt lat="43.0167683" lon="11.286196"><ele>205.0</ele><time>2026-05-01T17:22:43.876Z</time></trkpt><trkpt lat="43.0169446" lon="11.286065"><ele>205.0</ele><time>2026-05-01T17:22:44.875Z</time></trkpt><trkpt lat="43.017116" lon="11.2859177"><ele>205.0</ele><time>2026-05-01T17:22:45.896Z</time></trkpt><trkpt lat="43.0172795" lon="11.2857693"><ele>205.0</ele><time>2026-05-01T17:22:46.879Z</time></trkpt><trkpt lat="43.0174395" lon="11.2856144"><ele>199.0</ele><time>2026-05-01T17:22:47.899Z</time></trkpt><trkpt lat="43.0175839" lon="11.2854386"><ele>193.0</ele><time>2026-05-01T17:22:48.892Z</time></trkpt><trkpt lat="43.0177256" lon="11.2852681"><ele>187.0</ele><time>2026-05-01T17:22:49.885Z</time></trkpt><trkpt lat="43.0178685" lon="11.285124"><ele>187.0</ele><time>2026-05-01T17:22:50.896Z</time></trkpt><trkpt lat="43.018018" lon="11.2849911"><ele>187.0</ele><time>2026-05-01T17:22:51.896Z</time></trkpt><trkpt lat="43.0181709" lon="11.2848599"><ele>187.0</ele><time>2026-05-01T17:22:52.886Z</time></trkpt><trkpt lat="43.0183262" lon="11.2847283"><ele>186.66666666666669</ele><time>2026-05-01T17:22:53.887Z</time></trkpt><trkpt lat="43.0184794" lon="11.284598"><ele>186.33333333333334</ele><time>2026-05-01T17:22:54.886Z</time></trkpt><trkpt lat="43.0186293" lon="11.2844653"><ele>186.0</ele><time>2026-05-01T17:22:55.888Z</time></trkpt><trkpt lat="43.0187763" lon="11.2843337"><ele>186.0</ele><time>2026-05-01T17:22:56.905Z</time></trkpt><trkpt lat="43.0189197" lon="11.2842066"><ele>186.0</ele><time>2026-05-01T17:22:57.893Z</time></trkpt><trkpt lat="43.0190624" lon="11.2840848"><ele>186.0</ele><time>2026-05-01T17:22:58.883Z</time></trkpt><trkpt lat="43.0191992" lon="11.2839661"><ele>185.0</ele><time>2026-05-01T17:22:59.898Z</time></trkpt><trkpt lat="43.0193263" lon="11.2838578"><ele>184.0</ele><time>2026-05-01T17:23:00.886Z</time></trkpt><trkpt lat="43.0194453" lon="11.2837551"><ele>183.0</ele><time>2026-05-01T17:23:01.884Z</time></trkpt><trkpt lat="43.0195563" lon="11.2836587"><ele>182.0</ele><time>2026-05-01T17:23:02.895Z</time></trkpt><trkpt lat="43.0196611" lon="11.283569"><ele>182.0</ele><time>2026-05-01T17:23:03.902Z</time></trkpt><trkpt lat="43.0197584" lon="11.283485"><ele>182.0</ele><time>2026-05-01T17:23:04.881Z</time></trkpt><trkpt lat="43.0198532" lon="11.2834025"><ele>182.0</ele><time>2026-05-01T17:23:05.898Z</time></trkpt><trkpt lat="43.0199476" lon="11.2833215"><ele>182.0</ele><time>2026-05-01T17:23:06.906Z</time></trkpt><trkpt lat="43.020044" lon="11.2832382"><ele>182.25</ele><time>2026-05-01T17:23:07.883Z</time></trkpt><trkpt lat="43.0201451" lon="11.2831518"><ele>182.5</ele><time>2026-05-01T17:23:08.903Z</time></trkpt><trkpt lat="43.0202476" lon="11.2830637"><ele>182.75</ele><time>2026-05-01T17:23:09.885Z</time></trkpt><trkpt lat="43.0203548" lon="11.2829712"><ele>183.0</ele><time>2026-05-01T17:23:10.908Z</time></trkpt><trkpt lat="43.0204636" lon="11.2828761"><ele>183.0</ele><time>2026-05-01T17:23:11.907Z</time></trkpt><trkpt lat="43.0205753" lon="11.2827774"><ele>183.0</ele><time>2026-05-01T17:23:12.893Z</time></trkpt><trkpt lat="43.0206907" lon="11.2826761"><ele>183.0</ele><time>2026-05-01T17:23:13.913Z</time></trkpt><trkpt lat="43.0208055" lon="11.2825767"><ele>183.0</ele><time>2026-05-01T17:23:14.901Z</time></trkpt><trkpt lat="43.0209232" lon="11.2824738"><ele>183.25</ele><time>2026-05-01T17:23:15.906Z</time></trkpt><trkpt lat="43.0210439" lon="11.2823688"><ele>183.5</ele><time>2026-05-01T17:23:16.907Z</time></trkpt><trkpt lat="43.0211661" lon="11.2822608"><ele>183.75</ele><time>2026-05-01T17:23:17.909Z</time></trkpt><trkpt lat="43.0212893" lon="11.2821508"><ele>184.0</ele><time>2026-05-01T17:23:18.882Z</time></trkpt><trkpt lat="43.0214179" lon="11.2820386"><ele>184.0</ele><time>2026-05-01T17:23:19.886Z</time></trkpt><trkpt lat="43.0215487" lon="11.2819295"><ele>184.0</ele><time>2026-05-01T17:23:20.877Z</time></trkpt><trkpt lat="43.0216834" lon="11.2818212"><ele>184.0</ele><time>2026-05-01T17:23:21.896Z</time></trkpt><trkpt lat="43.02182" lon="11.2817145"><ele>185.0</ele><time>2026-05-01T17:23:22.917Z</time></trkpt><trkpt lat="43.0219568" lon="11.2816101"><ele>186.0</ele><time>2026-05-01T17:23:23.895Z</time></trkpt><trkpt lat="43.0220981" lon="11.2815064"><ele>187.0</ele><time>2026-05-01T17:23:24.908Z</time></trkpt><trkpt lat="43.0222403" lon="11.281406"><ele>187.0</ele><time>2026-05-01T17:23:25.902Z</time></trkpt><trkpt lat="43.0223841" lon="11.281309"><ele>187.0</ele><time>2026-05-01T17:23:26.874Z</time></trkpt><trkpt lat="43.0225324" lon="11.2812134"><ele>187.0</ele><time>2026-05-01T17:23:27.899Z</time></trkpt><trkpt lat="43.0226795" lon="11.2811237"><ele>187.0</ele><time>2026-05-01T17:23:28.895Z</time></trkpt><trkpt lat="43.0228283" lon="11.2810383"><ele>187.0</ele><time>2026-05-01T17:23:29.882Z</time></trkpt><trkpt lat="43.0229797" lon="11.2809563"><ele>187.0</ele><time>2026-05-01T17:23:30.89Z</time></trkpt><trkpt lat="43.0231307" lon="11.2808764"><ele>187.0</ele><time>2026-05-01T17:23:31.893Z</time></trkpt><trkpt lat="43.0232806" lon="11.2807993"><ele>187.0</ele><time>2026-05-01T17:23:32.892Z</time></trkpt><trkpt lat="43.0234288" lon="11.2807245"><ele>187.0</ele><time>2026-05-01T17:23:33.903Z</time></trkpt><trkpt lat="43.023573" lon="11.2806518"><ele>187.66666666666669</ele><time>2026-05-01T17:23:34.887Z</time></trkpt><trkpt lat="43.0237172" lon="11.2805815"><ele>188.33333333333334</ele><time>2026-05-01T17:23:35.896Z</time></trkpt><trkpt lat="43.0238601" lon="11.2805177"><ele>189.0</ele><time>2026-05-01T17:23:36.896Z</time></trkpt><trkpt lat="43.0240039" lon="11.2804602"><ele>189.66666666666666</ele><time>2026-05-01T17:23:37.887Z</time></trkpt><trkpt lat="43.024151" lon="11.2804081"><ele>190.33333333333331</ele><time>2026-05-01T17:23:38.891Z</time></trkpt><trkpt lat="43.0243022" lon="11.2803585"><ele>191.0</ele><time>2026-05-01T17:23:39.89Z</time></trkpt><trkpt lat="43.0244593" lon="11.2803071"><ele>191.0</ele><time>2026-05-01T17:23:40.885Z</time></trkpt><trkpt lat="43.0246223" lon="11.2802502"><ele>191.0</ele><time>2026-05-01T17:23:41.895Z</time></trkpt><trkpt lat="43.0247881" lon="11.2801847"><ele>191.0</ele><time>2026-05-01T17:23:42.888Z</time></trkpt><trkpt lat="43.0249573" lon="11.2801081"><ele>190.66666666666666</ele><time>2026-05-01T17:23:43.883Z</time></trkpt><trkpt lat="43.0251297" lon="11.2800202"><ele>190.33333333333334</ele><time>2026-05-01T17:23:44.893Z</time></trkpt><trkpt lat="43.0253035" lon="11.2799258"><ele>190.0</ele><time>2026-05-01T17:23:45.883Z</time></trkpt><trkpt lat="43.0254822" lon="11.2798276"><ele>190.33333333333334</ele><time>2026-05-01T17:23:46.885Z</time></trkpt><trkpt lat="43.0256633" lon="11.2797287"><ele>190.66666666666666</ele><time>2026-05-01T17:23:47.885Z</time></trkpt><trkpt lat="43.0258472" lon="11.2796291"><ele>191.0</ele><time>2026-05-01T17:23:48.896Z</time></trkpt><trkpt lat="43.0260315" lon="11.2795292"><ele>191.33333333333331</ele><time>2026-05-01T17:23:49.882Z</time></trkpt><trkpt lat="43.0262195" lon="11.2794276"><ele>191.66666666666666</ele><time>2026-05-01T17:23:50.901Z</time></trkpt><trkpt lat="43.0264076" lon="11.2793264"><ele>192.0</ele><time>2026-05-01T17:23:51.903Z</time></trkpt><trkpt lat="43.0265961" lon="11.2792232"><ele>192.0</ele><time>2026-05-01T17:23:52.885Z</time></trkpt><trkpt lat="43.0267883" lon="11.2791184"><ele>192.0</ele><time>2026-05-01T17:23:53.885Z</time></trkpt><trkpt lat="43.0269819" lon="11.2790134"><ele>192.0</ele><time>2026-05-01T17:23:54.909Z</time></trkpt><trkpt lat="43.0271725" lon="11.2789099"><ele>192.0</ele><time>2026-05-01T17:23:55.9Z</time></trkpt><trkpt lat="43.0273649" lon="11.2788046"><ele>192.0</ele><time>2026-05-01T17:23:56.903Z</time></trkpt><trkpt lat="43.0275578" lon="11.278698"><ele>192.0</ele><time>2026-05-01T17:23:57.917Z</time></trkpt><trkpt lat="43.0277491" lon="11.2785916"><ele>194.0</ele><time>2026-05-01T17:23:58.899Z</time></trkpt><trkpt lat="43.0279427" lon="11.2784867"><ele>196.0</ele><time>2026-05-01T17:23:59.881Z</time></trkpt><trkpt lat="43.0281392" lon="11.2783801"><ele>198.0</ele><time>2026-05-01T17:24:00.913Z</time></trkpt><trkpt lat="43.0283304" lon="11.2782764"><ele>200.0</ele><time>2026-05-01T17:24:01.907Z</time></trkpt><trkpt lat="43.0285223" lon="11.278174"><ele>202.0</ele><time>2026-05-01T17:24:02.901Z</time></trkpt><trkpt lat="43.0287158" lon="11.2780732"><ele>204.0</ele><time>2026-05-01T17:24:03.909Z</time></trkpt><trkpt lat="43.0289082" lon="11.2779748"><ele>204.0</ele><time>2026-05-01T17:24:04.901Z</time></trkpt><trkpt lat="43.0291013" lon="11.2778765"><ele>204.0</ele><time>2026-05-01T17:24:05.904Z</time></trkpt><trkpt lat="43.0292935" lon="11.2777789"><ele>204.0</ele><time>2026-05-01T17:24:06.897Z</time></trkpt><trkpt lat="43.029486" lon="11.2776815"><ele>205.33333333333331</ele><time>2026-05-01T17:24:07.882Z</time></trkpt><trkpt lat="43.0296804" lon="11.2775828"><ele>206.66666666666666</ele><time>2026-05-01T17:24:08.891Z</time></trkpt><trkpt lat="43.0298696" lon="11.277488"><ele>208.0</ele><time>2026-05-01T17:24:09.898Z</time></trkpt><trkpt lat="43.0300488" lon="11.2773988"><ele>207.66666666666666</ele><time>2026-05-01T17:24:10.902Z</time></trkpt><trkpt lat="43.0302186" lon="11.2773136"><ele>207.33333333333331</ele><time>2026-05-01T17:24:11.892Z</time></trkpt><trkpt lat="43.0303854" lon="11.2772292"><ele>207.0</ele><time>2026-05-01T17:24:12.887Z</time></trkpt><trkpt lat="43.030552" lon="11.2771442"><ele>207.0</ele><time>2026-05-01T17:24:13.888Z</time></trkpt><trkpt lat="43.0307196" lon="11.2770587"><ele>207.0</ele><time>2026-05-01T17:24:14.886Z</time></trkpt><trkpt lat="43.0308925" lon="11.2769694"><ele>207.0</ele><time>2026-05-01T17:24:15.906Z</time></trkpt><trkpt lat="43.031069" lon="11.276876"><ele>209.0</ele><time>2026-05-01T17:24:16.886Z</time></trkpt><trkpt lat="43.0312534" lon="11.2767743"><ele>211.0</ele><time>2026-05-01T17:24:17.899Z</time></trkpt><trkpt lat="43.0314409" lon="11.276669"><ele>213.0</ele><time>2026-05-01T17:24:18.882Z</time></trkpt><trkpt lat="43.0316357" lon="11.2765617"><ele>212.0</ele><time>2026-05-01T17:24:19.883Z</time></trkpt><trkpt lat="43.0318366" lon="11.2764569"><ele>211.0</ele><time>2026-05-01T17:24:20.885Z</time></trkpt><trkpt lat="43.0320432" lon="11.2763552"><ele>210.0</ele><time>2026-05-01T17:24:21.887Z</time></trkpt><trkpt lat="43.0322541" lon="11.2762587"><ele>210.0</ele><time>2026-05-01T17:24:22.877Z</time></trkpt><trkpt lat="43.0324713" lon="11.2761672"><ele>210.0</ele><time>2026-05-01T17:24:23.885Z</time></trkpt><trkpt lat="43.032692" lon="11.2760852"><ele>213.0</ele><time>2026-05-01T17:24:24.891Z</time></trkpt><trkpt lat="43.0329145" lon="11.276013"><ele>216.0</ele><time>2026-05-01T17:24:25.884Z</time></trkpt><trkpt lat="43.0331355" lon="11.2759544"><ele>218.66666666666669</ele><time>2026-05-01T17:24:26.885Z</time></trkpt><trkpt lat="43.0333488" lon="11.2759117"><ele>221.33333333333334</ele><time>2026-05-01T17:24:27.907Z</time></trkpt><trkpt lat="43.0335498" lon="11.2758836"><ele>224.0</ele><time>2026-05-01T17:24:28.897Z</time></trkpt><trkpt lat="43.0337466" lon="11.2758678"><ele>224.0</ele><time>2026-05-01T17:24:29.891Z</time></trkpt><trkpt lat="43.0339387" lon="11.2758612"><ele>224.0</ele><time>2026-05-01T17:24:30.88Z</time></trkpt><trkpt lat="43.0341289" lon="11.275863"><ele>224.0</ele><time>2026-05-01T17:24:31.888Z</time></trkpt><trkpt lat="43.0343158" lon="11.2758742"><ele>226.33333333333334</ele><time>2026-05-01T17:24:32.893Z</time></trkpt><trkpt lat="43.0344997" lon="11.2758945"><ele>228.66666666666669</ele><time>2026-05-01T17:24:33.888Z</time></trkpt><trkpt lat="43.0346831" lon="11.2759228"><ele>231.0</ele><time>2026-05-01T17:24:34.886Z</time></trkpt><trkpt lat="43.0348664" lon="11.2759581"><ele>234.0</ele><time>2026-05-01T17:24:35.889Z</time></trkpt><trkpt lat="43.0350499" lon="11.2760006"><ele>237.0</ele><time>2026-05-01T17:24:36.9Z</time></trkpt><trkpt lat="43.0352298" lon="11.2760522"><ele>240.0</ele><time>2026-05-01T17:24:37.882Z</time></trkpt><trkpt lat="43.035411" lon="11.2761131"><ele>240.0</ele><time>2026-05-01T17:24:38.893Z</time></trkpt><trkpt lat="43.0355897" lon="11.2761822"><ele>240.0</ele><time>2026-05-01T17:24:39.888Z</time></trkpt><trkpt lat="43.0357691" lon="11.2762601"><ele>240.0</ele><time>2026-05-01T17:24:40.887Z</time></trkpt><trkpt lat="43.0359496" lon="11.2763393"><ele>301.0</ele><time>2026-05-01T17:24:41.885Z</time></trkpt><trkpt lat="43.0389993" lon="11.2802533"><ele>301.0</ele><time>2026-05-01T17:25:06.862Z</time></trkpt><trkpt lat="43.0391275" lon="11.2803972"><ele>301.0</ele><time>2026-05-01T17:25:07.909Z</time></trkpt><trkpt lat="43.0392183" lon="11.2805621"><ele>301.0</ele><time>2026-05-01T17:25:08.902Z</time></trkpt><trkpt lat="43.0393058" lon="11.2807205"><ele>290.3333333333333</ele><time>2026-05-01T17:25:09.909Z</time></trkpt><trkpt lat="43.0393877" lon="11.280894"><ele>279.6666666666667</ele><time>2026-05-01T17:25:10.897Z</time></trkpt><trkpt lat="43.0394719" lon="11.281066"><ele>269.0</ele><time>2026-05-01T17:25:11.91Z</time></trkpt><trkpt lat="43.0395512" lon="11.2812384"><ele>269.0</ele><time>2026-05-01T17:25:12.911Z</time></trkpt><trkpt lat="43.0396307" lon="11.2814106"><ele>269.0</ele><time>2026-05-01T17:25:13.896Z</time></trkpt><trkpt lat="43.039709" lon="11.2815792"><ele>269.0</ele><time>2026-05-01T17:25:14.892Z</time></trkpt><trkpt lat="43.039793" lon="11.2817524"><ele>269.0</ele><time>2026-05-01T17:25:15.902Z</time></trkpt><trkpt lat="43.0398784" lon="11.2819254"><ele>271.0</ele><time>2026-05-01T17:25:16.877Z</time></trkpt><trkpt lat="43.0399679" lon="11.2821031"><ele>273.0</ele><time>2026-05-01T17:25:17.871Z</time></trkpt><trkpt lat="43.0400608" lon="11.282283"><ele>275.0</ele><time>2026-05-01T17:25:18.89Z</time></trkpt><trkpt lat="43.0401535" lon="11.282459"><ele>275.0</ele><time>2026-05-01T17:25:19.887Z</time></trkpt><trkpt lat="43.0402495" lon="11.2826329"><ele>275.0</ele><time>2026-05-01T17:25:20.887Z</time></trkpt><trkpt lat="43.0403484" lon="11.2828067"><ele>275.0</ele><time>2026-05-01T17:25:21.896Z</time></trkpt><trkpt lat="43.0404533" lon="11.2829769"><ele>278.6666666666667</ele><time>2026-05-01T17:25:22.896Z</time></trkpt><trkpt lat="43.0405594" lon="11.2831431"><ele>282.3333333333333</ele><time>2026-05-01T17:25:23.903Z</time></trkpt><trkpt lat="43.0406667" lon="11.2833003"><ele>286.0</ele><time>2026-05-01T17:25:24.917Z</time></trkpt><trkpt lat="43.0407786" lon="11.2834543"><ele>285.3333333333333</ele><time>2026-05-01T17:25:25.926Z</time></trkpt><trkpt lat="43.0408865" lon="11.2835959"><ele>284.6666666666667</ele><time>2026-05-01T17:25:26.9Z</time></trkpt><trkpt lat="43.0410001" lon="11.2837474"><ele>284.0</ele><time>2026-05-01T17:25:27.919Z</time></trkpt><trkpt lat="43.0411109" lon="11.2838867"><ele>283.0</ele><time>2026-05-01T17:25:28.917Z</time></trkpt><trkpt lat="43.0412184" lon="11.2840139"><ele>282.0</ele><time>2026-05-01T17:25:29.891Z</time></trkpt><trkpt lat="43.0413237" lon="11.2841315"><ele>281.0</ele><time>2026-05-01T17:25:30.884Z</time></trkpt><trkpt lat="43.0414236" lon="11.284238"><ele>280.0</ele><time>2026-05-01T17:25:31.883Z</time></trkpt><trkpt lat="43.0415221" lon="11.2843324"><ele>280.0</ele><time>2026-05-01T17:25:32.883Z</time></trkpt><trkpt lat="43.041623" lon="11.2844184"><ele>280.0</ele><time>2026-05-01T17:25:33.894Z</time></trkpt><trkpt lat="43.0417266" lon="11.2844913"><ele>280.0</ele><time>2026-05-01T17:25:34.885Z</time></trkpt><trkpt lat="43.0418337" lon="11.284553"><ele>280.0</ele><time>2026-05-01T17:25:35.888Z</time></trkpt><trkpt lat="43.0419445" lon="11.2846058"><ele>279.5</ele><time>2026-05-01T17:25:36.895Z</time></trkpt><trkpt lat="43.0420583" lon="11.2846568"><ele>279.0</ele><time>2026-05-01T17:25:37.889Z</time></trkpt><trkpt lat="43.042175" lon="11.2847156"><ele>278.5</ele><time>2026-05-01T17:25:38.882Z</time></trkpt><trkpt lat="43.0422956" lon="11.2847778"><ele>278.0</ele><time>2026-05-01T17:25:39.877Z</time></trkpt><trkpt lat="43.0424181" lon="11.2848494"><ele>282.25</ele><time>2026-05-01T17:25:40.882Z</time></trkpt><trkpt lat="43.0425457" lon="11.2849228"><ele>286.5</ele><time>2026-05-01T17:25:41.888Z</time></trkpt><trkpt lat="43.0426784" lon="11.2849939"><ele>290.75</ele><time>2026-05-01T17:25:42.887Z</time></trkpt><trkpt lat="43.0428144" lon="11.2850642"><ele>295.0</ele><time>2026-05-01T17:25:43.909Z</time></trkpt><trkpt lat="43.0429496" lon="11.285129"><ele>295.0</ele><time>2026-05-01T17:25:44.89Z</time></trkpt><trkpt lat="43.0430857" lon="11.2851918"><ele>295.0</ele><time>2026-05-01T17:25:45.883Z</time></trkpt><trkpt lat="43.043223" lon="11.2852527"><ele>295.0</ele><time>2026-05-01T17:25:46.877Z</time></trkpt><trkpt lat="43.04337" lon="11.2853085"><ele>295.0</ele><time>2026-05-01T17:25:47.888Z</time></trkpt><trkpt lat="43.0435132" lon="11.2853489"><ele>299.0</ele><time>2026-05-01T17:25:48.886Z</time></trkpt><trkpt lat="43.0436552" lon="11.2853764"><ele>303.0</ele><time>2026-05-01T17:25:49.882Z</time></trkpt><trkpt lat="43.0438006" lon="11.285408"><ele>307.0</ele><time>2026-05-01T17:25:50.892Z</time></trkpt><trkpt lat="43.0439443" lon="11.2854392"><ele>311.0</ele><time>2026-05-01T17:25:51.89Z</time></trkpt><trkpt lat="43.0440829" lon="11.2854668"><ele>314.8</ele><time>2026-05-01T17:25:52.89Z</time></trkpt><trkpt lat="43.0442047" lon="11.2854739"><ele>318.6</ele><time>2026-05-01T17:25:53.886Z</time></trkpt><trkpt lat="43.0443168" lon="11.2854976"><ele>322.4</ele><time>2026-05-01T17:25:54.897Z</time></trkpt><trkpt lat="43.0444159" lon="11.2855215"><ele>326.2</ele><time>2026-05-01T17:25:55.893Z</time></trkpt><trkpt lat="43.0444973" lon="11.2855535"><ele>330.0</ele><time>2026-05-01T17:25:56.888Z</time></trkpt><trkpt lat="43.044576" lon="11.2855867"><ele>327.0</ele><time>2026-05-01T17:25:57.902Z</time></trkpt><trkpt lat="43.0446541" lon="11.285615"><ele>324.0</ele><time>2026-05-01T17:25:58.879Z</time></trkpt><trkpt lat="43.044738" lon="11.2856181"><ele>321.0</ele><time>2026-05-01T17:25:59.893Z</time></trkpt><trkpt lat="43.0448195" lon="11.2856325"><ele>318.0</ele><time>2026-05-01T17:26:00.895Z</time></trkpt><trkpt lat="43.0449072" lon="11.2856595"><ele>315.0</ele><time>2026-05-01T17:26:01.893Z</time></trkpt><trkpt lat="43.0449807" lon="11.2857025"><ele>312.0</ele><time>2026-05-01T17:26:02.899Z</time></trkpt><trkpt lat="43.0450504" lon="11.2857506"><ele>312.0</ele><time>2026-05-01T17:26:03.886Z</time></trkpt><trkpt lat="43.0451162" lon="11.285806"><ele>312.0</ele><time>2026-05-01T17:26:04.883Z</time></trkpt><trkpt lat="43.0451854" lon="11.2858623"><ele>312.0</ele><time>2026-05-01T17:26:05.891Z</time></trkpt><trkpt lat="43.0452637" lon="11.285896"><ele>312.0</ele><time>2026-05-01T17:26:06.915Z</time></trkpt><trkpt lat="43.0453518" lon="11.2859178"><ele>312.0</ele><time>2026-05-01T17:26:07.896Z</time></trkpt><trkpt lat="43.0454591" lon="11.2859245"><ele>312.0</ele><time>2026-05-01T17:26:08.907Z</time></trkpt><trkpt lat="43.0455775" lon="11.2859201"><ele>312.0</ele><time>2026-05-01T17:26:09.907Z</time></trkpt><trkpt lat="43.045705" lon="11.2859112"><ele>312.0</ele><time>2026-05-01T17:26:10.896Z</time></trkpt><trkpt lat="43.0458454" lon="11.2858993"><ele>312.0</ele><time>2026-05-01T17:26:11.898Z</time></trkpt><trkpt lat="43.045996" lon="11.2858771"><ele>312.0</ele><time>2026-05-01T17:26:12.882Z</time></trkpt><trkpt lat="43.0461578" lon="11.2858459"><ele>313.3333333333333</ele><time>2026-05-01T17:26:13.881Z</time></trkpt><trkpt lat="43.0463279" lon="11.2858124"><ele>314.66666666666663</ele><time>2026-05-01T17:26:14.893Z</time></trkpt><trkpt lat="43.0465033" lon="11.2857763"><ele>316.0</ele><time>2026-05-01T17:26:15.897Z</time></trkpt><trkpt lat="43.0466802" lon="11.2857368"><ele>316.66666666666663</ele><time>2026-05-01T17:26:16.89Z</time></trkpt><trkpt lat="43.0468591" lon="11.2856923"><ele>317.3333333333333</ele><time>2026-05-01T17:26:17.898Z</time></trkpt><trkpt lat="43.0470383" lon="11.2856444"><ele>318.0</ele><time>2026-05-01T17:26:18.902Z</time></trkpt><trkpt lat="43.047217" lon="11.2855904"><ele>324.6666666666667</ele><time>2026-05-01T17:26:19.895Z</time></trkpt><trkpt lat="43.0473915" lon="11.2855332"><ele>331.33333333333337</ele><time>2026-05-01T17:26:20.867Z</time></trkpt><trkpt lat="43.0475668" lon="11.2854735"><ele>338.0</ele><time>2026-05-01T17:26:21.879Z</time></trkpt><trkpt lat="43.0477382" lon="11.2854125"><ele>338.6666666666667</ele><time>2026-05-01T17:26:22.878Z</time></trkpt><trkpt lat="43.047909" lon="11.2853469"><ele>339.3333333333333</ele><time>2026-05-01T17:26:23.894Z</time></trkpt><trkpt lat="43.0480741" lon="11.2852769"><ele>340.0</ele><time>2026-05-01T17:26:24.883Z</time></trkpt><trkpt lat="43.0482359" lon="11.2852015"><ele>338.0</ele><time>2026-05-01T17:26:25.891Z</time></trkpt><trkpt lat="43.0483959" lon="11.2851227"><ele>336.0</ele><time>2026-05-01T17:26:26.9Z</time></trkpt><trkpt lat="43.0485559" lon="11.2850402"><ele>334.0</ele><time>2026-05-01T17:26:27.889Z</time></trkpt><trkpt lat="43.0487183" lon="11.2849536"><ele>334.0</ele><time>2026-05-01T17:26:28.888Z</time></trkpt><trkpt lat="43.0488824" lon="11.2848649"><ele>334.0</ele><time>2026-05-01T17:26:29.883Z</time></trkpt><trkpt lat="43.0490505" lon="11.2847778"><ele>334.0</ele><time>2026-05-01T17:26:30.887Z</time></trkpt><trkpt lat="43.0492215" lon="11.2846907"><ele>340.66666666666663</ele><time>2026-05-01T17:26:31.905Z</time></trkpt><trkpt lat="43.0493927" lon="11.2846056"><ele>347.3333333333333</ele><time>2026-05-01T17:26:32.887Z</time></trkpt><trkpt lat="43.0495683" lon="11.2845221"><ele>354.0</ele><time>2026-05-01T17:26:33.884Z</time></trkpt><trkpt lat="43.0497465" lon="11.2844412"><ele>354.0</ele><time>2026-05-01T17:26:34.89Z</time></trkpt><trkpt lat="43.0499281" lon="11.2843676"><ele>354.0</ele><time>2026-05-01T17:26:35.904Z</time></trkpt><trkpt lat="43.0501097" lon="11.2843003"><ele>354.0</ele><time>2026-05-01T17:26:36.887Z</time></trkpt><trkpt lat="43.0502952" lon="11.2842393"><ele>351.3333333333333</ele><time>2026-05-01T17:26:37.888Z</time></trkpt><trkpt lat="43.0504831" lon="11.2841888"><ele>348.66666666666663</ele><time>2026-05-01T17:26:38.893Z</time></trkpt><trkpt lat="43.0506726" lon="11.2841502"><ele>346.0</ele><time>2026-05-01T17:26:39.902Z</time></trkpt><trkpt lat="43.0508636" lon="11.2841216"><ele>344.66666666666663</ele><time>2026-05-01T17:26:40.907Z</time></trkpt><trkpt lat="43.0510558" lon="11.2841036"><ele>343.3333333333333</ele><time>2026-05-01T17:26:41.884Z</time></trkpt><trkpt lat="43.0512541" lon="11.284097"><ele>342.0</ele><time>2026-05-01T17:26:42.885Z</time></trkpt><trkpt lat="43.0514542" lon="11.2841001"><ele>340.0</ele><time>2026-05-01T17:26:43.885Z</time></trkpt><trkpt lat="43.0516537" lon="11.2841136"><ele>338.0</ele><time>2026-05-01T17:26:44.881Z</time></trkpt><trkpt lat="43.0518465" lon="11.2841359"><ele>336.0</ele><time>2026-05-01T17:26:45.885Z</time></trkpt><trkpt lat="43.0520265" lon="11.2841658"><ele>336.0</ele><time>2026-05-01T17:26:46.883Z</time></trkpt><trkpt lat="43.0521954" lon="11.284203"><ele>336.0</ele><time>2026-05-01T17:26:47.878Z</time></trkpt><trkpt lat="43.0523529" lon="11.2842477"><ele>336.0</ele><time>2026-05-01T17:26:48.882Z</time></trkpt><trkpt lat="43.0524962" lon="11.2842944"><ele>336.5</ele><time>2026-05-01T17:26:49.893Z</time></trkpt><trkpt lat="43.0526252" lon="11.2843384"><ele>337.0</ele><time>2026-05-01T17:26:50.894Z</time></trkpt><trkpt lat="43.0527442" lon="11.2843766"><ele>337.5</ele><time>2026-05-01T17:26:51.89Z</time></trkpt><trkpt lat="43.0528602" lon="11.2844034"><ele>338.0</ele><time>2026-05-01T17:26:52.888Z</time></trkpt><trkpt lat="43.05298" lon="11.2844135"><ele>338.0</ele><time>2026-05-01T17:26:53.897Z</time></trkpt><trkpt lat="43.053105" lon="11.284408"><ele>338.0</ele><time>2026-05-01T17:26:54.893Z</time></trkpt><trkpt lat="43.0532359" lon="11.2843952"><ele>338.0</ele><time>2026-05-01T17:26:55.894Z</time></trkpt><trkpt lat="43.0533686" lon="11.2843857"><ele>338.0</ele><time>2026-05-01T17:26:56.896Z</time></trkpt><trkpt lat="43.0534988" lon="11.2843914"><ele>340.5</ele><time>2026-05-01T17:26:57.889Z</time></trkpt><trkpt lat="43.053627" lon="11.2844187"><ele>343.0</ele><time>2026-05-01T17:26:58.886Z</time></trkpt><trkpt lat="43.0537566" lon="11.28447"><ele>345.5</ele><time>2026-05-01T17:26:59.891Z</time></trkpt><trkpt lat="43.053889" lon="11.2845321"><ele>348.0</ele><time>2026-05-01T17:27:00.892Z</time></trkpt><trkpt lat="43.0540237" lon="11.2845898"><ele>314.0</ele><time>2026-05-01T17:27:01.876Z</time></trkpt><trkpt lat="43.0677349" lon="11.2944236"><ele>314.0</ele><time>2026-05-01T17:28:24.862Z</time></trkpt><trkpt lat="43.0678354" lon="11.2945646"><ele>314.0</ele><time>2026-05-01T17:28:25.901Z</time></trkpt><trkpt lat="43.067921" lon="11.294697"><ele>314.0</ele><time>2026-05-01T17:28:26.883Z</time></trkpt><trkpt lat="43.0679956" lon="11.2948656"><ele>314.0</ele><time>2026-05-01T17:28:27.9Z</time></trkpt><trkpt lat="43.0680688" lon="11.2950248"><ele>313.0</ele><time>2026-05-01T17:28:28.887Z</time></trkpt><trkpt lat="43.0681634" lon="11.2951446"><ele>312.0</ele><time>2026-05-01T17:28:29.914Z</time></trkpt><trkpt lat="43.0682772" lon="11.2952567"><ele>311.0</ele><time>2026-05-01T17:28:30.92Z</time></trkpt><trkpt lat="43.0684076" lon="11.2953587"><ele>310.0</ele><time>2026-05-01T17:28:31.912Z</time></trkpt><trkpt lat="43.068524" lon="11.2954439"><ele>308.66666666666663</ele><time>2026-05-01T17:28:32.916Z</time></trkpt><trkpt lat="43.0686676" lon="11.2955298"><ele>307.3333333333333</ele><time>2026-05-01T17:28:33.912Z</time></trkpt><trkpt lat="43.0688163" lon="11.2956225"><ele>306.0</ele><time>2026-05-01T17:28:34.917Z</time></trkpt><trkpt lat="43.0689672" lon="11.2957163"><ele>303.0</ele><time>2026-05-01T17:28:35.904Z</time></trkpt><trkpt lat="43.069127" lon="11.2958046"><ele>300.0</ele><time>2026-05-01T17:28:36.902Z</time></trkpt><trkpt lat="43.0692944" lon="11.2958959"><ele>297.0</ele><time>2026-05-01T17:28:37.905Z</time></trkpt><trkpt lat="43.069477" lon="11.2959964"><ele>297.0</ele><time>2026-05-01T17:28:38.911Z</time></trkpt><trkpt lat="43.0696536" lon="11.2960864"><ele>297.0</ele><time>2026-05-01T17:28:39.906Z</time></trkpt><trkpt lat="43.0698329" lon="11.2961733"><ele>297.0</ele><time>2026-05-01T17:28:40.903Z</time></trkpt><trkpt lat="43.0700159" lon="11.2962584"><ele>297.3333333333333</ele><time>2026-05-01T17:28:41.906Z</time></trkpt><trkpt lat="43.0702162" lon="11.296338"><ele>297.66666666666663</ele><time>2026-05-01T17:28:42.912Z</time></trkpt><trkpt lat="43.0703982" lon="11.2964238"><ele>298.0</ele><time>2026-05-01T17:28:43.909Z</time></trkpt><trkpt lat="43.0705887" lon="11.2965029"><ele>293.66666666666663</ele><time>2026-05-01T17:28:44.921Z</time></trkpt><trkpt lat="43.0707824" lon="11.2965778"><ele>289.3333333333333</ele><time>2026-05-01T17:28:45.901Z</time></trkpt><trkpt lat="43.0709841" lon="11.2966517"><ele>285.0</ele><time>2026-05-01T17:28:46.912Z</time></trkpt><trkpt lat="43.0711892" lon="11.2967204"><ele>285.0</ele><time>2026-05-01T17:28:47.908Z</time></trkpt><trkpt lat="43.0713956" lon="11.2967816"><ele>285.0</ele><time>2026-05-01T17:28:48.916Z</time></trkpt><trkpt lat="43.0716007" lon="11.2968458"><ele>285.0</ele><time>2026-05-01T17:28:49.919Z</time></trkpt><trkpt lat="43.0718139" lon="11.2969019"><ele>283.3333333333333</ele><time>2026-05-01T17:28:50.894Z</time></trkpt><trkpt lat="43.0720216" lon="11.296945"><ele>281.66666666666663</ele><time>2026-05-01T17:28:51.915Z</time></trkpt><trkpt lat="43.072242" lon="11.2969892"><ele>280.0</ele><time>2026-05-01T17:28:52.91Z</time></trkpt><trkpt lat="43.0724628" lon="11.2970241"><ele>279.3333333333333</ele><time>2026-05-01T17:28:53.909Z</time></trkpt><trkpt lat="43.0726804" lon="11.2970455"><ele>278.6666666666667</ele><time>2026-05-01T17:28:54.898Z</time></trkpt><trkpt lat="43.0729021" lon="11.2970623"><ele>278.0</ele><time>2026-05-01T17:28:55.886Z</time></trkpt><trkpt lat="43.0731305" lon="11.2970799"><ele>277.33333333333337</ele><time>2026-05-01T17:28:56.901Z</time></trkpt><trkpt lat="43.0733318" lon="11.2970792"><ele>276.6666666666667</ele><time>2026-05-01T17:28:57.932Z</time></trkpt><trkpt lat="43.0735489" lon="11.2970605"><ele>276.0</ele><time>2026-05-01T17:28:58.886Z</time></trkpt><trkpt lat="43.0737659" lon="11.2970372"><ele>276.0</ele><time>2026-05-01T17:28:59.921Z</time></trkpt><trkpt lat="43.0739792" lon="11.2970051"><ele>276.0</ele><time>2026-05-01T17:29:00.908Z</time></trkpt><trkpt lat="43.0741953" lon="11.296969"><ele>276.0</ele><time>2026-05-01T17:29:01.909Z</time></trkpt><trkpt lat="43.0744073" lon="11.2969196"><ele>275.3333333333333</ele><time>2026-05-01T17:29:02.896Z</time></trkpt><trkpt lat="43.0746235" lon="11.2968733"><ele>274.66666666666663</ele><time>2026-05-01T17:29:03.925Z</time></trkpt><trkpt lat="43.0748389" lon="11.2968228"><ele>274.0</ele><time>2026-05-01T17:29:04.885Z</time></trkpt><trkpt lat="43.0750623" lon="11.2967741"><ele>273.66666666666663</ele><time>2026-05-01T17:29:05.915Z</time></trkpt><trkpt lat="43.0752785" lon="11.2967205"><ele>273.3333333333333</ele><time>2026-05-01T17:29:06.896Z</time></trkpt><trkpt lat="43.0754984" lon="11.2966648"><ele>273.0</ele><time>2026-05-01T17:29:07.907Z</time></trkpt><trkpt lat="43.0757155" lon="11.2966119"><ele>257.5</ele><time>2026-05-01T17:29:08.904Z</time></trkpt><trkpt lat="43.0759364" lon="11.2965566"><ele>242.0</ele><time>2026-05-01T17:29:09.906Z</time></trkpt><trkpt lat="43.0761598" lon="11.2965025"><ele>242.0</ele><time>2026-05-01T17:29:10.906Z</time></trkpt><trkpt lat="43.0763808" lon="11.2964458"><ele>242.0</ele><time>2026-05-01T17:29:11.92Z</time></trkpt><trkpt lat="43.0766083" lon="11.2963937"><ele>215.5</ele><time>2026-05-01T17:29:12.905Z</time></trkpt><trkpt lat="43.0768348" lon="11.2963398"><ele>189.0</ele><time>2026-05-01T17:29:13.913Z</time></trkpt><trkpt lat="43.077062" lon="11.2962831"><ele>189.0</ele><time>2026-05-01T17:29:14.902Z</time></trkpt><trkpt lat="43.0772881" lon="11.2962302"><ele>189.0</ele><time>2026-05-01T17:29:15.913Z</time></trkpt><trkpt lat="43.0775183" lon="11.2961779"><ele>179.5</ele><time>2026-05-01T17:29:16.892Z</time></trkpt><trkpt lat="43.0777452" lon="11.2961178"><ele>170.0</ele><time>2026-05-01T17:29:17.929Z</time></trkpt><trkpt lat="43.077975" lon="11.2960603"><ele>170.0</ele><time>2026-05-01T17:29:18.91Z</time></trkpt><trkpt lat="43.0782035" lon="11.2960019"><ele>170.0</ele><time>2026-05-01T17:29:19.909Z</time></trkpt><trkpt lat="43.0784357" lon="11.2959403"><ele>183.5</ele><time>2026-05-01T17:29:20.922Z</time></trkpt><trkpt lat="43.0786739" lon="11.295903"><ele>197.0</ele><time>2026-05-01T17:29:21.909Z</time></trkpt><trkpt lat="43.0788941" lon="11.2958395"><ele>208.5</ele><time>2026-05-01T17:29:22.898Z</time></trkpt><trkpt lat="43.0791235" lon="11.2957777"><ele>220.0</ele><time>2026-05-01T17:29:23.918Z</time></trkpt><trkpt lat="43.0793521" lon="11.2957189"><ele>220.0</ele><time>2026-05-01T17:29:24.917Z</time></trkpt><trkpt lat="43.0795788" lon="11.2956617"><ele>220.0</ele><time>2026-05-01T17:29:25.903Z</time></trkpt><trkpt lat="43.0798066" lon="11.2956057"><ele>216.0</ele><time>2026-05-01T17:29:26.931Z</time></trkpt><trkpt lat="43.0800342" lon="11.2955501"><ele>212.0</ele><time>2026-05-01T17:29:27.912Z</time></trkpt><trkpt lat="43.0802609" lon="11.2954938"><ele>212.0</ele><time>2026-05-01T17:29:28.91Z</time></trkpt><trkpt lat="43.0804881" lon="11.2954334"><ele>212.0</ele><time>2026-05-01T17:29:29.928Z</time></trkpt><trkpt lat="43.0807146" lon="11.2953765"><ele>221.5</ele><time>2026-05-01T17:29:30.911Z</time></trkpt><trkpt lat="43.0809424" lon="11.2953181"><ele>231.0</ele><time>2026-05-01T17:29:31.915Z</time></trkpt><trkpt lat="43.0811733" lon="11.2952603"><ele>231.0</ele><time>2026-05-01T17:29:32.91Z</time></trkpt><trkpt lat="43.0814011" lon="11.2952055"><ele>231.0</ele><time>2026-05-01T17:29:33.914Z</time></trkpt><trkpt lat="43.0816291" lon="11.2951519"><ele>241.5</ele><time>2026-05-01T17:29:34.912Z</time></trkpt><trkpt lat="43.0818566" lon="11.2950966"><ele>252.0</ele><time>2026-05-01T17:29:35.929Z</time></trkpt><trkpt lat="43.0820809" lon="11.2950402"><ele>252.0</ele><time>2026-05-01T17:29:36.892Z</time></trkpt><trkpt lat="43.0823026" lon="11.2949843"><ele>252.0</ele><time>2026-05-01T17:29:37.919Z</time></trkpt><trkpt lat="43.082524" lon="11.294928"><ele>253.66666666666669</ele><time>2026-05-01T17:29:38.913Z</time></trkpt><trkpt lat="43.0827439" lon="11.2948728"><ele>255.33333333333334</ele><time>2026-05-01T17:29:39.908Z</time></trkpt><trkpt lat="43.0829633" lon="11.2948169"><ele>257.0</ele><time>2026-05-01T17:29:40.922Z</time></trkpt><trkpt lat="43.083181" lon="11.2947625"><ele>264.33333333333337</ele><time>2026-05-01T17:29:41.891Z</time></trkpt><trkpt lat="43.0833985" lon="11.2947084"><ele>271.6666666666667</ele><time>2026-05-01T17:29:42.909Z</time></trkpt><trkpt lat="43.0836149" lon="11.2946553"><ele>279.0</ele><time>2026-05-01T17:29:43.926Z</time></trkpt><trkpt lat="43.0838293" lon="11.2946058"><ele>279.0</ele><time>2026-05-01T17:29:44.9Z</time></trkpt><trkpt lat="43.0840416" lon="11.2945626"><ele>279.0</ele><time>2026-05-01T17:29:45.921Z</time></trkpt><trkpt lat="43.0842529" lon="11.2945272"><ele>279.0</ele><time>2026-05-01T17:29:46.912Z</time></trkpt><trkpt lat="43.0844636" lon="11.2944999"><ele>280.3333333333333</ele><time>2026-05-01T17:29:47.912Z</time></trkpt><trkpt lat="43.0846749" lon="11.2944774"><ele>281.66666666666663</ele><time>2026-05-01T17:29:48.921Z</time></trkpt><trkpt lat="43.0848879" lon="11.2944627"><ele>283.0</ele><time>2026-05-01T17:29:49.901Z</time></trkpt><trkpt lat="43.085101" lon="11.2944541"><ele>283.0</ele><time>2026-05-01T17:29:50.918Z</time></trkpt><trkpt lat="43.0853146" lon="11.2944535"><ele>283.0</ele><time>2026-05-01T17:29:51.922Z</time></trkpt><trkpt lat="43.0855273" lon="11.2944609"><ele>283.0</ele><time>2026-05-01T17:29:52.886Z</time></trkpt><trkpt lat="43.0857415" lon="11.2944767"><ele>283.0</ele><time>2026-05-01T17:29:53.916Z</time></trkpt><trkpt lat="43.0859567" lon="11.2945017"><ele>283.0</ele><time>2026-05-01T17:29:54.903Z</time></trkpt><trkpt lat="43.0861718" lon="11.2945346"><ele>283.0</ele><time>2026-05-01T17:29:55.917Z</time></trkpt><trkpt lat="43.0863875" lon="11.2945748"><ele>284.0</ele><time>2026-05-01T17:29:56.932Z</time></trkpt><trkpt lat="43.0866041" lon="11.2946225"><ele>285.0</ele><time>2026-05-01T17:29:57.917Z</time></trkpt><trkpt lat="43.0868179" lon="11.2946779"><ele>286.0</ele><time>2026-05-01T17:29:58.907Z</time></trkpt><trkpt lat="43.087031" lon="11.2947422"><ele>280.0</ele><time>2026-05-01T17:29:59.925Z</time></trkpt><trkpt lat="43.0872431" lon="11.2948164"><ele>274.0</ele><time>2026-05-01T17:30:00.902Z</time></trkpt><trkpt lat="43.0874544" lon="11.2948989"><ele>268.0</ele><time>2026-05-01T17:30:01.911Z</time></trkpt><trkpt lat="43.0876649" lon="11.2949905"><ele>267.66666666666663</ele><time>2026-05-01T17:30:02.922Z</time></trkpt><trkpt lat="43.087875" lon="11.295092"><ele>267.3333333333333</ele><time>2026-05-01T17:30:03.91Z</time></trkpt><trkpt lat="43.0880844" lon="11.2952025"><ele>267.0</ele><time>2026-05-01T17:30:04.907Z</time></trkpt><trkpt lat="43.0882926" lon="11.2953203"><ele>272.5</ele><time>2026-05-01T17:30:05.894Z</time></trkpt><trkpt lat="43.0885001" lon="11.2954451"><ele>278.0</ele><time>2026-05-01T17:30:06.889Z</time></trkpt><trkpt lat="43.0887051" lon="11.2955759"><ele>275.5</ele><time>2026-05-01T17:30:07.913Z</time></trkpt><trkpt lat="43.088907" lon="11.2957139"><ele>273.0</ele><time>2026-05-01T17:30:08.908Z</time></trkpt><trkpt lat="43.0891058" lon="11.295859"><ele>273.0</ele><time>2026-05-01T17:30:09.903Z</time></trkpt><trkpt lat="43.0893023" lon="11.2960091"><ele>273.0</ele><time>2026-05-01T17:30:10.905Z</time></trkpt><trkpt lat="43.0894986" lon="11.2961638"><ele>273.0</ele><time>2026-05-01T17:30:11.921Z</time></trkpt><trkpt lat="43.0896944" lon="11.2963194"><ele>273.0</ele><time>2026-05-01T17:30:12.888Z</time></trkpt><trkpt lat="43.0898908" lon="11.2964753"><ele>272.0</ele><time>2026-05-01T17:30:13.888Z</time></trkpt><trkpt lat="43.0900877" lon="11.2966315"><ele>271.0</ele><time>2026-05-01T17:30:14.891Z</time></trkpt><trkpt lat="43.0902845" lon="11.2967871"><ele>271.0</ele><time>2026-05-01T17:30:15.905Z</time></trkpt><trkpt lat="43.0904798" lon="11.2969429"><ele>271.0</ele><time>2026-05-01T17:30:16.899Z</time></trkpt><trkpt lat="43.0906733" lon="11.2970976"><ele>274.0</ele><time>2026-05-01T17:30:17.917Z</time></trkpt><trkpt lat="43.0908656" lon="11.297253"><ele>277.0</ele><time>2026-05-01T17:30:18.889Z</time></trkpt><trkpt lat="43.0910566" lon="11.2974063"><ele>280.0</ele><time>2026-05-01T17:30:19.895Z</time></trkpt><trkpt lat="43.0912474" lon="11.2975577"><ele>280.0</ele><time>2026-05-01T17:30:20.911Z</time></trkpt><trkpt lat="43.0914391" lon="11.2977081"><ele>280.0</ele><time>2026-05-01T17:30:21.921Z</time></trkpt><trkpt lat="43.0916307" lon="11.2978578"><ele>280.0</ele><time>2026-05-01T17:30:22.912Z</time></trkpt><trkpt lat="43.0918215" lon="11.2980071"><ele>279.0</ele><time>2026-05-01T17:30:23.891Z</time></trkpt><trkpt lat="43.0920125" lon="11.298154"><ele>278.0</ele><time>2026-05-01T17:30:24.882Z</time></trkpt><trkpt lat="43.0922046" lon="11.2982944"><ele>277.0</ele><time>2026-05-01T17:30:25.908Z</time></trkpt><trkpt lat="43.0923982" lon="11.2984266"><ele>277.3333333333333</ele><time>2026-05-01T17:30:26.897Z</time></trkpt><trkpt lat="43.0925926" lon="11.2985481"><ele>277.6666666666667</ele><time>2026-05-01T17:30:27.904Z</time></trkpt><trkpt lat="43.0927903" lon="11.298663"><ele>278.0</ele><time>2026-05-01T17:30:28.91Z</time></trkpt><trkpt lat="43.0929907" lon="11.2987762"><ele>278.0</ele><time>2026-05-01T17:30:29.911Z</time></trkpt><trkpt lat="43.093192" lon="11.2988845"><ele>278.0</ele><time>2026-05-01T17:30:30.886Z</time></trkpt><trkpt lat="43.0933929" lon="11.2989903"><ele>278.0</ele><time>2026-05-01T17:30:31.921Z</time></trkpt><trkpt lat="43.0935938" lon="11.2990881"><ele>276.6666666666667</ele><time>2026-05-01T17:30:32.905Z</time></trkpt><trkpt lat="43.0937975" lon="11.299175"><ele>275.3333333333333</ele><time>2026-05-01T17:30:33.92Z</time></trkpt><trkpt lat="43.0940025" lon="11.2992559"><ele>274.0</ele><time>2026-05-01T17:30:34.921Z</time></trkpt><trkpt lat="43.0942099" lon="11.2993291"><ele>279.66666666666663</ele><time>2026-05-01T17:30:35.897Z</time></trkpt><trkpt lat="43.0944202" lon="11.2993973"><ele>285.3333333333333</ele><time>2026-05-01T17:30:36.893Z</time></trkpt><trkpt lat="43.0946331" lon="11.2994596"><ele>291.0</ele><time>2026-05-01T17:30:37.908Z</time></trkpt><trkpt lat="43.0948485" lon="11.2995166"><ele>293.6666666666667</ele><time>2026-05-01T17:30:38.911Z</time></trkpt><trkpt lat="43.0950677" lon="11.2995652"><ele>296.33333333333337</ele><time>2026-05-01T17:30:39.904Z</time></trkpt><trkpt lat="43.0952872" lon="11.2996071"><ele>299.0</ele><time>2026-05-01T17:30:40.905Z</time></trkpt><trkpt lat="43.0955071" lon="11.299639"><ele>299.0</ele><time>2026-05-01T17:30:41.916Z</time></trkpt><trkpt lat="43.0957267" lon="11.299662"><ele>299.0</ele><time>2026-05-01T17:30:42.902Z</time></trkpt><trkpt lat="43.0959445" lon="11.2996774"><ele>299.0</ele><time>2026-05-01T17:30:43.902Z</time></trkpt><trkpt lat="43.0961621" lon="11.299686"><ele>299.6666666666667</ele><time>2026-05-01T17:30:44.911Z</time></trkpt><trkpt lat="43.0963806" lon="11.2996879"><ele>300.3333333333333</ele><time>2026-05-01T17:30:45.902Z</time></trkpt><trkpt lat="43.0965991" lon="11.2996838"><ele>301.0</ele><time>2026-05-01T17:30:46.921Z</time></trkpt><trkpt lat="43.0968179" lon="11.2996717"><ele>298.0</ele><time>2026-05-01T17:30:47.897Z</time></trkpt><trkpt lat="43.0970373" lon="11.2996512"><ele>295.0</ele><time>2026-05-01T17:30:48.908Z</time></trkpt><trkpt lat="43.0972571" lon="11.2996241"><ele>292.0</ele><time>2026-05-01T17:30:49.908Z</time></trkpt><trkpt lat="43.0974768" lon="11.2995895"><ele>289.66666666666663</ele><time>2026-05-01T17:30:50.896Z</time></trkpt><trkpt lat="43.0976966" lon="11.2995489"><ele>287.3333333333333</ele><time>2026-05-01T17:30:51.907Z</time></trkpt><trkpt lat="43.0979155" lon="11.2995055"><ele>285.0</ele><time>2026-05-01T17:30:52.921Z</time></trkpt><trkpt lat="43.0981308" lon="11.2994622"><ele>284.6666666666667</ele><time>2026-05-01T17:30:53.893Z</time></trkpt><trkpt lat="43.0983422" lon="11.2994199"><ele>284.33333333333337</ele><time>2026-05-01T17:30:54.893Z</time></trkpt><trkpt lat="43.098552" lon="11.2993785"><ele>284.0</ele><time>2026-05-01T17:30:55.912Z</time></trkpt><trkpt lat="43.0987614" lon="11.2993369"><ele>284.0</ele><time>2026-05-01T17:30:56.905Z</time></trkpt><trkpt lat="43.098972" lon="11.2992938"><ele>284.0</ele><time>2026-05-01T17:30:57.927Z</time></trkpt><trkpt lat="43.0991841" lon="11.2992521"><ele>284.0</ele><time>2026-05-01T17:30:58.91Z</time></trkpt><trkpt lat="43.0993972" lon="11.2992111"><ele>283.33333333333337</ele><time>2026-05-01T17:30:59.931Z</time></trkpt><trkpt lat="43.0996081" lon="11.2991682"><ele>282.6666666666667</ele><time>2026-05-01T17:31:00.925Z</time></trkpt><trkpt lat="43.0998232" lon="11.299134"><ele>282.0</ele><time>2026-05-01T17:31:01.915Z</time></trkpt><trkpt lat="43.1000411" lon="11.2990887"><ele>279.3333333333333</ele><time>2026-05-01T17:31:02.908Z</time></trkpt><trkpt lat="43.1002602" lon="11.2990422"><ele>276.66666666666663</ele><time>2026-05-01T17:31:03.919Z</time></trkpt><trkpt lat="43.1004827" lon="11.2989951"><ele>274.0</ele><time>2026-05-01T17:31:04.92Z</time></trkpt><trkpt lat="43.100699" lon="11.2989503"><ele>275.3333333333333</ele><time>2026-05-01T17:31:05.921Z</time></trkpt><trkpt lat="43.1009147" lon="11.2989064"><ele>276.6666666666667</ele><time>2026-05-01T17:31:06.912Z</time></trkpt><trkpt lat="43.1011321" lon="11.2988637"><ele>278.0</ele><time>2026-05-01T17:31:07.915Z</time></trkpt><trkpt lat="43.1013481" lon="11.2988216"><ele>278.0</ele><time>2026-05-01T17:31:08.922Z</time></trkpt><trkpt lat="43.1015617" lon="11.2987808"><ele>278.0</ele><time>2026-05-01T17:31:09.919Z</time></trkpt><trkpt lat="43.1017744" lon="11.2987371"><ele>278.0</ele><time>2026-05-01T17:31:10.919Z</time></trkpt><trkpt lat="43.1019888" lon="11.2986954"><ele>276.33333333333337</ele><time>2026-05-01T17:31:11.917Z</time></trkpt><trkpt lat="43.1022036" lon="11.2986532"><ele>274.6666666666667</ele><time>2026-05-01T17:31:12.895Z</time></trkpt><trkpt lat="43.1024188" lon="11.298611"><ele>273.0</ele><time>2026-05-01T17:31:13.911Z</time></trkpt><trkpt lat="43.1026326" lon="11.298567"><ele>269.6666666666667</ele><time>2026-05-01T17:31:14.918Z</time></trkpt><trkpt lat="43.1028468" lon="11.2985183"><ele>266.33333333333337</ele><time>2026-05-01T17:31:15.911Z</time></trkpt><trkpt lat="43.1030603" lon="11.2984635"><ele>263.0</ele><time>2026-05-01T17:31:16.924Z</time></trkpt><trkpt lat="43.1032741" lon="11.2983991"><ele>258.0</ele><time>2026-05-01T17:31:17.931Z</time></trkpt><trkpt lat="43.103487" lon="11.2983265"><ele>253.0</ele><time>2026-05-01T17:31:18.898Z</time></trkpt><trkpt lat="43.1036994" lon="11.2982446"><ele>248.0</ele><time>2026-05-01T17:31:19.924Z</time></trkpt><trkpt lat="43.1039122" lon="11.2981548"><ele>250.66666666666669</ele><time>2026-05-01T17:31:20.912Z</time></trkpt><trkpt lat="43.104124" lon="11.2980555"><ele>253.33333333333331</ele><time>2026-05-01T17:31:21.912Z</time></trkpt><trkpt lat="43.1043354" lon="11.2979478"><ele>256.0</ele><time>2026-05-01T17:31:22.912Z</time></trkpt><trkpt lat="43.1045436" lon="11.2978309"><ele>256.0</ele><time>2026-05-01T17:31:23.912Z</time></trkpt><trkpt lat="43.1047488" lon="11.2977052"><ele>256.0</ele><time>2026-05-01T17:31:24.91Z</time></trkpt><trkpt lat="43.1049524" lon="11.2975731"><ele>257.3333333333333</ele><time>2026-05-01T17:31:25.908Z</time></trkpt><trkpt lat="43.1051527" lon="11.2974343"><ele>258.6666666666667</ele><time>2026-05-01T17:31:26.906Z</time></trkpt><trkpt lat="43.1053495" lon="11.2972897"><ele>260.0</ele><time>2026-05-01T17:31:27.913Z</time></trkpt><trkpt lat="43.1055438" lon="11.2971411"><ele>260.0</ele><time>2026-05-01T17:31:28.913Z</time></trkpt><trkpt lat="43.1057367" lon="11.2969889"><ele>260.0</ele><time>2026-05-01T17:31:29.924Z</time></trkpt><trkpt lat="43.1059285" lon="11.2968376"><ele>260.0</ele><time>2026-05-01T17:31:30.921Z</time></trkpt><trkpt lat="43.1061212" lon="11.2966897"><ele>257.33333333333337</ele><time>2026-05-01T17:31:31.916Z</time></trkpt><trkpt lat="43.106315" lon="11.2965467"><ele>254.66666666666669</ele><time>2026-05-01T17:31:32.929Z</time></trkpt><trkpt lat="43.1065111" lon="11.2964105"><ele>252.0</ele><time>2026-05-01T17:31:33.915Z</time></trkpt><trkpt lat="43.1067107" lon="11.2962814"><ele>242.66666666666669</ele><time>2026-05-01T17:31:34.915Z</time></trkpt><trkpt lat="43.1069125" lon="11.2961582"><ele>233.33333333333334</ele><time>2026-05-01T17:31:35.92Z</time></trkpt><trkpt lat="43.107117" lon="11.296042"><ele>224.0</ele><time>2026-05-01T17:31:36.918Z</time></trkpt><trkpt lat="43.1073241" lon="11.2959373"><ele>221.33333333333334</ele><time>2026-05-01T17:31:37.902Z</time></trkpt><trkpt lat="43.1075337" lon="11.2958457"><ele>218.66666666666669</ele><time>2026-05-01T17:31:38.889Z</time></trkpt><trkpt lat="43.1077472" lon="11.295768"><ele>216.0</ele><time>2026-05-01T17:31:39.923Z</time></trkpt><trkpt lat="43.1079633" lon="11.2957042"><ele>216.0</ele><time>2026-05-01T17:31:40.913Z</time></trkpt><trkpt lat="43.1081804" lon="11.2956528"><ele>216.0</ele><time>2026-05-01T17:31:41.911Z</time></trkpt><trkpt lat="43.108398" lon="11.2956156"><ele>216.0</ele><time>2026-05-01T17:31:42.904Z</time></trkpt><trkpt lat="43.1086171" lon="11.2955907"><ele>214.0</ele><time>2026-05-01T17:31:43.888Z</time></trkpt><trkpt lat="43.1088367" lon="11.2955784"><ele>212.0</ele><time>2026-05-01T17:31:44.927Z</time></trkpt><trkpt lat="43.1090572" lon="11.2955788"><ele>210.0</ele><time>2026-05-01T17:31:45.921Z</time></trkpt><trkpt lat="43.1092777" lon="11.295593"><ele>210.0</ele><time>2026-05-01T17:31:46.923Z</time></trkpt><trkpt lat="43.1094982" lon="11.2956183"><ele>210.0</ele><time>2026-05-01T17:31:47.9Z</time></trkpt><trkpt lat="43.1097182" lon="11.2956518"><ele>210.0</ele><time>2026-05-01T17:31:48.903Z</time></trkpt><trkpt lat="43.1099386" lon="11.2956898"><ele>208.66666666666669</ele><time>2026-05-01T17:31:49.909Z</time></trkpt><trkpt lat="43.1101599" lon="11.2957297"><ele>207.33333333333334</ele><time>2026-05-01T17:31:50.89Z</time></trkpt><trkpt lat="43.1103823" lon="11.2957714"><ele>206.0</ele><time>2026-05-01T17:31:51.916Z</time></trkpt><trkpt lat="43.1106056" lon="11.2958133"><ele>205.5</ele><time>2026-05-01T17:31:52.913Z</time></trkpt><trkpt lat="43.1108308" lon="11.2958565"><ele>205.0</ele><time>2026-05-01T17:31:53.897Z</time></trkpt><trkpt lat="43.1110572" lon="11.2959006"><ele>205.0</ele><time>2026-05-01T17:31:54.922Z</time></trkpt><trkpt lat="43.1112845" lon="11.295946"><ele>205.0</ele><time>2026-05-01T17:31:55.919Z</time></trkpt><trkpt lat="43.1115127" lon="11.2959918"><ele>202.5</ele><time>2026-05-01T17:31:56.928Z</time></trkpt><trkpt lat="43.1117404" lon="11.2960374"><ele>200.0</ele><time>2026-05-01T17:31:57.914Z</time></trkpt><trkpt lat="43.1119668" lon="11.2960817"><ele>200.0</ele><time>2026-05-01T17:31:58.923Z</time></trkpt><trkpt lat="43.1121925" lon="11.296126"><ele>200.0</ele><time>2026-05-01T17:31:59.924Z</time></trkpt><trkpt lat="43.112417" lon="11.2961704"><ele>198.0</ele><time>2026-05-01T17:32:00.897Z</time></trkpt><trkpt lat="43.1126382" lon="11.2962148"><ele>196.0</ele><time>2026-05-01T17:32:01.917Z</time></trkpt><trkpt lat="43.1128547" lon="11.2962567"><ele>194.0</ele><time>2026-05-01T17:32:02.916Z</time></trkpt><trkpt lat="43.1130667" lon="11.2962973"><ele>192.33333333333334</ele><time>2026-05-01T17:32:03.92Z</time></trkpt><trkpt lat="43.1132745" lon="11.2963379"><ele>190.66666666666669</ele><time>2026-05-01T17:32:04.91Z</time></trkpt><trkpt lat="43.1134783" lon="11.2963786"><ele>189.0</ele><time>2026-05-01T17:32:05.925Z</time></trkpt><trkpt lat="43.1136787" lon="11.2964186"><ele>187.33333333333334</ele><time>2026-05-01T17:32:06.917Z</time></trkpt><trkpt lat="43.1138751" lon="11.2964588"><ele>185.66666666666669</ele><time>2026-05-01T17:32:07.923Z</time></trkpt><trkpt lat="43.1140683" lon="11.2964985"><ele>184.0</ele><time>2026-05-01T17:32:08.909Z</time></trkpt><trkpt lat="43.1142588" lon="11.296537"><ele>182.66666666666669</ele><time>2026-05-01T17:32:09.913Z</time></trkpt><trkpt lat="43.114448" lon="11.2965749"><ele>181.33333333333334</ele><time>2026-05-01T17:32:10.898Z</time></trkpt><trkpt lat="43.1146359" lon="11.2966118"><ele>180.0</ele><time>2026-05-01T17:32:11.914Z</time></trkpt><trkpt lat="43.1148228" lon="11.2966482"><ele>179.0</ele><time>2026-05-01T17:32:12.909Z</time></trkpt><trkpt lat="43.1150103" lon="11.2966848"><ele>178.0</ele><time>2026-05-01T17:32:13.904Z</time></trkpt><trkpt lat="43.1151991" lon="11.2967221"><ele>177.0</ele><time>2026-05-01T17:32:14.922Z</time></trkpt><trkpt lat="43.115389" lon="11.2967617"><ele>177.0</ele><time>2026-05-01T17:32:15.923Z</time></trkpt><trkpt lat="43.1155803" lon="11.2968016"><ele>177.0</ele><time>2026-05-01T17:32:16.909Z</time></trkpt><trkpt lat="43.1157735" lon="11.2968418"><ele>177.0</ele><time>2026-05-01T17:32:17.905Z</time></trkpt><trkpt lat="43.1159679" lon="11.2968823"><ele>176.66666666666666</ele><time>2026-05-01T17:32:18.903Z</time></trkpt><trkpt lat="43.1161633" lon="11.2969225"><ele>176.33333333333331</ele><time>2026-05-01T17:32:19.905Z</time></trkpt><trkpt lat="43.1163599" lon="11.2969603"><ele>176.0</ele><time>2026-05-01T17:32:20.899Z</time></trkpt><trkpt lat="43.1165572" lon="11.296995"><ele>175.0</ele><time>2026-05-01T17:32:21.92Z</time></trkpt><trkpt lat="43.1167542" lon="11.2970259"><ele>174.0</ele><time>2026-05-01T17:32:22.895Z</time></trkpt><trkpt lat="43.1169522" lon="11.2970512"><ele>173.0</ele><time>2026-05-01T17:32:23.916Z</time></trkpt><trkpt lat="43.1171504" lon="11.29707"><ele>173.0</ele><time>2026-05-01T17:32:24.904Z</time></trkpt><trkpt lat="43.1173491" lon="11.2970815"><ele>173.0</ele><time>2026-05-01T17:32:25.912Z</time></trkpt><trkpt lat="43.1175487" lon="11.2970881"><ele>173.0</ele><time>2026-05-01T17:32:26.912Z</time></trkpt><trkpt lat="43.1177488" lon="11.2970902"><ele>172.66666666666666</ele><time>2026-05-01T17:32:27.91Z</time></trkpt><trkpt lat="43.1179495" lon="11.2970881"><ele>172.33333333333334</ele><time>2026-05-01T17:32:28.902Z</time></trkpt><trkpt lat="43.118151" lon="11.2970822"><ele>172.0</ele><time>2026-05-01T17:32:29.92Z</time></trkpt><trkpt lat="43.1183534" lon="11.2970714"><ele>171.33333333333334</ele><time>2026-05-01T17:32:30.916Z</time></trkpt><trkpt lat="43.1185564" lon="11.2970555"><ele>170.66666666666666</ele><time>2026-05-01T17:32:31.918Z</time></trkpt><trkpt lat="43.1187593" lon="11.2970345"><ele>170.0</ele><time>2026-05-01T17:32:32.912Z</time></trkpt><trkpt lat="43.1189613" lon="11.2970092"><ele>169.66666666666666</ele><time>2026-05-01T17:32:33.918Z</time></trkpt><trkpt lat="43.119161" lon="11.2969823"><ele>169.33333333333334</ele><time>2026-05-01T17:32:34.913Z</time></trkpt><trkpt lat="43.1193581" lon="11.2969559"><ele>169.0</ele><time>2026-05-01T17:32:35.913Z</time></trkpt><trkpt lat="43.1195555" lon="11.2969301"><ele>169.0</ele><time>2026-05-01T17:32:36.892Z</time></trkpt><trkpt lat="43.1197543" lon="11.2969046"><ele>169.0</ele><time>2026-05-01T17:32:37.904Z</time></trkpt><trkpt lat="43.1199516" lon="11.2968794"><ele>169.0</ele><time>2026-05-01T17:32:38.905Z</time></trkpt><trkpt lat="43.120145" lon="11.296854"><ele>167.33333333333334</ele><time>2026-05-01T17:32:39.913Z</time></trkpt><trkpt lat="43.1203351" lon="11.2968285"><ele>165.66666666666666</ele><time>2026-05-01T17:32:40.927Z</time></trkpt><trkpt lat="43.1205253" lon="11.2968026"><ele>164.0</ele><time>2026-05-01T17:32:41.914Z</time></trkpt><trkpt lat="43.120717" lon="11.2967761"><ele>161.66666666666666</ele><time>2026-05-01T17:32:42.916Z</time></trkpt><trkpt lat="43.1209081" lon="11.2967492"><ele>159.33333333333334</ele><time>2026-05-01T17:32:43.911Z</time></trkpt><trkpt lat="43.1210982" lon="11.2967241"><ele>157.0</ele><time>2026-05-01T17:32:44.922Z</time></trkpt><trkpt lat="43.1212893" lon="11.2967"><ele>157.0</ele><time>2026-05-01T17:32:45.921Z</time></trkpt><trkpt lat="43.1214818" lon="11.2966763"><ele>157.0</ele><time>2026-05-01T17:32:46.91Z</time></trkpt><trkpt lat="43.1216734" lon="11.2966521"><ele>157.0</ele><time>2026-05-01T17:32:47.9Z</time></trkpt><trkpt lat="43.1218599" lon="11.2966281"><ele>158.0</ele><time>2026-05-01T17:32:48.886Z</time></trkpt><trkpt lat="43.1220428" lon="11.2966036"><ele>159.0</ele><time>2026-05-01T17:32:49.899Z</time></trkpt><trkpt lat="43.1222254" lon="11.2965789"><ele>160.0</ele><time>2026-05-01T17:32:50.902Z</time></trkpt><trkpt lat="43.1224088" lon="11.296555"><ele>163.66666666666669</ele><time>2026-05-01T17:32:51.911Z</time></trkpt><trkpt lat="43.1225938" lon="11.2965326"><ele>167.33333333333334</ele><time>2026-05-01T17:32:52.9Z</time></trkpt><trkpt lat="43.1227794" lon="11.296512"><ele>171.0</ele><time>2026-05-01T17:32:53.895Z</time></trkpt><trkpt lat="43.1229637" lon="11.296491"><ele>171.0</ele><time>2026-05-01T17:32:54.907Z</time></trkpt><trkpt lat="43.1231465" lon="11.2964682"><ele>171.0</ele><time>2026-05-01T17:32:55.899Z</time></trkpt><trkpt lat="43.1233289" lon="11.296444"><ele>171.0</ele><time>2026-05-01T17:32:56.894Z</time></trkpt><trkpt lat="43.1235131" lon="11.2964195"><ele>172.33333333333334</ele><time>2026-05-01T17:32:57.921Z</time></trkpt><trkpt lat="43.1236921" lon="11.2963959"><ele>173.66666666666669</ele><time>2026-05-01T17:32:58.896Z</time></trkpt><trkpt lat="43.1238721" lon="11.2963714"><ele>175.0</ele><time>2026-05-01T17:32:59.894Z</time></trkpt><trkpt lat="43.1240495" lon="11.2963468"><ele>173.33333333333334</ele><time>2026-05-01T17:33:00.886Z</time></trkpt><trkpt lat="43.1242257" lon="11.2963217"><ele>171.66666666666666</ele><time>2026-05-01T17:33:01.888Z</time></trkpt><trkpt lat="43.1244011" lon="11.2962947"><ele>170.0</ele><time>2026-05-01T17:33:02.905Z</time></trkpt><trkpt lat="43.1245745" lon="11.2962694"><ele>170.0</ele><time>2026-05-01T17:33:03.906Z</time></trkpt><trkpt lat="43.1247478" lon="11.2962466"><ele>170.0</ele><time>2026-05-01T17:33:04.9Z</time></trkpt><trkpt lat="43.1249219" lon="11.2962237"><ele>170.0</ele><time>2026-05-01T17:33:05.915Z</time></trkpt><trkpt lat="43.1250932" lon="11.2962017"><ele>169.33333333333331</ele><time>2026-05-01T17:33:06.906Z</time></trkpt><trkpt lat="43.125265" lon="11.2961806"><ele>168.66666666666666</ele><time>2026-05-01T17:33:07.908Z</time></trkpt><trkpt lat="43.1254358" lon="11.296161"><ele>168.0</ele><time>2026-05-01T17:33:08.893Z</time></trkpt><trkpt lat="43.1256101" lon="11.2961425"><ele>169.33333333333334</ele><time>2026-05-01T17:33:09.899Z</time></trkpt><trkpt lat="43.125785" lon="11.2961223"><ele>170.66666666666669</ele><time>2026-05-01T17:33:10.897Z</time></trkpt><trkpt lat="43.1259619" lon="11.2960991"><ele>172.0</ele><time>2026-05-01T17:33:11.903Z</time></trkpt><trkpt lat="43.1261392" lon="11.2960755"><ele>172.0</ele><time>2026-05-01T17:33:12.896Z</time></trkpt><trkpt lat="43.1263192" lon="11.2960505"><ele>172.0</ele><time>2026-05-01T17:33:13.911Z</time></trkpt><trkpt lat="43.1264973" lon="11.2960262"><ele>172.0</ele><time>2026-05-01T17:33:14.913Z</time></trkpt><trkpt lat="43.1266737" lon="11.2960023"><ele>171.66666666666669</ele><time>2026-05-01T17:33:15.9Z</time></trkpt><trkpt lat="43.1268526" lon="11.2959778"><ele>171.33333333333334</ele><time>2026-05-01T17:33:16.914Z</time></trkpt><trkpt lat="43.1270305" lon="11.295953"><ele>171.0</ele><time>2026-05-01T17:33:17.921Z</time></trkpt><trkpt lat="43.1272071" lon="11.2959279"><ele>171.0</ele><time>2026-05-01T17:33:18.903Z</time></trkpt><trkpt lat="43.1273847" lon="11.2959028"><ele>171.0</ele><time>2026-05-01T17:33:19.902Z</time></trkpt><trkpt lat="43.1275596" lon="11.2958782"><ele>171.0</ele><time>2026-05-01T17:33:20.89Z</time></trkpt><trkpt lat="43.1277331" lon="11.295851"><ele>170.33333333333334</ele><time>2026-05-01T17:33:21.897Z</time></trkpt><trkpt lat="43.1279018" lon="11.2958171"><ele>169.66666666666669</ele><time>2026-05-01T17:33:22.906Z</time></trkpt><trkpt lat="43.1280659" lon="11.2957737"><ele>169.0</ele><time>2026-05-01T17:33:23.912Z</time></trkpt><trkpt lat="43.1282249" lon="11.2957206"><ele>169.33333333333334</ele><time>2026-05-01T17:33:24.894Z</time></trkpt><trkpt lat="43.1283841" lon="11.2956582"><ele>169.66666666666666</ele><time>2026-05-01T17:33:25.914Z</time></trkpt><trkpt lat="43.128539" lon="11.2955858"><ele>170.0</ele><time>2026-05-01T17:33:26.909Z</time></trkpt><trkpt lat="43.1286921" lon="11.2955034"><ele>170.0</ele><time>2026-05-01T17:33:27.895Z</time></trkpt><trkpt lat="43.1288456" lon="11.2954075"><ele>170.0</ele><time>2026-05-01T17:33:28.923Z</time></trkpt><trkpt lat="43.1289928" lon="11.2953004"><ele>170.0</ele><time>2026-05-01T17:33:29.902Z</time></trkpt><trkpt lat="43.1291382" lon="11.2951789"><ele>168.33333333333331</ele><time>2026-05-01T17:33:30.898Z</time></trkpt><trkpt lat="43.1292815" lon="11.2950456"><ele>166.66666666666666</ele><time>2026-05-01T17:33:31.902Z</time></trkpt><trkpt lat="43.1294236" lon="11.2949067"><ele>165.0</ele><time>2026-05-01T17:33:32.909Z</time></trkpt><trkpt lat="43.1295642" lon="11.294765"><ele>167.33333333333334</ele><time>2026-05-01T17:33:33.908Z</time></trkpt><trkpt lat="43.1297051" lon="11.2946245"><ele>169.66666666666669</ele><time>2026-05-01T17:33:34.909Z</time></trkpt><trkpt lat="43.1298455" lon="11.2944851"><ele>172.0</ele><time>2026-05-01T17:33:35.902Z</time></trkpt><trkpt lat="43.1299859" lon="11.2943447"><ele>172.0</ele><time>2026-05-01T17:33:36.901Z</time></trkpt><trkpt lat="43.1301239" lon="11.294206"><ele>172.0</ele><time>2026-05-01T17:33:37.904Z</time></trkpt><trkpt lat="43.1302585" lon="11.2940704"><ele>172.0</ele><time>2026-05-01T17:33:38.902Z</time></trkpt><trkpt lat="43.1303909" lon="11.2939361"><ele>173.0</ele><time>2026-05-01T17:33:39.908Z</time></trkpt><trkpt lat="43.1305222" lon="11.2938026"><ele>174.0</ele><time>2026-05-01T17:33:40.905Z</time></trkpt><trkpt lat="43.1306547" lon="11.2936681"><ele>175.0</ele><time>2026-05-01T17:33:41.91Z</time></trkpt><trkpt lat="43.1307865" lon="11.2935338"><ele>175.0</ele><time>2026-05-01T17:33:42.892Z</time></trkpt><trkpt lat="43.1309222" lon="11.2933976"><ele>175.0</ele><time>2026-05-01T17:33:43.918Z</time></trkpt><trkpt lat="43.1310566" lon="11.2932646"><ele>175.0</ele><time>2026-05-01T17:33:44.89Z</time></trkpt><trkpt lat="43.1311947" lon="11.2931284"><ele>175.66666666666669</ele><time>2026-05-01T17:33:45.908Z</time></trkpt><trkpt lat="43.1313311" lon="11.2929915"><ele>176.33333333333334</ele><time>2026-05-01T17:33:46.91Z</time></trkpt><trkpt lat="43.1314691" lon="11.2928544"><ele>177.0</ele><time>2026-05-01T17:33:47.907Z</time></trkpt><trkpt lat="43.1316095" lon="11.2927163"><ele>177.0</ele><time>2026-05-01T17:33:48.91Z</time></trkpt><trkpt lat="43.1317501" lon="11.292576"><ele>177.0</ele><time>2026-05-01T17:33:49.899Z</time></trkpt><trkpt lat="43.1318929" lon="11.2924309"><ele>177.0</ele><time>2026-05-01T17:33:50.921Z</time></trkpt><trkpt lat="43.1320343" lon="11.292287"><ele>177.33333333333334</ele><time>2026-05-01T17:33:51.893Z</time></trkpt><trkpt lat="43.1321801" lon="11.2921391"><ele>177.66666666666669</ele><time>2026-05-01T17:33:52.919Z</time></trkpt><trkpt lat="43.1323249" lon="11.2919928"><ele>178.0</ele><time>2026-05-01T17:33:53.916Z</time></trkpt><trkpt lat="43.132471" lon="11.2918457"><ele>178.0</ele><time>2026-05-01T17:33:54.926Z</time></trkpt><trkpt lat="43.1326145" lon="11.2917014"><ele>178.0</ele><time>2026-05-01T17:33:55.906Z</time></trkpt><trkpt lat="43.1327571" lon="11.2915569"><ele>178.0</ele><time>2026-05-01T17:33:56.902Z</time></trkpt><trkpt lat="43.1328984" lon="11.291413"><ele>178.0</ele><time>2026-05-01T17:33:57.901Z</time></trkpt><trkpt lat="43.1330398" lon="11.2912721"><ele>178.0</ele><time>2026-05-01T17:33:58.91Z</time></trkpt><trkpt lat="43.1331835" lon="11.2911399"><ele>178.0</ele><time>2026-05-01T17:33:59.919Z</time></trkpt><trkpt lat="43.1333306" lon="11.2910196"><ele>178.0</ele><time>2026-05-01T17:34:00.923Z</time></trkpt><trkpt lat="43.1334808" lon="11.2909136"><ele>178.0</ele><time>2026-05-01T17:34:01.901Z</time></trkpt><trkpt lat="43.1336381" lon="11.2908187"><ele>178.0</ele><time>2026-05-01T17:34:02.936Z</time></trkpt><trkpt lat="43.1337948" lon="11.2907388"><ele>178.0</ele><time>2026-05-01T17:34:03.919Z</time></trkpt><trkpt lat="43.1339552" lon="11.2906699"><ele>178.0</ele><time>2026-05-01T17:34:04.915Z</time></trkpt><trkpt lat="43.1341173" lon="11.2906145"><ele>178.0</ele><time>2026-05-01T17:34:05.905Z</time></trkpt><trkpt lat="43.1342834" lon="11.290572"><ele>180.0</ele><time>2026-05-01T17:34:06.907Z</time></trkpt><trkpt lat="43.1344524" lon="11.2905397"><ele>182.0</ele><time>2026-05-01T17:34:07.909Z</time></trkpt><trkpt lat="43.1346245" lon="11.2905191"><ele>184.0</ele><time>2026-05-01T17:34:08.915Z</time></trkpt><trkpt lat="43.1347997" lon="11.2905129"><ele>180.66666666666669</ele><time>2026-05-01T17:34:09.921Z</time></trkpt><trkpt lat="43.134977" lon="11.2905166"><ele>177.33333333333334</ele><time>2026-05-01T17:34:10.919Z</time></trkpt><trkpt lat="43.1351559" lon="11.2905247"><ele>174.0</ele><time>2026-05-01T17:34:11.919Z</time></trkpt><trkpt lat="43.1353354" lon="11.2905328"><ele>174.0</ele><time>2026-05-01T17:34:12.92Z</time></trkpt><trkpt lat="43.1355141" lon="11.2905373"><ele>174.0</ele><time>2026-05-01T17:34:13.908Z</time></trkpt><trkpt lat="43.1356924" lon="11.2905357"><ele>174.0</ele><time>2026-05-01T17:34:14.925Z</time></trkpt><trkpt lat="43.1358652" lon="11.2905261"><ele>176.66666666666666</ele><time>2026-05-01T17:34:15.913Z</time></trkpt><trkpt lat="43.1360378" lon="11.2905071"><ele>179.33333333333331</ele><time>2026-05-01T17:34:16.906Z</time></trkpt><trkpt lat="43.1362099" lon="11.2904779"><ele>182.0</ele><time>2026-05-01T17:34:17.915Z</time></trkpt><trkpt lat="43.1363794" lon="11.290438"><ele>182.0</ele><time>2026-05-01T17:34:18.897Z</time></trkpt><trkpt lat="43.1365498" lon="11.2903893"><ele>182.0</ele><time>2026-05-01T17:34:19.905Z</time></trkpt><trkpt lat="43.136717" lon="11.2903326"><ele>182.0</ele><time>2026-05-01T17:34:20.909Z</time></trkpt><trkpt lat="43.1368804" lon="11.2902701"><ele>184.0</ele><time>2026-05-01T17:34:21.895Z</time></trkpt><trkpt lat="43.1370414" lon="11.2902036"><ele>186.0</ele><time>2026-05-01T17:34:22.901Z</time></trkpt><trkpt lat="43.1371978" lon="11.2901376"><ele>188.0</ele><time>2026-05-01T17:34:23.918Z</time></trkpt><trkpt lat="43.1373488" lon="11.2900739"><ele>188.66666666666666</ele><time>2026-05-01T17:34:24.911Z</time></trkpt><trkpt lat="43.1374989" lon="11.29001"><ele>189.33333333333334</ele><time>2026-05-01T17:34:25.889Z</time></trkpt><trkpt lat="43.1376492" lon="11.2899465"><ele>190.0</ele><time>2026-05-01T17:34:26.897Z</time></trkpt><trkpt lat="43.1377929" lon="11.2898855"><ele>190.0</ele><time>2026-05-01T17:34:27.888Z</time></trkpt><trkpt lat="43.1379316" lon="11.2898251"><ele>190.0</ele><time>2026-05-01T17:34:28.899Z</time></trkpt><trkpt lat="43.1380658" lon="11.2897663"><ele>190.0</ele><time>2026-05-01T17:34:29.905Z</time></trkpt><trkpt lat="43.1381991" lon="11.2897091"><ele>190.0</ele><time>2026-05-01T17:34:30.897Z</time></trkpt><trkpt lat="43.1383328" lon="11.2896527"><ele>193.5</ele><time>2026-05-01T17:34:31.901Z</time></trkpt><trkpt lat="43.1384648" lon="11.2895983"><ele>197.0</ele><time>2026-05-01T17:34:32.909Z</time></trkpt><trkpt lat="43.1385946" lon="11.2895457"><ele>200.5</ele><time>2026-05-01T17:34:33.902Z</time></trkpt><trkpt lat="43.1387241" lon="11.2894919"><ele>204.0</ele><time>2026-05-01T17:34:34.888Z</time></trkpt><trkpt lat="43.1388555" lon="11.2894363"><ele>204.0</ele><time>2026-05-01T17:34:35.903Z</time></trkpt><trkpt lat="43.1389873" lon="11.2893816"><ele>204.0</ele><time>2026-05-01T17:34:36.917Z</time></trkpt><trkpt lat="43.1391179" lon="11.2893249"><ele>204.0</ele><time>2026-05-01T17:34:37.905Z</time></trkpt><trkpt lat="43.1392515" lon="11.2892681"><ele>204.0</ele><time>2026-05-01T17:34:38.91Z</time></trkpt><trkpt lat="43.1393859" lon="11.2892112"><ele>202.25</ele><time>2026-05-01T17:34:39.923Z</time></trkpt><trkpt lat="43.1395186" lon="11.289155"><ele>200.5</ele><time>2026-05-01T17:34:40.905Z</time></trkpt><trkpt lat="43.1396532" lon="11.289098"><ele>198.75</ele><time>2026-05-01T17:34:41.91Z</time></trkpt><trkpt lat="43.1397885" lon="11.2890407"><ele>197.0</ele><time>2026-05-01T17:34:42.911Z</time></trkpt><trkpt lat="43.1399256" lon="11.2889826"><ele>196.75</ele><time>2026-05-01T17:34:43.928Z</time></trkpt><trkpt lat="43.1400594" lon="11.2889265"><ele>196.5</ele><time>2026-05-01T17:34:44.916Z</time></trkpt><trkpt lat="43.1401916" lon="11.2888717"><ele>196.25</ele><time>2026-05-01T17:34:45.924Z</time></trkpt><trkpt lat="43.1403197" lon="11.2888145"><ele>196.0</ele><time>2026-05-01T17:34:46.918Z</time></trkpt><trkpt lat="43.1404484" lon="11.2887553"><ele>196.0</ele><time>2026-05-01T17:34:47.913Z</time></trkpt><trkpt lat="43.1405788" lon="11.2886976"><ele>196.0</ele><time>2026-05-01T17:34:48.896Z</time></trkpt><trkpt lat="43.1407105" lon="11.2886427"><ele>196.0</ele><time>2026-05-01T17:34:49.919Z</time></trkpt><trkpt lat="43.1408382" lon="11.2885909"><ele>196.0</ele><time>2026-05-01T17:34:50.925Z</time></trkpt><trkpt lat="43.1409653" lon="11.288538"><ele>196.0</ele><time>2026-05-01T17:34:51.906Z</time></trkpt><trkpt lat="43.1410983" lon="11.2884802"><ele>196.0</ele><time>2026-05-01T17:34:52.925Z</time></trkpt><trkpt lat="43.1412331" lon="11.2884217"><ele>196.0</ele><time>2026-05-01T17:34:53.912Z</time></trkpt><trkpt lat="43.1413716" lon="11.2883615"><ele>196.0</ele><time>2026-05-01T17:34:54.915Z</time></trkpt><trkpt lat="43.1415115" lon="11.2883004"><ele>192.66666666666666</ele><time>2026-05-01T17:34:55.919Z</time></trkpt><trkpt lat="43.1416535" lon="11.288238"><ele>189.33333333333331</ele><time>2026-05-01T17:34:56.917Z</time></trkpt><trkpt lat="43.1417983" lon="11.2881741"><ele>186.0</ele><time>2026-05-01T17:34:57.928Z</time></trkpt><trkpt lat="43.1419432" lon="11.2881102"><ele>185.33333333333334</ele><time>2026-05-01T17:34:58.913Z</time></trkpt><trkpt lat="43.1420901" lon="11.2880452"><ele>184.66666666666669</ele><time>2026-05-01T17:34:59.916Z</time></trkpt><trkpt lat="43.1422351" lon="11.2879814"><ele>184.0</ele><time>2026-05-01T17:35:00.893Z</time></trkpt><trkpt lat="43.1423829" lon="11.2879163"><ele>184.0</ele><time>2026-05-01T17:35:01.911Z</time></trkpt><trkpt lat="43.1425287" lon="11.2878521"><ele>184.0</ele><time>2026-05-01T17:35:02.903Z</time></trkpt><trkpt lat="43.1426737" lon="11.2877887"><ele>184.0</ele><time>2026-05-01T17:35:03.906Z</time></trkpt><trkpt lat="43.1428155" lon="11.2877288"><ele>184.0</ele><time>2026-05-01T17:35:04.903Z</time></trkpt><trkpt lat="43.1429558" lon="11.2876713"><ele>184.0</ele><time>2026-05-01T17:35:05.933Z</time></trkpt><trkpt lat="43.143089" lon="11.2876151"><ele>184.0</ele><time>2026-05-01T17:35:06.899Z</time></trkpt><trkpt lat="43.1432215" lon="11.2875572"><ele>184.0</ele><time>2026-05-01T17:35:07.899Z</time></trkpt><trkpt lat="43.1433522" lon="11.2875003"><ele>180.5</ele><time>2026-05-01T17:35:08.894Z</time></trkpt><trkpt lat="43.1434857" lon="11.2874418"><ele>177.0</ele><time>2026-05-01T17:35:09.917Z</time></trkpt><trkpt lat="43.1436174" lon="11.2873844"><ele>173.5</ele><time>2026-05-01T17:35:10.892Z</time></trkpt><trkpt lat="43.1437494" lon="11.2873273"><ele>170.0</ele><time>2026-05-01T17:35:11.916Z</time></trkpt><trkpt lat="43.1438763" lon="11.2872712"><ele>170.25</ele><time>2026-05-01T17:35:12.918Z</time></trkpt><trkpt lat="43.1439977" lon="11.2872168"><ele>170.5</ele><time>2026-05-01T17:35:13.92Z</time></trkpt><trkpt lat="43.1441139" lon="11.287166"><ele>170.75</ele><time>2026-05-01T17:35:14.914Z</time></trkpt><trkpt lat="43.1442255" lon="11.2871187"><ele>171.0</ele><time>2026-05-01T17:35:15.921Z</time></trkpt><trkpt lat="43.1443346" lon="11.2870724"><ele>171.0</ele><time>2026-05-01T17:35:16.917Z</time></trkpt><trkpt lat="43.1444428" lon="11.2870249"><ele>171.0</ele><time>2026-05-01T17:35:17.918Z</time></trkpt><trkpt lat="43.1445515" lon="11.286977"><ele>171.0</ele><time>2026-05-01T17:35:18.908Z</time></trkpt><trkpt lat="43.1446611" lon="11.2869301"><ele>171.0</ele><time>2026-05-01T17:35:19.92Z</time></trkpt><trkpt lat="43.1447713" lon="11.2868836"><ele>170.75</ele><time>2026-05-01T17:35:20.901Z</time></trkpt><trkpt lat="43.1448818" lon="11.286836"><ele>170.5</ele><time>2026-05-01T17:35:21.915Z</time></trkpt><trkpt lat="43.144994" lon="11.2867874"><ele>170.25</ele><time>2026-05-01T17:35:22.92Z</time></trkpt><trkpt lat="43.1451087" lon="11.2867384"><ele>170.0</ele><time>2026-05-01T17:35:23.914Z</time></trkpt><trkpt lat="43.1452219" lon="11.2866902"><ele>170.0</ele><time>2026-05-01T17:35:24.899Z</time></trkpt><trkpt lat="43.1453331" lon="11.2866419"><ele>170.0</ele><time>2026-05-01T17:35:25.9Z</time></trkpt><trkpt lat="43.1454427" lon="11.2865941"><ele>170.0</ele><time>2026-05-01T17:35:26.9Z</time></trkpt><trkpt lat="43.1455476" lon="11.2865485"><ele>170.0</ele><time>2026-05-01T17:35:27.913Z</time></trkpt><trkpt lat="43.1456484" lon="11.2865049"><ele>170.0</ele><time>2026-05-01T17:35:28.895Z</time></trkpt><trkpt lat="43.1457447" lon="11.286463"><ele>170.2</ele><time>2026-05-01T17:35:29.917Z</time></trkpt><trkpt lat="43.1458355" lon="11.286423"><ele>170.4</ele><time>2026-05-01T17:35:30.899Z</time></trkpt><trkpt lat="43.1459215" lon="11.2863862"><ele>170.60000000000002</ele><time>2026-05-01T17:35:31.913Z</time></trkpt><trkpt lat="43.1460057" lon="11.2863507"><ele>170.8</ele><time>2026-05-01T17:35:32.903Z</time></trkpt><trkpt lat="43.1460898" lon="11.2863164"><ele>171.0</ele><time>2026-05-01T17:35:33.917Z</time></trkpt><trkpt lat="43.1461757" lon="11.2862824"><ele>171.0</ele><time>2026-05-01T17:35:34.896Z</time></trkpt><trkpt lat="43.1462648" lon="11.2862477"><ele>171.0</ele><time>2026-05-01T17:35:35.909Z</time></trkpt><trkpt lat="43.1463552" lon="11.2862114"><ele>171.0</ele><time>2026-05-01T17:35:36.899Z</time></trkpt><trkpt lat="43.1464483" lon="11.2861753"><ele>171.0</ele><time>2026-05-01T17:35:37.916Z</time></trkpt><trkpt lat="43.1465436" lon="11.2861406"><ele>171.0</ele><time>2026-05-01T17:35:38.899Z</time></trkpt><trkpt lat="43.1466399" lon="11.2861086"><ele>170.8</ele><time>2026-05-01T17:35:39.91Z</time></trkpt><trkpt lat="43.1467388" lon="11.2860807"><ele>170.60000000000002</ele><time>2026-05-01T17:35:40.918Z</time></trkpt><trkpt lat="43.1468398" lon="11.2860577"><ele>170.4</ele><time>2026-05-01T17:35:41.917Z</time></trkpt><trkpt lat="43.1469439" lon="11.2860384"><ele>170.2</ele><time>2026-05-01T17:35:42.923Z</time></trkpt><trkpt lat="43.147053" lon="11.2860217"><ele>170.0</ele><time>2026-05-01T17:35:43.908Z</time></trkpt><trkpt lat="43.1471666" lon="11.2860091"><ele>170.0</ele><time>2026-05-01T17:35:44.892Z</time></trkpt><trkpt lat="43.1472843" lon="11.2860001"><ele>170.0</ele><time>2026-05-01T17:35:45.906Z</time></trkpt><trkpt lat="43.1474052" lon="11.2859966"><ele>170.0</ele><time>2026-05-01T17:35:46.917Z</time></trkpt><trkpt lat="43.1475283" lon="11.2860004"><ele>170.0</ele><time>2026-05-01T17:35:47.913Z</time></trkpt><trkpt lat="43.1476524" lon="11.2860108"><ele>170.0</ele><time>2026-05-01T17:35:48.922Z</time></trkpt><trkpt lat="43.1477766" lon="11.2860264"><ele>170.0</ele><time>2026-05-01T17:35:49.916Z</time></trkpt><trkpt lat="43.147901" lon="11.2860475"><ele>170.0</ele><time>2026-05-01T17:35:50.917Z</time></trkpt><trkpt lat="43.1480252" lon="11.2860751"><ele>170.0</ele><time>2026-05-01T17:35:51.918Z</time></trkpt><trkpt lat="43.1481491" lon="11.2861092"><ele>169.5</ele><time>2026-05-01T17:35:52.912Z</time></trkpt><trkpt lat="43.1482728" lon="11.2861511"><ele>169.0</ele><time>2026-05-01T17:35:53.908Z</time></trkpt><trkpt lat="43.1483976" lon="11.2861997"><ele>168.5</ele><time>2026-05-01T17:35:54.909Z</time></trkpt><trkpt lat="43.1485215" lon="11.2862543"><ele>168.0</ele><time>2026-05-01T17:35:55.908Z</time></trkpt><trkpt lat="43.1486437" lon="11.2863131"><ele>168.0</ele><time>2026-05-01T17:35:56.912Z</time></trkpt><trkpt lat="43.148764" lon="11.286376"><ele>168.0</ele><time>2026-05-01T17:35:57.915Z</time></trkpt><trkpt lat="43.1488818" lon="11.286443"><ele>168.0</ele><time>2026-05-01T17:35:58.922Z</time></trkpt><trkpt lat="43.1489976" lon="11.2865121"><ele>168.0</ele><time>2026-05-01T17:35:59.894Z</time></trkpt><trkpt lat="43.1491121" lon="11.2865819"><ele>167.25</ele><time>2026-05-01T17:36:00.91Z</time></trkpt><trkpt lat="43.1492276" lon="11.2866534"><ele>166.5</ele><time>2026-05-01T17:36:01.899Z</time></trkpt><trkpt lat="43.1493454" lon="11.2867271"><ele>165.75</ele><time>2026-05-01T17:36:02.902Z</time></trkpt><trkpt lat="43.1494644" lon="11.2868003"><ele>165.0</ele><time>2026-05-01T17:36:03.916Z</time></trkpt><trkpt lat="43.1495856" lon="11.2868712"><ele>165.0</ele><time>2026-05-01T17:36:04.914Z</time></trkpt><trkpt lat="43.1497092" lon="11.2869434"><ele>165.0</ele><time>2026-05-01T17:36:05.924Z</time></trkpt><trkpt lat="43.1498353" lon="11.2870175"><ele>165.0</ele><time>2026-05-01T17:36:06.914Z</time></trkpt><trkpt lat="43.1499614" lon="11.2870923"><ele>165.0</ele><time>2026-05-01T17:36:07.918Z</time></trkpt><trkpt lat="43.1500853" lon="11.2871673"><ele>164.0</ele><time>2026-05-01T17:36:08.926Z</time></trkpt><trkpt lat="43.1502072" lon="11.2872425"><ele>163.0</ele><time>2026-05-01T17:36:09.929Z</time></trkpt><trkpt lat="43.1503283" lon="11.2873159"><ele>162.0</ele><time>2026-05-01T17:36:10.903Z</time></trkpt><trkpt lat="43.150449" lon="11.2873887"><ele>161.0</ele><time>2026-05-01T17:36:11.915Z</time></trkpt><trkpt lat="43.1505675" lon="11.28746"><ele>160.75</ele><time>2026-05-01T17:36:12.907Z</time></trkpt><trkpt lat="43.1506848" lon="11.287531"><ele>160.5</ele><time>2026-05-01T17:36:13.915Z</time></trkpt><trkpt lat="43.1508036" lon="11.2876031"><ele>160.25</ele><time>2026-05-01T17:36:14.909Z</time></trkpt><trkpt lat="43.1509235" lon="11.2876764"><ele>160.0</ele><time>2026-05-01T17:36:15.911Z</time></trkpt><trkpt lat="43.1510434" lon="11.2877483"><ele>160.0</ele><time>2026-05-01T17:36:16.922Z</time></trkpt><trkpt lat="43.1511617" lon="11.2878183"><ele>160.0</ele><time>2026-05-01T17:36:17.92Z</time></trkpt><trkpt lat="43.1512788" lon="11.2878877"><ele>160.0</ele><time>2026-05-01T17:36:18.908Z</time></trkpt><trkpt lat="43.1513973" lon="11.287959"><ele>160.0</ele><time>2026-05-01T17:36:19.892Z</time></trkpt><trkpt lat="43.1515164" lon="11.2880321"><ele>161.25</ele><time>2026-05-01T17:36:20.905Z</time></trkpt><trkpt lat="43.1516356" lon="11.2881045"><ele>162.5</ele><time>2026-05-01T17:36:21.914Z</time></trkpt><trkpt lat="43.151755" lon="11.2881768"><ele>163.75</ele><time>2026-05-01T17:36:22.908Z</time></trkpt><trkpt lat="43.1518744" lon="11.2882494"><ele>165.0</ele><time>2026-05-01T17:36:23.905Z</time></trkpt><trkpt lat="43.1519951" lon="11.2883216"><ele>165.0</ele><time>2026-05-01T17:36:24.898Z</time></trkpt><trkpt lat="43.1521176" lon="11.288395"><ele>165.0</ele><time>2026-05-01T17:36:25.905Z</time></trkpt><trkpt lat="43.1522419" lon="11.2884703"><ele>165.0</ele><time>2026-05-01T17:36:26.906Z</time></trkpt><trkpt lat="43.1523678" lon="11.2885474"><ele>165.0</ele><time>2026-05-01T17:36:27.902Z</time></trkpt><trkpt lat="43.1524932" lon="11.288624"><ele>164.5</ele><time>2026-05-01T17:36:28.911Z</time></trkpt><trkpt lat="43.1526118" lon="11.2886956"><ele>164.0</ele><time>2026-05-01T17:36:29.901Z</time></trkpt><trkpt lat="43.1527228" lon="11.2887631"><ele>163.5</ele><time>2026-05-01T17:36:30.907Z</time></trkpt><trkpt lat="43.1528226" lon="11.2888242"><ele>163.0</ele><time>2026-05-01T17:36:31.912Z</time></trkpt><trkpt lat="43.1529103" lon="11.2888774"><ele>163.0</ele><time>2026-05-01T17:36:32.917Z</time></trkpt><trkpt lat="43.1529899" lon="11.2889241"><ele>163.0</ele><time>2026-05-01T17:36:33.905Z</time></trkpt><trkpt lat="43.1530654" lon="11.288968"><ele>163.0</ele><time>2026-05-01T17:36:34.9Z</time></trkpt><trkpt lat="43.1531403" lon="11.289013"><ele>163.0</ele><time>2026-05-01T17:36:35.893Z</time></trkpt><trkpt lat="43.1532178" lon="11.289062"><ele>163.0</ele><time>2026-05-01T17:36:36.898Z</time></trkpt><trkpt lat="43.1532981" lon="11.2891128"><ele>163.0</ele><time>2026-05-01T17:36:37.913Z</time></trkpt><trkpt lat="43.1533807" lon="11.2891633"><ele>163.5</ele><time>2026-05-01T17:36:38.91Z</time></trkpt><trkpt lat="43.1534631" lon="11.2892114"><ele>164.0</ele><time>2026-05-01T17:36:39.898Z</time></trkpt><trkpt lat="43.1535438" lon="11.2892575"><ele>164.5</ele><time>2026-05-01T17:36:40.892Z</time></trkpt><trkpt lat="43.1536242" lon="11.2893034"><ele>165.0</ele><time>2026-05-01T17:36:41.893Z</time></trkpt><trkpt lat="43.153705" lon="11.2893502"><ele>165.5</ele><time>2026-05-01T17:36:42.902Z</time></trkpt><trkpt lat="43.1537878" lon="11.2893997"><ele>166.0</ele><time>2026-05-01T17:36:43.915Z</time></trkpt><trkpt lat="43.1538733" lon="11.2894524"><ele>166.0</ele><time>2026-05-01T17:36:44.897Z</time></trkpt><trkpt lat="43.1539622" lon="11.2895058"><ele>166.0</ele><time>2026-05-01T17:36:45.901Z</time></trkpt><trkpt lat="43.1540538" lon="11.2895582"><ele>166.0</ele><time>2026-05-01T17:36:46.888Z</time></trkpt><trkpt lat="43.1541451" lon="11.2896078"><ele>166.0</ele><time>2026-05-01T17:36:47.895Z</time></trkpt><trkpt lat="43.1542361" lon="11.2896556"><ele>166.0</ele><time>2026-05-01T17:36:48.893Z</time></trkpt><trkpt lat="43.154327" lon="11.2897018"><ele>165.60000000000002</ele><time>2026-05-01T17:36:49.898Z</time></trkpt><trkpt lat="43.1544179" lon="11.289748"><ele>165.2</ele><time>2026-05-01T17:36:50.908Z</time></trkpt><trkpt lat="43.1545084" lon="11.2897925"><ele>164.8</ele><time>2026-05-01T17:36:51.902Z</time></trkpt><trkpt lat="43.1545995" lon="11.2898351"><ele>164.39999999999998</ele><time>2026-05-01T17:36:52.898Z</time></trkpt><trkpt lat="43.1546909" lon="11.2898766"><ele>164.0</ele><time>2026-05-01T17:36:53.913Z</time></trkpt><trkpt lat="43.1547813" lon="11.2899171"><ele>165.0</ele><time>2026-05-01T17:36:54.912Z</time></trkpt><trkpt lat="43.1548712" lon="11.2899571"><ele>166.0</ele><time>2026-05-01T17:36:55.903Z</time></trkpt><trkpt lat="43.1549633" lon="11.2899965"><ele>167.0</ele><time>2026-05-01T17:36:56.909Z</time></trkpt><trkpt lat="43.155058" lon="11.290037"><ele>168.0</ele><time>2026-05-01T17:36:57.906Z</time></trkpt><trkpt lat="43.1551562" lon="11.2900791"><ele>169.0</ele><time>2026-05-01T17:36:58.901Z</time></trkpt><trkpt lat="43.1552592" lon="11.2901227"><ele>169.0</ele><time>2026-05-01T17:36:59.916Z</time></trkpt><trkpt lat="43.1553652" lon="11.2901666"><ele>169.0</ele><time>2026-05-01T17:37:00.9Z</time></trkpt><trkpt lat="43.1554767" lon="11.2902106"><ele>169.0</ele><time>2026-05-01T17:37:01.899Z</time></trkpt><trkpt lat="43.1555906" lon="11.290256"><ele>169.0</ele><time>2026-05-01T17:37:02.91Z</time></trkpt><trkpt lat="43.1557053" lon="11.2903024"><ele>168.25</ele><time>2026-05-01T17:37:03.93Z</time></trkpt><trkpt lat="43.1558179" lon="11.2903483"><ele>167.5</ele><time>2026-05-01T17:37:04.906Z</time></trkpt><trkpt lat="43.1559312" lon="11.2903947"><ele>166.75</ele><time>2026-05-01T17:37:05.92Z</time></trkpt><trkpt lat="43.1560421" lon="11.29044"><ele>166.0</ele><time>2026-05-01T17:37:06.924Z</time></trkpt><trkpt lat="43.1561504" lon="11.2904842"><ele>166.0</ele><time>2026-05-01T17:37:07.898Z</time></trkpt><trkpt lat="43.156259" lon="11.2905286"><ele>166.0</ele><time>2026-05-01T17:37:08.924Z</time></trkpt><trkpt lat="43.1563642" lon="11.2905728"><ele>166.0</ele><time>2026-05-01T17:37:09.928Z</time></trkpt><trkpt lat="43.1564692" lon="11.2906185"><ele>166.0</ele><time>2026-05-01T17:37:10.936Z</time></trkpt><trkpt lat="43.1565752" lon="11.2906646"><ele>166.0</ele><time>2026-05-01T17:37:11.922Z</time></trkpt><trkpt lat="43.156685" lon="11.2907113"><ele>166.75</ele><time>2026-05-01T17:37:12.908Z</time></trkpt><trkpt lat="43.1568002" lon="11.2907577"><ele>167.5</ele><time>2026-05-01T17:37:13.906Z</time></trkpt><trkpt lat="43.1569211" lon="11.2908021"><ele>168.25</ele><time>2026-05-01T17:37:14.926Z</time></trkpt><trkpt lat="43.1570436" lon="11.2908405"><ele>169.0</ele><time>2026-05-01T17:37:15.926Z</time></trkpt><trkpt lat="43.1571674" lon="11.2908718"><ele>169.0</ele><time>2026-05-01T17:37:16.916Z</time></trkpt><trkpt lat="43.1572931" lon="11.2908953"><ele>169.0</ele><time>2026-05-01T17:37:17.903Z</time></trkpt><trkpt lat="43.1574201" lon="11.2909102"><ele>169.0</ele><time>2026-05-01T17:37:18.921Z</time></trkpt><trkpt lat="43.1575436" lon="11.2909164"><ele>169.0</ele><time>2026-05-01T17:37:19.893Z</time></trkpt><trkpt lat="43.1576704" lon="11.2909164"><ele>168.75</ele><time>2026-05-01T17:37:20.906Z</time></trkpt><trkpt lat="43.157798" lon="11.290908"><ele>168.5</ele><time>2026-05-01T17:37:21.905Z</time></trkpt><trkpt lat="43.1579273" lon="11.2908924"><ele>168.25</ele><time>2026-05-01T17:37:22.898Z</time></trkpt><trkpt lat="43.1580577" lon="11.2908687"><ele>168.0</ele><time>2026-05-01T17:37:23.9Z</time></trkpt><trkpt lat="43.1581869" lon="11.2908379"><ele>168.25</ele><time>2026-05-01T17:37:24.89Z</time></trkpt><trkpt lat="43.1583154" lon="11.2907959"><ele>168.5</ele><time>2026-05-01T17:37:25.9Z</time></trkpt><trkpt lat="43.1584422" lon="11.2907403"><ele>168.75</ele><time>2026-05-01T17:37:26.902Z</time></trkpt><trkpt lat="43.15857" lon="11.2906761"><ele>169.0</ele><time>2026-05-01T17:37:27.901Z</time></trkpt><trkpt lat="43.1586999" lon="11.2906043"><ele>168.75</ele><time>2026-05-01T17:37:28.897Z</time></trkpt><trkpt lat="43.15883" lon="11.2905272"><ele>168.5</ele><time>2026-05-01T17:37:29.901Z</time></trkpt><trkpt lat="43.1589567" lon="11.2904468"><ele>168.25</ele><time>2026-05-01T17:37:30.9Z</time></trkpt><trkpt lat="43.1590813" lon="11.2903653"><ele>168.0</ele><time>2026-05-01T17:37:31.903Z</time></trkpt><trkpt lat="43.1592041" lon="11.2902837"><ele>168.0</ele><time>2026-05-01T17:37:32.906Z</time></trkpt><trkpt lat="43.1593261" lon="11.2902031"><ele>168.0</ele><time>2026-05-01T17:37:33.914Z</time></trkpt><trkpt lat="43.1594459" lon="11.2901251"><ele>168.0</ele><time>2026-05-01T17:37:34.891Z</time></trkpt><trkpt lat="43.1595668" lon="11.2900466"><ele>168.0</ele><time>2026-05-01T17:37:35.912Z</time></trkpt><trkpt lat="43.1596859" lon="11.2899687"><ele>168.0</ele><time>2026-05-01T17:37:36.907Z</time></trkpt><trkpt lat="43.1598058" lon="11.2898894"><ele>168.0</ele><time>2026-05-01T17:37:37.893Z</time></trkpt><trkpt lat="43.1599276" lon="11.2898083"><ele>168.0</ele><time>2026-05-01T17:37:38.89Z</time></trkpt><trkpt lat="43.1600518" lon="11.2897251"><ele>168.0</ele><time>2026-05-01T17:37:39.915Z</time></trkpt><trkpt lat="43.1601762" lon="11.2896414"><ele>168.0</ele><time>2026-05-01T17:37:40.909Z</time></trkpt><trkpt lat="43.1603038" lon="11.2895574"><ele>168.0</ele><time>2026-05-01T17:37:41.897Z</time></trkpt><trkpt lat="43.1604351" lon="11.2894712"><ele>168.0</ele><time>2026-05-01T17:37:42.914Z</time></trkpt><trkpt lat="43.1605665" lon="11.2893843"><ele>168.0</ele><time>2026-05-01T17:37:43.908Z</time></trkpt><trkpt lat="43.160699" lon="11.2892958"><ele>168.25</ele><time>2026-05-01T17:37:44.913Z</time></trkpt><trkpt lat="43.1608293" lon="11.2892074"><ele>168.5</ele><time>2026-05-01T17:37:45.904Z</time></trkpt><trkpt lat="43.1609595" lon="11.2891205"><ele>168.75</ele><time>2026-05-01T17:37:46.9Z</time></trkpt><trkpt lat="43.1610894" lon="11.2890356"><ele>169.0</ele><time>2026-05-01T17:37:47.892Z</time></trkpt><trkpt lat="43.1612194" lon="11.2889499"><ele>168.75</ele><time>2026-05-01T17:37:48.906Z</time></trkpt><trkpt lat="43.161348" lon="11.2888644"><ele>168.5</ele><time>2026-05-01T17:37:49.898Z</time></trkpt><trkpt lat="43.1614788" lon="11.2887779"><ele>168.25</ele><time>2026-05-01T17:37:50.896Z</time></trkpt><trkpt lat="43.1616123" lon="11.2886901"><ele>168.0</ele><time>2026-05-01T17:37:51.912Z</time></trkpt><trkpt lat="43.161746" lon="11.288602"><ele>169.0</ele><time>2026-05-01T17:37:52.891Z</time></trkpt><trkpt lat="43.1618826" lon="11.2885123"><ele>170.0</ele><time>2026-05-01T17:37:53.883Z</time></trkpt><trkpt lat="43.1620219" lon="11.2884219"><ele>171.0</ele><time>2026-05-01T17:37:54.907Z</time></trkpt><trkpt lat="43.1621603" lon="11.2883336"><ele>171.0</ele><time>2026-05-01T17:37:55.911Z</time></trkpt><trkpt lat="43.1622966" lon="11.2882505"><ele>171.0</ele><time>2026-05-01T17:37:56.888Z</time></trkpt><trkpt lat="43.1624331" lon="11.2881724"><ele>171.0</ele><time>2026-05-01T17:37:57.888Z</time></trkpt><trkpt lat="43.1625721" lon="11.2880997"><ele>171.0</ele><time>2026-05-01T17:37:58.91Z</time></trkpt><trkpt lat="43.1627144" lon="11.2880344"><ele>171.0</ele><time>2026-05-01T17:37:59.921Z</time></trkpt><trkpt lat="43.1628592" lon="11.2879769"><ele>171.0</ele><time>2026-05-01T17:38:00.902Z</time></trkpt><trkpt lat="43.1630108" lon="11.2879265"><ele>171.0</ele><time>2026-05-01T17:38:01.916Z</time></trkpt><trkpt lat="43.1631618" lon="11.2878819"><ele>172.0</ele><time>2026-05-01T17:38:02.894Z</time></trkpt><trkpt lat="43.1633147" lon="11.2878393"><ele>173.0</ele><time>2026-05-01T17:38:03.896Z</time></trkpt><trkpt lat="43.163466" lon="11.2877989"><ele>174.0</ele><time>2026-05-01T17:38:04.889Z</time></trkpt><trkpt lat="43.1636167" lon="11.2877578"><ele>174.0</ele><time>2026-05-01T17:38:05.885Z</time></trkpt><trkpt lat="43.163768" lon="11.2877154"><ele>174.0</ele><time>2026-05-01T17:38:06.902Z</time></trkpt><trkpt lat="43.1639185" lon="11.2876722"><ele>174.0</ele><time>2026-05-01T17:38:07.905Z</time></trkpt><trkpt lat="43.1640698" lon="11.2876284"><ele>174.0</ele><time>2026-05-01T17:38:08.921Z</time></trkpt><trkpt lat="43.1642181" lon="11.2875856"><ele>174.0</ele><time>2026-05-01T17:38:09.909Z</time></trkpt><trkpt lat="43.1643677" lon="11.287544"><ele>174.0</ele><time>2026-05-01T17:38:10.935Z</time></trkpt><trkpt lat="43.1645124" lon="11.2875055"><ele>174.0</ele><time>2026-05-01T17:38:11.888Z</time></trkpt><trkpt lat="43.1646621" lon="11.2874666"><ele>174.0</ele><time>2026-05-01T17:38:12.907Z</time></trkpt><trkpt lat="43.1648101" lon="11.2874255"><ele>174.0</ele><time>2026-05-01T17:38:13.903Z</time></trkpt><trkpt lat="43.164961" lon="11.2873846"><ele>173.66666666666666</ele><time>2026-05-01T17:38:14.887Z</time></trkpt><trkpt lat="43.1651182" lon="11.287343"><ele>173.33333333333331</ele><time>2026-05-01T17:38:15.902Z</time></trkpt><trkpt lat="43.1652761" lon="11.2873022"><ele>173.0</ele><time>2026-05-01T17:38:16.909Z</time></trkpt><trkpt lat="43.1654317" lon="11.2872607"><ele>172.66666666666666</ele><time>2026-05-01T17:38:17.898Z</time></trkpt><trkpt lat="43.165587" lon="11.2872173"><ele>172.33333333333334</ele><time>2026-05-01T17:38:18.908Z</time></trkpt><trkpt lat="43.1657396" lon="11.2871738"><ele>172.0</ele><time>2026-05-01T17:38:19.915Z</time></trkpt><trkpt lat="43.1658906" lon="11.2871282"><ele>172.0</ele><time>2026-05-01T17:38:20.907Z</time></trkpt><trkpt lat="43.166042" lon="11.2870759"><ele>172.0</ele><time>2026-05-01T17:38:21.906Z</time></trkpt><trkpt lat="43.166192" lon="11.2870136"><ele>172.0</ele><time>2026-05-01T17:38:22.906Z</time></trkpt><trkpt lat="43.166341" lon="11.2869408"><ele>172.0</ele><time>2026-05-01T17:38:23.896Z</time></trkpt><trkpt lat="43.1664904" lon="11.2868587"><ele>172.0</ele><time>2026-05-01T17:38:24.921Z</time></trkpt><trkpt lat="43.1666347" lon="11.2867706"><ele>172.0</ele><time>2026-05-01T17:38:25.905Z</time></trkpt><trkpt lat="43.166777" lon="11.2866713"><ele>171.66666666666669</ele><time>2026-05-01T17:38:26.893Z</time></trkpt><trkpt lat="43.1669179" lon="11.2865604"><ele>171.33333333333334</ele><time>2026-05-01T17:38:27.921Z</time></trkpt><trkpt lat="43.1670502" lon="11.2864397"><ele>171.0</ele><time>2026-05-01T17:38:28.903Z</time></trkpt><trkpt lat="43.1671796" lon="11.2863098"><ele>171.0</ele><time>2026-05-01T17:38:29.897Z</time></trkpt><trkpt lat="43.167305" lon="11.2861739"><ele>171.0</ele><time>2026-05-01T17:38:30.908Z</time></trkpt><trkpt lat="43.1674261" lon="11.2860376"><ele>171.0</ele><time>2026-05-01T17:38:31.907Z</time></trkpt><trkpt lat="43.1675424" lon="11.2859008"><ele>170.75</ele><time>2026-05-01T17:38:32.884Z</time></trkpt><trkpt lat="43.1676576" lon="11.2857639"><ele>170.5</ele><time>2026-05-01T17:38:33.908Z</time></trkpt><trkpt lat="43.167767" lon="11.2856355"><ele>170.25</ele><time>2026-05-01T17:38:34.887Z</time></trkpt><trkpt lat="43.1678773" lon="11.2855078"><ele>170.0</ele><time>2026-05-01T17:38:35.9Z</time></trkpt><trkpt lat="43.167986" lon="11.2853829"><ele>170.0</ele><time>2026-05-01T17:38:36.901Z</time></trkpt><trkpt lat="43.1680936" lon="11.28526"><ele>170.0</ele><time>2026-05-01T17:38:37.904Z</time></trkpt><trkpt lat="43.1681985" lon="11.2851364"><ele>170.0</ele><time>2026-05-01T17:38:38.907Z</time></trkpt><trkpt lat="43.168302" lon="11.2850144"><ele>170.0</ele><time>2026-05-01T17:38:39.903Z</time></trkpt><trkpt lat="43.1684056" lon="11.2848939"><ele>170.25</ele><time>2026-05-01T17:38:40.904Z</time></trkpt><trkpt lat="43.1685095" lon="11.2847739"><ele>170.5</ele><time>2026-05-01T17:38:41.906Z</time></trkpt><trkpt lat="43.1686135" lon="11.2846523"><ele>170.75</ele><time>2026-05-01T17:38:42.912Z</time></trkpt><trkpt lat="43.1687175" lon="11.2845304"><ele>171.0</ele><time>2026-05-01T17:38:43.914Z</time></trkpt><trkpt lat="43.1688216" lon="11.2844087"><ele>170.75</ele><time>2026-05-01T17:38:44.898Z</time></trkpt><trkpt lat="43.1689277" lon="11.2842852"><ele>170.5</ele><time>2026-05-01T17:38:45.907Z</time></trkpt><trkpt lat="43.1690347" lon="11.284161"><ele>170.25</ele><time>2026-05-01T17:38:46.904Z</time></trkpt><trkpt lat="43.1691439" lon="11.2840348"><ele>170.0</ele><time>2026-05-01T17:38:47.906Z</time></trkpt><trkpt lat="43.1692548" lon="11.2839066"><ele>169.25</ele><time>2026-05-01T17:38:48.903Z</time></trkpt><trkpt lat="43.169367" lon="11.2837755"><ele>168.5</ele><time>2026-05-01T17:38:49.907Z</time></trkpt><trkpt lat="43.1694802" lon="11.2836424"><ele>167.75</ele><time>2026-05-01T17:38:50.896Z</time></trkpt><trkpt lat="43.1695967" lon="11.2835066"><ele>167.0</ele><time>2026-05-01T17:38:51.893Z</time></trkpt><trkpt lat="43.1697163" lon="11.2833696"><ele>167.0</ele><time>2026-05-01T17:38:52.901Z</time></trkpt><trkpt lat="43.1698376" lon="11.2832323"><ele>167.0</ele><time>2026-05-01T17:38:53.9Z</time></trkpt><trkpt lat="43.1699592" lon="11.2830929"><ele>167.0</ele><time>2026-05-01T17:38:54.896Z</time></trkpt><trkpt lat="43.1700818" lon="11.2829507"><ele>167.0</ele><time>2026-05-01T17:38:55.912Z</time></trkpt><trkpt lat="43.1702045" lon="11.2828091"><ele>167.0</ele><time>2026-05-01T17:38:56.893Z</time></trkpt><trkpt lat="43.1703311" lon="11.2826629"><ele>167.0</ele><time>2026-05-01T17:38:57.912Z</time></trkpt><trkpt lat="43.1704579" lon="11.2825165"><ele>167.0</ele><time>2026-05-01T17:38:58.905Z</time></trkpt><trkpt lat="43.1705866" lon="11.2823677"><ele>167.0</ele><time>2026-05-01T17:38:59.905Z</time></trkpt><trkpt lat="43.1707162" lon="11.2822171"><ele>167.0</ele><time>2026-05-01T17:39:00.911Z</time></trkpt><trkpt lat="43.1708449" lon="11.2820669"><ele>167.0</ele><time>2026-05-01T17:39:01.906Z</time></trkpt><trkpt lat="43.1709724" lon="11.2819181"><ele>167.0</ele><time>2026-05-01T17:39:02.896Z</time></trkpt><trkpt lat="43.1711" lon="11.2817697"><ele>167.0</ele><time>2026-05-01T17:39:03.915Z</time></trkpt><trkpt lat="43.171226" lon="11.281624"><ele>167.0</ele><time>2026-05-01T17:39:04.921Z</time></trkpt><trkpt lat="43.1713532" lon="11.2814785"><ele>167.0</ele><time>2026-05-01T17:39:05.917Z</time></trkpt><trkpt lat="43.1714839" lon="11.281334"><ele>167.0</ele><time>2026-05-01T17:39:06.929Z</time></trkpt><trkpt lat="43.1716141" lon="11.281197"><ele>167.33333333333331</ele><time>2026-05-01T17:39:07.899Z</time></trkpt><trkpt lat="43.1717496" lon="11.2810644"><ele>167.66666666666666</ele><time>2026-05-01T17:39:08.927Z</time></trkpt><trkpt lat="43.1718864" lon="11.2809431"><ele>168.0</ele><time>2026-05-01T17:39:09.915Z</time></trkpt><trkpt lat="43.1720288" lon="11.280829"><ele>168.0</ele><time>2026-05-01T17:39:10.907Z</time></trkpt><trkpt lat="43.1721757" lon="11.28072"><ele>168.0</ele><time>2026-05-01T17:39:11.923Z</time></trkpt><trkpt lat="43.1723242" lon="11.2806186"><ele>168.0</ele><time>2026-05-01T17:39:12.915Z</time></trkpt><trkpt lat="43.1724761" lon="11.2805254"><ele>167.66666666666666</ele><time>2026-05-01T17:39:13.925Z</time></trkpt><trkpt lat="43.1726279" lon="11.280442"><ele>167.33333333333331</ele><time>2026-05-01T17:39:14.923Z</time></trkpt><trkpt lat="43.1727791" lon="11.2803638"><ele>167.0</ele><time>2026-05-01T17:39:15.922Z</time></trkpt><trkpt lat="43.1729288" lon="11.2802901"><ele>167.0</ele><time>2026-05-01T17:39:16.901Z</time></trkpt><trkpt lat="43.173079" lon="11.280214"><ele>167.0</ele><time>2026-05-01T17:39:17.929Z</time></trkpt><trkpt lat="43.1732242" lon="11.2801415"><ele>167.0</ele><time>2026-05-01T17:39:18.9Z</time></trkpt><trkpt lat="43.1733717" lon="11.2800691"><ele>168.0</ele><time>2026-05-01T17:39:19.899Z</time></trkpt><trkpt lat="43.1735213" lon="11.2799958"><ele>169.0</ele><time>2026-05-01T17:39:20.911Z</time></trkpt><trkpt lat="43.1736726" lon="11.2799219"><ele>170.0</ele><time>2026-05-01T17:39:21.923Z</time></trkpt><trkpt lat="43.1738231" lon="11.2798488"><ele>170.0</ele><time>2026-05-01T17:39:22.9Z</time></trkpt><trkpt lat="43.1739753" lon="11.2797745"><ele>170.0</ele><time>2026-05-01T17:39:23.893Z</time></trkpt><trkpt lat="43.1741292" lon="11.2796989"><ele>170.0</ele><time>2026-05-01T17:39:24.914Z</time></trkpt><trkpt lat="43.1742811" lon="11.2796235"><ele>169.33333333333331</ele><time>2026-05-01T17:39:25.891Z</time></trkpt><trkpt lat="43.1744355" lon="11.2795468"><ele>168.66666666666666</ele><time>2026-05-01T17:39:26.889Z</time></trkpt><trkpt lat="43.1745903" lon="11.2794702"><ele>168.0</ele><time>2026-05-01T17:39:27.896Z</time></trkpt><trkpt lat="43.1747457" lon="11.2793943"><ele>169.0</ele><time>2026-05-01T17:39:28.909Z</time></trkpt><trkpt lat="43.1749003" lon="11.2793188"><ele>170.0</ele><time>2026-05-01T17:39:29.903Z</time></trkpt><trkpt lat="43.175054" lon="11.2792433"><ele>171.0</ele><time>2026-05-01T17:39:30.902Z</time></trkpt><trkpt lat="43.175205" lon="11.2791692"><ele>171.0</ele><time>2026-05-01T17:39:31.908Z</time></trkpt><trkpt lat="43.1753551" lon="11.2790955"><ele>171.0</ele><time>2026-05-01T17:39:32.905Z</time></trkpt><trkpt lat="43.1755071" lon="11.2790209"><ele>171.0</ele><time>2026-05-01T17:39:33.902Z</time></trkpt><trkpt lat="43.175661" lon="11.2789454"><ele>171.33333333333334</ele><time>2026-05-01T17:39:34.898Z</time></trkpt><trkpt lat="43.1758155" lon="11.2788698"><ele>171.66666666666669</ele><time>2026-05-01T17:39:35.897Z</time></trkpt><trkpt lat="43.1759701" lon="11.2787942"><ele>172.0</ele><time>2026-05-01T17:39:36.904Z</time></trkpt><trkpt lat="43.1761236" lon="11.2787193"><ele>172.0</ele><time>2026-05-01T17:39:37.908Z</time></trkpt><trkpt lat="43.1762738" lon="11.2786458"><ele>172.0</ele><time>2026-05-01T17:39:38.893Z</time></trkpt><trkpt lat="43.1764231" lon="11.2785726"><ele>172.0</ele><time>2026-05-01T17:39:39.904Z</time></trkpt><trkpt lat="43.1765699" lon="11.2785013"><ele>174.0</ele><time>2026-05-01T17:39:40.893Z</time></trkpt><trkpt lat="43.1767179" lon="11.2784296"><ele>176.0</ele><time>2026-05-01T17:39:41.905Z</time></trkpt><trkpt lat="43.1768649" lon="11.2783582"><ele>178.0</ele><time>2026-05-01T17:39:42.902Z</time></trkpt><trkpt lat="43.177013" lon="11.2782861"><ele>178.0</ele><time>2026-05-01T17:39:43.915Z</time></trkpt><trkpt lat="43.177159" lon="11.278215"><ele>178.0</ele><time>2026-05-01T17:39:44.899Z</time></trkpt><trkpt lat="43.1773054" lon="11.2781436"><ele>178.0</ele><time>2026-05-01T17:39:45.902Z</time></trkpt><trkpt lat="43.1774499" lon="11.2780715"><ele>180.0</ele><time>2026-05-01T17:39:46.915Z</time></trkpt><trkpt lat="43.1775914" lon="11.2779987"><ele>182.0</ele><time>2026-05-01T17:39:47.904Z</time></trkpt><trkpt lat="43.1777349" lon="11.2779258"><ele>184.0</ele><time>2026-05-01T17:39:48.916Z</time></trkpt><trkpt lat="43.177878" lon="11.2778545"><ele>184.0</ele><time>2026-05-01T17:39:49.909Z</time></trkpt><trkpt lat="43.1780222" lon="11.2777845"><ele>184.0</ele><time>2026-05-01T17:39:50.901Z</time></trkpt><trkpt lat="43.178167" lon="11.2777135"><ele>184.0</ele><time>2026-05-01T17:39:51.901Z</time></trkpt><trkpt lat="43.1783116" lon="11.2776417"><ele>185.0</ele><time>2026-05-01T17:39:52.898Z</time></trkpt><trkpt lat="43.1784555" lon="11.2775693"><ele>186.0</ele><time>2026-05-01T17:39:53.9Z</time></trkpt><trkpt lat="43.1785972" lon="11.2774992"><ele>187.0</ele><time>2026-05-01T17:39:54.895Z</time></trkpt><trkpt lat="43.178737" lon="11.2774282"><ele>187.0</ele><time>2026-05-01T17:39:55.915Z</time></trkpt><trkpt lat="43.1788744" lon="11.2773589"><ele>187.0</ele><time>2026-05-01T17:39:56.916Z</time></trkpt><trkpt lat="43.1790124" lon="11.2772913"><ele>187.0</ele><time>2026-05-01T17:39:57.916Z</time></trkpt><trkpt lat="43.1791511" lon="11.2772272"><ele>187.0</ele><time>2026-05-01T17:39:58.904Z</time></trkpt><trkpt lat="43.1792914" lon="11.2771661"><ele>187.75</ele><time>2026-05-01T17:39:59.903Z</time></trkpt><trkpt lat="43.1794329" lon="11.2771095"><ele>188.5</ele><time>2026-05-01T17:40:00.907Z</time></trkpt><trkpt lat="43.1795754" lon="11.2770594"><ele>189.25</ele><time>2026-05-01T17:40:01.906Z</time></trkpt><trkpt lat="43.1797197" lon="11.2770181"><ele>190.0</ele><time>2026-05-01T17:40:02.896Z</time></trkpt><trkpt lat="43.179867" lon="11.2769854"><ele>193.66666666666669</ele><time>2026-05-01T17:40:03.903Z</time></trkpt><trkpt lat="43.1800154" lon="11.2769596"><ele>197.33333333333334</ele><time>2026-05-01T17:40:04.906Z</time></trkpt><trkpt lat="43.1801656" lon="11.2769403"><ele>201.0</ele><time>2026-05-01T17:40:05.906Z</time></trkpt><trkpt lat="43.1803174" lon="11.2769279"><ele>201.0</ele><time>2026-05-01T17:40:06.898Z</time></trkpt><trkpt lat="43.1804719" lon="11.2769199"><ele>201.0</ele><time>2026-05-01T17:40:07.904Z</time></trkpt><trkpt lat="43.1806271" lon="11.2769135"><ele>201.0</ele><time>2026-05-01T17:40:08.892Z</time></trkpt><trkpt lat="43.1807852" lon="11.2769075"><ele>203.0</ele><time>2026-05-01T17:40:09.903Z</time></trkpt><trkpt lat="43.180944" lon="11.2768998"><ele>205.0</ele><time>2026-05-01T17:40:10.908Z</time></trkpt><trkpt lat="43.1811017" lon="11.2768899"><ele>207.0</ele><time>2026-05-01T17:40:11.91Z</time></trkpt><trkpt lat="43.1812557" lon="11.2768801"><ele>207.0</ele><time>2026-05-01T17:40:12.906Z</time></trkpt><trkpt lat="43.181406" lon="11.2768708"><ele>207.0</ele><time>2026-05-01T17:40:13.891Z</time></trkpt><trkpt lat="43.1815573" lon="11.2768611"><ele>207.0</ele><time>2026-05-01T17:40:14.908Z</time></trkpt><trkpt lat="43.1817069" lon="11.2768505"><ele>206.66666666666669</ele><time>2026-05-01T17:40:15.894Z</time></trkpt><trkpt lat="43.181859" lon="11.2768386"><ele>206.33333333333334</ele><time>2026-05-01T17:40:16.891Z</time></trkpt><trkpt lat="43.1820118" lon="11.2768272"><ele>206.0</ele><time>2026-05-01T17:40:17.899Z</time></trkpt><trkpt lat="43.1821621" lon="11.2768153"><ele>206.0</ele><time>2026-05-01T17:40:18.905Z</time></trkpt><trkpt lat="43.182309" lon="11.2768039"><ele>206.0</ele><time>2026-05-01T17:40:19.89Z</time></trkpt><trkpt lat="43.1824568" lon="11.2767933"><ele>206.0</ele><time>2026-05-01T17:40:20.91Z</time></trkpt><trkpt lat="43.1826033" lon="11.2767835"><ele>206.0</ele><time>2026-05-01T17:40:21.903Z</time></trkpt><trkpt lat="43.1827525" lon="11.2767717"><ele>205.33333333333334</ele><time>2026-05-01T17:40:22.909Z</time></trkpt><trkpt lat="43.1829031" lon="11.2767599"><ele>204.66666666666669</ele><time>2026-05-01T17:40:23.906Z</time></trkpt><trkpt lat="43.1830559" lon="11.2767466"><ele>204.0</ele><time>2026-05-01T17:40:24.907Z</time></trkpt><trkpt lat="43.1832099" lon="11.2767332"><ele>203.66666666666669</ele><time>2026-05-01T17:40:25.901Z</time></trkpt><trkpt lat="43.1833661" lon="11.2767205"><ele>203.33333333333334</ele><time>2026-05-01T17:40:26.906Z</time></trkpt><trkpt lat="43.1835201" lon="11.2767089"><ele>203.0</ele><time>2026-05-01T17:40:27.912Z</time></trkpt><trkpt lat="43.1836692" lon="11.2766979"><ele>203.0</ele><time>2026-05-01T17:40:28.912Z</time></trkpt><trkpt lat="43.1838151" lon="11.2766877"><ele>203.0</ele><time>2026-05-01T17:40:29.892Z</time></trkpt><trkpt lat="43.1839629" lon="11.2766793"><ele>203.0</ele><time>2026-05-01T17:40:30.898Z</time></trkpt><trkpt lat="43.184112" lon="11.2766713"><ele>203.0</ele><time>2026-05-01T17:40:31.906Z</time></trkpt><trkpt lat="43.184262" lon="11.2766624"><ele>203.66666666666669</ele><time>2026-05-01T17:40:32.898Z</time></trkpt><trkpt lat="43.1844154" lon="11.2766516"><ele>204.33333333333331</ele><time>2026-05-01T17:40:33.903Z</time></trkpt><trkpt lat="43.1845709" lon="11.2766397"><ele>205.0</ele><time>2026-05-01T17:40:34.9Z</time></trkpt><trkpt lat="43.1847297" lon="11.2766282"><ele>205.66666666666666</ele><time>2026-05-01T17:40:35.91Z</time></trkpt><trkpt lat="43.1848901" lon="11.2766167"><ele>206.33333333333331</ele><time>2026-05-01T17:40:36.905Z</time></trkpt><trkpt lat="43.1850544" lon="11.2766035"><ele>207.0</ele><time>2026-05-01T17:40:37.917Z</time></trkpt><trkpt lat="43.1852191" lon="11.2765922"><ele>207.0</ele><time>2026-05-01T17:40:38.903Z</time></trkpt><trkpt lat="43.1853865" lon="11.2765816"><ele>207.0</ele><time>2026-05-01T17:40:39.895Z</time></trkpt><trkpt lat="43.1855558" lon="11.276569"><ele>207.0</ele><time>2026-05-01T17:40:40.889Z</time></trkpt><trkpt lat="43.1857265" lon="11.2765545"><ele>205.33333333333331</ele><time>2026-05-01T17:40:41.89Z</time></trkpt><trkpt lat="43.1858986" lon="11.2765408"><ele>203.66666666666666</ele><time>2026-05-01T17:40:42.907Z</time></trkpt><trkpt lat="43.1860693" lon="11.2765284"><ele>202.0</ele><time>2026-05-01T17:40:43.903Z</time></trkpt><trkpt lat="43.1862402" lon="11.2765175"><ele>202.0</ele><time>2026-05-01T17:40:44.898Z</time></trkpt><trkpt lat="43.1864114" lon="11.2765065"><ele>202.0</ele><time>2026-05-01T17:40:45.904Z</time></trkpt><trkpt lat="43.1865824" lon="11.2764956"><ele>202.0</ele><time>2026-05-01T17:40:46.907Z</time></trkpt><trkpt lat="43.1867528" lon="11.2764842"><ele>200.33333333333331</ele><time>2026-05-01T17:40:47.902Z</time></trkpt><trkpt lat="43.1869237" lon="11.2764718"><ele>198.66666666666669</ele><time>2026-05-01T17:40:48.894Z</time></trkpt><trkpt lat="43.1870964" lon="11.2764596"><ele>197.0</ele><time>2026-05-01T17:40:49.909Z</time></trkpt><trkpt lat="43.1872676" lon="11.2764492"><ele>196.33333333333334</ele><time>2026-05-01T17:40:50.909Z</time></trkpt><trkpt lat="43.1874389" lon="11.2764419"><ele>195.66666666666669</ele><time>2026-05-01T17:40:51.908Z</time></trkpt><trkpt lat="43.1876106" lon="11.2764425"><ele>195.0</ele><time>2026-05-01T17:40:52.904Z</time></trkpt><trkpt lat="43.1877829" lon="11.2764555"><ele>195.0</ele><time>2026-05-01T17:40:53.905Z</time></trkpt><trkpt lat="43.1879549" lon="11.2764833"><ele>195.0</ele><time>2026-05-01T17:40:54.894Z</time></trkpt><trkpt lat="43.1881292" lon="11.2765271"><ele>195.0</ele><time>2026-05-01T17:40:55.903Z</time></trkpt><trkpt lat="43.188303" lon="11.2765869"><ele>192.33333333333334</ele><time>2026-05-01T17:40:56.892Z</time></trkpt><trkpt lat="43.1884773" lon="11.276664"><ele>189.66666666666669</ele><time>2026-05-01T17:40:57.906Z</time></trkpt><trkpt lat="43.1886454" lon="11.2767584"><ele>187.0</ele><time>2026-05-01T17:40:58.907Z</time></trkpt><trkpt lat="43.1888088" lon="11.2768669"><ele>187.0</ele><time>2026-05-01T17:40:59.909Z</time></trkpt><trkpt lat="43.1889712" lon="11.2769782"><ele>187.0</ele><time>2026-05-01T17:41:00.901Z</time></trkpt><trkpt lat="43.1891356" lon="11.2770884"><ele>187.0</ele><time>2026-05-01T17:41:01.907Z</time></trkpt><trkpt lat="43.1893002" lon="11.2771984"><ele>189.0</ele><time>2026-05-01T17:41:02.901Z</time></trkpt><trkpt lat="43.1894664" lon="11.2773088"><ele>191.0</ele><time>2026-05-01T17:41:03.89Z</time></trkpt><trkpt lat="43.1896336" lon="11.2774207"><ele>193.0</ele><time>2026-05-01T17:41:04.887Z</time></trkpt><trkpt lat="43.1898004" lon="11.2775345"><ele>189.33333333333331</ele><time>2026-05-01T17:41:05.911Z</time></trkpt><trkpt lat="43.1899624" lon="11.2776425"><ele>185.66666666666666</ele><time>2026-05-01T17:41:06.892Z</time></trkpt><trkpt lat="43.1901259" lon="11.2777455"><ele>182.0</ele><time>2026-05-01T17:41:07.9Z</time></trkpt><trkpt lat="43.1902893" lon="11.2778381"><ele>182.0</ele><time>2026-05-01T17:41:08.899Z</time></trkpt><trkpt lat="43.1904554" lon="11.2779165"><ele>182.0</ele><time>2026-05-01T17:41:09.889Z</time></trkpt><trkpt lat="43.1906254" lon="11.2779798"><ele>182.0</ele><time>2026-05-01T17:41:10.896Z</time></trkpt><trkpt lat="43.1907944" lon="11.2780268"><ele>179.66666666666666</ele><time>2026-05-01T17:41:11.898Z</time></trkpt><trkpt lat="43.1909599" lon="11.2780594"><ele>177.33333333333334</ele><time>2026-05-01T17:41:12.895Z</time></trkpt><trkpt lat="43.1911195" lon="11.2780782"><ele>175.0</ele><time>2026-05-01T17:41:13.888Z</time></trkpt><trkpt lat="43.1912741" lon="11.2780842"><ele>175.0</ele><time>2026-05-01T17:41:14.905Z</time></trkpt><trkpt lat="43.1914218" lon="11.2780807"><ele>175.0</ele><time>2026-05-01T17:41:15.898Z</time></trkpt><trkpt lat="43.1915653" lon="11.2780649"><ele>175.0</ele><time>2026-05-01T17:41:16.892Z</time></trkpt><trkpt lat="43.1917046" lon="11.2780379"><ele>175.0</ele><time>2026-05-01T17:41:17.905Z</time></trkpt><trkpt lat="43.1918372" lon="11.2780037"><ele>175.75</ele><time>2026-05-01T17:41:18.9Z</time></trkpt><trkpt lat="43.1919639" lon="11.2779621"><ele>176.5</ele><time>2026-05-01T17:41:19.905Z</time></trkpt><trkpt lat="43.1920829" lon="11.2779155"><ele>177.25</ele><time>2026-05-01T17:41:20.893Z</time></trkpt><trkpt lat="43.1921977" lon="11.2778667"><ele>178.0</ele><time>2026-05-01T17:41:21.906Z</time></trkpt><trkpt lat="43.1923062" lon="11.2778181"><ele>178.2</ele><time>2026-05-01T17:41:22.898Z</time></trkpt><trkpt lat="43.1924108" lon="11.2777687"><ele>178.4</ele><time>2026-05-01T17:41:23.899Z</time></trkpt><trkpt lat="43.1925131" lon="11.2777188"><ele>178.6</ele><time>2026-05-01T17:41:24.897Z</time></trkpt><trkpt lat="43.1926172" lon="11.277668"><ele>178.79999999999998</ele><time>2026-05-01T17:41:25.905Z</time></trkpt><trkpt lat="43.1927244" lon="11.2776168"><ele>179.0</ele><time>2026-05-01T17:41:26.909Z</time></trkpt><trkpt lat="43.192835" lon="11.2775642"><ele>179.0</ele><time>2026-05-01T17:41:27.9Z</time></trkpt><trkpt lat="43.1929504" lon="11.2775097"><ele>179.0</ele><time>2026-05-01T17:41:28.895Z</time></trkpt><trkpt lat="43.1930699" lon="11.2774542"><ele>179.0</ele><time>2026-05-01T17:41:29.902Z</time></trkpt><trkpt lat="43.1931905" lon="11.2773953"><ele>179.0</ele><time>2026-05-01T17:41:30.897Z</time></trkpt><trkpt lat="43.1933148" lon="11.2773321"><ele>178.5</ele><time>2026-05-01T17:41:31.89Z</time></trkpt><trkpt lat="43.1934446" lon="11.277266"><ele>178.0</ele><time>2026-05-01T17:41:32.892Z</time></trkpt><trkpt lat="43.19358" lon="11.2771988"><ele>177.5</ele><time>2026-05-01T17:41:33.925Z</time></trkpt><trkpt lat="43.1937164" lon="11.2771333"><ele>177.0</ele><time>2026-05-01T17:41:34.895Z</time></trkpt><trkpt lat="43.1938594" lon="11.2770659"><ele>177.66666666666666</ele><time>2026-05-01T17:41:35.903Z</time></trkpt><trkpt lat="43.1940052" lon="11.2770004"><ele>178.33333333333331</ele><time>2026-05-01T17:41:36.902Z</time></trkpt><trkpt lat="43.1941547" lon="11.2769379"><ele>179.0</ele><time>2026-05-01T17:41:37.893Z</time></trkpt><trkpt lat="43.1943104" lon="11.276882"><ele>179.0</ele><time>2026-05-01T17:41:38.913Z</time></trkpt><trkpt lat="43.1944662" lon="11.2768354"><ele>179.0</ele><time>2026-05-01T17:41:39.91Z</time></trkpt><trkpt lat="43.1946196" lon="11.276797"><ele>179.0</ele><time>2026-05-01T17:41:40.898Z</time></trkpt><trkpt lat="43.1947675" lon="11.2767652"><ele>179.0</ele><time>2026-05-01T17:41:41.896Z</time></trkpt><trkpt lat="43.1949076" lon="11.2767388"><ele>179.0</ele><time>2026-05-01T17:41:42.896Z</time></trkpt><trkpt lat="43.1950416" lon="11.2767181"><ele>179.0</ele><time>2026-05-01T17:41:43.883Z</time></trkpt><trkpt lat="43.1951722" lon="11.2766992"><ele>179.0</ele><time>2026-05-01T17:41:44.9Z</time></trkpt><trkpt lat="43.1952979" lon="11.2766788"><ele>179.0</ele><time>2026-05-01T17:41:45.894Z</time></trkpt><trkpt lat="43.1954226" lon="11.2766575"><ele>179.0</ele><time>2026-05-01T17:41:46.917Z</time></trkpt><trkpt lat="43.1955426" lon="11.2766388"><ele>179.0</ele><time>2026-05-01T17:41:47.92Z</time></trkpt><trkpt lat="43.1956573" lon="11.2766222"><ele>179.0</ele><time>2026-05-01T17:41:48.919Z</time></trkpt><trkpt lat="43.1957647" lon="11.2766082"><ele>179.6</ele><time>2026-05-01T17:41:49.902Z</time></trkpt><trkpt lat="43.1958664" lon="11.2765951"><ele>180.2</ele><time>2026-05-01T17:41:50.912Z</time></trkpt><trkpt lat="43.1959617" lon="11.2765828"><ele>180.79999999999998</ele><time>2026-05-01T17:41:51.901Z</time></trkpt><trkpt lat="43.1960546" lon="11.2765708"><ele>181.39999999999998</ele><time>2026-05-01T17:41:52.907Z</time></trkpt><trkpt lat="43.1961439" lon="11.2765594"><ele>182.0</ele><time>2026-05-01T17:41:53.897Z</time></trkpt><trkpt lat="43.1962301" lon="11.2765476"><ele>182.0</ele><time>2026-05-01T17:41:54.902Z</time></trkpt><trkpt lat="43.196312" lon="11.2765355"><ele>182.0</ele><time>2026-05-01T17:41:55.915Z</time></trkpt><trkpt lat="43.1963898" lon="11.2765224"><ele>182.0</ele><time>2026-05-01T17:41:56.914Z</time></trkpt><trkpt lat="43.1964678" lon="11.2765099"><ele>182.0</ele><time>2026-05-01T17:41:57.904Z</time></trkpt><trkpt lat="43.1965525" lon="11.2764972"><ele>182.0</ele><time>2026-05-01T17:41:58.907Z</time></trkpt><trkpt lat="43.196646" lon="11.2764832"><ele>182.0</ele><time>2026-05-01T17:41:59.919Z</time></trkpt><trkpt lat="43.1967476" lon="11.2764687"><ele>181.5</ele><time>2026-05-01T17:42:00.917Z</time></trkpt><trkpt lat="43.1968587" lon="11.2764535"><ele>181.0</ele><time>2026-05-01T17:42:01.913Z</time></trkpt><trkpt lat="43.1969791" lon="11.2764369"><ele>180.5</ele><time>2026-05-01T17:42:02.931Z</time></trkpt><trkpt lat="43.1971043" lon="11.2764186"><ele>180.0</ele><time>2026-05-01T17:42:03.903Z</time></trkpt><trkpt lat="43.1972381" lon="11.2763977"><ele>178.75</ele><time>2026-05-01T17:42:04.915Z</time></trkpt><trkpt lat="43.1973762" lon="11.2763765"><ele>177.5</ele><time>2026-05-01T17:42:05.904Z</time></trkpt><trkpt lat="43.1975206" lon="11.276355"><ele>176.25</ele><time>2026-05-01T17:42:06.911Z</time></trkpt><trkpt lat="43.1976673" lon="11.2763333"><ele>175.0</ele><time>2026-05-01T17:42:07.899Z</time></trkpt><trkpt lat="43.1978169" lon="11.2763117"><ele>175.0</ele><time>2026-05-01T17:42:08.902Z</time></trkpt><trkpt lat="43.1979666" lon="11.2762917"><ele>175.0</ele><time>2026-05-01T17:42:09.889Z</time></trkpt><trkpt lat="43.198119" lon="11.2762715"><ele>175.0</ele><time>2026-05-01T17:42:10.911Z</time></trkpt><trkpt lat="43.1982701" lon="11.2762516"><ele>175.33333333333334</ele><time>2026-05-01T17:42:11.91Z</time></trkpt><trkpt lat="43.1984223" lon="11.276231"><ele>175.66666666666666</ele><time>2026-05-01T17:42:12.906Z</time></trkpt><trkpt lat="43.1985768" lon="11.2762097"><ele>176.0</ele><time>2026-05-01T17:42:13.916Z</time></trkpt><trkpt lat="43.1987314" lon="11.276188"><ele>176.0</ele><time>2026-05-01T17:42:14.909Z</time></trkpt><trkpt lat="43.198887" lon="11.2761655"><ele>176.0</ele><time>2026-05-01T17:42:15.909Z</time></trkpt><trkpt lat="43.1990424" lon="11.2761411"><ele>176.0</ele><time>2026-05-01T17:42:16.905Z</time></trkpt><trkpt lat="43.1991991" lon="11.2761164"><ele>176.33333333333331</ele><time>2026-05-01T17:42:17.904Z</time></trkpt><trkpt lat="43.1993586" lon="11.2760932"><ele>176.66666666666666</ele><time>2026-05-01T17:42:18.91Z</time></trkpt><trkpt lat="43.1995209" lon="11.2760728"><ele>177.0</ele><time>2026-05-01T17:42:19.914Z</time></trkpt><trkpt lat="43.1996854" lon="11.2760563"><ele>178.33333333333334</ele><time>2026-05-01T17:42:20.906Z</time></trkpt><trkpt lat="43.1998536" lon="11.2760473"><ele>179.66666666666669</ele><time>2026-05-01T17:42:21.909Z</time></trkpt><trkpt lat="43.2000239" lon="11.2760463"><ele>181.0</ele><time>2026-05-01T17:42:22.905Z</time></trkpt><trkpt lat="43.2001967" lon="11.2760553"><ele>181.0</ele><time>2026-05-01T17:42:23.893Z</time></trkpt><trkpt lat="43.2003726" lon="11.2760727"><ele>181.0</ele><time>2026-05-01T17:42:24.895Z</time></trkpt><trkpt lat="43.2005503" lon="11.2760997"><ele>181.0</ele><time>2026-05-01T17:42:25.916Z</time></trkpt><trkpt lat="43.2007261" lon="11.2761371"><ele>182.33333333333334</ele><time>2026-05-01T17:42:26.891Z</time></trkpt><trkpt lat="43.2009066" lon="11.2761862"><ele>183.66666666666666</ele><time>2026-05-01T17:42:27.915Z</time></trkpt><trkpt lat="43.2010837" lon="11.2762443"><ele>185.0</ele><time>2026-05-01T17:42:28.904Z</time></trkpt><trkpt lat="43.2012634" lon="11.2763101"><ele>185.0</ele><time>2026-05-01T17:42:29.925Z</time></trkpt><trkpt lat="43.2014398" lon="11.2763795"><ele>185.0</ele><time>2026-05-01T17:42:30.902Z</time></trkpt><trkpt lat="43.2016177" lon="11.276453"><ele>185.0</ele><time>2026-05-01T17:42:31.904Z</time></trkpt><trkpt lat="43.2017954" lon="11.2765278"><ele>184.33333333333331</ele><time>2026-05-01T17:42:32.907Z</time></trkpt><trkpt lat="43.2019759" lon="11.2766024"><ele>183.66666666666666</ele><time>2026-05-01T17:42:33.915Z</time></trkpt><trkpt lat="43.2021562" lon="11.2766767"><ele>183.0</ele><time>2026-05-01T17:42:34.912Z</time></trkpt><trkpt lat="43.2023347" lon="11.2767499"><ele>182.33333333333334</ele><time>2026-05-01T17:42:35.908Z</time></trkpt><trkpt lat="43.2025097" lon="11.2768207"><ele>181.66666666666669</ele><time>2026-05-01T17:42:36.907Z</time></trkpt><trkpt lat="43.2026808" lon="11.2768893"><ele>181.0</ele><time>2026-05-01T17:42:37.904Z</time></trkpt><trkpt lat="43.2028498" lon="11.2769567"><ele>181.0</ele><time>2026-05-01T17:42:38.896Z</time></trkpt><trkpt lat="43.2030208" lon="11.277025"><ele>181.0</ele><time>2026-05-01T17:42:39.905Z</time></trkpt><trkpt lat="43.2031931" lon="11.2770946"><ele>181.0</ele><time>2026-05-01T17:42:40.898Z</time></trkpt><trkpt lat="43.2033695" lon="11.2771663"><ele>180.66666666666669</ele><time>2026-05-01T17:42:41.901Z</time></trkpt><trkpt lat="43.2035474" lon="11.2772393"><ele>180.33333333333334</ele><time>2026-05-01T17:42:42.896Z</time></trkpt><trkpt lat="43.2037282" lon="11.2773142"><ele>180.0</ele><time>2026-05-01T17:42:43.909Z</time></trkpt><trkpt lat="43.2039094" lon="11.2773891"><ele>180.66666666666666</ele><time>2026-05-01T17:42:44.902Z</time></trkpt><trkpt lat="43.2040936" lon="11.2774643"><ele>181.33333333333331</ele><time>2026-05-01T17:42:45.908Z</time></trkpt><trkpt lat="43.2042777" lon="11.2775387"><ele>182.0</ele><time>2026-05-01T17:42:46.897Z</time></trkpt><trkpt lat="43.2044623" lon="11.2776132"><ele>182.0</ele><time>2026-05-01T17:42:47.907Z</time></trkpt><trkpt lat="43.2046433" lon="11.2776871"><ele>182.0</ele><time>2026-05-01T17:42:48.894Z</time></trkpt><trkpt lat="43.2048254" lon="11.2777621"><ele>182.0</ele><time>2026-05-01T17:42:49.909Z</time></trkpt><trkpt lat="43.205006" lon="11.2778361"><ele>181.33333333333331</ele><time>2026-05-01T17:42:50.905Z</time></trkpt><trkpt lat="43.2051876" lon="11.2779103"><ele>180.66666666666666</ele><time>2026-05-01T17:42:51.894Z</time></trkpt><trkpt lat="43.2053697" lon="11.2779851"><ele>180.0</ele><time>2026-05-01T17:42:52.891Z</time></trkpt><trkpt lat="43.2055509" lon="11.2780597"><ele>180.66666666666666</ele><time>2026-05-01T17:42:53.914Z</time></trkpt><trkpt lat="43.2057275" lon="11.2781326"><ele>181.33333333333331</ele><time>2026-05-01T17:42:54.902Z</time></trkpt><trkpt lat="43.2059052" lon="11.2782057"><ele>182.0</ele><time>2026-05-01T17:42:55.9Z</time></trkpt><trkpt lat="43.206084" lon="11.278279"><ele>182.0</ele><time>2026-05-01T17:42:56.905Z</time></trkpt><trkpt lat="43.2062626" lon="11.2783519"><ele>182.0</ele><time>2026-05-01T17:42:57.903Z</time></trkpt><trkpt lat="43.2064421" lon="11.2784247"><ele>182.0</ele><time>2026-05-01T17:42:58.898Z</time></trkpt><trkpt lat="43.2066232" lon="11.2784971"><ele>182.33333333333331</ele><time>2026-05-01T17:42:59.907Z</time></trkpt><trkpt lat="43.2068032" lon="11.2785694"><ele>182.66666666666666</ele><time>2026-05-01T17:43:00.893Z</time></trkpt><trkpt lat="43.2069845" lon="11.2786436"><ele>183.0</ele><time>2026-05-01T17:43:01.896Z</time></trkpt><trkpt lat="43.2071638" lon="11.2787173"><ele>184.33333333333334</ele><time>2026-05-01T17:43:02.889Z</time></trkpt><trkpt lat="43.2073425" lon="11.2787913"><ele>185.66666666666669</ele><time>2026-05-01T17:43:03.907Z</time></trkpt><trkpt lat="43.2075196" lon="11.2788643"><ele>187.0</ele><time>2026-05-01T17:43:04.908Z</time></trkpt><trkpt lat="43.2076972" lon="11.278936"><ele>187.0</ele><time>2026-05-01T17:43:05.908Z</time></trkpt><trkpt lat="43.2078745" lon="11.2790046"><ele>187.0</ele><time>2026-05-01T17:43:06.911Z</time></trkpt><trkpt lat="43.2080526" lon="11.2790669"><ele>187.0</ele><time>2026-05-01T17:43:07.912Z</time></trkpt><trkpt lat="43.2082305" lon="11.2791195"><ele>187.66666666666669</ele><time>2026-05-01T17:43:08.886Z</time></trkpt><trkpt lat="43.208412" lon="11.2791588"><ele>188.33333333333334</ele><time>2026-05-01T17:43:09.88Z</time></trkpt><trkpt lat="43.2085956" lon="11.2791843"><ele>189.0</ele><time>2026-05-01T17:43:10.907Z</time></trkpt><trkpt lat="43.2087758" lon="11.279196"><ele>189.0</ele><time>2026-05-01T17:43:11.889Z</time></trkpt><trkpt lat="43.2089582" lon="11.2791954"><ele>189.0</ele><time>2026-05-01T17:43:12.892Z</time></trkpt><trkpt lat="43.2091403" lon="11.2791829"><ele>189.0</ele><time>2026-05-01T17:43:13.91Z</time></trkpt><trkpt lat="43.2093213" lon="11.2791597"><ele>188.0</ele><time>2026-05-01T17:43:14.918Z</time></trkpt><trkpt lat="43.2095012" lon="11.2791236"><ele>187.0</ele><time>2026-05-01T17:43:15.903Z</time></trkpt><trkpt lat="43.2096821" lon="11.2790731"><ele>186.0</ele><time>2026-05-01T17:43:16.895Z</time></trkpt><trkpt lat="43.2098638" lon="11.2790084"><ele>185.33333333333334</ele><time>2026-05-01T17:43:17.916Z</time></trkpt><trkpt lat="43.2100419" lon="11.2789351"><ele>184.66666666666669</ele><time>2026-05-01T17:43:18.896Z</time></trkpt><trkpt lat="43.2102217" lon="11.2788574"><ele>184.0</ele><time>2026-05-01T17:43:19.896Z</time></trkpt><trkpt lat="43.2104011" lon="11.2787788"><ele>183.66666666666669</ele><time>2026-05-01T17:43:20.901Z</time></trkpt><trkpt lat="43.2105797" lon="11.2787011"><ele>183.33333333333334</ele><time>2026-05-01T17:43:21.906Z</time></trkpt><trkpt lat="43.2107569" lon="11.2786249"><ele>183.0</ele><time>2026-05-01T17:43:22.898Z</time></trkpt><trkpt lat="43.2109351" lon="11.2785488"><ele>183.0</ele><time>2026-05-01T17:43:23.902Z</time></trkpt><trkpt lat="43.2111142" lon="11.278472"><ele>183.0</ele><time>2026-05-01T17:43:24.904Z</time></trkpt><trkpt lat="43.2112969" lon="11.278394"><ele>183.0</ele><time>2026-05-01T17:43:25.929Z</time></trkpt><trkpt lat="43.2114787" lon="11.2783161"><ele>183.0</ele><time>2026-05-01T17:43:26.919Z</time></trkpt><trkpt lat="43.2116628" lon="11.2782367"><ele>183.0</ele><time>2026-05-01T17:43:27.908Z</time></trkpt><trkpt lat="43.2118491" lon="11.2781559"><ele>183.0</ele><time>2026-05-01T17:43:28.911Z</time></trkpt><trkpt lat="43.2120351" lon="11.2780738"><ele>182.0</ele><time>2026-05-01T17:43:29.905Z</time></trkpt><trkpt lat="43.2122227" lon="11.2779887"><ele>181.0</ele><time>2026-05-01T17:43:30.91Z</time></trkpt><trkpt lat="43.2124098" lon="11.2779037"><ele>180.0</ele><time>2026-05-01T17:43:31.894Z</time></trkpt><trkpt lat="43.2125986" lon="11.2778221"><ele>179.66666666666666</ele><time>2026-05-01T17:43:32.889Z</time></trkpt><trkpt lat="43.2127869" lon="11.2777429"><ele>179.33333333333331</ele><time>2026-05-01T17:43:33.894Z</time></trkpt><trkpt lat="43.212974" lon="11.2776629"><ele>179.0</ele><time>2026-05-01T17:43:34.903Z</time></trkpt><trkpt lat="43.2131605" lon="11.2775821"><ele>179.66666666666666</ele><time>2026-05-01T17:43:35.895Z</time></trkpt><trkpt lat="43.21335" lon="11.2775002"><ele>180.33333333333334</ele><time>2026-05-01T17:43:36.904Z</time></trkpt><trkpt lat="43.2135393" lon="11.2774191"><ele>181.0</ele><time>2026-05-01T17:43:37.894Z</time></trkpt><trkpt lat="43.2137305" lon="11.2773371"><ele>181.0</ele><time>2026-05-01T17:43:38.901Z</time></trkpt><trkpt lat="43.2139209" lon="11.277255"><ele>181.0</ele><time>2026-05-01T17:43:39.898Z</time></trkpt><trkpt lat="43.2141129" lon="11.2771716"><ele>181.0</ele><time>2026-05-01T17:43:40.913Z</time></trkpt><trkpt lat="43.2143025" lon="11.2770896"><ele>181.0</ele><time>2026-05-01T17:43:41.902Z</time></trkpt><trkpt lat="43.2144942" lon="11.2770084"><ele>181.0</ele><time>2026-05-01T17:43:42.907Z</time></trkpt><trkpt lat="43.214683" lon="11.2769283"><ele>181.0</ele><time>2026-05-01T17:43:43.887Z</time></trkpt><trkpt lat="43.2148737" lon="11.2768459"><ele>182.0</ele><time>2026-05-01T17:43:44.9Z</time></trkpt><trkpt lat="43.215062" lon="11.2767638"><ele>183.0</ele><time>2026-05-01T17:43:45.903Z</time></trkpt><trkpt lat="43.2152496" lon="11.2766827"><ele>184.0</ele><time>2026-05-01T17:43:46.899Z</time></trkpt><trkpt lat="43.2154365" lon="11.2766022"><ele>184.0</ele><time>2026-05-01T17:43:47.907Z</time></trkpt><trkpt lat="43.2156176" lon="11.2765236"><ele>184.0</ele><time>2026-05-01T17:43:48.892Z</time></trkpt><trkpt lat="43.2157992" lon="11.2764446"><ele>184.0</ele><time>2026-05-01T17:43:49.914Z</time></trkpt><trkpt lat="43.2159785" lon="11.2763668"><ele>183.33333333333334</ele><time>2026-05-01T17:43:50.9Z</time></trkpt><trkpt lat="43.2161625" lon="11.2762871"><ele>182.66666666666666</ele><time>2026-05-01T17:43:51.901Z</time></trkpt><trkpt lat="43.2163488" lon="11.2762058"><ele>182.0</ele><time>2026-05-01T17:43:52.901Z</time></trkpt><trkpt lat="43.2165373" lon="11.2761231"><ele>182.0</ele><time>2026-05-01T17:43:53.91Z</time></trkpt><trkpt lat="43.2167254" lon="11.2760401"><ele>182.0</ele><time>2026-05-01T17:43:54.902Z</time></trkpt><trkpt lat="43.2169149" lon="11.2759576"><ele>182.0</ele><time>2026-05-01T17:43:55.907Z</time></trkpt><trkpt lat="43.2171027" lon="11.2758773"><ele>182.0</ele><time>2026-05-01T17:43:56.899Z</time></trkpt><trkpt lat="43.2172897" lon="11.275798"><ele>182.0</ele><time>2026-05-01T17:43:57.893Z</time></trkpt><trkpt lat="43.2174757" lon="11.2757181"><ele>182.0</ele><time>2026-05-01T17:43:58.906Z</time></trkpt><trkpt lat="43.2176589" lon="11.2756394"><ele>182.33333333333331</ele><time>2026-05-01T17:43:59.902Z</time></trkpt><trkpt lat="43.217842" lon="11.2755607"><ele>182.66666666666666</ele><time>2026-05-01T17:44:00.907Z</time></trkpt><trkpt lat="43.2180221" lon="11.2754829"><ele>183.0</ele><time>2026-05-01T17:44:01.895Z</time></trkpt><trkpt lat="43.2182002" lon="11.2754063"><ele>183.0</ele><time>2026-05-01T17:44:02.904Z</time></trkpt><trkpt lat="43.2183707" lon="11.2753332"><ele>183.0</ele><time>2026-05-01T17:44:03.898Z</time></trkpt><trkpt lat="43.2185349" lon="11.2752618"><ele>183.0</ele><time>2026-05-01T17:44:04.904Z</time></trkpt><trkpt lat="43.2186899" lon="11.2751949"><ele>183.0</ele><time>2026-05-01T17:44:05.9Z</time></trkpt><trkpt lat="43.2188358" lon="11.2751311"><ele>183.0</ele><time>2026-05-01T17:44:06.9Z</time></trkpt><trkpt lat="43.2189727" lon="11.2750695"><ele>183.0</ele><time>2026-05-01T17:44:07.905Z</time></trkpt><trkpt lat="43.2191006" lon="11.2750106"><ele>183.0</ele><time>2026-05-01T17:44:08.911Z</time></trkpt><trkpt lat="43.2192207" lon="11.2749564"><ele>183.0</ele><time>2026-05-01T17:44:09.901Z</time></trkpt><trkpt lat="43.2193355" lon="11.2749061"><ele>183.0</ele><time>2026-05-01T17:44:10.895Z</time></trkpt><trkpt lat="43.2194438" lon="11.2748602"><ele>183.0</ele><time>2026-05-01T17:44:11.931Z</time></trkpt><trkpt lat="43.2195385" lon="11.27482"><ele>183.0</ele><time>2026-05-01T17:44:12.887Z</time></trkpt><trkpt lat="43.2196264" lon="11.2747855"><ele>183.0</ele><time>2026-05-01T17:44:13.899Z</time></trkpt><trkpt lat="43.2197069" lon="11.274766"><ele>183.0</ele><time>2026-05-01T17:44:14.893Z</time></trkpt><trkpt lat="43.2197837" lon="11.2747639"><ele>183.0</ele><time>2026-05-01T17:44:15.894Z</time></trkpt><trkpt lat="43.2198567" lon="11.2747737"><ele>183.0</ele><time>2026-05-01T17:44:16.895Z</time></trkpt><trkpt lat="43.2199273" lon="11.2747796"><ele>183.0</ele><time>2026-05-01T17:44:17.914Z</time></trkpt><trkpt lat="43.2199979" lon="11.2747654"><ele>183.0</ele><time>2026-05-01T17:44:18.923Z</time></trkpt><trkpt lat="43.2200666" lon="11.2747189"><ele>183.0</ele><time>2026-05-01T17:44:19.884Z</time></trkpt><trkpt lat="43.2201387" lon="11.2746437"><ele>183.5</ele><time>2026-05-01T17:44:20.904Z</time></trkpt><trkpt lat="43.2202216" lon="11.2745615"><ele>184.0</ele><time>2026-05-01T17:44:21.924Z</time></trkpt><trkpt lat="43.2203222" lon="11.2744909"><ele>184.5</ele><time>2026-05-01T17:44:22.896Z</time></trkpt><trkpt lat="43.2204426" lon="11.2744305"><ele>185.0</ele><time>2026-05-01T17:44:23.899Z</time></trkpt><trkpt lat="43.2205746" lon="11.2743753"><ele>186.0</ele><time>2026-05-01T17:44:24.9Z</time></trkpt><trkpt lat="43.2207136" lon="11.2743183"><ele>187.0</ele><time>2026-05-01T17:44:25.888Z</time></trkpt><trkpt lat="43.22086" lon="11.2742562"><ele>188.0</ele><time>2026-05-01T17:44:26.894Z</time></trkpt><trkpt lat="43.2210115" lon="11.2741906"><ele>188.0</ele><time>2026-05-01T17:44:27.908Z</time></trkpt><trkpt lat="43.2211651" lon="11.2741244"><ele>188.0</ele><time>2026-05-01T17:44:28.893Z</time></trkpt><trkpt lat="43.2213228" lon="11.2740562"><ele>188.0</ele><time>2026-05-01T17:44:29.896Z</time></trkpt><trkpt lat="43.2214837" lon="11.2739866"><ele>187.66666666666666</ele><time>2026-05-01T17:44:30.897Z</time></trkpt><trkpt lat="43.2216478" lon="11.2739154"><ele>187.33333333333334</ele><time>2026-05-01T17:44:31.9Z</time></trkpt><trkpt lat="43.2218144" lon="11.273844"><ele>187.0</ele><time>2026-05-01T17:44:32.905Z</time></trkpt><trkpt lat="43.2219818" lon="11.2737752"><ele>187.0</ele><time>2026-05-01T17:44:33.906Z</time></trkpt><trkpt lat="43.2221491" lon="11.2737113"><ele>187.0</ele><time>2026-05-01T17:44:34.903Z</time></trkpt><trkpt lat="43.2223162" lon="11.2736554"><ele>187.0</ele><time>2026-05-01T17:44:35.892Z</time></trkpt><trkpt lat="43.2224859" lon="11.273613"><ele>187.33333333333334</ele><time>2026-05-01T17:44:36.896Z</time></trkpt><trkpt lat="43.2226572" lon="11.2735891"><ele>187.66666666666666</ele><time>2026-05-01T17:44:37.897Z</time></trkpt><trkpt lat="43.2228302" lon="11.2735844"><ele>188.0</ele><time>2026-05-01T17:44:38.893Z</time></trkpt><trkpt lat="43.2230071" lon="11.2735999"><ele>188.66666666666666</ele><time>2026-05-01T17:44:39.906Z</time></trkpt><trkpt lat="43.2231874" lon="11.2736315"><ele>189.33333333333334</ele><time>2026-05-01T17:44:40.914Z</time></trkpt><trkpt lat="43.2233701" lon="11.2736746"><ele>190.0</ele><time>2026-05-01T17:44:41.896Z</time></trkpt><trkpt lat="43.2235587" lon="11.2737241"><ele>190.0</ele><time>2026-05-01T17:44:42.906Z</time></trkpt><trkpt lat="43.2237473" lon="11.2737765"><ele>190.0</ele><time>2026-05-01T17:44:43.889Z</time></trkpt><trkpt lat="43.2239419" lon="11.2738332"><ele>190.0</ele><time>2026-05-01T17:44:44.91Z</time></trkpt><trkpt lat="43.2241369" lon="11.2738912"><ele>191.66666666666669</ele><time>2026-05-01T17:44:45.904Z</time></trkpt><trkpt lat="43.2243356" lon="11.2739546"><ele>193.33333333333334</ele><time>2026-05-01T17:44:46.903Z</time></trkpt><trkpt lat="43.2245364" lon="11.2740233"><ele>195.0</ele><time>2026-05-01T17:44:47.897Z</time></trkpt><trkpt lat="43.2247406" lon="11.2740986"><ele>194.33333333333331</ele><time>2026-05-01T17:44:48.887Z</time></trkpt><trkpt lat="43.2249485" lon="11.2741807"><ele>193.66666666666666</ele><time>2026-05-01T17:44:49.917Z</time></trkpt><trkpt lat="43.2251539" lon="11.2742609"><ele>193.0</ele><time>2026-05-01T17:44:50.909Z</time></trkpt><trkpt lat="43.2253609" lon="11.2743389"><ele>193.0</ele><time>2026-05-01T17:44:51.901Z</time></trkpt><trkpt lat="43.2255687" lon="11.2744145"><ele>193.0</ele><time>2026-05-01T17:44:52.901Z</time></trkpt><trkpt lat="43.2257764" lon="11.2744868"><ele>193.0</ele><time>2026-05-01T17:44:53.892Z</time></trkpt><trkpt lat="43.2259854" lon="11.2745582"><ele>192.33333333333331</ele><time>2026-05-01T17:44:54.895Z</time></trkpt><trkpt lat="43.2261942" lon="11.2746275"><ele>191.66666666666666</ele><time>2026-05-01T17:44:55.894Z</time></trkpt><trkpt lat="43.2264042" lon="11.2746977"><ele>191.0</ele><time>2026-05-01T17:44:56.905Z</time></trkpt><trkpt lat="43.2266143" lon="11.274768"><ele>191.0</ele><time>2026-05-01T17:44:57.91Z</time></trkpt><trkpt lat="43.2268258" lon="11.2748377"><ele>191.0</ele><time>2026-05-01T17:44:58.905Z</time></trkpt><trkpt lat="43.2270392" lon="11.2749078"><ele>191.0</ele><time>2026-05-01T17:44:59.894Z</time></trkpt><trkpt lat="43.2272551" lon="11.274979"><ele>191.0</ele><time>2026-05-01T17:45:00.895Z</time></trkpt><trkpt lat="43.2274741" lon="11.2750526"><ele>191.0</ele><time>2026-05-01T17:45:01.933Z</time></trkpt><trkpt lat="43.2276889" lon="11.2751258"><ele>191.0</ele><time>2026-05-01T17:45:02.898Z</time></trkpt><trkpt lat="43.2279112" lon="11.2752018"><ele>191.0</ele><time>2026-05-01T17:45:03.913Z</time></trkpt><trkpt lat="43.2281331" lon="11.2752774"><ele>191.0</ele><time>2026-05-01T17:45:04.915Z</time></trkpt><trkpt lat="43.2283564" lon="11.2753534"><ele>192.0</ele><time>2026-05-01T17:45:05.913Z</time></trkpt><trkpt lat="43.2285817" lon="11.275431"><ele>193.0</ele><time>2026-05-01T17:45:06.915Z</time></trkpt><trkpt lat="43.2288087" lon="11.2755104"><ele>192.0</ele><time>2026-05-01T17:45:07.921Z</time></trkpt><trkpt lat="43.2290351" lon="11.2755889"><ele>191.0</ele><time>2026-05-01T17:45:08.899Z</time></trkpt><trkpt lat="43.2292651" lon="11.2756684"><ele>191.0</ele><time>2026-05-01T17:45:09.891Z</time></trkpt><trkpt lat="43.2294985" lon="11.2757489"><ele>191.0</ele><time>2026-05-01T17:45:10.922Z</time></trkpt><trkpt lat="43.2297278" lon="11.2758276"><ele>191.0</ele><time>2026-05-01T17:45:11.9Z</time></trkpt><trkpt lat="43.2299625" lon="11.2759075"><ele>191.0</ele><time>2026-05-01T17:45:12.916Z</time></trkpt><trkpt lat="43.2301949" lon="11.2759866"><ele>191.0</ele><time>2026-05-01T17:45:13.898Z</time></trkpt><trkpt lat="43.2304304" lon="11.2760689"><ele>191.0</ele><time>2026-05-01T17:45:14.909Z</time></trkpt><trkpt lat="43.2306644" lon="11.2761492"><ele>191.0</ele><time>2026-05-01T17:45:15.901Z</time></trkpt><trkpt lat="43.2309008" lon="11.2762273"><ele>191.0</ele><time>2026-05-01T17:45:16.902Z</time></trkpt><trkpt lat="43.2311367" lon="11.2763046"><ele>191.0</ele><time>2026-05-01T17:45:17.902Z</time></trkpt><trkpt lat="43.2313718" lon="11.2763818"><ele>191.0</ele><time>2026-05-01T17:45:18.891Z</time></trkpt><trkpt lat="43.2316089" lon="11.2764603"><ele>190.0</ele><time>2026-05-01T17:45:19.9Z</time></trkpt><trkpt lat="43.231845" lon="11.2765387"><ele>189.0</ele><time>2026-05-01T17:45:20.908Z</time></trkpt><trkpt lat="43.2320797" lon="11.276617"><ele>188.5</ele><time>2026-05-01T17:45:21.894Z</time></trkpt><trkpt lat="43.2323165" lon="11.2766957"><ele>188.0</ele><time>2026-05-01T17:45:22.9Z</time></trkpt><trkpt lat="43.2325523" lon="11.2767742"><ele>188.0</ele><time>2026-05-01T17:45:23.906Z</time></trkpt><trkpt lat="43.232786" lon="11.2768541"><ele>188.0</ele><time>2026-05-01T17:45:24.895Z</time></trkpt><trkpt lat="43.2330217" lon="11.2769359"><ele>187.0</ele><time>2026-05-01T17:45:25.911Z</time></trkpt><trkpt lat="43.2332544" lon="11.2770163"><ele>186.0</ele><time>2026-05-01T17:45:26.896Z</time></trkpt><trkpt lat="43.2334879" lon="11.2771008"><ele>186.0</ele><time>2026-05-01T17:45:27.902Z</time></trkpt><trkpt lat="43.2337189" lon="11.2771922"><ele>186.0</ele><time>2026-05-01T17:45:28.911Z</time></trkpt><trkpt lat="43.2339454" lon="11.2772938"><ele>187.5</ele><time>2026-05-01T17:45:29.898Z</time></trkpt><trkpt lat="43.2341726" lon="11.2774059"><ele>189.0</ele><time>2026-05-01T17:45:30.909Z</time></trkpt><trkpt lat="43.2343977" lon="11.2775241"><ele>189.0</ele><time>2026-05-01T17:45:31.912Z</time></trkpt><trkpt lat="43.2346213" lon="11.2776476"><ele>189.0</ele><time>2026-05-01T17:45:32.896Z</time></trkpt><trkpt lat="43.2348456" lon="11.2777758"><ele>189.0</ele><time>2026-05-01T17:45:33.895Z</time></trkpt><trkpt lat="43.2350686" lon="11.2779049"><ele>189.0</ele><time>2026-05-01T17:45:34.887Z</time></trkpt><trkpt lat="43.2352927" lon="11.2780345"><ele>189.5</ele><time>2026-05-01T17:45:35.902Z</time></trkpt><trkpt lat="43.2355148" lon="11.2781633"><ele>190.0</ele><time>2026-05-01T17:45:36.904Z</time></trkpt><trkpt lat="43.2357376" lon="11.2782924"><ele>190.0</ele><time>2026-05-01T17:45:37.909Z</time></trkpt><trkpt lat="43.2359598" lon="11.278421"><ele>190.0</ele><time>2026-05-01T17:45:38.903Z</time></trkpt><trkpt lat="43.2361835" lon="11.2785499"><ele>190.0</ele><time>2026-05-01T17:45:39.912Z</time></trkpt><trkpt lat="43.236406" lon="11.278678"><ele>190.0</ele><time>2026-05-01T17:45:40.911Z</time></trkpt><trkpt lat="43.2366277" lon="11.2788063"><ele>189.5</ele><time>2026-05-01T17:45:41.898Z</time></trkpt><trkpt lat="43.2368504" lon="11.2789354"><ele>189.0</ele><time>2026-05-01T17:45:42.895Z</time></trkpt><trkpt lat="43.2370728" lon="11.2790636"><ele>189.0</ele><time>2026-05-01T17:45:43.902Z</time></trkpt><trkpt lat="43.237293" lon="11.2791901"><ele>189.0</ele><time>2026-05-01T17:45:44.899Z</time></trkpt><trkpt lat="43.2375131" lon="11.279316"><ele>188.0</ele><time>2026-05-01T17:45:45.901Z</time></trkpt><trkpt lat="43.2377334" lon="11.2794416"><ele>187.0</ele><time>2026-05-01T17:45:46.911Z</time></trkpt><trkpt lat="43.237953" lon="11.2795674"><ele>187.0</ele><time>2026-05-01T17:45:47.909Z</time></trkpt><trkpt lat="43.2381734" lon="11.2796939"><ele>187.0</ele><time>2026-05-01T17:45:48.904Z</time></trkpt><trkpt lat="43.2383939" lon="11.2798209"><ele>187.0</ele><time>2026-05-01T17:45:49.9Z</time></trkpt><trkpt lat="43.2386133" lon="11.2799485"><ele>187.0</ele><time>2026-05-01T17:45:50.892Z</time></trkpt><trkpt lat="43.2388325" lon="11.280081"><ele>187.5</ele><time>2026-05-01T17:45:51.901Z</time></trkpt><trkpt lat="43.2390491" lon="11.2802172"><ele>188.0</ele><time>2026-05-01T17:45:52.907Z</time></trkpt><trkpt lat="43.2392623" lon="11.2803615"><ele>188.0</ele><time>2026-05-01T17:45:53.914Z</time></trkpt><trkpt lat="43.2394704" lon="11.2805131"><ele>188.0</ele><time>2026-05-01T17:45:54.907Z</time></trkpt><trkpt lat="43.2396763" lon="11.2806704"><ele>189.0</ele><time>2026-05-01T17:45:55.911Z</time></trkpt><trkpt lat="43.2398764" lon="11.2808351"><ele>190.0</ele><time>2026-05-01T17:45:56.906Z</time></trkpt><trkpt lat="43.2400746" lon="11.2810086"><ele>190.0</ele><time>2026-05-01T17:45:57.907Z</time></trkpt><trkpt lat="43.2402689" lon="11.2811915"><ele>190.0</ele><time>2026-05-01T17:45:58.899Z</time></trkpt><trkpt lat="43.2404622" lon="11.2813851"><ele>191.0</ele><time>2026-05-01T17:45:59.918Z</time></trkpt><trkpt lat="43.2406484" lon="11.281584"><ele>192.0</ele><time>2026-05-01T17:46:00.901Z</time></trkpt><trkpt lat="43.2408345" lon="11.281793"><ele>192.0</ele><time>2026-05-01T17:46:01.914Z</time></trkpt><trkpt lat="43.2410127" lon="11.2820087"><ele>192.0</ele><time>2026-05-01T17:46:02.919Z</time></trkpt><trkpt lat="43.2411821" lon="11.2822275"><ele>193.0</ele><time>2026-05-01T17:46:03.899Z</time></trkpt><trkpt lat="43.2413476" lon="11.2824528"><ele>194.0</ele><time>2026-05-01T17:46:04.918Z</time></trkpt><trkpt lat="43.2415062" lon="11.2826779"><ele>194.5</ele><time>2026-05-01T17:46:05.915Z</time></trkpt><trkpt lat="43.2416604" lon="11.2829103"><ele>195.0</ele><time>2026-05-01T17:46:06.907Z</time></trkpt><trkpt lat="43.241813" lon="11.2831523"><ele>196.5</ele><time>2026-05-01T17:46:07.927Z</time></trkpt><trkpt lat="43.2419576" lon="11.2833961"><ele>198.0</ele><time>2026-05-01T17:46:08.904Z</time></trkpt><trkpt lat="43.2421013" lon="11.2836471"><ele>198.0</ele><time>2026-05-01T17:46:09.925Z</time></trkpt><trkpt lat="43.2422406" lon="11.2838938"><ele>198.0</ele><time>2026-05-01T17:46:10.906Z</time></trkpt><trkpt lat="43.242383" lon="11.284144"><ele>199.5</ele><time>2026-05-01T17:46:11.917Z</time></trkpt><trkpt lat="43.2425239" lon="11.284392"><ele>201.0</ele><time>2026-05-01T17:46:12.904Z</time></trkpt><trkpt lat="43.2426654" lon="11.2846445"><ele>203.5</ele><time>2026-05-01T17:46:13.911Z</time></trkpt><trkpt lat="43.2428066" lon="11.2848959"><ele>206.0</ele><time>2026-05-01T17:46:14.918Z</time></trkpt><trkpt lat="43.2429472" lon="11.2851465"><ele>206.0</ele><time>2026-05-01T17:46:15.917Z</time></trkpt><trkpt lat="43.243088" lon="11.285397"><ele>206.0</ele><time>2026-05-01T17:46:16.921Z</time></trkpt><trkpt lat="43.2432281" lon="11.2856464"><ele>208.5</ele><time>2026-05-01T17:46:17.918Z</time></trkpt><trkpt lat="43.2433677" lon="11.2858945"><ele>211.0</ele><time>2026-05-01T17:46:18.904Z</time></trkpt><trkpt lat="43.2435088" lon="11.2861438"><ele>211.0</ele><time>2026-05-01T17:46:19.904Z</time></trkpt><trkpt lat="43.2436532" lon="11.286381"><ele>211.0</ele><time>2026-05-01T17:46:20.905Z</time></trkpt><trkpt lat="43.2437943" lon="11.2866199"><ele>211.0</ele><time>2026-05-01T17:46:21.89Z</time></trkpt><trkpt lat="43.2454811" lon="11.2895754"><ele>214.0</ele><time>2026-05-01T17:46:33.872Z</time></trkpt><trkpt lat="43.2456411" lon="11.2898345"><ele>217.0</ele><time>2026-05-01T17:46:34.889Z</time></trkpt><trkpt lat="43.2457903" lon="11.2901103"><ele>217.0</ele><time>2026-05-01T17:46:35.91Z</time></trkpt><trkpt lat="43.2459359" lon="11.2903696"><ele>217.0</ele><time>2026-05-01T17:46:36.928Z</time></trkpt><trkpt lat="43.246078" lon="11.2906238"><ele>219.0</ele><time>2026-05-01T17:46:37.906Z</time></trkpt><trkpt lat="43.2462201" lon="11.2908815"><ele>221.0</ele><time>2026-05-01T17:46:38.923Z</time></trkpt><trkpt lat="43.2463585" lon="11.2911281"><ele>219.0</ele><time>2026-05-01T17:46:39.888Z</time></trkpt><trkpt lat="43.2482459" lon="11.2948837"><ele>219.0</ele><time>2026-05-01T17:46:53.855Z</time></trkpt><trkpt lat="43.2482797" lon="11.2951857"><ele>219.0</ele><time>2026-05-01T17:46:54.896Z</time></trkpt><trkpt lat="43.248391" lon="11.2954889"><ele>217.5</ele><time>2026-05-01T17:46:55.904Z</time></trkpt><trkpt lat="43.2485024" lon="11.2957888"><ele>216.0</ele><time>2026-05-01T17:46:56.905Z</time></trkpt><trkpt lat="43.2486045" lon="11.2960872"><ele>216.0</ele><time>2026-05-01T17:46:57.91Z</time></trkpt><trkpt lat="43.2487071" lon="11.2963875"><ele>216.0</ele><time>2026-05-01T17:46:58.931Z</time></trkpt><trkpt lat="43.2488075" lon="11.2966868"><ele>217.0</ele><time>2026-05-01T17:46:59.896Z</time></trkpt><trkpt lat="43.2489098" lon="11.2969955"><ele>218.0</ele><time>2026-05-01T17:47:00.921Z</time></trkpt><trkpt lat="43.2490132" lon="11.297298"><ele>214.5</ele><time>2026-05-01T17:47:01.934Z</time></trkpt><trkpt lat="43.2491099" lon="11.2975968"><ele>211.0</ele><time>2026-05-01T17:47:02.906Z</time></trkpt><trkpt lat="43.2492082" lon="11.2979073"><ele>212.0</ele><time>2026-05-01T17:47:03.924Z</time></trkpt><trkpt lat="43.2493064" lon="11.2982142"><ele>213.0</ele><time>2026-05-01T17:47:04.908Z</time></trkpt><trkpt lat="43.2494047" lon="11.2985276"><ele>213.0</ele><time>2026-05-01T17:47:05.911Z</time></trkpt><trkpt lat="43.249504" lon="11.2988427"><ele>213.0</ele><time>2026-05-01T17:47:06.912Z</time></trkpt><trkpt lat="43.249602" lon="11.2991608"><ele>216.5</ele><time>2026-05-01T17:47:07.912Z</time></trkpt><trkpt lat="43.2496978" lon="11.2994788"><ele>220.0</ele><time>2026-05-01T17:47:08.889Z</time></trkpt><trkpt lat="43.24979" lon="11.2998063"><ele>214.5</ele><time>2026-05-01T17:47:09.897Z</time></trkpt><trkpt lat="43.2498737" lon="11.3001376"><ele>209.0</ele><time>2026-05-01T17:47:10.9Z</time></trkpt><trkpt lat="43.2499525" lon="11.3004694"><ele>210.0</ele><time>2026-05-01T17:47:11.913Z</time></trkpt><trkpt lat="43.2500274" lon="11.3007939"><ele>211.0</ele><time>2026-05-01T17:47:12.895Z</time></trkpt><trkpt lat="43.2501049" lon="11.3011168"><ele>212.5</ele><time>2026-05-01T17:47:13.891Z</time></trkpt><trkpt lat="43.2501745" lon="11.3014427"><ele>214.0</ele><time>2026-05-01T17:47:14.894Z</time></trkpt><trkpt lat="43.2502441" lon="11.3017698"><ele>214.0</ele><time>2026-05-01T17:47:15.909Z</time></trkpt><trkpt lat="43.250311" lon="11.3020918"><ele>214.0</ele><time>2026-05-01T17:47:16.901Z</time></trkpt><trkpt lat="43.250381" lon="11.3024232"><ele>212.5</ele><time>2026-05-01T17:47:17.921Z</time></trkpt><trkpt lat="43.250448" lon="11.3027432"><ele>211.0</ele><time>2026-05-01T17:47:18.884Z</time></trkpt><trkpt lat="43.2505191" lon="11.3030703"><ele>208.5</ele><time>2026-05-01T17:47:19.898Z</time></trkpt><trkpt lat="43.250591" lon="11.3033934"><ele>206.0</ele><time>2026-05-01T17:47:20.905Z</time></trkpt><trkpt lat="43.2506583" lon="11.3037188"><ele>207.0</ele><time>2026-05-01T17:47:21.912Z</time></trkpt><trkpt lat="43.250725" lon="11.3040423"><ele>208.0</ele><time>2026-05-01T17:47:22.895Z</time></trkpt><trkpt lat="43.2507882" lon="11.3043731"><ele>208.0</ele><time>2026-05-01T17:47:23.913Z</time></trkpt><trkpt lat="43.2508548" lon="11.3046954"><ele>208.0</ele><time>2026-05-01T17:47:24.923Z</time></trkpt><trkpt lat="43.2509259" lon="11.3050134"><ele>207.5</ele><time>2026-05-01T17:47:25.922Z</time></trkpt><trkpt lat="43.2509963" lon="11.3053323"><ele>207.0</ele><time>2026-05-01T17:47:26.916Z</time></trkpt><trkpt lat="43.2510728" lon="11.3056495"><ele>205.5</ele><time>2026-05-01T17:47:27.919Z</time></trkpt><trkpt lat="43.2511488" lon="11.3059665"><ele>204.0</ele><time>2026-05-01T17:47:28.919Z</time></trkpt><trkpt lat="43.2512288" lon="11.3062824"><ele>203.0</ele><time>2026-05-01T17:47:29.922Z</time></trkpt><trkpt lat="43.2513113" lon="11.306594"><ele>202.0</ele><time>2026-05-01T17:47:30.908Z</time></trkpt><trkpt lat="43.2513944" lon="11.3069056"><ele>202.0</ele><time>2026-05-01T17:47:31.895Z</time></trkpt><trkpt lat="43.2514813" lon="11.3072187"><ele>202.0</ele><time>2026-05-01T17:47:32.908Z</time></trkpt><trkpt lat="43.2515668" lon="11.3075258"><ele>202.0</ele><time>2026-05-01T17:47:33.901Z</time></trkpt><trkpt lat="43.2516558" lon="11.307835"><ele>202.0</ele><time>2026-05-01T17:47:34.911Z</time></trkpt><trkpt lat="43.2517482" lon="11.3081405"><ele>201.5</ele><time>2026-05-01T17:47:35.911Z</time></trkpt><trkpt lat="43.2518428" lon="11.3084419"><ele>201.0</ele><time>2026-05-01T17:47:36.888Z</time></trkpt><trkpt lat="43.2519404" lon="11.3087463"><ele>200.5</ele><time>2026-05-01T17:47:37.916Z</time></trkpt><trkpt lat="43.2520316" lon="11.3090411"><ele>200.0</ele><time>2026-05-01T17:47:38.902Z</time></trkpt><trkpt lat="43.2521228" lon="11.3093391"><ele>200.0</ele><time>2026-05-01T17:47:39.913Z</time></trkpt><trkpt lat="43.2522179" lon="11.3096369"><ele>200.0</ele><time>2026-05-01T17:47:40.917Z</time></trkpt><trkpt lat="43.2523132" lon="11.3099392"><ele>200.5</ele><time>2026-05-01T17:47:41.915Z</time></trkpt><trkpt lat="43.2524105" lon="11.3102445"><ele>201.0</ele><time>2026-05-01T17:47:42.917Z</time></trkpt><trkpt lat="43.252503" lon="11.310542"><ele>201.5</ele><time>2026-05-01T17:47:43.914Z</time></trkpt><trkpt lat="43.2525951" lon="11.3108401"><ele>202.0</ele><time>2026-05-01T17:47:44.912Z</time></trkpt><trkpt lat="43.2526863" lon="11.3111394"><ele>201.5</ele><time>2026-05-01T17:47:45.909Z</time></trkpt><trkpt lat="43.2527781" lon="11.3114428"><ele>201.0</ele><time>2026-05-01T17:47:46.899Z</time></trkpt><trkpt lat="43.2528742" lon="11.3117514"><ele>201.0</ele><time>2026-05-01T17:47:47.908Z</time></trkpt><trkpt lat="43.2529645" lon="11.3120559"><ele>201.0</ele><time>2026-05-01T17:47:48.91Z</time></trkpt><trkpt lat="43.2530586" lon="11.3123541"><ele>200.0</ele><time>2026-05-01T17:47:49.912Z</time></trkpt><trkpt lat="43.2531504" lon="11.3126529"><ele>199.0</ele><time>2026-05-01T17:47:50.9Z</time></trkpt><trkpt lat="43.2532446" lon="11.3129563"><ele>199.5</ele><time>2026-05-01T17:47:51.916Z</time></trkpt><trkpt lat="43.2533442" lon="11.3132579"><ele>200.0</ele><time>2026-05-01T17:47:52.906Z</time></trkpt><trkpt lat="43.253439" lon="11.3135598"><ele>200.0</ele><time>2026-05-01T17:47:53.915Z</time></trkpt><trkpt lat="43.2535355" lon="11.3138641"><ele>200.0</ele><time>2026-05-01T17:47:54.901Z</time></trkpt><trkpt lat="43.2536325" lon="11.3141717"><ele>200.0</ele><time>2026-05-01T17:47:55.916Z</time></trkpt><trkpt lat="43.2537274" lon="11.3144758"><ele>200.0</ele><time>2026-05-01T17:47:56.878Z</time></trkpt><trkpt lat="43.2538266" lon="11.3147914"><ele>200.0</ele><time>2026-05-01T17:47:57.918Z</time></trkpt><trkpt lat="43.2539221" lon="11.3150959"><ele>200.0</ele><time>2026-05-01T17:47:58.896Z</time></trkpt><trkpt lat="43.2540193" lon="11.3154064"><ele>202.0</ele><time>2026-05-01T17:47:59.921Z</time></trkpt><trkpt lat="43.2541149" lon="11.3157087"><ele>204.0</ele><time>2026-05-01T17:48:00.896Z</time></trkpt><trkpt lat="43.2542113" lon="11.316019"><ele>204.0</ele><time>2026-05-01T17:48:01.914Z</time></trkpt><trkpt lat="43.254308" lon="11.3163253"><ele>204.0</ele><time>2026-05-01T17:48:02.922Z</time></trkpt><trkpt lat="43.2544045" lon="11.3166266"><ele>205.5</ele><time>2026-05-01T17:48:03.912Z</time></trkpt><trkpt lat="43.2544997" lon="11.3169278"><ele>207.0</ele><time>2026-05-01T17:48:04.9Z</time></trkpt><trkpt lat="43.2545943" lon="11.3172306"><ele>214.0</ele><time>2026-05-01T17:48:05.917Z</time></trkpt><trkpt lat="43.2546879" lon="11.3175273"><ele>221.0</ele><time>2026-05-01T17:48:06.896Z</time></trkpt><trkpt lat="43.2547835" lon="11.3178299"><ele>213.0</ele><time>2026-05-01T17:48:07.906Z</time></trkpt><trkpt lat="43.254878" lon="11.3181316"><ele>205.0</ele><time>2026-05-01T17:48:08.914Z</time></trkpt><trkpt lat="43.2549725" lon="11.3184315"><ele>205.0</ele><time>2026-05-01T17:48:09.909Z</time></trkpt><trkpt lat="43.255068" lon="11.3187347"><ele>205.0</ele><time>2026-05-01T17:48:10.93Z</time></trkpt><trkpt lat="43.2551611" lon="11.3190319"><ele>206.0</ele><time>2026-05-01T17:48:11.908Z</time></trkpt><trkpt lat="43.2552567" lon="11.3193313"><ele>207.0</ele><time>2026-05-01T17:48:12.894Z</time></trkpt><trkpt lat="43.2553536" lon="11.3196354"><ele>208.0</ele><time>2026-05-01T17:48:13.929Z</time></trkpt><trkpt lat="43.255447" lon="11.3199303"><ele>209.0</ele><time>2026-05-01T17:48:14.901Z</time></trkpt><trkpt lat="43.2555419" lon="11.3202307"><ele>204.5</ele><time>2026-05-01T17:48:15.903Z</time></trkpt><trkpt lat="43.2556369" lon="11.32053"><ele>200.0</ele><time>2026-05-01T17:48:16.914Z</time></trkpt><trkpt lat="43.2557315" lon="11.320827"><ele>199.5</ele><time>2026-05-01T17:48:17.916Z</time></trkpt><trkpt lat="43.2558262" lon="11.3211235"><ele>199.0</ele><time>2026-05-01T17:48:18.916Z</time></trkpt><trkpt lat="43.255921" lon="11.3214207"><ele>198.0</ele><time>2026-05-01T17:48:19.92Z</time></trkpt><trkpt lat="43.2560155" lon="11.3217141"><ele>197.0</ele><time>2026-05-01T17:48:20.892Z</time></trkpt><trkpt lat="43.2561117" lon="11.3220146"><ele>197.5</ele><time>2026-05-01T17:48:21.916Z</time></trkpt><trkpt lat="43.2562075" lon="11.3223104"><ele>198.0</ele><time>2026-05-01T17:48:22.917Z</time></trkpt><trkpt lat="43.2563034" lon="11.3226083"><ele>198.0</ele><time>2026-05-01T17:48:23.928Z</time></trkpt><trkpt lat="43.2563984" lon="11.3229037"><ele>198.0</ele><time>2026-05-01T17:48:24.915Z</time></trkpt><trkpt lat="43.2564926" lon="11.3231978"><ele>197.0</ele><time>2026-05-01T17:48:25.897Z</time></trkpt><trkpt lat="43.2565873" lon="11.3234894"><ele>196.0</ele><time>2026-05-01T17:48:26.899Z</time></trkpt><trkpt lat="43.2566853" lon="11.3237732"><ele>196.66666666666666</ele><time>2026-05-01T17:48:27.916Z</time></trkpt><trkpt lat="43.2567878" lon="11.3240443"><ele>197.33333333333331</ele><time>2026-05-01T17:48:28.896Z</time></trkpt><trkpt lat="43.2568999" lon="11.3243132"><ele>198.0</ele><time>2026-05-01T17:48:29.914Z</time></trkpt><trkpt lat="43.2570174" lon="11.3245718"><ele>197.0</ele><time>2026-05-01T17:48:30.899Z</time></trkpt><trkpt lat="43.2571426" lon="11.3248276"><ele>196.0</ele><time>2026-05-01T17:48:31.895Z</time></trkpt><trkpt lat="43.2572746" lon="11.325079"><ele>196.5</ele><time>2026-05-01T17:48:32.897Z</time></trkpt><trkpt lat="43.2574131" lon="11.3253267"><ele>197.0</ele><time>2026-05-01T17:48:33.91Z</time></trkpt><trkpt lat="43.2575564" lon="11.3255675"><ele>197.0</ele><time>2026-05-01T17:48:34.92Z</time></trkpt><trkpt lat="43.2577043" lon="11.3257998"><ele>197.0</ele><time>2026-05-01T17:48:35.91Z</time></trkpt><trkpt lat="43.2578592" lon="11.3260264"><ele>197.0</ele><time>2026-05-01T17:48:36.918Z</time></trkpt><trkpt lat="43.2580185" lon="11.326245"><ele>197.0</ele><time>2026-05-01T17:48:37.906Z</time></trkpt><trkpt lat="43.2581847" lon="11.3264616"><ele>197.5</ele><time>2026-05-01T17:48:38.919Z</time></trkpt><trkpt lat="43.2583546" lon="11.3266682"><ele>198.0</ele><time>2026-05-01T17:48:39.916Z</time></trkpt><trkpt lat="43.2585295" lon="11.3268654"><ele>198.0</ele><time>2026-05-01T17:48:40.912Z</time></trkpt><trkpt lat="43.2587077" lon="11.327052"><ele>198.0</ele><time>2026-05-01T17:48:41.904Z</time></trkpt><trkpt lat="43.2588898" lon="11.3272279"><ele>198.0</ele><time>2026-05-01T17:48:42.924Z</time></trkpt><trkpt lat="43.2590711" lon="11.3273901"><ele>197.66666666666669</ele><time>2026-05-01T17:48:43.919Z</time></trkpt><trkpt lat="43.2592546" lon="11.3275436"><ele>197.33333333333334</ele><time>2026-05-01T17:48:44.905Z</time></trkpt><trkpt lat="43.2594419" lon="11.3276911"><ele>197.0</ele><time>2026-05-01T17:48:45.926Z</time></trkpt><trkpt lat="43.2596263" lon="11.327828"><ele>197.33333333333334</ele><time>2026-05-01T17:48:46.923Z</time></trkpt><trkpt lat="43.2598121" lon="11.3279552"><ele>197.66666666666669</ele><time>2026-05-01T17:48:47.928Z</time></trkpt><trkpt lat="43.2599982" lon="11.3280722"><ele>198.0</ele><time>2026-05-01T17:48:48.918Z</time></trkpt><trkpt lat="43.2601871" lon="11.3281801"><ele>198.0</ele><time>2026-05-01T17:48:49.905Z</time></trkpt><trkpt lat="43.2603813" lon="11.3282812"><ele>198.0</ele><time>2026-05-01T17:48:50.932Z</time></trkpt><trkpt lat="43.260573" lon="11.3283723"><ele>198.0</ele><time>2026-05-01T17:48:51.907Z</time></trkpt><trkpt lat="43.2607705" lon="11.328459"><ele>198.33333333333331</ele><time>2026-05-01T17:48:52.924Z</time></trkpt><trkpt lat="43.2609685" lon="11.3285361"><ele>198.66666666666666</ele><time>2026-05-01T17:48:53.921Z</time></trkpt><trkpt lat="43.2611704" lon="11.3286043"><ele>199.0</ele><time>2026-05-01T17:48:54.922Z</time></trkpt><trkpt lat="43.2613728" lon="11.3286621"><ele>200.66666666666666</ele><time>2026-05-01T17:48:55.887Z</time></trkpt><trkpt lat="43.2615826" lon="11.3287133"><ele>202.33333333333331</ele><time>2026-05-01T17:48:56.914Z</time></trkpt><trkpt lat="43.261788" lon="11.3287591"><ele>204.0</ele><time>2026-05-01T17:48:57.891Z</time></trkpt><trkpt lat="43.2619973" lon="11.3288014"><ele>204.0</ele><time>2026-05-01T17:48:58.905Z</time></trkpt><trkpt lat="43.2622033" lon="11.3288387"><ele>204.0</ele><time>2026-05-01T17:48:59.904Z</time></trkpt><trkpt lat="43.2624093" lon="11.3288735"><ele>204.0</ele><time>2026-05-01T17:49:00.924Z</time></trkpt><trkpt lat="43.2626114" lon="11.3289068"><ele>202.66666666666669</ele><time>2026-05-01T17:49:01.915Z</time></trkpt><trkpt lat="43.2628142" lon="11.3289375"><ele>201.33333333333334</ele><time>2026-05-01T17:49:02.92Z</time></trkpt><trkpt lat="43.2630127" lon="11.3289666"><ele>200.0</ele><time>2026-05-01T17:49:03.9Z</time></trkpt><trkpt lat="43.2632105" lon="11.3289937"><ele>200.0</ele><time>2026-05-01T17:49:04.904Z</time></trkpt><trkpt lat="43.2634041" lon="11.3290183"><ele>200.0</ele><time>2026-05-01T17:49:05.889Z</time></trkpt><trkpt lat="43.2635954" lon="11.3290426"><ele>200.0</ele><time>2026-05-01T17:49:06.897Z</time></trkpt><trkpt lat="43.2637817" lon="11.329067"><ele>200.66666666666669</ele><time>2026-05-01T17:49:07.901Z</time></trkpt><trkpt lat="43.2639654" lon="11.3290919"><ele>201.33333333333331</ele><time>2026-05-01T17:49:08.903Z</time></trkpt><trkpt lat="43.2641469" lon="11.3291181"><ele>202.0</ele><time>2026-05-01T17:49:09.893Z</time></trkpt><trkpt lat="43.2643308" lon="11.3291455"><ele>202.0</ele><time>2026-05-01T17:49:10.91Z</time></trkpt><trkpt lat="43.2645139" lon="11.3291712"><ele>202.0</ele><time>2026-05-01T17:49:11.91Z</time></trkpt><trkpt lat="43.2646964" lon="11.3291954"><ele>202.0</ele><time>2026-05-01T17:49:12.914Z</time></trkpt><trkpt lat="43.2648775" lon="11.3292194"><ele>201.66666666666666</ele><time>2026-05-01T17:49:13.92Z</time></trkpt><trkpt lat="43.2650552" lon="11.3292426"><ele>201.33333333333331</ele><time>2026-05-01T17:49:14.893Z</time></trkpt><trkpt lat="43.2652334" lon="11.3292673"><ele>201.0</ele><time>2026-05-01T17:49:15.907Z</time></trkpt><trkpt lat="43.2654073" lon="11.3292931"><ele>201.0</ele><time>2026-05-01T17:49:16.922Z</time></trkpt><trkpt lat="43.2655762" lon="11.3293216"><ele>201.0</ele><time>2026-05-01T17:49:17.907Z</time></trkpt><trkpt lat="43.2657446" lon="11.3293538"><ele>201.0</ele><time>2026-05-01T17:49:18.914Z</time></trkpt><trkpt lat="43.2659128" lon="11.3293894"><ele>201.33333333333331</ele><time>2026-05-01T17:49:19.922Z</time></trkpt><trkpt lat="43.2660807" lon="11.3294318"><ele>201.66666666666666</ele><time>2026-05-01T17:49:20.905Z</time></trkpt><trkpt lat="43.2662523" lon="11.3294802"><ele>202.0</ele><time>2026-05-01T17:49:21.911Z</time></trkpt><trkpt lat="43.266424" lon="11.3295316"><ele>202.66666666666666</ele><time>2026-05-01T17:49:22.914Z</time></trkpt><trkpt lat="43.2665943" lon="11.3295847"><ele>203.33333333333331</ele><time>2026-05-01T17:49:23.914Z</time></trkpt><trkpt lat="43.2667609" lon="11.3296408"><ele>204.0</ele><time>2026-05-01T17:49:24.91Z</time></trkpt><trkpt lat="43.2669236" lon="11.3297027"><ele>205.33333333333331</ele><time>2026-05-01T17:49:25.927Z</time></trkpt><trkpt lat="43.2670797" lon="11.3297693"><ele>206.66666666666666</ele><time>2026-05-01T17:49:26.917Z</time></trkpt><trkpt lat="43.2672337" lon="11.3298404"><ele>208.0</ele><time>2026-05-01T17:49:27.905Z</time></trkpt><trkpt lat="43.2673873" lon="11.3299137"><ele>208.0</ele><time>2026-05-01T17:49:28.9Z</time></trkpt><trkpt lat="43.2675386" lon="11.3299886"><ele>208.0</ele><time>2026-05-01T17:49:29.908Z</time></trkpt><trkpt lat="43.2676843" lon="11.3300674"><ele>208.0</ele><time>2026-05-01T17:49:30.891Z</time></trkpt><trkpt lat="43.2678293" lon="11.3301479"><ele>208.0</ele><time>2026-05-01T17:49:31.904Z</time></trkpt><trkpt lat="43.2679718" lon="11.3302271"><ele>208.0</ele><time>2026-05-01T17:49:32.906Z</time></trkpt><trkpt lat="43.2681137" lon="11.330305"><ele>208.0</ele><time>2026-05-01T17:49:33.901Z</time></trkpt><trkpt lat="43.2682583" lon="11.3303847"><ele>208.66666666666666</ele><time>2026-05-01T17:49:34.918Z</time></trkpt><trkpt lat="43.268403" lon="11.3304655"><ele>209.33333333333331</ele><time>2026-05-01T17:49:35.899Z</time></trkpt><trkpt lat="43.2685523" lon="11.3305507"><ele>210.0</ele><time>2026-05-01T17:49:36.922Z</time></trkpt><trkpt lat="43.2687005" lon="11.3306334"><ele>210.33333333333331</ele><time>2026-05-01T17:49:37.915Z</time></trkpt><trkpt lat="43.2688508" lon="11.3307155"><ele>210.66666666666666</ele><time>2026-05-01T17:49:38.92Z</time></trkpt><trkpt lat="43.2690018" lon="11.330798"><ele>211.0</ele><time>2026-05-01T17:49:39.914Z</time></trkpt><trkpt lat="43.2691535" lon="11.3308815"><ele>214.33333333333331</ele><time>2026-05-01T17:49:40.905Z</time></trkpt><trkpt lat="43.2693057" lon="11.3309671"><ele>217.66666666666669</ele><time>2026-05-01T17:49:41.923Z</time></trkpt><trkpt lat="43.269457" lon="11.3310532"><ele>221.0</ele><time>2026-05-01T17:49:42.916Z</time></trkpt><trkpt lat="43.269617" lon="11.331132"><ele>225.33333333333334</ele><time>2026-05-01T17:49:43.894Z</time></trkpt><trkpt lat="43.2697758" lon="11.3312141"><ele>229.66666666666669</ele><time>2026-05-01T17:49:44.925Z</time></trkpt><trkpt lat="43.269926" lon="11.3312942"><ele>234.0</ele><time>2026-05-01T17:49:45.903Z</time></trkpt><trkpt lat="43.2700877" lon="11.3313608"><ele>234.66666666666669</ele><time>2026-05-01T17:49:46.888Z</time></trkpt><trkpt lat="43.270257" lon="11.3314264"><ele>235.33333333333334</ele><time>2026-05-01T17:49:47.9Z</time></trkpt><trkpt lat="43.2704198" lon="11.3314933"><ele>236.0</ele><time>2026-05-01T17:49:48.888Z</time></trkpt><trkpt lat="43.2705852" lon="11.3315597"><ele>236.0</ele><time>2026-05-01T17:49:49.882Z</time></trkpt><trkpt lat="43.2707521" lon="11.3316183"><ele>236.0</ele><time>2026-05-01T17:49:50.894Z</time></trkpt><trkpt lat="43.2709208" lon="11.3316827"><ele>236.0</ele><time>2026-05-01T17:49:51.904Z</time></trkpt><trkpt lat="43.271405" lon="11.33188"><ele>235.0</ele><time>2026-05-01T17:49:54.896Z</time></trkpt><trkpt lat="43.2715394" lon="11.3320097"><ele>234.0</ele><time>2026-05-01T17:49:55.908Z</time></trkpt><trkpt lat="43.2716797" lon="11.332184"><ele>233.0</ele><time>2026-05-01T17:49:56.912Z</time></trkpt><trkpt lat="43.2718345" lon="11.3323128"><ele>230.66666666666669</ele><time>2026-05-01T17:49:57.895Z</time></trkpt><trkpt lat="43.2719998" lon="11.3324514"><ele>228.33333333333331</ele><time>2026-05-01T17:49:58.905Z</time></trkpt><trkpt lat="43.272168" lon="11.3325505"><ele>226.0</ele><time>2026-05-01T17:49:59.922Z</time></trkpt><trkpt lat="43.2723295" lon="11.3326422"><ele>226.0</ele><time>2026-05-01T17:50:00.886Z</time></trkpt><trkpt lat="43.2725043" lon="11.3327405"><ele>226.0</ele><time>2026-05-01T17:50:01.921Z</time></trkpt><trkpt lat="43.2726704" lon="11.3328276"><ele>226.0</ele><time>2026-05-01T17:50:02.915Z</time></trkpt><trkpt lat="43.2728396" lon="11.3329152"><ele>226.0</ele><time>2026-05-01T17:50:03.908Z</time></trkpt><trkpt lat="43.2730092" lon="11.3329979"><ele>226.0</ele><time>2026-05-01T17:50:04.9Z</time></trkpt><trkpt lat="43.2731788" lon="11.3330776"><ele>226.0</ele><time>2026-05-01T17:50:05.896Z</time></trkpt><trkpt lat="43.273353" lon="11.3331514"><ele>228.33333333333331</ele><time>2026-05-01T17:50:06.922Z</time></trkpt><trkpt lat="43.2735266" lon="11.3332192"><ele>230.66666666666669</ele><time>2026-05-01T17:50:07.917Z</time></trkpt><trkpt lat="43.2737021" lon="11.3332777"><ele>233.0</ele><time>2026-05-01T17:50:08.906Z</time></trkpt><trkpt lat="43.2738792" lon="11.3333354"><ele>233.33333333333334</ele><time>2026-05-01T17:50:09.904Z</time></trkpt><trkpt lat="43.2740631" lon="11.3333999"><ele>233.66666666666669</ele><time>2026-05-01T17:50:10.924Z</time></trkpt><trkpt lat="43.274247" lon="11.3334653"><ele>234.0</ele><time>2026-05-01T17:50:11.908Z</time></trkpt><trkpt lat="43.2744444" lon="11.3335227"><ele>234.0</ele><time>2026-05-01T17:50:12.905Z</time></trkpt><trkpt lat="43.2746457" lon="11.3335717"><ele>234.0</ele><time>2026-05-01T17:50:13.91Z</time></trkpt><trkpt lat="43.2748575" lon="11.3336086"><ele>234.0</ele><time>2026-05-01T17:50:14.909Z</time></trkpt><trkpt lat="43.2750655" lon="11.3336242"><ele>231.66666666666669</ele><time>2026-05-01T17:50:15.89Z</time></trkpt><trkpt lat="43.2752663" lon="11.3336486"><ele>229.33333333333334</ele><time>2026-05-01T17:50:16.907Z</time></trkpt><trkpt lat="43.2754667" lon="11.3336557"><ele>227.0</ele><time>2026-05-01T17:50:17.911Z</time></trkpt><trkpt lat="43.275664" lon="11.3336599"><ele>226.0</ele><time>2026-05-01T17:50:18.907Z</time></trkpt><trkpt lat="43.2758629" lon="11.3336651"><ele>225.0</ele><time>2026-05-01T17:50:19.912Z</time></trkpt><trkpt lat="43.2760614" lon="11.333664"><ele>224.0</ele><time>2026-05-01T17:50:20.907Z</time></trkpt><trkpt lat="43.2762625" lon="11.3336524"><ele>223.0</ele><time>2026-05-01T17:50:21.917Z</time></trkpt><trkpt lat="43.2764625" lon="11.3336354"><ele>222.0</ele><time>2026-05-01T17:50:22.911Z</time></trkpt><trkpt lat="43.2766601" lon="11.3336118"><ele>221.0</ele><time>2026-05-01T17:50:23.897Z</time></trkpt><trkpt lat="43.2768594" lon="11.3335841"><ele>221.0</ele><time>2026-05-01T17:50:24.905Z</time></trkpt><trkpt lat="43.2770604" lon="11.3335552"><ele>221.0</ele><time>2026-05-01T17:50:25.92Z</time></trkpt><trkpt lat="43.2772606" lon="11.3335265"><ele>221.0</ele><time>2026-05-01T17:50:26.908Z</time></trkpt><trkpt lat="43.2774598" lon="11.3334972"><ele>217.0</ele><time>2026-05-01T17:50:27.896Z</time></trkpt><trkpt lat="43.2776587" lon="11.333468"><ele>213.0</ele><time>2026-05-01T17:50:28.912Z</time></trkpt><trkpt lat="43.2778529" lon="11.333436"><ele>209.0</ele><time>2026-05-01T17:50:29.89Z</time></trkpt><trkpt lat="43.2780509" lon="11.3334045"><ele>206.33333333333334</ele><time>2026-05-01T17:50:30.914Z</time></trkpt><trkpt lat="43.2782464" lon="11.3333747"><ele>203.66666666666669</ele><time>2026-05-01T17:50:31.918Z</time></trkpt><trkpt lat="43.2784404" lon="11.3333465"><ele>201.0</ele><time>2026-05-01T17:50:32.901Z</time></trkpt><trkpt lat="43.278639" lon="11.3333177"><ele>201.0</ele><time>2026-05-01T17:50:33.928Z</time></trkpt><trkpt lat="43.2788321" lon="11.3332858"><ele>201.0</ele><time>2026-05-01T17:50:34.903Z</time></trkpt><trkpt lat="43.2790294" lon="11.3332543"><ele>201.0</ele><time>2026-05-01T17:50:35.923Z</time></trkpt><trkpt lat="43.2792248" lon="11.3332245"><ele>202.0</ele><time>2026-05-01T17:50:36.931Z</time></trkpt><trkpt lat="43.2794185" lon="11.3331945"><ele>203.0</ele><time>2026-05-01T17:50:37.917Z</time></trkpt><trkpt lat="43.2796107" lon="11.3331637"><ele>204.0</ele><time>2026-05-01T17:50:38.884Z</time></trkpt><trkpt lat="43.2798094" lon="11.333131"><ele>204.33333333333331</ele><time>2026-05-01T17:50:39.926Z</time></trkpt><trkpt lat="43.280003" lon="11.3330986"><ele>204.66666666666666</ele><time>2026-05-01T17:50:40.908Z</time></trkpt><trkpt lat="43.2802004" lon="11.3330655"><ele>205.0</ele><time>2026-05-01T17:50:41.9Z</time></trkpt><trkpt lat="43.2804009" lon="11.3330343"><ele>206.66666666666666</ele><time>2026-05-01T17:50:42.917Z</time></trkpt><trkpt lat="43.2806006" lon="11.333005"><ele>208.33333333333331</ele><time>2026-05-01T17:50:43.905Z</time></trkpt><trkpt lat="43.2808031" lon="11.3329762"><ele>210.0</ele><time>2026-05-01T17:50:44.891Z</time></trkpt><trkpt lat="43.281011" lon="11.3329444"><ele>210.0</ele><time>2026-05-01T17:50:45.934Z</time></trkpt><trkpt lat="43.2812118" lon="11.3329152"><ele>210.0</ele><time>2026-05-01T17:50:46.899Z</time></trkpt><trkpt lat="43.2814165" lon="11.3328864"><ele>210.0</ele><time>2026-05-01T17:50:47.896Z</time></trkpt><trkpt lat="43.2816195" lon="11.3328551"><ele>210.0</ele><time>2026-05-01T17:50:48.907Z</time></trkpt><trkpt lat="43.2818204" lon="11.3328238"><ele>210.0</ele><time>2026-05-01T17:50:49.914Z</time></trkpt><trkpt lat="43.282022" lon="11.3327927"><ele>210.0</ele><time>2026-05-01T17:50:50.913Z</time></trkpt><trkpt lat="43.2822266" lon="11.3327618"><ele>209.33333333333331</ele><time>2026-05-01T17:50:51.922Z</time></trkpt><trkpt lat="43.2824302" lon="11.3327313"><ele>208.66666666666666</ele><time>2026-05-01T17:50:52.919Z</time></trkpt><trkpt lat="43.2826339" lon="11.3327006"><ele>208.0</ele><time>2026-05-01T17:50:53.914Z</time></trkpt><trkpt lat="43.2828377" lon="11.3326692"><ele>208.0</ele><time>2026-05-01T17:50:54.923Z</time></trkpt><trkpt lat="43.2830391" lon="11.332638"><ele>208.0</ele><time>2026-05-01T17:50:55.921Z</time></trkpt><trkpt lat="43.2832385" lon="11.3326069"><ele>208.0</ele><time>2026-05-01T17:50:56.908Z</time></trkpt><trkpt lat="43.2834374" lon="11.3325769"><ele>206.33333333333331</ele><time>2026-05-01T17:50:57.895Z</time></trkpt><trkpt lat="43.2836393" lon="11.3325497"><ele>204.66666666666669</ele><time>2026-05-01T17:50:58.915Z</time></trkpt><trkpt lat="43.2838397" lon="11.3325292"><ele>203.0</ele><time>2026-05-01T17:50:59.916Z</time></trkpt><trkpt lat="43.2840425" lon="11.3325166"><ele>202.33333333333334</ele><time>2026-05-01T17:51:00.931Z</time></trkpt><trkpt lat="43.2842432" lon="11.3325146"><ele>201.66666666666669</ele><time>2026-05-01T17:51:01.912Z</time></trkpt><trkpt lat="43.2844481" lon="11.3325224"><ele>201.0</ele><time>2026-05-01T17:51:02.933Z</time></trkpt><trkpt lat="43.284648" lon="11.332539"><ele>201.33333333333331</ele><time>2026-05-01T17:51:03.899Z</time></trkpt><trkpt lat="43.2848525" lon="11.3325642"><ele>201.66666666666666</ele><time>2026-05-01T17:51:04.913Z</time></trkpt><trkpt lat="43.2850546" lon="11.3325981"><ele>202.0</ele><time>2026-05-01T17:51:05.928Z</time></trkpt><trkpt lat="43.2852529" lon="11.3326416"><ele>202.0</ele><time>2026-05-01T17:51:06.91Z</time></trkpt><trkpt lat="43.2854522" lon="11.3326977"><ele>202.0</ele><time>2026-05-01T17:51:07.909Z</time></trkpt><trkpt lat="43.2856509" lon="11.332761"><ele>202.0</ele><time>2026-05-01T17:51:08.915Z</time></trkpt><trkpt lat="43.2858485" lon="11.3328294"><ele>202.33333333333331</ele><time>2026-05-01T17:51:09.919Z</time></trkpt><trkpt lat="43.2860436" lon="11.3329067"><ele>202.66666666666669</ele><time>2026-05-01T17:51:10.916Z</time></trkpt><trkpt lat="43.2862354" lon="11.3329938"><ele>203.0</ele><time>2026-05-01T17:51:11.913Z</time></trkpt><trkpt lat="43.2864222" lon="11.3330886"><ele>204.0</ele><time>2026-05-01T17:51:12.91Z</time></trkpt><trkpt lat="43.2866034" lon="11.3331898"><ele>205.0</ele><time>2026-05-01T17:51:13.917Z</time></trkpt><trkpt lat="43.2867783" lon="11.3332949"><ele>206.0</ele><time>2026-05-01T17:51:14.905Z</time></trkpt><trkpt lat="43.286951" lon="11.3334048"><ele>206.0</ele><time>2026-05-01T17:51:15.909Z</time></trkpt><trkpt lat="43.2871164" lon="11.3335167"><ele>206.0</ele><time>2026-05-01T17:51:16.884Z</time></trkpt><trkpt lat="43.2872811" lon="11.333634"><ele>206.0</ele><time>2026-05-01T17:51:17.892Z</time></trkpt><trkpt lat="43.2874472" lon="11.3337531"><ele>205.66666666666669</ele><time>2026-05-01T17:51:18.905Z</time></trkpt><trkpt lat="43.2876163" lon="11.3338731"><ele>205.33333333333331</ele><time>2026-05-01T17:51:19.912Z</time></trkpt><trkpt lat="43.2877867" lon="11.3339951"><ele>205.0</ele><time>2026-05-01T17:51:20.905Z</time></trkpt><trkpt lat="43.2879596" lon="11.3341207"><ele>204.33333333333331</ele><time>2026-05-01T17:51:21.908Z</time></trkpt><trkpt lat="43.2881333" lon="11.33425"><ele>203.66666666666669</ele><time>2026-05-01T17:51:22.911Z</time></trkpt><trkpt lat="43.2883075" lon="11.3343804"><ele>203.0</ele><time>2026-05-01T17:51:23.912Z</time></trkpt><trkpt lat="43.2884814" lon="11.3345126"><ele>203.0</ele><time>2026-05-01T17:51:24.901Z</time></trkpt><trkpt lat="43.288656" lon="11.3346478"><ele>203.0</ele><time>2026-05-01T17:51:25.926Z</time></trkpt><trkpt lat="43.2888293" lon="11.3347803"><ele>203.0</ele><time>2026-05-01T17:51:26.926Z</time></trkpt><trkpt lat="43.2890035" lon="11.3349116"><ele>203.66666666666669</ele><time>2026-05-01T17:51:27.917Z</time></trkpt><trkpt lat="43.2891776" lon="11.3350361"><ele>204.33333333333331</ele><time>2026-05-01T17:51:28.916Z</time></trkpt><trkpt lat="43.2893563" lon="11.335165"><ele>205.0</ele><time>2026-05-01T17:51:29.934Z</time></trkpt><trkpt lat="43.2895326" lon="11.335291"><ele>205.0</ele><time>2026-05-01T17:51:30.931Z</time></trkpt><trkpt lat="43.2897088" lon="11.3354147"><ele>205.0</ele><time>2026-05-01T17:51:31.897Z</time></trkpt><trkpt lat="43.2898891" lon="11.3355359"><ele>205.0</ele><time>2026-05-01T17:51:32.899Z</time></trkpt><trkpt lat="43.2900712" lon="11.3356495"><ele>205.33333333333331</ele><time>2026-05-01T17:51:33.915Z</time></trkpt><trkpt lat="43.2902548" lon="11.3357504"><ele>205.66666666666669</ele><time>2026-05-01T17:51:34.905Z</time></trkpt><trkpt lat="43.2904431" lon="11.3358406"><ele>206.0</ele><time>2026-05-01T17:51:35.901Z</time></trkpt><trkpt lat="43.290634" lon="11.335921"><ele>206.33333333333334</ele><time>2026-05-01T17:51:36.904Z</time></trkpt><trkpt lat="43.2908283" lon="11.3359936"><ele>206.66666666666669</ele><time>2026-05-01T17:51:37.914Z</time></trkpt><trkpt lat="43.2910259" lon="11.3360506"><ele>207.0</ele><time>2026-05-01T17:51:38.903Z</time></trkpt><trkpt lat="43.2912279" lon="11.3360994"><ele>208.0</ele><time>2026-05-01T17:51:39.897Z</time></trkpt><trkpt lat="43.2914303" lon="11.3361407"><ele>209.0</ele><time>2026-05-01T17:51:40.912Z</time></trkpt><trkpt lat="43.2916282" lon="11.336172"><ele>210.0</ele><time>2026-05-01T17:51:41.913Z</time></trkpt><trkpt lat="43.2918201" lon="11.3361945"><ele>210.0</ele><time>2026-05-01T17:51:42.917Z</time></trkpt><trkpt lat="43.2920016" lon="11.3361996"><ele>210.0</ele><time>2026-05-01T17:51:43.899Z</time></trkpt><trkpt lat="43.292181" lon="11.3362012"><ele>210.0</ele><time>2026-05-01T17:51:44.895Z</time></trkpt><trkpt lat="43.2923606" lon="11.3361985"><ele>210.33333333333331</ele><time>2026-05-01T17:51:45.903Z</time></trkpt><trkpt lat="43.2925403" lon="11.3361865"><ele>210.66666666666666</ele><time>2026-05-01T17:51:46.916Z</time></trkpt><trkpt lat="43.2927192" lon="11.3361678"><ele>211.0</ele><time>2026-05-01T17:51:47.919Z</time></trkpt><trkpt lat="43.2928963" lon="11.3361439"><ele>211.0</ele><time>2026-05-01T17:51:48.901Z</time></trkpt><trkpt lat="43.2930701" lon="11.3361154"><ele>211.0</ele><time>2026-05-01T17:51:49.901Z</time></trkpt><trkpt lat="43.2932382" lon="11.3360844"><ele>211.0</ele><time>2026-05-01T17:51:50.912Z</time></trkpt><trkpt lat="43.2934007" lon="11.3360491"><ele>212.0</ele><time>2026-05-01T17:51:51.919Z</time></trkpt><trkpt lat="43.2935623" lon="11.3360099"><ele>213.0</ele><time>2026-05-01T17:51:52.91Z</time></trkpt><trkpt lat="43.2937248" lon="11.3359704"><ele>214.0</ele><time>2026-05-01T17:51:53.923Z</time></trkpt><trkpt lat="43.2938866" lon="11.3359365"><ele>212.66666666666666</ele><time>2026-05-01T17:51:54.905Z</time></trkpt><trkpt lat="43.2940535" lon="11.3359123"><ele>211.33333333333331</ele><time>2026-05-01T17:51:55.911Z</time></trkpt><trkpt lat="43.2942221" lon="11.3359038"><ele>210.0</ele><time>2026-05-01T17:51:56.925Z</time></trkpt><trkpt lat="43.2943912" lon="11.3359128"><ele>210.0</ele><time>2026-05-01T17:51:57.908Z</time></trkpt><trkpt lat="43.2945633" lon="11.3359376"><ele>210.0</ele><time>2026-05-01T17:51:58.896Z</time></trkpt><trkpt lat="43.2947394" lon="11.3359763"><ele>210.0</ele><time>2026-05-01T17:51:59.921Z</time></trkpt><trkpt lat="43.2949127" lon="11.3360297"><ele>210.66666666666669</ele><time>2026-05-01T17:52:00.909Z</time></trkpt><trkpt lat="43.2950858" lon="11.3360967"><ele>211.33333333333334</ele><time>2026-05-01T17:52:01.906Z</time></trkpt><trkpt lat="43.2952559" lon="11.3361797"><ele>212.0</ele><time>2026-05-01T17:52:02.905Z</time></trkpt><trkpt lat="43.2954224" lon="11.3362805"><ele>212.33333333333334</ele><time>2026-05-01T17:52:03.922Z</time></trkpt><trkpt lat="43.2955822" lon="11.336397"><ele>212.66666666666669</ele><time>2026-05-01T17:52:04.909Z</time></trkpt><trkpt lat="43.2957382" lon="11.3365313"><ele>213.0</ele><time>2026-05-01T17:52:05.91Z</time></trkpt><trkpt lat="43.295889" lon="11.3366772"><ele>214.33333333333331</ele><time>2026-05-01T17:52:06.925Z</time></trkpt><trkpt lat="43.2960353" lon="11.3368271"><ele>215.66666666666666</ele><time>2026-05-01T17:52:07.91Z</time></trkpt><trkpt lat="43.2961814" lon="11.3369797"><ele>217.0</ele><time>2026-05-01T17:52:08.901Z</time></trkpt><trkpt lat="43.2963274" lon="11.3371324"><ele>220.0</ele><time>2026-05-01T17:52:09.909Z</time></trkpt><trkpt lat="43.2964683" lon="11.3372873"><ele>223.0</ele><time>2026-05-01T17:52:10.904Z</time></trkpt><trkpt lat="43.2966036" lon="11.3374506"><ele>226.0</ele><time>2026-05-01T17:52:11.913Z</time></trkpt><trkpt lat="43.2967287" lon="11.3376239"><ele>226.0</ele><time>2026-05-01T17:52:12.9Z</time></trkpt><trkpt lat="43.2968453" lon="11.3378093"><ele>226.0</ele><time>2026-05-01T17:52:13.902Z</time></trkpt><trkpt lat="43.2969619" lon="11.3379994"><ele>226.0</ele><time>2026-05-01T17:52:14.91Z</time></trkpt><trkpt lat="43.2970755" lon="11.3381918"><ele>227.66666666666666</ele><time>2026-05-01T17:52:15.906Z</time></trkpt><trkpt lat="43.297183" lon="11.3383849"><ele>229.33333333333331</ele><time>2026-05-01T17:52:16.885Z</time></trkpt><trkpt lat="43.2972893" lon="11.3385837"><ele>231.0</ele><time>2026-05-01T17:52:17.886Z</time></trkpt><trkpt lat="43.2973952" lon="11.3387805"><ele>233.0</ele><time>2026-05-01T17:52:18.888Z</time></trkpt><trkpt lat="43.2975004" lon="11.3389723"><ele>235.0</ele><time>2026-05-01T17:52:19.888Z</time></trkpt><trkpt lat="43.2976044" lon="11.3391616"><ele>237.0</ele><time>2026-05-01T17:52:20.889Z</time></trkpt><trkpt lat="43.2976984" lon="11.3393574"><ele>237.0</ele><time>2026-05-01T17:52:21.9Z</time></trkpt><trkpt lat="43.2977811" lon="11.3395795"><ele>237.0</ele><time>2026-05-01T17:52:22.923Z</time></trkpt><trkpt lat="43.2978539" lon="11.3398067"><ele>237.0</ele><time>2026-05-01T17:52:23.899Z</time></trkpt><trkpt lat="43.2979169" lon="11.3400357"><ele>235.0</ele><time>2026-05-01T17:52:24.902Z</time></trkpt><trkpt lat="43.2979761" lon="11.340286"><ele>233.0</ele><time>2026-05-01T17:52:25.903Z</time></trkpt><trkpt lat="43.2980472" lon="11.3405227"><ele>231.0</ele><time>2026-05-01T17:52:26.915Z</time></trkpt><trkpt lat="43.2981211" lon="11.3407524"><ele>229.33333333333331</ele><time>2026-05-01T17:52:27.908Z</time></trkpt><trkpt lat="43.2981955" lon="11.340976"><ele>227.66666666666666</ele><time>2026-05-01T17:52:28.9Z</time></trkpt><trkpt lat="43.2982708" lon="11.3412028"><ele>226.0</ele><time>2026-05-01T17:52:29.913Z</time></trkpt><trkpt lat="43.2983456" lon="11.3414304"><ele>225.33333333333331</ele><time>2026-05-01T17:52:30.905Z</time></trkpt><trkpt lat="43.2984167" lon="11.3416594"><ele>224.66666666666669</ele><time>2026-05-01T17:52:31.915Z</time></trkpt><trkpt lat="43.2984849" lon="11.3418904"><ele>224.0</ele><time>2026-05-01T17:52:32.913Z</time></trkpt><trkpt lat="43.2985522" lon="11.3421218"><ele>221.66666666666669</ele><time>2026-05-01T17:52:33.913Z</time></trkpt><trkpt lat="43.2986183" lon="11.342356"><ele>219.33333333333331</ele><time>2026-05-01T17:52:34.914Z</time></trkpt><trkpt lat="43.2986796" lon="11.3425903"><ele>217.0</ele><time>2026-05-01T17:52:35.896Z</time></trkpt><trkpt lat="43.2987353" lon="11.3428298"><ele>216.0</ele><time>2026-05-01T17:52:36.918Z</time></trkpt><trkpt lat="43.298789" lon="11.3430657"><ele>215.0</ele><time>2026-05-01T17:52:37.894Z</time></trkpt><trkpt lat="43.2988418" lon="11.3433048"><ele>214.0</ele><time>2026-05-01T17:52:38.897Z</time></trkpt><trkpt lat="43.2988935" lon="11.3435435"><ele>213.0</ele><time>2026-05-01T17:52:39.904Z</time></trkpt><trkpt lat="43.2989396" lon="11.343783"><ele>212.0</ele><time>2026-05-01T17:52:40.905Z</time></trkpt><trkpt lat="43.2989823" lon="11.3440265"><ele>211.0</ele><time>2026-05-01T17:52:41.905Z</time></trkpt><trkpt lat="43.2990239" lon="11.3442724"><ele>211.0</ele><time>2026-05-01T17:52:42.892Z</time></trkpt><trkpt lat="43.2990658" lon="11.344527"><ele>211.0</ele><time>2026-05-01T17:52:43.911Z</time></trkpt><trkpt lat="43.2991069" lon="11.3447855"><ele>211.0</ele><time>2026-05-01T17:52:44.918Z</time></trkpt><trkpt lat="43.2991486" lon="11.3450471"><ele>211.0</ele><time>2026-05-01T17:52:45.911Z</time></trkpt><trkpt lat="43.2991918" lon="11.3453138"><ele>211.0</ele><time>2026-05-01T17:52:46.909Z</time></trkpt><trkpt lat="43.2992344" lon="11.3455813"><ele>211.0</ele><time>2026-05-01T17:52:47.917Z</time></trkpt><trkpt lat="43.2992755" lon="11.3458464"><ele>210.66666666666666</ele><time>2026-05-01T17:52:48.903Z</time></trkpt><trkpt lat="43.2993155" lon="11.3461141"><ele>210.33333333333331</ele><time>2026-05-01T17:52:49.911Z</time></trkpt><trkpt lat="43.2993566" lon="11.3463809"><ele>210.0</ele><time>2026-05-01T17:52:50.917Z</time></trkpt><trkpt lat="43.2993988" lon="11.3466465"><ele>208.33333333333331</ele><time>2026-05-01T17:52:51.915Z</time></trkpt><trkpt lat="43.2994407" lon="11.3469126"><ele>206.66666666666666</ele><time>2026-05-01T17:52:52.909Z</time></trkpt><trkpt lat="43.299482" lon="11.3471815"><ele>205.0</ele><time>2026-05-01T17:52:53.916Z</time></trkpt><trkpt lat="43.2995228" lon="11.3474518"><ele>205.0</ele><time>2026-05-01T17:52:54.917Z</time></trkpt><trkpt lat="43.2995652" lon="11.3477221"><ele>205.0</ele><time>2026-05-01T17:52:55.916Z</time></trkpt><trkpt lat="43.2996096" lon="11.3479918"><ele>205.0</ele><time>2026-05-01T17:52:56.902Z</time></trkpt><trkpt lat="43.299654" lon="11.348266"><ele>204.0</ele><time>2026-05-01T17:52:57.92Z</time></trkpt><trkpt lat="43.2996962" lon="11.3485368"><ele>203.0</ele><time>2026-05-01T17:52:58.894Z</time></trkpt><trkpt lat="43.2997399" lon="11.3488187"><ele>202.0</ele><time>2026-05-01T17:52:59.929Z</time></trkpt><trkpt lat="43.2997834" lon="11.3490961"><ele>204.0</ele><time>2026-05-01T17:53:00.915Z</time></trkpt><trkpt lat="43.2998279" lon="11.3493786"><ele>206.0</ele><time>2026-05-01T17:53:01.917Z</time></trkpt><trkpt lat="43.2998726" lon="11.3496619"><ele>208.0</ele><time>2026-05-01T17:53:02.916Z</time></trkpt><trkpt lat="43.2999174" lon="11.3499462"><ele>208.0</ele><time>2026-05-01T17:53:03.922Z</time></trkpt><trkpt lat="43.2999617" lon="11.3502292"><ele>208.0</ele><time>2026-05-01T17:53:04.909Z</time></trkpt><trkpt lat="43.3000067" lon="11.350515"><ele>208.0</ele><time>2026-05-01T17:53:05.903Z</time></trkpt><trkpt lat="43.3000516" lon="11.3508019"><ele>206.0</ele><time>2026-05-01T17:53:06.909Z</time></trkpt><trkpt lat="43.3000966" lon="11.3510883"><ele>204.0</ele><time>2026-05-01T17:53:07.913Z</time></trkpt><trkpt lat="43.3001418" lon="11.3513754"><ele>202.0</ele><time>2026-05-01T17:53:08.913Z</time></trkpt><trkpt lat="43.3001871" lon="11.3516629"><ele>201.33333333333331</ele><time>2026-05-01T17:53:09.923Z</time></trkpt><trkpt lat="43.3002319" lon="11.3519453"><ele>200.66666666666669</ele><time>2026-05-01T17:53:10.912Z</time></trkpt><trkpt lat="43.3002767" lon="11.3522283"><ele>200.0</ele><time>2026-05-01T17:53:11.918Z</time></trkpt><trkpt lat="43.3003206" lon="11.3525083"><ele>199.33333333333334</ele><time>2026-05-01T17:53:12.922Z</time></trkpt><trkpt lat="43.3003625" lon="11.3527864"><ele>198.66666666666669</ele><time>2026-05-01T17:53:13.924Z</time></trkpt><trkpt lat="43.3004047" lon="11.3530612"><ele>198.0</ele><time>2026-05-01T17:53:14.918Z</time></trkpt><trkpt lat="43.3004483" lon="11.3533348"><ele>197.66666666666669</ele><time>2026-05-01T17:53:15.916Z</time></trkpt><trkpt lat="43.3004906" lon="11.3536071"><ele>197.33333333333334</ele><time>2026-05-01T17:53:16.921Z</time></trkpt><trkpt lat="43.3005324" lon="11.3538751"><ele>197.0</ele><time>2026-05-01T17:53:17.891Z</time></trkpt><trkpt lat="43.300575" lon="11.3541493"><ele>200.0</ele><time>2026-05-01T17:53:18.917Z</time></trkpt><trkpt lat="43.3006155" lon="11.3544179"><ele>203.0</ele><time>2026-05-01T17:53:19.911Z</time></trkpt><trkpt lat="43.3006535" lon="11.3546888"><ele>206.0</ele><time>2026-05-01T17:53:20.907Z</time></trkpt><trkpt lat="43.3006875" lon="11.3549616"><ele>206.33333333333334</ele><time>2026-05-01T17:53:21.894Z</time></trkpt><trkpt lat="43.3007159" lon="11.3552414"><ele>206.66666666666669</ele><time>2026-05-01T17:53:22.917Z</time></trkpt><trkpt lat="43.3007341" lon="11.3555191"><ele>207.0</ele><time>2026-05-01T17:53:23.899Z</time></trkpt><trkpt lat="43.3007421" lon="11.3558024"><ele>207.0</ele><time>2026-05-01T17:53:24.896Z</time></trkpt><trkpt lat="43.3007423" lon="11.3560889"><ele>207.0</ele><time>2026-05-01T17:53:25.913Z</time></trkpt><trkpt lat="43.3007327" lon="11.3563734"><ele>207.0</ele><time>2026-05-01T17:53:26.907Z</time></trkpt><trkpt lat="43.3007154" lon="11.3566592"><ele>206.0</ele><time>2026-05-01T17:53:27.899Z</time></trkpt><trkpt lat="43.3006904" lon="11.3569483"><ele>205.0</ele><time>2026-05-01T17:53:28.903Z</time></trkpt><trkpt lat="43.3006586" lon="11.3572383"><ele>204.0</ele><time>2026-05-01T17:53:29.917Z</time></trkpt><trkpt lat="43.3006197" lon="11.3575266"><ele>201.33333333333331</ele><time>2026-05-01T17:53:30.933Z</time></trkpt><trkpt lat="43.3005741" lon="11.357805"><ele>198.66666666666666</ele><time>2026-05-01T17:53:31.897Z</time></trkpt><trkpt lat="43.300519" lon="11.3580843"><ele>196.0</ele><time>2026-05-01T17:53:32.903Z</time></trkpt><trkpt lat="43.3004543" lon="11.3583564"><ele>196.0</ele><time>2026-05-01T17:53:33.895Z</time></trkpt><trkpt lat="43.3003819" lon="11.3586268"><ele>196.0</ele><time>2026-05-01T17:53:34.89Z</time></trkpt><trkpt lat="43.3003058" lon="11.3588991"><ele>196.0</ele><time>2026-05-01T17:53:35.919Z</time></trkpt><trkpt lat="43.3002271" lon="11.3591637"><ele>197.0</ele><time>2026-05-01T17:53:36.915Z</time></trkpt><trkpt lat="43.3001449" lon="11.3594251"><ele>198.0</ele><time>2026-05-01T17:53:37.897Z</time></trkpt><trkpt lat="43.3000629" lon="11.3596891"><ele>199.0</ele><time>2026-05-01T17:53:38.914Z</time></trkpt><trkpt lat="43.2999827" lon="11.3599485"><ele>199.0</ele><time>2026-05-01T17:53:39.915Z</time></trkpt><trkpt lat="43.2999042" lon="11.3602022"><ele>199.0</ele><time>2026-05-01T17:53:40.887Z</time></trkpt><trkpt lat="43.2998251" lon="11.3604584"><ele>199.0</ele><time>2026-05-01T17:53:41.916Z</time></trkpt><trkpt lat="43.2997499" lon="11.3607034"><ele>199.0</ele><time>2026-05-01T17:53:42.89Z</time></trkpt><trkpt lat="43.2996732" lon="11.3609516"><ele>199.0</ele><time>2026-05-01T17:53:43.907Z</time></trkpt><trkpt lat="43.2995971" lon="11.3611957"><ele>199.0</ele><time>2026-05-01T17:53:44.906Z</time></trkpt><trkpt lat="43.2995251" lon="11.3614378"><ele>199.33333333333331</ele><time>2026-05-01T17:53:45.912Z</time></trkpt><trkpt lat="43.2994556" lon="11.3616722"><ele>199.66666666666669</ele><time>2026-05-01T17:53:46.903Z</time></trkpt><trkpt lat="43.2993884" lon="11.3619024"><ele>200.0</ele><time>2026-05-01T17:53:47.913Z</time></trkpt><trkpt lat="43.2993243" lon="11.3621297"><ele>200.33333333333334</ele><time>2026-05-01T17:53:48.92Z</time></trkpt><trkpt lat="43.2992622" lon="11.3623564"><ele>200.66666666666669</ele><time>2026-05-01T17:53:49.895Z</time></trkpt><trkpt lat="43.2992037" lon="11.3625922"><ele>201.0</ele><time>2026-05-01T17:53:50.908Z</time></trkpt><trkpt lat="43.2991513" lon="11.3628306"><ele>203.0</ele><time>2026-05-01T17:53:51.913Z</time></trkpt><trkpt lat="43.2991026" lon="11.3630729"><ele>205.0</ele><time>2026-05-01T17:53:52.918Z</time></trkpt><trkpt lat="43.2990554" lon="11.3633157"><ele>207.0</ele><time>2026-05-01T17:53:53.908Z</time></trkpt><trkpt lat="43.2990091" lon="11.3635609"><ele>207.0</ele><time>2026-05-01T17:53:54.916Z</time></trkpt><trkpt lat="43.2989676" lon="11.3638056"><ele>207.0</ele><time>2026-05-01T17:53:55.912Z</time></trkpt><trkpt lat="43.2989322" lon="11.3640514"><ele>207.0</ele><time>2026-05-01T17:53:56.908Z</time></trkpt><trkpt lat="43.2989011" lon="11.3642949"><ele>207.33333333333331</ele><time>2026-05-01T17:53:57.91Z</time></trkpt><trkpt lat="43.2988755" lon="11.3645327"><ele>207.66666666666666</ele><time>2026-05-01T17:53:58.894Z</time></trkpt><trkpt lat="43.2988525" lon="11.3647719"><ele>208.0</ele><time>2026-05-01T17:53:59.911Z</time></trkpt><trkpt lat="43.2988319" lon="11.36501"><ele>208.66666666666666</ele><time>2026-05-01T17:54:00.899Z</time></trkpt><trkpt lat="43.2988129" lon="11.3652536"><ele>209.33333333333331</ele><time>2026-05-01T17:54:01.915Z</time></trkpt><trkpt lat="43.2987966" lon="11.3654966"><ele>210.0</ele><time>2026-05-01T17:54:02.905Z</time></trkpt><trkpt lat="43.2987852" lon="11.3657433"><ele>212.0</ele><time>2026-05-01T17:54:03.926Z</time></trkpt><trkpt lat="43.2987781" lon="11.36598"><ele>214.0</ele><time>2026-05-01T17:54:04.902Z</time></trkpt><trkpt lat="43.2987747" lon="11.3662115"><ele>216.0</ele><time>2026-05-01T17:54:05.921Z</time></trkpt><trkpt lat="43.2987749" lon="11.3664259"><ele>218.66666666666669</ele><time>2026-05-01T17:54:06.892Z</time></trkpt><trkpt lat="43.2987768" lon="11.3666379"><ele>221.33333333333334</ele><time>2026-05-01T17:54:07.899Z</time></trkpt><trkpt lat="43.2987801" lon="11.3668438"><ele>224.0</ele><time>2026-05-01T17:54:08.89Z</time></trkpt><trkpt lat="43.2987935" lon="11.3686513"><ele>226.0</ele><time>2026-05-01T17:54:17.896Z</time></trkpt><trkpt lat="43.2987688" lon="11.3688596"><ele>228.0</ele><time>2026-05-01T17:54:18.896Z</time></trkpt><trkpt lat="43.2987576" lon="11.369089"><ele>230.0</ele><time>2026-05-01T17:54:19.898Z</time></trkpt><trkpt lat="43.2987624" lon="11.3693352"><ele>230.0</ele><time>2026-05-01T17:54:20.895Z</time></trkpt><trkpt lat="43.2987783" lon="11.3696213"><ele>230.0</ele><time>2026-05-01T17:54:21.897Z</time></trkpt><trkpt lat="43.2987735" lon="11.3698717"><ele>230.0</ele><time>2026-05-01T17:54:22.913Z</time></trkpt><trkpt lat="43.2987639" lon="11.3701077"><ele>227.33333333333334</ele><time>2026-05-01T17:54:23.902Z</time></trkpt><trkpt lat="43.2987511" lon="11.3703393"><ele>224.66666666666669</ele><time>2026-05-01T17:54:24.89Z</time></trkpt><trkpt lat="43.2987414" lon="11.3705692"><ele>222.0</ele><time>2026-05-01T17:54:25.912Z</time></trkpt><trkpt lat="43.2987325" lon="11.3708008"><ele>219.0</ele><time>2026-05-01T17:54:26.911Z</time></trkpt><trkpt lat="43.2987232" lon="11.3710304"><ele>216.0</ele><time>2026-05-01T17:54:27.907Z</time></trkpt><trkpt lat="43.2987173" lon="11.3712562"><ele>213.0</ele><time>2026-05-01T17:54:28.893Z</time></trkpt><trkpt lat="43.2987192" lon="11.3714833"><ele>212.33333333333331</ele><time>2026-05-01T17:54:29.911Z</time></trkpt><trkpt lat="43.2987251" lon="11.3717062"><ele>211.66666666666666</ele><time>2026-05-01T17:54:30.923Z</time></trkpt><trkpt lat="43.2987412" lon="11.3719273"><ele>211.0</ele><time>2026-05-01T17:54:31.915Z</time></trkpt><trkpt lat="43.2987676" lon="11.3721478"><ele>210.33333333333331</ele><time>2026-05-01T17:54:32.932Z</time></trkpt><trkpt lat="43.2987975" lon="11.372364"><ele>209.66666666666669</ele><time>2026-05-01T17:54:33.919Z</time></trkpt><trkpt lat="43.2988314" lon="11.3725812"><ele>209.0</ele><time>2026-05-01T17:54:34.916Z</time></trkpt><trkpt lat="43.2988701" lon="11.3727951"><ele>209.0</ele><time>2026-05-01T17:54:35.898Z</time></trkpt><trkpt lat="43.2989166" lon="11.3730111"><ele>209.0</ele><time>2026-05-01T17:54:36.92Z</time></trkpt><trkpt lat="43.2989661" lon="11.3732256"><ele>209.0</ele><time>2026-05-01T17:54:37.917Z</time></trkpt><trkpt lat="43.2990222" lon="11.3734417"><ele>207.33333333333334</ele><time>2026-05-01T17:54:38.92Z</time></trkpt><trkpt lat="43.2990847" lon="11.3736569"><ele>205.66666666666669</ele><time>2026-05-01T17:54:39.923Z</time></trkpt><trkpt lat="43.299154" lon="11.3738677"><ele>204.0</ele><time>2026-05-01T17:54:40.91Z</time></trkpt><trkpt lat="43.2992319" lon="11.3740764"><ele>202.0</ele><time>2026-05-01T17:54:41.913Z</time></trkpt><trkpt lat="43.2993174" lon="11.3742841"><ele>200.0</ele><time>2026-05-01T17:54:42.906Z</time></trkpt><trkpt lat="43.2994086" lon="11.3744931"><ele>198.0</ele><time>2026-05-01T17:54:43.918Z</time></trkpt><trkpt lat="43.2995054" lon="11.3746986"><ele>197.33333333333331</ele><time>2026-05-01T17:54:44.919Z</time></trkpt><trkpt lat="43.2996092" lon="11.3749017"><ele>196.66666666666666</ele><time>2026-05-01T17:54:45.912Z</time></trkpt><trkpt lat="43.29972" lon="11.3751015"><ele>196.0</ele><time>2026-05-01T17:54:46.905Z</time></trkpt><trkpt lat="43.2998364" lon="11.3753"><ele>196.0</ele><time>2026-05-01T17:54:47.938Z</time></trkpt><trkpt lat="43.299951" lon="11.3754888"><ele>196.0</ele><time>2026-05-01T17:54:48.915Z</time></trkpt><trkpt lat="43.3000679" lon="11.3756701"><ele>196.0</ele><time>2026-05-01T17:54:49.922Z</time></trkpt><trkpt lat="43.3001823" lon="11.3758415"><ele>196.66666666666666</ele><time>2026-05-01T17:54:50.921Z</time></trkpt><trkpt lat="43.3002945" lon="11.3760078"><ele>197.33333333333331</ele><time>2026-05-01T17:54:51.898Z</time></trkpt><trkpt lat="43.3004082" lon="11.3761734"><ele>198.0</ele><time>2026-05-01T17:54:52.911Z</time></trkpt><trkpt lat="43.3005184" lon="11.3763352"><ele>198.0</ele><time>2026-05-01T17:54:53.89Z</time></trkpt><trkpt lat="43.3006308" lon="11.3765022"><ele>198.0</ele><time>2026-05-01T17:54:54.926Z</time></trkpt><trkpt lat="43.3007371" lon="11.3766647"><ele>198.0</ele><time>2026-05-01T17:54:55.903Z</time></trkpt><trkpt lat="43.300843" lon="11.3768273"><ele>198.0</ele><time>2026-05-01T17:54:56.921Z</time></trkpt><trkpt lat="43.3009414" lon="11.3769865"><ele>198.0</ele><time>2026-05-01T17:54:57.903Z</time></trkpt><trkpt lat="43.3010336" lon="11.3771534"><ele>198.0</ele><time>2026-05-01T17:54:58.915Z</time></trkpt><trkpt lat="43.3011151" lon="11.377331"><ele>197.0</ele><time>2026-05-01T17:54:59.918Z</time></trkpt><trkpt lat="43.3011872" lon="11.3775206"><ele>196.0</ele><time>2026-05-01T17:55:00.926Z</time></trkpt><trkpt lat="43.3012504" lon="11.3777174"><ele>195.0</ele><time>2026-05-01T17:55:01.922Z</time></trkpt><trkpt lat="43.3013037" lon="11.3779191"><ele>194.33333333333331</ele><time>2026-05-01T17:55:02.928Z</time></trkpt><trkpt lat="43.3013445" lon="11.3781194"><ele>193.66666666666666</ele><time>2026-05-01T17:55:03.912Z</time></trkpt><trkpt lat="43.301373" lon="11.3783241"><ele>193.0</ele><time>2026-05-01T17:55:04.9Z</time></trkpt><trkpt lat="43.3013904" lon="11.3785379"><ele>193.0</ele><time>2026-05-01T17:55:05.915Z</time></trkpt><trkpt lat="43.3013985" lon="11.3787553"><ele>193.0</ele><time>2026-05-01T17:55:06.896Z</time></trkpt><trkpt lat="43.3014029" lon="11.3789835"><ele>193.0</ele><time>2026-05-01T17:55:07.914Z</time></trkpt><trkpt lat="43.3014089" lon="11.379215"><ele>193.66666666666666</ele><time>2026-05-01T17:55:08.909Z</time></trkpt><trkpt lat="43.3014188" lon="11.3794546"><ele>194.33333333333331</ele><time>2026-05-01T17:55:09.928Z</time></trkpt><trkpt lat="43.3014314" lon="11.3796955"><ele>195.0</ele><time>2026-05-01T17:55:10.914Z</time></trkpt><trkpt lat="43.3014447" lon="11.3799421"><ele>196.0</ele><time>2026-05-01T17:55:11.899Z</time></trkpt><trkpt lat="43.3014567" lon="11.3801974"><ele>197.0</ele><time>2026-05-01T17:55:12.92Z</time></trkpt><trkpt lat="43.3014676" lon="11.3804536"><ele>198.0</ele><time>2026-05-01T17:55:13.923Z</time></trkpt><trkpt lat="43.3014773" lon="11.3807132"><ele>198.33333333333331</ele><time>2026-05-01T17:55:14.91Z</time></trkpt><trkpt lat="43.301484" lon="11.3809797"><ele>198.66666666666666</ele><time>2026-05-01T17:55:15.915Z</time></trkpt><trkpt lat="43.3014894" lon="11.3812434"><ele>199.0</ele><time>2026-05-01T17:55:16.903Z</time></trkpt><trkpt lat="43.3014965" lon="11.3815186"><ele>199.0</ele><time>2026-05-01T17:55:17.937Z</time></trkpt><trkpt lat="43.3014873" lon="11.3817764"><ele>199.0</ele><time>2026-05-01T17:55:18.911Z</time></trkpt><trkpt lat="43.3014755" lon="11.3820377"><ele>199.0</ele><time>2026-05-01T17:55:19.923Z</time></trkpt><trkpt lat="43.3014465" lon="11.3822915"><ele>197.33333333333331</ele><time>2026-05-01T17:55:20.907Z</time></trkpt><trkpt lat="43.3014012" lon="11.3825423"><ele>195.66666666666669</ele><time>2026-05-01T17:55:21.913Z</time></trkpt><trkpt lat="43.3013383" lon="11.3827914"><ele>194.0</ele><time>2026-05-01T17:55:22.932Z</time></trkpt><trkpt lat="43.3012617" lon="11.3830349"><ele>192.66666666666669</ele><time>2026-05-01T17:55:23.913Z</time></trkpt><trkpt lat="43.3011708" lon="11.3832795"><ele>191.33333333333334</ele><time>2026-05-01T17:55:24.906Z</time></trkpt><trkpt lat="43.3010627" lon="11.3835221"><ele>190.0</ele><time>2026-05-01T17:55:25.917Z</time></trkpt><trkpt lat="43.3009421" lon="11.3837559"><ele>189.33333333333334</ele><time>2026-05-01T17:55:26.902Z</time></trkpt><trkpt lat="43.3008057" lon="11.3839866"><ele>188.66666666666666</ele><time>2026-05-01T17:55:27.928Z</time></trkpt><trkpt lat="43.3006622" lon="11.3842075"><ele>188.0</ele><time>2026-05-01T17:55:28.91Z</time></trkpt><trkpt lat="43.3005093" lon="11.3844283"><ele>188.0</ele><time>2026-05-01T17:55:29.918Z</time></trkpt><trkpt lat="43.3003568" lon="11.3846489"><ele>188.0</ele><time>2026-05-01T17:55:30.909Z</time></trkpt><trkpt lat="43.3002041" lon="11.3848719"><ele>188.0</ele><time>2026-05-01T17:55:31.911Z</time></trkpt><trkpt lat="43.3000522" lon="11.3850963"><ele>187.66666666666666</ele><time>2026-05-01T17:55:32.911Z</time></trkpt><trkpt lat="43.2998996" lon="11.3853233"><ele>187.33333333333334</ele><time>2026-05-01T17:55:33.926Z</time></trkpt><trkpt lat="43.29975" lon="11.3855467"><ele>187.0</ele><time>2026-05-01T17:55:34.909Z</time></trkpt><trkpt lat="43.2996022" lon="11.385769"><ele>186.0</ele><time>2026-05-01T17:55:35.916Z</time></trkpt><trkpt lat="43.2994597" lon="11.3859845"><ele>185.0</ele><time>2026-05-01T17:55:36.925Z</time></trkpt><trkpt lat="43.2993182" lon="11.3861967"><ele>184.0</ele><time>2026-05-01T17:55:37.931Z</time></trkpt><trkpt lat="43.2991775" lon="11.3864063"><ele>184.0</ele><time>2026-05-01T17:55:38.909Z</time></trkpt><trkpt lat="43.2990349" lon="11.3866194"><ele>184.0</ele><time>2026-05-01T17:55:39.924Z</time></trkpt><trkpt lat="43.298895" lon="11.3868303"><ele>184.0</ele><time>2026-05-01T17:55:40.914Z</time></trkpt><trkpt lat="43.2987536" lon="11.3870454"><ele>185.33333333333334</ele><time>2026-05-01T17:55:41.907Z</time></trkpt><trkpt lat="43.2986122" lon="11.3872612"><ele>186.66666666666666</ele><time>2026-05-01T17:55:42.919Z</time></trkpt><trkpt lat="43.2984719" lon="11.3874763"><ele>188.0</ele><time>2026-05-01T17:55:43.909Z</time></trkpt><trkpt lat="43.2983299" lon="11.3876884"><ele>188.0</ele><time>2026-05-01T17:55:44.904Z</time></trkpt><trkpt lat="43.2981864" lon="11.3879013"><ele>188.0</ele><time>2026-05-01T17:55:45.929Z</time></trkpt><trkpt lat="43.2980455" lon="11.3881096"><ele>188.0</ele><time>2026-05-01T17:55:46.9Z</time></trkpt><trkpt lat="43.2979016" lon="11.3883225"><ele>190.66666666666666</ele><time>2026-05-01T17:55:47.887Z</time></trkpt><trkpt lat="43.2977557" lon="11.3885402"><ele>193.33333333333331</ele><time>2026-05-01T17:55:48.909Z</time></trkpt><trkpt lat="43.2976113" lon="11.3887562"><ele>196.0</ele><time>2026-05-01T17:55:49.903Z</time></trkpt><trkpt lat="43.2974652" lon="11.3889736"><ele>197.66666666666666</ele><time>2026-05-01T17:55:50.887Z</time></trkpt><trkpt lat="43.2973163" lon="11.3891954"><ele>199.33333333333331</ele><time>2026-05-01T17:55:51.9Z</time></trkpt><trkpt lat="43.2971675" lon="11.389418"><ele>201.0</ele><time>2026-05-01T17:55:52.9Z</time></trkpt><trkpt lat="43.297018" lon="11.3896425"><ele>202.33333333333331</ele><time>2026-05-01T17:55:53.906Z</time></trkpt><trkpt lat="43.2968689" lon="11.3898658"><ele>203.66666666666666</ele><time>2026-05-01T17:55:54.906Z</time></trkpt><trkpt lat="43.29672" lon="11.3900903"><ele>205.0</ele><time>2026-05-01T17:55:55.914Z</time></trkpt><trkpt lat="43.2965749" lon="11.390315"><ele>204.66666666666666</ele><time>2026-05-01T17:55:56.896Z</time></trkpt><trkpt lat="43.296432" lon="11.3905505"><ele>204.33333333333331</ele><time>2026-05-01T17:55:57.932Z</time></trkpt><trkpt lat="43.2963005" lon="11.3907887"><ele>204.0</ele><time>2026-05-01T17:55:58.91Z</time></trkpt><trkpt lat="43.2961755" lon="11.3910406"><ele>202.66666666666669</ele><time>2026-05-01T17:55:59.928Z</time></trkpt><trkpt lat="43.2960644" lon="11.3912988"><ele>201.33333333333334</ele><time>2026-05-01T17:56:00.911Z</time></trkpt><trkpt lat="43.2959651" lon="11.3915684"><ele>200.0</ele><time>2026-05-01T17:56:01.913Z</time></trkpt><trkpt lat="43.2958793" lon="11.3918457"><ele>198.33333333333334</ele><time>2026-05-01T17:56:02.915Z</time></trkpt><trkpt lat="43.2958076" lon="11.3921291"><ele>196.66666666666669</ele><time>2026-05-01T17:56:03.916Z</time></trkpt><trkpt lat="43.2957518" lon="11.3924195"><ele>195.0</ele><time>2026-05-01T17:56:04.913Z</time></trkpt><trkpt lat="43.2957087" lon="11.3927061"><ele>195.0</ele><time>2026-05-01T17:56:05.91Z</time></trkpt><trkpt lat="43.2956771" lon="11.3930002"><ele>195.0</ele><time>2026-05-01T17:56:06.896Z</time></trkpt><trkpt lat="43.2956581" lon="11.3933078"><ele>195.0</ele><time>2026-05-01T17:56:07.923Z</time></trkpt><trkpt lat="43.2956463" lon="11.3936119"><ele>195.0</ele><time>2026-05-01T17:56:08.919Z</time></trkpt><trkpt lat="43.295639" lon="11.3939212"><ele>195.0</ele><time>2026-05-01T17:56:09.916Z</time></trkpt><trkpt lat="43.2956306" lon="11.3942333"><ele>195.0</ele><time>2026-05-01T17:56:10.915Z</time></trkpt><trkpt lat="43.2956247" lon="11.3945472"><ele>195.0</ele><time>2026-05-01T17:56:11.913Z</time></trkpt><trkpt lat="43.2956156" lon="11.3948605"><ele>195.0</ele><time>2026-05-01T17:56:12.911Z</time></trkpt><trkpt lat="43.2956076" lon="11.3951703"><ele>195.0</ele><time>2026-05-01T17:56:13.905Z</time></trkpt><trkpt lat="43.2956032" lon="11.3954775"><ele>195.0</ele><time>2026-05-01T17:56:14.921Z</time></trkpt><trkpt lat="43.2956037" lon="11.3957811"><ele>196.0</ele><time>2026-05-01T17:56:15.921Z</time></trkpt><trkpt lat="43.2956096" lon="11.3960861"><ele>197.0</ele><time>2026-05-01T17:56:16.917Z</time></trkpt><trkpt lat="43.2956245" lon="11.396391"><ele>198.0</ele><time>2026-05-01T17:56:17.912Z</time></trkpt><trkpt lat="43.2956539" lon="11.3966939"><ele>197.66666666666669</ele><time>2026-05-01T17:56:18.922Z</time></trkpt><trkpt lat="43.2956982" lon="11.39699"><ele>197.33333333333334</ele><time>2026-05-01T17:56:19.899Z</time></trkpt><trkpt lat="43.2957598" lon="11.397286"><ele>197.0</ele><time>2026-05-01T17:56:20.925Z</time></trkpt><trkpt lat="43.295833" lon="11.3975713"><ele>197.0</ele><time>2026-05-01T17:56:21.916Z</time></trkpt><trkpt lat="43.2959201" lon="11.3978521"><ele>197.0</ele><time>2026-05-01T17:56:22.925Z</time></trkpt><trkpt lat="43.2960186" lon="11.398123"><ele>197.0</ele><time>2026-05-01T17:56:23.914Z</time></trkpt><trkpt lat="43.296131" lon="11.3983894"><ele>195.0</ele><time>2026-05-01T17:56:24.919Z</time></trkpt><trkpt lat="43.296256" lon="11.3986462"><ele>193.0</ele><time>2026-05-01T17:56:25.904Z</time></trkpt><trkpt lat="43.2963929" lon="11.3988978"><ele>195.5</ele><time>2026-05-01T17:56:26.893Z</time></trkpt><trkpt lat="43.2965388" lon="11.3991467"><ele>198.0</ele><time>2026-05-01T17:56:27.911Z</time></trkpt><trkpt lat="43.296687" lon="11.3993894"><ele>198.0</ele><time>2026-05-01T17:56:28.904Z</time></trkpt><trkpt lat="43.2968395" lon="11.399633"><ele>198.0</ele><time>2026-05-01T17:56:29.933Z</time></trkpt><trkpt lat="43.2969891" lon="11.3998678"><ele>197.66666666666669</ele><time>2026-05-01T17:56:30.924Z</time></trkpt><trkpt lat="43.2971375" lon="11.4000999"><ele>197.33333333333334</ele><time>2026-05-01T17:56:31.915Z</time></trkpt><trkpt lat="43.2972841" lon="11.4003295"><ele>197.0</ele><time>2026-05-01T17:56:32.899Z</time></trkpt><trkpt lat="43.2974309" lon="11.4005589"><ele>194.66666666666669</ele><time>2026-05-01T17:56:33.908Z</time></trkpt><trkpt lat="43.2975759" lon="11.4007884"><ele>192.33333333333334</ele><time>2026-05-01T17:56:34.919Z</time></trkpt><trkpt lat="43.29772" lon="11.4010152"><ele>190.0</ele><time>2026-05-01T17:56:35.91Z</time></trkpt><trkpt lat="43.2978647" lon="11.4012402"><ele>190.33333333333334</ele><time>2026-05-01T17:56:36.911Z</time></trkpt><trkpt lat="43.2980051" lon="11.4014594"><ele>190.66666666666666</ele><time>2026-05-01T17:56:37.908Z</time></trkpt><trkpt lat="43.2981408" lon="11.4016718"><ele>191.0</ele><time>2026-05-01T17:56:38.897Z</time></trkpt><trkpt lat="43.2982727" lon="11.4018798"><ele>191.0</ele><time>2026-05-01T17:56:39.917Z</time></trkpt><trkpt lat="43.2983948" lon="11.4020795"><ele>191.0</ele><time>2026-05-01T17:56:40.911Z</time></trkpt><trkpt lat="43.298508" lon="11.4022773"><ele>191.0</ele><time>2026-05-01T17:56:41.923Z</time></trkpt><trkpt lat="43.2986159" lon="11.4024653"><ele>188.66666666666666</ele><time>2026-05-01T17:56:42.919Z</time></trkpt><trkpt lat="43.2987226" lon="11.4026437"><ele>186.33333333333334</ele><time>2026-05-01T17:56:43.927Z</time></trkpt><trkpt lat="43.298826" lon="11.4028095"><ele>184.0</ele><time>2026-05-01T17:56:44.923Z</time></trkpt><trkpt lat="43.2989255" lon="11.4029646"><ele>183.75</ele><time>2026-05-01T17:56:45.898Z</time></trkpt><trkpt lat="43.2990222" lon="11.403114"><ele>183.5</ele><time>2026-05-01T17:56:46.91Z</time></trkpt><trkpt lat="43.2991103" lon="11.4032541"><ele>183.25</ele><time>2026-05-01T17:56:47.9Z</time></trkpt><trkpt lat="43.2991897" lon="11.4033911"><ele>183.0</ele><time>2026-05-01T17:56:48.915Z</time></trkpt><trkpt lat="43.2992523" lon="11.4035289"><ele>183.0</ele><time>2026-05-01T17:56:49.899Z</time></trkpt><trkpt lat="43.2992919" lon="11.4036745"><ele>183.0</ele><time>2026-05-01T17:56:50.905Z</time></trkpt><trkpt lat="43.2993023" lon="11.403823"><ele>183.0</ele><time>2026-05-01T17:56:51.908Z</time></trkpt><trkpt lat="43.2992847" lon="11.403972"><ele>183.0</ele><time>2026-05-01T17:56:52.912Z</time></trkpt><trkpt lat="43.2992323" lon="11.4041119"><ele>183.0</ele><time>2026-05-01T17:56:53.917Z</time></trkpt><trkpt lat="43.2991603" lon="11.4042311"><ele>182.60000000000002</ele><time>2026-05-01T17:56:54.914Z</time></trkpt><trkpt lat="43.2990681" lon="11.4043197"><ele>182.20000000000002</ele><time>2026-05-01T17:56:55.914Z</time></trkpt><trkpt lat="43.2989627" lon="11.4043727"><ele>181.8</ele><time>2026-05-01T17:56:56.9Z</time></trkpt><trkpt lat="43.2988511" lon="11.4043863"><ele>181.4</ele><time>2026-05-01T17:56:57.916Z</time></trkpt><trkpt lat="43.2987412" lon="11.4043565"><ele>181.0</ele><time>2026-05-01T17:56:58.905Z</time></trkpt><trkpt lat="43.2986394" lon="11.4042943"><ele>181.0</ele><time>2026-05-01T17:56:59.914Z</time></trkpt><trkpt lat="43.2985515" lon="11.4041992"><ele>181.0</ele><time>2026-05-01T17:57:00.916Z</time></trkpt><trkpt lat="43.2984819" lon="11.4040679"><ele>181.0</ele><time>2026-05-01T17:57:01.915Z</time></trkpt><trkpt lat="43.298427" lon="11.4039262"><ele>181.0</ele><time>2026-05-01T17:57:02.913Z</time></trkpt><trkpt lat="43.2983897" lon="11.403784"><ele>181.0</ele><time>2026-05-01T17:57:03.911Z</time></trkpt><trkpt lat="43.2983598" lon="11.4036483"><ele>181.0</ele><time>2026-05-01T17:57:04.903Z</time></trkpt><trkpt lat="43.2983568" lon="11.4035346"><ele>181.0</ele><time>2026-05-01T17:57:05.909Z</time></trkpt><trkpt lat="43.2983731" lon="11.4034302"><ele>181.0</ele><time>2026-05-01T17:57:06.921Z</time></trkpt><trkpt lat="43.2984063" lon="11.4033426"><ele>181.0</ele><time>2026-05-01T17:57:07.895Z</time></trkpt><trkpt lat="43.2984466" lon="11.4032629"><ele>181.0</ele><time>2026-05-01T17:57:08.909Z</time></trkpt><trkpt lat="43.2984789" lon="11.4031854"><ele>181.0</ele><time>2026-05-01T17:57:09.904Z</time></trkpt><trkpt lat="43.298476" lon="11.4030412"><ele>181.0</ele><time>2026-05-01T17:57:11.933Z</time></trkpt><trkpt lat="43.2983802" lon="11.4029543"><ele>181.0</ele><time>2026-05-01T17:57:13.902Z</time></trkpt><trkpt lat="43.298312" lon="11.4029442"><ele>181.0</ele><time>2026-05-01T17:57:14.912Z</time></trkpt><trkpt lat="43.2982381" lon="11.4029459"><ele>181.0</ele><time>2026-05-01T17:57:15.897Z</time></trkpt><trkpt lat="43.2981554" lon="11.4029391"><ele>181.0</ele><time>2026-05-01T17:57:16.893Z</time></trkpt><trkpt lat="43.298062" lon="11.402914"><ele>181.0</ele><time>2026-05-01T17:57:17.914Z</time></trkpt><trkpt lat="43.2979596" lon="11.4028708"><ele>181.0</ele><time>2026-05-01T17:57:18.917Z</time></trkpt><trkpt lat="43.2978496" lon="11.4028201"><ele>181.0</ele><time>2026-05-01T17:57:19.908Z</time></trkpt><trkpt lat="43.297729" lon="11.4027789"><ele>181.0</ele><time>2026-05-01T17:57:20.916Z</time></trkpt><trkpt lat="43.2975999" lon="11.4027577"><ele>181.0</ele><time>2026-05-01T17:57:21.905Z</time></trkpt><trkpt lat="43.2974622" lon="11.402748"><ele>181.0</ele><time>2026-05-01T17:57:22.91Z</time></trkpt><trkpt lat="43.2973184" lon="11.4027427"><ele>181.0</ele><time>2026-05-01T17:57:23.93Z</time></trkpt><trkpt lat="43.2971721" lon="11.4027373"><ele>181.0</ele><time>2026-05-01T17:57:24.919Z</time></trkpt><trkpt lat="43.2970222" lon="11.4027315"><ele>181.75</ele><time>2026-05-01T17:57:25.91Z</time></trkpt><trkpt lat="43.2968748" lon="11.4027234"><ele>182.5</ele><time>2026-05-01T17:57:26.915Z</time></trkpt><trkpt lat="43.2967355" lon="11.402716"><ele>183.25</ele><time>2026-05-01T17:57:27.926Z</time></trkpt><trkpt lat="43.2966049" lon="11.4027111"><ele>184.0</ele><time>2026-05-01T17:57:28.91Z</time></trkpt><trkpt lat="43.2964793" lon="11.4027053"><ele>183.39999999999998</ele><time>2026-05-01T17:57:29.916Z</time></trkpt><trkpt lat="43.2963603" lon="11.402692"><ele>182.8</ele><time>2026-05-01T17:57:30.911Z</time></trkpt><trkpt lat="43.2962473" lon="11.4026637"><ele>182.2</ele><time>2026-05-01T17:57:31.927Z</time></trkpt><trkpt lat="43.2961463" lon="11.4026146"><ele>181.60000000000002</ele><time>2026-05-01T17:57:32.913Z</time></trkpt><trkpt lat="43.2960591" lon="11.4025419"><ele>181.0</ele><time>2026-05-01T17:57:33.904Z</time></trkpt><trkpt lat="43.2959889" lon="11.4024468"><ele>181.0</ele><time>2026-05-01T17:57:34.929Z</time></trkpt><trkpt lat="43.2959405" lon="11.4023405"><ele>181.0</ele><time>2026-05-01T17:57:35.919Z</time></trkpt><trkpt lat="43.2959096" lon="11.4022303"><ele>181.0</ele><time>2026-05-01T17:57:36.896Z</time></trkpt><trkpt lat="43.2958834" lon="11.4021215"><ele>181.0</ele><time>2026-05-01T17:57:37.918Z</time></trkpt><trkpt lat="43.2958498" lon="11.4020301"><ele>181.0</ele><time>2026-05-01T17:57:38.919Z</time></trkpt><trkpt lat="43.2958033" lon="11.4019675"><ele>181.0</ele><time>2026-05-01T17:57:39.909Z</time></trkpt><trkpt lat="43.2956906" lon="11.4019508"><ele>180.8</ele><time>2026-05-01T17:57:41.905Z</time></trkpt><trkpt lat="43.2955944" lon="11.4020551"><ele>180.60000000000002</ele><time>2026-05-01T17:57:43.921Z</time></trkpt><trkpt lat="43.2955622" lon="11.4021439"><ele>180.4</ele><time>2026-05-01T17:57:44.91Z</time></trkpt><trkpt lat="43.295532" lon="11.4022455"><ele>180.2</ele><time>2026-05-01T17:57:45.915Z</time></trkpt><trkpt lat="43.2954929" lon="11.4023505"><ele>180.0</ele><time>2026-05-01T17:57:46.916Z</time></trkpt><trkpt lat="43.2954391" lon="11.4024492"><ele>179.6</ele><time>2026-05-01T17:57:47.904Z</time></trkpt><trkpt lat="43.2953703" lon="11.4025427"><ele>179.2</ele><time>2026-05-01T17:57:48.902Z</time></trkpt><trkpt lat="43.2952898" lon="11.4026356"><ele>178.8</ele><time>2026-05-01T17:57:49.918Z</time></trkpt><trkpt lat="43.2952037" lon="11.4027289"><ele>178.4</ele><time>2026-05-01T17:57:50.914Z</time></trkpt><trkpt lat="43.2951178" lon="11.4028225"><ele>178.0</ele><time>2026-05-01T17:57:51.899Z</time></trkpt><trkpt lat="43.2950341" lon="11.4029174"><ele>178.2</ele><time>2026-05-01T17:57:52.923Z</time></trkpt><trkpt lat="43.2949563" lon="11.4030091"><ele>178.4</ele><time>2026-05-01T17:57:53.904Z</time></trkpt><trkpt lat="43.2948854" lon="11.4031079"><ele>178.6</ele><time>2026-05-01T17:57:54.912Z</time></trkpt><trkpt lat="43.2948317" lon="11.403222"><ele>178.79999999999998</ele><time>2026-05-01T17:57:55.911Z</time></trkpt><trkpt lat="43.2948042" lon="11.4033557"><ele>179.0</ele><time>2026-05-01T17:57:56.922Z</time></trkpt><trkpt lat="43.2948072" lon="11.4034993"><ele>179.0</ele><time>2026-05-01T17:57:57.918Z</time></trkpt><trkpt lat="43.2948399" lon="11.4036479"><ele>179.0</ele><time>2026-05-01T17:57:58.917Z</time></trkpt><trkpt lat="43.2948963" lon="11.4037974"><ele>179.0</ele><time>2026-05-01T17:57:59.915Z</time></trkpt><trkpt lat="43.2949654" lon="11.4039483"><ele>179.0</ele><time>2026-05-01T17:58:00.9Z</time></trkpt><trkpt lat="43.2950375" lon="11.4041047"><ele>179.25</ele><time>2026-05-01T17:58:01.91Z</time></trkpt><trkpt lat="43.2951086" lon="11.4042634"><ele>179.5</ele><time>2026-05-01T17:58:02.92Z</time></trkpt><trkpt lat="43.2951809" lon="11.4044221"><ele>179.75</ele><time>2026-05-01T17:58:03.904Z</time></trkpt><trkpt lat="43.2952546" lon="11.4045836"><ele>180.0</ele><time>2026-05-01T17:58:04.892Z</time></trkpt><trkpt lat="43.2953293" lon="11.4047489"><ele>180.0</ele><time>2026-05-01T17:58:05.901Z</time></trkpt><trkpt lat="43.2954037" lon="11.4049158"><ele>180.0</ele><time>2026-05-01T17:58:06.916Z</time></trkpt><trkpt lat="43.2954773" lon="11.4050799"><ele>180.0</ele><time>2026-05-01T17:58:07.921Z</time></trkpt><trkpt lat="43.2955481" lon="11.4052376"><ele>180.0</ele><time>2026-05-01T17:58:08.905Z</time></trkpt><trkpt lat="43.2956138" lon="11.4053902"><ele>180.4</ele><time>2026-05-01T17:58:09.919Z</time></trkpt><trkpt lat="43.2956701" lon="11.405534"><ele>180.8</ele><time>2026-05-01T17:58:10.934Z</time></trkpt><trkpt lat="43.2957147" lon="11.4056669"><ele>181.2</ele><time>2026-05-01T17:58:11.902Z</time></trkpt><trkpt lat="43.2957484" lon="11.4057921"><ele>181.6</ele><time>2026-05-01T17:58:12.906Z</time></trkpt><trkpt lat="43.29577" lon="11.405902"><ele>182.0</ele><time>2026-05-01T17:58:13.881Z</time></trkpt><trkpt lat="43.2957847" lon="11.4060017"><ele>182.0</ele><time>2026-05-01T17:58:14.903Z</time></trkpt><trkpt lat="43.2957965" lon="11.4060987"><ele>182.0</ele><time>2026-05-01T17:58:15.927Z</time></trkpt><trkpt lat="43.2958083" lon="11.4062059"><ele>182.0</ele><time>2026-05-01T17:58:16.907Z</time></trkpt><trkpt lat="43.295822" lon="11.4063309"><ele>182.0</ele><time>2026-05-01T17:58:17.912Z</time></trkpt><trkpt lat="43.2958291" lon="11.4064691"><ele>182.0</ele><time>2026-05-01T17:58:18.887Z</time></trkpt><trkpt lat="43.2958179" lon="11.4066206"><ele>182.5</ele><time>2026-05-01T17:58:19.918Z</time></trkpt><trkpt lat="43.2957881" lon="11.4067711"><ele>183.0</ele><time>2026-05-01T17:58:20.915Z</time></trkpt><trkpt lat="43.2957399" lon="11.4069178"><ele>183.5</ele><time>2026-05-01T17:58:21.898Z</time></trkpt><trkpt lat="43.29568" lon="11.4070617"><ele>184.0</ele><time>2026-05-01T17:58:22.911Z</time></trkpt><trkpt lat="43.2956161" lon="11.4072012"><ele>184.2</ele><time>2026-05-01T17:58:23.921Z</time></trkpt><trkpt lat="43.295553" lon="11.4073388"><ele>184.39999999999998</ele><time>2026-05-01T17:58:24.905Z</time></trkpt><trkpt lat="43.2954909" lon="11.4074773"><ele>184.6</ele><time>2026-05-01T17:58:25.926Z</time></trkpt><trkpt lat="43.2954348" lon="11.4076034"><ele>184.8</ele><time>2026-05-01T17:58:26.899Z</time></trkpt><trkpt lat="43.2953832" lon="11.4077187"><ele>185.0</ele><time>2026-05-01T17:58:27.924Z</time></trkpt><trkpt lat="43.2953379" lon="11.4078178"><ele>184.99999999999997</ele><time>2026-05-01T17:58:28.917Z</time></trkpt><trkpt lat="43.2952967" lon="11.4079063"><ele>185.0</ele><time>2026-05-01T17:58:29.913Z</time></trkpt><trkpt lat="43.2952596" lon="11.407988"><ele>185.0</ele><time>2026-05-01T17:58:30.899Z</time></trkpt><trkpt lat="43.2952254" lon="11.4080666"><ele>185.0</ele><time>2026-05-01T17:58:31.917Z</time></trkpt><trkpt lat="43.2951931" lon="11.4081443"><ele>185.0</ele><time>2026-05-01T17:58:32.909Z</time></trkpt><trkpt lat="43.2951596" lon="11.4082271"><ele>184.99999999999997</ele><time>2026-05-01T17:58:33.913Z</time></trkpt><trkpt lat="43.295129" lon="11.4083135"><ele>185.0</ele><time>2026-05-01T17:58:34.913Z</time></trkpt><trkpt lat="43.2950993" lon="11.4084029"><ele>185.33333333333331</ele><time>2026-05-01T17:58:35.933Z</time></trkpt><trkpt lat="43.2950686" lon="11.4084902"><ele>185.66666666666666</ele><time>2026-05-01T17:58:36.906Z</time></trkpt><trkpt lat="43.2950394" lon="11.4085694"><ele>186.0</ele><time>2026-05-01T17:58:37.926Z</time></trkpt><trkpt lat="43.2949753" lon="11.4087148"><ele>186.33333333333334</ele><time>2026-05-01T17:58:39.92Z</time></trkpt><trkpt lat="43.2949377" lon="11.4087991"><ele>186.66666666666669</ele><time>2026-05-01T17:58:40.908Z</time></trkpt><trkpt lat="43.2948955" lon="11.4088978"><ele>187.0</ele><time>2026-05-01T17:58:41.916Z</time></trkpt><trkpt lat="43.2948544" lon="11.4089998"><ele>187.16666666666669</ele><time>2026-05-01T17:58:42.906Z</time></trkpt><trkpt lat="43.2948141" lon="11.4090993"><ele>187.33333333333334</ele><time>2026-05-01T17:58:43.906Z</time></trkpt><trkpt lat="43.2947776" lon="11.4091885"><ele>187.5</ele><time>2026-05-01T17:58:44.921Z</time></trkpt><trkpt lat="43.2947492" lon="11.4092666"><ele>187.66666666666666</ele><time>2026-05-01T17:58:45.921Z</time></trkpt><trkpt lat="43.2946956" lon="11.4094062"><ele>187.83333333333331</ele><time>2026-05-01T17:58:47.91Z</time></trkpt><trkpt lat="43.2946591" lon="11.4094876"><ele>188.0</ele><time>2026-05-01T17:58:48.916Z</time></trkpt><trkpt lat="43.2946164" lon="11.4095853"><ele>188.2</ele><time>2026-05-01T17:58:49.912Z</time></trkpt><trkpt lat="43.294567" lon="11.4096985"><ele>188.4</ele><time>2026-05-01T17:58:50.918Z</time></trkpt><trkpt lat="43.2945123" lon="11.4098239"><ele>188.6</ele><time>2026-05-01T17:58:51.927Z</time></trkpt><trkpt lat="43.2944531" lon="11.4099583"><ele>188.79999999999998</ele><time>2026-05-01T17:58:52.898Z</time></trkpt><trkpt lat="43.2943924" lon="11.410095"><ele>189.0</ele><time>2026-05-01T17:58:53.886Z</time></trkpt><trkpt lat="43.2943333" lon="11.4102243"><ele>189.0</ele><time>2026-05-01T17:58:54.897Z</time></trkpt><trkpt lat="43.2942776" lon="11.4103448"><ele>189.0</ele><time>2026-05-01T17:58:55.906Z</time></trkpt><trkpt lat="43.2942249" lon="11.4104616"><ele>189.0</ele><time>2026-05-01T17:58:56.895Z</time></trkpt><trkpt lat="43.2941745" lon="11.4105783"><ele>189.0</ele><time>2026-05-01T17:58:57.918Z</time></trkpt><trkpt lat="43.294131" lon="11.4106872"><ele>189.0</ele><time>2026-05-01T17:58:58.916Z</time></trkpt><trkpt lat="43.2940921" lon="11.4107858"><ele>189.16666666666666</ele><time>2026-05-01T17:58:59.91Z</time></trkpt><trkpt lat="43.2940511" lon="11.4108741"><ele>189.33333333333334</ele><time>2026-05-01T17:59:00.914Z</time></trkpt><trkpt lat="43.2940055" lon="11.4109577"><ele>189.5</ele><time>2026-05-01T17:59:01.909Z</time></trkpt><trkpt lat="43.2939542" lon="11.4110339"><ele>189.66666666666669</ele><time>2026-05-01T17:59:02.909Z</time></trkpt><trkpt lat="43.2939046" lon="11.4111107"><ele>189.83333333333334</ele><time>2026-05-01T17:59:03.901Z</time></trkpt><trkpt lat="43.2938668" lon="11.4111971"><ele>190.0</ele><time>2026-05-01T17:59:04.909Z</time></trkpt><trkpt lat="43.2938371" lon="11.4112925"><ele>190.4</ele><time>2026-05-01T17:59:05.936Z</time></trkpt><trkpt lat="43.293801" lon="11.4113899"><ele>190.8</ele><time>2026-05-01T17:59:06.908Z</time></trkpt><trkpt lat="43.2937497" lon="11.4114926"><ele>191.2</ele><time>2026-05-01T17:59:07.909Z</time></trkpt><trkpt lat="43.2936866" lon="11.4116018"><ele>191.6</ele><time>2026-05-01T17:59:08.887Z</time></trkpt><trkpt lat="43.293618" lon="11.4117247"><ele>192.0</ele><time>2026-05-01T17:59:09.92Z</time></trkpt><trkpt lat="43.2935533" lon="11.4118574"><ele>192.0</ele><time>2026-05-01T17:59:10.915Z</time></trkpt><trkpt lat="43.2934926" lon="11.4120013"><ele>192.0</ele><time>2026-05-01T17:59:11.908Z</time></trkpt><trkpt lat="43.2934331" lon="11.412153"><ele>192.0</ele><time>2026-05-01T17:59:12.927Z</time></trkpt><trkpt lat="43.2933748" lon="11.4123018"><ele>192.0</ele><time>2026-05-01T17:59:13.906Z</time></trkpt><trkpt lat="43.293317" lon="11.4124503"><ele>192.75</ele><time>2026-05-01T17:59:14.918Z</time></trkpt><trkpt lat="43.2932613" lon="11.4125938"><ele>193.5</ele><time>2026-05-01T17:59:15.902Z</time></trkpt><trkpt lat="43.2932036" lon="11.412739"><ele>194.25</ele><time>2026-05-01T17:59:16.917Z</time></trkpt><trkpt lat="43.2931445" lon="11.4128869"><ele>195.0</ele><time>2026-05-01T17:59:17.925Z</time></trkpt><trkpt lat="43.2930855" lon="11.4130364"><ele>196.2</ele><time>2026-05-01T17:59:18.91Z</time></trkpt><trkpt lat="43.2930259" lon="11.4131866"><ele>197.4</ele><time>2026-05-01T17:59:19.906Z</time></trkpt><trkpt lat="43.2929738" lon="11.4133231"><ele>198.60000000000002</ele><time>2026-05-01T17:59:20.899Z</time></trkpt><trkpt lat="43.2929279" lon="11.4134458"><ele>199.8</ele><time>2026-05-01T17:59:21.923Z</time></trkpt><trkpt lat="43.2928842" lon="11.4135515"><ele>201.0</ele><time>2026-05-01T17:59:22.892Z</time></trkpt><trkpt lat="43.2928345" lon="11.4136345"><ele>201.0</ele><time>2026-05-01T17:59:23.922Z</time></trkpt><trkpt lat="43.2927751" lon="11.4136856"><ele>201.0</ele><time>2026-05-01T17:59:24.9Z</time></trkpt><trkpt lat="43.2927104" lon="11.4137038"><ele>201.0</ele><time>2026-05-01T17:59:25.915Z</time></trkpt><trkpt lat="43.2926451" lon="11.4136886"><ele>201.0</ele><time>2026-05-01T17:59:26.904Z</time></trkpt><trkpt lat="43.2925854" lon="11.4136441"><ele>201.0</ele><time>2026-05-01T17:59:27.896Z</time></trkpt><trkpt lat="43.2925352" lon="11.4135804"><ele>201.0</ele><time>2026-05-01T17:59:28.905Z</time></trkpt><trkpt lat="43.2924932" lon="11.4135066"><ele>201.0</ele><time>2026-05-01T17:59:29.9Z</time></trkpt><trkpt lat="43.292454" lon="11.4134256"><ele>201.0</ele><time>2026-05-01T17:59:30.906Z</time></trkpt><trkpt lat="43.292415" lon="11.4133345"><ele>201.0</ele><time>2026-05-01T17:59:31.914Z</time></trkpt><trkpt lat="43.2923748" lon="11.4132336"><ele>201.0</ele><time>2026-05-01T17:59:32.93Z</time></trkpt><trkpt lat="43.2923312" lon="11.4131248"><ele>201.0</ele><time>2026-05-01T17:59:33.894Z</time></trkpt><trkpt lat="43.2922851" lon="11.4130074"><ele>201.0</ele><time>2026-05-01T17:59:34.905Z</time></trkpt><trkpt lat="43.2922346" lon="11.4128809"><ele>203.0</ele><time>2026-05-01T17:59:35.92Z</time></trkpt><trkpt lat="43.292179" lon="11.4127489"><ele>205.0</ele><time>2026-05-01T17:59:36.899Z</time></trkpt><trkpt lat="43.2921185" lon="11.4126134"><ele>207.0</ele><time>2026-05-01T17:59:37.909Z</time></trkpt><trkpt lat="43.2920539" lon="11.4124734"><ele>209.0</ele><time>2026-05-01T17:59:38.922Z</time></trkpt><trkpt lat="43.2919885" lon="11.4123327"><ele>209.0</ele><time>2026-05-01T17:59:39.913Z</time></trkpt><trkpt lat="43.2919246" lon="11.4121945"><ele>209.0</ele><time>2026-05-01T17:59:40.918Z</time></trkpt><trkpt lat="43.2918614" lon="11.4120606"><ele>209.0</ele><time>2026-05-01T17:59:41.922Z</time></trkpt><trkpt lat="43.2918007" lon="11.4119353"><ele>209.0</ele><time>2026-05-01T17:59:42.908Z</time></trkpt><trkpt lat="43.2917433" lon="11.4118196"><ele>209.0</ele><time>2026-05-01T17:59:43.906Z</time></trkpt><trkpt lat="43.2916893" lon="11.4117092"><ele>208.33333333333334</ele><time>2026-05-01T17:59:44.907Z</time></trkpt><trkpt lat="43.2916373" lon="11.4115988"><ele>207.66666666666669</ele><time>2026-05-01T17:59:45.895Z</time></trkpt><trkpt lat="43.29159" lon="11.4114944"><ele>207.0</ele><time>2026-05-01T17:59:46.906Z</time></trkpt><trkpt lat="43.2915465" lon="11.4113964"><ele>206.33333333333331</ele><time>2026-05-01T17:59:47.914Z</time></trkpt><trkpt lat="43.2915059" lon="11.4113063"><ele>205.66666666666666</ele><time>2026-05-01T17:59:48.906Z</time></trkpt><trkpt lat="43.2914702" lon="11.4112335"><ele>205.0</ele><time>2026-05-01T17:59:49.913Z</time></trkpt><trkpt lat="43.2913958" lon="11.4111537"><ele>204.99999999999997</ele><time>2026-05-01T17:59:51.909Z</time></trkpt><trkpt lat="43.2913198" lon="11.4111597"><ele>205.0</ele><time>2026-05-01T17:59:53.912Z</time></trkpt><trkpt lat="43.2912562" lon="11.4112344"><ele>205.0</ele><time>2026-05-01T17:59:55.932Z</time></trkpt><trkpt lat="43.2912147" lon="11.4113532"><ele>205.0</ele><time>2026-05-01T17:59:57.929Z</time></trkpt><trkpt lat="43.2911905" lon="11.4114759"><ele>204.99999999999997</ele><time>2026-05-01T17:59:59.923Z</time></trkpt><trkpt lat="43.2912133" lon="11.4115793"><ele>205.0</ele><time>2026-05-01T18:00:01.893Z</time></trkpt><trkpt lat="43.2912667" lon="11.4116867"><ele>215.0</ele><time>2026-05-01T18:00:03.898Z</time></trkpt><trkpt lat="43.2913176" lon="11.4117897"><ele>215.0</ele><time>2026-05-01T18:00:05.919Z</time></trkpt><trkpt lat="43.2913533" lon="11.4118722"><ele>215.0</ele><time>2026-05-01T18:00:07.92Z</time></trkpt><trkpt lat="43.2913863" lon="11.4119486"><ele>215.0</ele><time>2026-05-01T18:00:10.914Z</time></trkpt></trkseg></trk></gpx>